<?xml version="1.0" encoding="UTF-8" standalone="no" ?>
<gpx xmlns="http://www.topografix.com/GPX/1/1" xmlns:xsi="http://www.w3.org/2001/XMLSchema-instance" xsi:schemaLocation="http://www.topografix.com/GPX/1/1 http://www.topografix.com/GPX/1/1/gpx.xsd" version="1.1" creator="VisuGPX - https://www.visugpx.com">
  <metadata>
    <name>9564391-2019 j3 expert</name>
  </metadata>
  <trk>
    <name><![CDATA[9564391-2019 j3 expert]]></name>
    <trkseg>
      <trkpt lat="46.07826" lon="6.72632">
        <ele>706</ele>
        <time>2019-06-11T14:32:10Z</time>
      </trkpt>
      <trkpt lat="46.07863" lon="6.72539">
        <ele>703</ele>
        <time>2019-06-11T14:32:23Z</time>
      </trkpt>
      <trkpt lat="46.07809" lon="6.72494">
        <ele>702</ele>
        <time>2019-06-11T14:32:34Z</time>
      </trkpt>
      <trkpt lat="46.07797" lon="6.72476">
        <ele>701</ele>
        <time>2019-06-11T14:32:37Z</time>
      </trkpt>
      <trkpt lat="46.07791" lon="6.7246">
        <ele>701</ele>
        <time>2019-06-11T14:32:40Z</time>
      </trkpt>
      <trkpt lat="46.07665" lon="6.72013">
        <ele>700</ele>
        <time>2019-06-11T14:33:39Z</time>
      </trkpt>
      <trkpt lat="46.07663" lon="6.71998">
        <ele>700</ele>
        <time>2019-06-11T14:33:41Z</time>
      </trkpt>
      <trkpt lat="46.07664" lon="6.71979">
        <ele>700</ele>
        <time>2019-06-11T14:33:43Z</time>
      </trkpt>
      <trkpt lat="46.07682" lon="6.71945">
        <ele>698</ele>
        <time>2019-06-11T14:33:49Z</time>
      </trkpt>
      <trkpt lat="46.07688" lon="6.71938">
        <ele>698</ele>
        <time>2019-06-11T14:33:50Z</time>
      </trkpt>
      <trkpt lat="46.07693" lon="6.71936">
        <ele>697</ele>
        <time>2019-06-11T14:33:51Z</time>
      </trkpt>
      <trkpt lat="46.07698" lon="6.7193">
        <ele>697</ele>
        <time>2019-06-11T14:33:52Z</time>
      </trkpt>
      <trkpt lat="46.07699" lon="6.71923">
        <ele>697</ele>
        <time>2019-06-11T14:33:53Z</time>
      </trkpt>
      <trkpt lat="46.07698" lon="6.71916">
        <ele>697</ele>
        <time>2019-06-11T14:33:54Z</time>
      </trkpt>
      <trkpt lat="46.07691" lon="6.71907">
        <ele>697</ele>
        <time>2019-06-11T14:33:56Z</time>
      </trkpt>
      <trkpt lat="46.07685" lon="6.71908">
        <ele>697</ele>
        <time>2019-06-11T14:33:57Z</time>
      </trkpt>
      <trkpt lat="46.07672" lon="6.71902">
        <ele>698</ele>
        <time>2019-06-11T14:33:59Z</time>
      </trkpt>
      <trkpt lat="46.07644" lon="6.71882">
        <ele>707</ele>
        <time>2019-06-11T14:34:05Z</time>
      </trkpt>
      <trkpt lat="46.07601" lon="6.71841">
        <ele>725</ele>
        <time>2019-06-11T14:34:14Z</time>
      </trkpt>
      <trkpt lat="46.07598" lon="6.71835">
        <ele>727</ele>
        <time>2019-06-11T14:34:15Z</time>
      </trkpt>
      <trkpt lat="46.07594" lon="6.7182">
        <ele>730</ele>
        <time>2019-06-11T14:34:17Z</time>
      </trkpt>
      <trkpt lat="46.07596" lon="6.71789">
        <ele>734</ele>
        <time>2019-06-11T14:34:21Z</time>
      </trkpt>
      <trkpt lat="46.07649" lon="6.71453">
        <ele>718</ele>
        <time>2019-06-11T14:35:03Z</time>
      </trkpt>
      <trkpt lat="46.0772" lon="6.70983">
        <ele>719</ele>
        <time>2019-06-11T14:36:02Z</time>
      </trkpt>
      <trkpt lat="46.07741" lon="6.70858">
        <ele>708</ele>
        <time>2019-06-11T14:36:18Z</time>
      </trkpt>
      <trkpt lat="46.07982" lon="6.69814">
        <ele>687</ele>
        <time>2019-06-11T14:38:34Z</time>
      </trkpt>
      <trkpt lat="46.0805" lon="6.6954">
        <ele>685</ele>
        <time>2019-06-11T14:39:10Z</time>
      </trkpt>
      <trkpt lat="46.08109" lon="6.69288">
        <ele>695</ele>
        <time>2019-06-11T14:39:43Z</time>
      </trkpt>
      <trkpt lat="46.0814" lon="6.69168">
        <ele>701</ele>
        <time>2019-06-11T14:39:59Z</time>
      </trkpt>
      <trkpt lat="46.08148" lon="6.69132">
        <ele>702</ele>
        <time>2019-06-11T14:40:03Z</time>
      </trkpt>
      <trkpt lat="46.08165" lon="6.69035">
        <ele>704</ele>
        <time>2019-06-11T14:40:16Z</time>
      </trkpt>
      <trkpt lat="46.08172" lon="6.68979">
        <ele>703</ele>
        <time>2019-06-11T14:40:23Z</time>
      </trkpt>
      <trkpt lat="46.08179" lon="6.68846">
        <ele>694</ele>
        <time>2019-06-11T14:40:39Z</time>
      </trkpt>
      <trkpt lat="46.08177" lon="6.68803">
        <ele>693</ele>
        <time>2019-06-11T14:40:45Z</time>
      </trkpt>
      <trkpt lat="46.08163" lon="6.68693">
        <ele>694</ele>
        <time>2019-06-11T14:40:58Z</time>
      </trkpt>
      <trkpt lat="46.08136" lon="6.68498">
        <ele>694</ele>
        <time>2019-06-11T14:41:23Z</time>
      </trkpt>
      <trkpt lat="46.08134" lon="6.68476">
        <ele>694</ele>
        <time>2019-06-11T14:41:26Z</time>
      </trkpt>
      <trkpt lat="46.08135" lon="6.68451">
        <ele>694</ele>
        <time>2019-06-11T14:41:29Z</time>
      </trkpt>
      <trkpt lat="46.0814" lon="6.68395">
        <ele>692</ele>
        <time>2019-06-11T14:41:36Z</time>
      </trkpt>
      <trkpt lat="46.08155" lon="6.68305">
        <ele>689</ele>
        <time>2019-06-11T14:41:47Z</time>
      </trkpt>
      <trkpt lat="46.08163" lon="6.68227">
        <ele>687</ele>
        <time>2019-06-11T14:41:57Z</time>
      </trkpt>
      <trkpt lat="46.08165" lon="6.68185">
        <ele>687</ele>
        <time>2019-06-11T14:42:02Z</time>
      </trkpt>
      <trkpt lat="46.08168" lon="6.68152">
        <ele>687</ele>
        <time>2019-06-11T14:42:06Z</time>
      </trkpt>
      <trkpt lat="46.08191" lon="6.68062">
        <ele>686</ele>
        <time>2019-06-11T14:42:18Z</time>
      </trkpt>
      <trkpt lat="46.08212" lon="6.68008">
        <ele>684</ele>
        <time>2019-06-11T14:42:26Z</time>
      </trkpt>
      <trkpt lat="46.08245" lon="6.67892">
        <ele>684</ele>
        <time>2019-06-11T14:42:41Z</time>
      </trkpt>
      <trkpt lat="46.08308" lon="6.67751">
        <ele>686</ele>
        <time>2019-06-11T14:43:02Z</time>
      </trkpt>
      <trkpt lat="46.08326" lon="6.67748">
        <ele>685</ele>
        <time>2019-06-11T14:43:05Z</time>
      </trkpt>
      <trkpt lat="46.08341" lon="6.67755">
        <ele>684</ele>
        <time>2019-06-11T14:43:08Z</time>
      </trkpt>
      <trkpt lat="46.08395" lon="6.67879">
        <ele>675</ele>
        <time>2019-06-11T14:43:26Z</time>
      </trkpt>
      <trkpt lat="46.08416" lon="6.6791">
        <ele>673</ele>
        <time>2019-06-11T14:43:31Z</time>
      </trkpt>
      <trkpt lat="46.08432" lon="6.67918">
        <ele>672</ele>
        <time>2019-06-11T14:43:34Z</time>
      </trkpt>
      <trkpt lat="46.08451" lon="6.67915">
        <ele>671</ele>
        <time>2019-06-11T14:43:38Z</time>
      </trkpt>
      <trkpt lat="46.08496" lon="6.67885">
        <ele>667</ele>
        <time>2019-06-11T14:43:46Z</time>
      </trkpt>
      <trkpt lat="46.08515" lon="6.67871">
        <ele>667</ele>
        <time>2019-06-11T14:43:50Z</time>
      </trkpt>
      <trkpt lat="46.08537" lon="6.67863">
        <ele>667</ele>
        <time>2019-06-11T14:43:54Z</time>
      </trkpt>
      <trkpt lat="46.0857" lon="6.67861">
        <ele>668</ele>
        <time>2019-06-11T14:44:00Z</time>
      </trkpt>
      <trkpt lat="46.0874" lon="6.67886">
        <ele>670</ele>
        <time>2019-06-11T14:44:31Z</time>
      </trkpt>
      <trkpt lat="46.089" lon="6.67913">
        <ele>670</ele>
        <time>2019-06-11T14:44:59Z</time>
      </trkpt>
      <trkpt lat="46.08922" lon="6.67929">
        <ele>671</ele>
        <time>2019-06-11T14:45:04Z</time>
      </trkpt>
      <trkpt lat="46.08921" lon="6.67933">
        <ele>671</ele>
        <time>2019-06-11T14:45:04Z</time>
      </trkpt>
      <trkpt lat="46.0892" lon="6.67942">
        <ele>672</ele>
        <time>2019-06-11T14:45:05Z</time>
      </trkpt>
      <trkpt lat="46.08924" lon="6.67949">
        <ele>672</ele>
        <time>2019-06-11T14:45:06Z</time>
      </trkpt>
      <trkpt lat="46.08927" lon="6.6795">
        <ele>672</ele>
        <time>2019-06-11T14:45:07Z</time>
      </trkpt>
      <trkpt lat="46.08926" lon="6.6797">
        <ele>673</ele>
        <time>2019-06-11T14:45:09Z</time>
      </trkpt>
      <trkpt lat="46.08858" lon="6.687">
        <ele>685</ele>
        <time>2019-06-11T14:46:40Z</time>
      </trkpt>
      <trkpt lat="46.08877" lon="6.68716">
        <ele>685</ele>
        <time>2019-06-11T14:46:44Z</time>
      </trkpt>
      <trkpt lat="46.08959" lon="6.68796">
        <ele>684</ele>
        <time>2019-06-11T14:47:02Z</time>
      </trkpt>
      <trkpt lat="46.08979" lon="6.68813">
        <ele>685</ele>
        <time>2019-06-11T14:47:06Z</time>
      </trkpt>
      <trkpt lat="46.09048" lon="6.68863">
        <ele>688</ele>
        <time>2019-06-11T14:47:20Z</time>
      </trkpt>
      <trkpt lat="46.09098" lon="6.68916">
        <ele>691</ele>
        <time>2019-06-11T14:47:31Z</time>
      </trkpt>
      <trkpt lat="46.09122" lon="6.68954">
        <ele>694</ele>
        <time>2019-06-11T14:47:37Z</time>
      </trkpt>
      <trkpt lat="46.09127" lon="6.68966">
        <ele>695</ele>
        <time>2019-06-11T14:47:39Z</time>
      </trkpt>
      <trkpt lat="46.09132" lon="6.68985">
        <ele>697</ele>
        <time>2019-06-11T14:47:41Z</time>
      </trkpt>
      <trkpt lat="46.09136" lon="6.69014">
        <ele>700</ele>
        <time>2019-06-11T14:47:45Z</time>
      </trkpt>
      <trkpt lat="46.09138" lon="6.69048">
        <ele>705</ele>
        <time>2019-06-11T14:47:49Z</time>
      </trkpt>
      <trkpt lat="46.09137" lon="6.69064">
        <ele>708</ele>
        <time>2019-06-11T14:47:51Z</time>
      </trkpt>
      <trkpt lat="46.09133" lon="6.69078">
        <ele>709</ele>
        <time>2019-06-11T14:47:53Z</time>
      </trkpt>
      <trkpt lat="46.09123" lon="6.69095">
        <ele>711</ele>
        <time>2019-06-11T14:47:56Z</time>
      </trkpt>
      <trkpt lat="46.09115" lon="6.69117">
        <ele>712</ele>
        <time>2019-06-11T14:47:59Z</time>
      </trkpt>
      <trkpt lat="46.09111" lon="6.69139">
        <ele>714</ele>
        <time>2019-06-11T14:48:02Z</time>
      </trkpt>
      <trkpt lat="46.09107" lon="6.69216">
        <ele>721</ele>
        <time>2019-06-11T14:48:11Z</time>
      </trkpt>
      <trkpt lat="46.09104" lon="6.69239">
        <ele>722</ele>
        <time>2019-06-11T14:48:14Z</time>
      </trkpt>
      <trkpt lat="46.09106" lon="6.6928">
        <ele>727</ele>
        <time>2019-06-11T14:48:19Z</time>
      </trkpt>
      <trkpt lat="46.09104" lon="6.69305">
        <ele>730</ele>
        <time>2019-06-11T14:48:22Z</time>
      </trkpt>
      <trkpt lat="46.09097" lon="6.6934">
        <ele>734</ele>
        <time>2019-06-11T14:48:27Z</time>
      </trkpt>
      <trkpt lat="46.09094" lon="6.69348">
        <ele>735</ele>
        <time>2019-06-11T14:48:28Z</time>
      </trkpt>
      <trkpt lat="46.09087" lon="6.69359">
        <ele>735</ele>
        <time>2019-06-11T14:48:30Z</time>
      </trkpt>
      <trkpt lat="46.09079" lon="6.69363">
        <ele>735</ele>
        <time>2019-06-11T14:48:31Z</time>
      </trkpt>
      <trkpt lat="46.09069" lon="6.69359">
        <ele>734</ele>
        <time>2019-06-11T14:48:33Z</time>
      </trkpt>
      <trkpt lat="46.09056" lon="6.69348">
        <ele>732</ele>
        <time>2019-06-11T14:48:36Z</time>
      </trkpt>
      <trkpt lat="46.09048" lon="6.69348">
        <ele>731</ele>
        <time>2019-06-11T14:48:37Z</time>
      </trkpt>
      <trkpt lat="46.09045" lon="6.69351">
        <ele>731</ele>
        <time>2019-06-11T14:48:38Z</time>
      </trkpt>
      <trkpt lat="46.09035" lon="6.69372">
        <ele>732</ele>
        <time>2019-06-11T14:48:41Z</time>
      </trkpt>
      <trkpt lat="46.09027" lon="6.69402">
        <ele>734</ele>
        <time>2019-06-11T14:48:45Z</time>
      </trkpt>
      <trkpt lat="46.09019" lon="6.69449">
        <ele>736</ele>
        <time>2019-06-11T14:48:51Z</time>
      </trkpt>
      <trkpt lat="46.09019" lon="6.69455">
        <ele>736</ele>
        <time>2019-06-11T14:48:52Z</time>
      </trkpt>
      <trkpt lat="46.09025" lon="6.69487">
        <ele>739</ele>
        <time>2019-06-11T14:48:56Z</time>
      </trkpt>
      <trkpt lat="46.09033" lon="6.69509">
        <ele>741</ele>
        <time>2019-06-11T14:48:59Z</time>
      </trkpt>
      <trkpt lat="46.09039" lon="6.69534">
        <ele>742</ele>
        <time>2019-06-11T14:49:02Z</time>
      </trkpt>
      <trkpt lat="46.09052" lon="6.69629">
        <ele>752</ele>
        <time>2019-06-11T14:49:14Z</time>
      </trkpt>
      <trkpt lat="46.09057" lon="6.69657">
        <ele>756</ele>
        <time>2019-06-11T14:49:18Z</time>
      </trkpt>
      <trkpt lat="46.09058" lon="6.69669">
        <ele>758</ele>
        <time>2019-06-11T14:49:19Z</time>
      </trkpt>
      <trkpt lat="46.09047" lon="6.69708">
        <ele>758</ele>
        <time>2019-06-11T14:49:24Z</time>
      </trkpt>
      <trkpt lat="46.09046" lon="6.69723">
        <ele>759</ele>
        <time>2019-06-11T14:49:26Z</time>
      </trkpt>
      <trkpt lat="46.09055" lon="6.69793">
        <ele>764</ele>
        <time>2019-06-11T14:49:35Z</time>
      </trkpt>
      <trkpt lat="46.09061" lon="6.69848">
        <ele>767</ele>
        <time>2019-06-11T14:49:42Z</time>
      </trkpt>
      <trkpt lat="46.09071" lon="6.69915">
        <ele>773</ele>
        <time>2019-06-11T14:49:50Z</time>
      </trkpt>
      <trkpt lat="46.0908" lon="6.7001">
        <ele>779</ele>
        <time>2019-06-11T14:50:02Z</time>
      </trkpt>
      <trkpt lat="46.09098" lon="6.70112">
        <ele>784</ele>
        <time>2019-06-11T14:50:15Z</time>
      </trkpt>
      <trkpt lat="46.09103" lon="6.70192">
        <ele>788</ele>
        <time>2019-06-11T14:50:25Z</time>
      </trkpt>
      <trkpt lat="46.09111" lon="6.70256">
        <ele>793</ele>
        <time>2019-06-11T14:50:33Z</time>
      </trkpt>
      <trkpt lat="46.09112" lon="6.70283">
        <ele>796</ele>
        <time>2019-06-11T14:50:36Z</time>
      </trkpt>
      <trkpt lat="46.09109" lon="6.70296">
        <ele>797</ele>
        <time>2019-06-11T14:50:38Z</time>
      </trkpt>
      <trkpt lat="46.09101" lon="6.70319">
        <ele>798</ele>
        <time>2019-06-11T14:50:41Z</time>
      </trkpt>
      <trkpt lat="46.09099" lon="6.70332">
        <ele>799</ele>
        <time>2019-06-11T14:50:43Z</time>
      </trkpt>
      <trkpt lat="46.09113" lon="6.70394">
        <ele>804</ele>
        <time>2019-06-11T14:50:51Z</time>
      </trkpt>
      <trkpt lat="46.09115" lon="6.70425">
        <ele>806</ele>
        <time>2019-06-11T14:50:55Z</time>
      </trkpt>
      <trkpt lat="46.09117" lon="6.70438">
        <ele>807</ele>
        <time>2019-06-11T14:50:56Z</time>
      </trkpt>
      <trkpt lat="46.09135" lon="6.70465">
        <ele>810</ele>
        <time>2019-06-11T14:51:01Z</time>
      </trkpt>
      <trkpt lat="46.09147" lon="6.70478">
        <ele>813</ele>
        <time>2019-06-11T14:51:04Z</time>
      </trkpt>
      <trkpt lat="46.09159" lon="6.70485">
        <ele>816</ele>
        <time>2019-06-11T14:51:06Z</time>
      </trkpt>
      <trkpt lat="46.09172" lon="6.70489">
        <ele>818</ele>
        <time>2019-06-11T14:51:08Z</time>
      </trkpt>
      <trkpt lat="46.09182" lon="6.7049">
        <ele>820</ele>
        <time>2019-06-11T14:51:10Z</time>
      </trkpt>
      <trkpt lat="46.09202" lon="6.7048">
        <ele>823</ele>
        <time>2019-06-11T14:51:14Z</time>
      </trkpt>
      <trkpt lat="46.09205" lon="6.70481">
        <ele>824</ele>
        <time>2019-06-11T14:51:14Z</time>
      </trkpt>
      <trkpt lat="46.09211" lon="6.70486">
        <ele>825</ele>
        <time>2019-06-11T14:51:16Z</time>
      </trkpt>
      <trkpt lat="46.09218" lon="6.70507">
        <ele>827</ele>
        <time>2019-06-11T14:51:19Z</time>
      </trkpt>
      <trkpt lat="46.09231" lon="6.70571">
        <ele>834</ele>
        <time>2019-06-11T14:51:27Z</time>
      </trkpt>
      <trkpt lat="46.09251" lon="6.7063">
        <ele>841</ele>
        <time>2019-06-11T14:51:35Z</time>
      </trkpt>
      <trkpt lat="46.09264" lon="6.70619">
        <ele>843</ele>
        <time>2019-06-11T14:51:38Z</time>
      </trkpt>
      <trkpt lat="46.09271" lon="6.70607">
        <ele>844</ele>
        <time>2019-06-11T14:51:39Z</time>
      </trkpt>
      <trkpt lat="46.09288" lon="6.70551">
        <ele>844</ele>
        <time>2019-06-11T14:51:47Z</time>
      </trkpt>
      <trkpt lat="46.09313" lon="6.70491">
        <ele>846</ele>
        <time>2019-06-11T14:51:56Z</time>
      </trkpt>
      <trkpt lat="46.09314" lon="6.70468">
        <ele>846</ele>
        <time>2019-06-11T14:51:59Z</time>
      </trkpt>
      <trkpt lat="46.09303" lon="6.70425">
        <ele>844</ele>
        <time>2019-06-11T14:52:04Z</time>
      </trkpt>
      <trkpt lat="46.09302" lon="6.70407">
        <ele>843</ele>
        <time>2019-06-11T14:52:06Z</time>
      </trkpt>
      <trkpt lat="46.09308" lon="6.70385">
        <ele>845</ele>
        <time>2019-06-11T14:52:09Z</time>
      </trkpt>
      <trkpt lat="46.09324" lon="6.70345">
        <ele>851</ele>
        <time>2019-06-11T14:52:15Z</time>
      </trkpt>
      <trkpt lat="46.09328" lon="6.70329">
        <ele>853</ele>
        <time>2019-06-11T14:52:17Z</time>
      </trkpt>
      <trkpt lat="46.09333" lon="6.70257">
        <ele>852</ele>
        <time>2019-06-11T14:52:26Z</time>
      </trkpt>
      <trkpt lat="46.09337" lon="6.70241">
        <ele>851</ele>
        <time>2019-06-11T14:52:28Z</time>
      </trkpt>
      <trkpt lat="46.09346" lon="6.70222">
        <ele>850</ele>
        <time>2019-06-11T14:52:31Z</time>
      </trkpt>
      <trkpt lat="46.09362" lon="6.70203">
        <ele>850</ele>
        <time>2019-06-11T14:52:35Z</time>
      </trkpt>
      <trkpt lat="46.09373" lon="6.70197">
        <ele>850</ele>
        <time>2019-06-11T14:52:37Z</time>
      </trkpt>
      <trkpt lat="46.09399" lon="6.70195">
        <ele>854</ele>
        <time>2019-06-11T14:52:41Z</time>
      </trkpt>
      <trkpt lat="46.09437" lon="6.70203">
        <ele>859</ele>
        <time>2019-06-11T14:52:48Z</time>
      </trkpt>
      <trkpt lat="46.09465" lon="6.70214">
        <ele>861</ele>
        <time>2019-06-11T14:52:53Z</time>
      </trkpt>
      <trkpt lat="46.09483" lon="6.70228">
        <ele>863</ele>
        <time>2019-06-11T14:52:57Z</time>
      </trkpt>
      <trkpt lat="46.09505" lon="6.70252">
        <ele>867</ele>
        <time>2019-06-11T14:53:02Z</time>
      </trkpt>
      <trkpt lat="46.09516" lon="6.70257">
        <ele>869</ele>
        <time>2019-06-11T14:53:04Z</time>
      </trkpt>
      <trkpt lat="46.09527" lon="6.70256">
        <ele>870</ele>
        <time>2019-06-11T14:53:06Z</time>
      </trkpt>
      <trkpt lat="46.0954" lon="6.70252">
        <ele>870</ele>
        <time>2019-06-11T14:53:08Z</time>
      </trkpt>
      <trkpt lat="46.09552" lon="6.70238">
        <ele>870</ele>
        <time>2019-06-11T14:53:11Z</time>
      </trkpt>
      <trkpt lat="46.09556" lon="6.70224">
        <ele>869</ele>
        <time>2019-06-11T14:53:13Z</time>
      </trkpt>
      <trkpt lat="46.09556" lon="6.70211">
        <ele>869</ele>
        <time>2019-06-11T14:53:15Z</time>
      </trkpt>
      <trkpt lat="46.09547" lon="6.70171">
        <ele>865</ele>
        <time>2019-06-11T14:53:20Z</time>
      </trkpt>
      <trkpt lat="46.09546" lon="6.70161">
        <ele>865</ele>
        <time>2019-06-11T14:53:21Z</time>
      </trkpt>
      <trkpt lat="46.09546" lon="6.70143">
        <ele>865</ele>
        <time>2019-06-11T14:53:23Z</time>
      </trkpt>
      <trkpt lat="46.09548" lon="6.70125">
        <ele>865</ele>
        <time>2019-06-11T14:53:25Z</time>
      </trkpt>
      <trkpt lat="46.09553" lon="6.7011">
        <ele>866</ele>
        <time>2019-06-11T14:53:27Z</time>
      </trkpt>
      <trkpt lat="46.09574" lon="6.70069">
        <ele>870</ele>
        <time>2019-06-11T14:53:34Z</time>
      </trkpt>
      <trkpt lat="46.09587" lon="6.7001">
        <ele>871</ele>
        <time>2019-06-11T14:53:41Z</time>
      </trkpt>
      <trkpt lat="46.09617" lon="6.69925">
        <ele>875</ele>
        <time>2019-06-11T14:53:53Z</time>
      </trkpt>
      <trkpt lat="46.09628" lon="6.69854">
        <ele>877</ele>
        <time>2019-06-11T14:54:02Z</time>
      </trkpt>
      <trkpt lat="46.09637" lon="6.69826">
        <ele>879</ele>
        <time>2019-06-11T14:54:06Z</time>
      </trkpt>
      <trkpt lat="46.09663" lon="6.69771">
        <ele>884</ele>
        <time>2019-06-11T14:54:14Z</time>
      </trkpt>
      <trkpt lat="46.09669" lon="6.69746">
        <ele>886</ele>
        <time>2019-06-11T14:54:17Z</time>
      </trkpt>
      <trkpt lat="46.09671" lon="6.6972">
        <ele>886</ele>
        <time>2019-06-11T14:54:21Z</time>
      </trkpt>
      <trkpt lat="46.0967" lon="6.69664">
        <ele>885</ele>
        <time>2019-06-11T14:54:28Z</time>
      </trkpt>
      <trkpt lat="46.09664" lon="6.69618">
        <ele>884</ele>
        <time>2019-06-11T14:54:33Z</time>
      </trkpt>
      <trkpt lat="46.09665" lon="6.69604">
        <ele>885</ele>
        <time>2019-06-11T14:54:35Z</time>
      </trkpt>
      <trkpt lat="46.09667" lon="6.69597">
        <ele>885</ele>
        <time>2019-06-11T14:54:36Z</time>
      </trkpt>
      <trkpt lat="46.09674" lon="6.6959">
        <ele>886</ele>
        <time>2019-06-11T14:54:38Z</time>
      </trkpt>
      <trkpt lat="46.09685" lon="6.69586">
        <ele>887</ele>
        <time>2019-06-11T14:54:40Z</time>
      </trkpt>
      <trkpt lat="46.09707" lon="6.6959">
        <ele>889</ele>
        <time>2019-06-11T14:54:44Z</time>
      </trkpt>
      <trkpt lat="46.0976" lon="6.69609">
        <ele>895</ele>
        <time>2019-06-11T14:54:53Z</time>
      </trkpt>
      <trkpt lat="46.09771" lon="6.69607">
        <ele>895</ele>
        <time>2019-06-11T14:54:55Z</time>
      </trkpt>
      <trkpt lat="46.09778" lon="6.696">
        <ele>895</ele>
        <time>2019-06-11T14:54:57Z</time>
      </trkpt>
      <trkpt lat="46.09781" lon="6.69594">
        <ele>896</ele>
        <time>2019-06-11T14:54:58Z</time>
      </trkpt>
      <trkpt lat="46.09784" lon="6.6958">
        <ele>896</ele>
        <time>2019-06-11T14:54:59Z</time>
      </trkpt>
      <trkpt lat="46.09784" lon="6.69572">
        <ele>897</ele>
        <time>2019-06-11T14:55:00Z</time>
      </trkpt>
      <trkpt lat="46.0978" lon="6.69557">
        <ele>898</ele>
        <time>2019-06-11T14:55:02Z</time>
      </trkpt>
      <trkpt lat="46.09767" lon="6.69541">
        <ele>898</ele>
        <time>2019-06-11T14:55:05Z</time>
      </trkpt>
      <trkpt lat="46.09737" lon="6.69515">
        <ele>898</ele>
        <time>2019-06-11T14:55:12Z</time>
      </trkpt>
      <trkpt lat="46.09706" lon="6.69479">
        <ele>896</ele>
        <time>2019-06-11T14:55:19Z</time>
      </trkpt>
      <trkpt lat="46.09702" lon="6.69477">
        <ele>896</ele>
        <time>2019-06-11T14:55:20Z</time>
      </trkpt>
      <trkpt lat="46.09675" lon="6.69471">
        <ele>893</ele>
        <time>2019-06-11T14:55:24Z</time>
      </trkpt>
      <trkpt lat="46.09665" lon="6.69461">
        <ele>891</ele>
        <time>2019-06-11T14:55:27Z</time>
      </trkpt>
      <trkpt lat="46.09663" lon="6.69453">
        <ele>891</ele>
        <time>2019-06-11T14:55:28Z</time>
      </trkpt>
      <trkpt lat="46.09662" lon="6.69444">
        <ele>890</ele>
        <time>2019-06-11T14:55:29Z</time>
      </trkpt>
      <trkpt lat="46.09664" lon="6.69438">
        <ele>891</ele>
        <time>2019-06-11T14:55:30Z</time>
      </trkpt>
      <trkpt lat="46.09666" lon="6.69434">
        <ele>891</ele>
        <time>2019-06-11T14:55:30Z</time>
      </trkpt>
      <trkpt lat="46.09675" lon="6.69427">
        <ele>892</ele>
        <time>2019-06-11T14:55:32Z</time>
      </trkpt>
      <trkpt lat="46.09687" lon="6.69425">
        <ele>894</ele>
        <time>2019-06-11T14:55:34Z</time>
      </trkpt>
      <trkpt lat="46.09782" lon="6.69434">
        <ele>907</ele>
        <time>2019-06-11T14:55:51Z</time>
      </trkpt>
      <trkpt lat="46.09823" lon="6.69436">
        <ele>911</ele>
        <time>2019-06-11T14:55:58Z</time>
      </trkpt>
      <trkpt lat="46.09876" lon="6.69449">
        <ele>922</ele>
        <time>2019-06-11T14:56:08Z</time>
      </trkpt>
      <trkpt lat="46.09899" lon="6.69461">
        <ele>927</ele>
        <time>2019-06-11T14:56:12Z</time>
      </trkpt>
      <trkpt lat="46.09996" lon="6.69543">
        <ele>948</ele>
        <time>2019-06-11T14:56:32Z</time>
      </trkpt>
      <trkpt lat="46.10029" lon="6.69585">
        <ele>953</ele>
        <time>2019-06-11T14:56:40Z</time>
      </trkpt>
      <trkpt lat="46.1005" lon="6.69616">
        <ele>955</ele>
        <time>2019-06-11T14:56:45Z</time>
      </trkpt>
      <trkpt lat="46.10064" lon="6.69626">
        <ele>959</ele>
        <time>2019-06-11T14:56:48Z</time>
      </trkpt>
      <trkpt lat="46.10087" lon="6.69631">
        <ele>969</ele>
        <time>2019-06-11T14:56:52Z</time>
      </trkpt>
      <trkpt lat="46.10095" lon="6.69638">
        <ele>972</ele>
        <time>2019-06-11T14:56:54Z</time>
      </trkpt>
      <trkpt lat="46.10098" lon="6.69644">
        <ele>972</ele>
        <time>2019-06-11T14:56:55Z</time>
      </trkpt>
      <trkpt lat="46.10124" lon="6.69721">
        <ele>973</ele>
        <time>2019-06-11T14:57:06Z</time>
      </trkpt>
      <trkpt lat="46.10129" lon="6.69743">
        <ele>972</ele>
        <time>2019-06-11T14:57:08Z</time>
      </trkpt>
      <trkpt lat="46.10132" lon="6.698">
        <ele>976</ele>
        <time>2019-06-11T14:57:15Z</time>
      </trkpt>
      <trkpt lat="46.10132" lon="6.69831">
        <ele>978</ele>
        <time>2019-06-11T14:57:19Z</time>
      </trkpt>
      <trkpt lat="46.1013" lon="6.69849">
        <ele>979</ele>
        <time>2019-06-11T14:57:21Z</time>
      </trkpt>
      <trkpt lat="46.10127" lon="6.69858">
        <ele>979</ele>
        <time>2019-06-11T14:57:23Z</time>
      </trkpt>
      <trkpt lat="46.10123" lon="6.69868">
        <ele>978</ele>
        <time>2019-06-11T14:57:24Z</time>
      </trkpt>
      <trkpt lat="46.10096" lon="6.69912">
        <ele>974</ele>
        <time>2019-06-11T14:57:31Z</time>
      </trkpt>
      <trkpt lat="46.10082" lon="6.69942">
        <ele>973</ele>
        <time>2019-06-11T14:57:36Z</time>
      </trkpt>
      <trkpt lat="46.10074" lon="6.6997">
        <ele>975</ele>
        <time>2019-06-11T14:57:40Z</time>
      </trkpt>
      <trkpt lat="46.10074" lon="6.69989">
        <ele>977</ele>
        <time>2019-06-11T14:57:42Z</time>
      </trkpt>
      <trkpt lat="46.1007" lon="6.70005">
        <ele>978</ele>
        <time>2019-06-11T14:57:44Z</time>
      </trkpt>
      <trkpt lat="46.10066" lon="6.70011">
        <ele>978</ele>
        <time>2019-06-11T14:57:45Z</time>
      </trkpt>
      <trkpt lat="46.10049" lon="6.70017">
        <ele>977</ele>
        <time>2019-06-11T14:57:48Z</time>
      </trkpt>
      <trkpt lat="46.10035" lon="6.70037">
        <ele>977</ele>
        <time>2019-06-11T14:57:52Z</time>
      </trkpt>
      <trkpt lat="46.10006" lon="6.70084">
        <ele>980</ele>
        <time>2019-06-11T14:57:59Z</time>
      </trkpt>
      <trkpt lat="46.0998" lon="6.7014">
        <ele>979</ele>
        <time>2019-06-11T14:58:08Z</time>
      </trkpt>
      <trkpt lat="46.09976" lon="6.70156">
        <ele>979</ele>
        <time>2019-06-11T14:58:10Z</time>
      </trkpt>
      <trkpt lat="46.09976" lon="6.70165">
        <ele>979</ele>
        <time>2019-06-11T14:58:11Z</time>
      </trkpt>
      <trkpt lat="46.09978" lon="6.70191">
        <ele>980</ele>
        <time>2019-06-11T14:58:14Z</time>
      </trkpt>
      <trkpt lat="46.09993" lon="6.70275">
        <ele>985</ele>
        <time>2019-06-11T14:58:25Z</time>
      </trkpt>
      <trkpt lat="46.09996" lon="6.7028">
        <ele>986</ele>
        <time>2019-06-11T14:58:26Z</time>
      </trkpt>
      <trkpt lat="46.10042" lon="6.70341">
        <ele>994</ele>
        <time>2019-06-11T14:58:37Z</time>
      </trkpt>
      <trkpt lat="46.10067" lon="6.70385">
        <ele>999</ele>
        <time>2019-06-11T14:58:44Z</time>
      </trkpt>
      <trkpt lat="46.10104" lon="6.7033">
        <ele>1005</ele>
        <time>2019-06-11T14:58:53Z</time>
      </trkpt>
      <trkpt lat="46.10133" lon="6.70292">
        <ele>1008</ele>
        <time>2019-06-11T14:59:00Z</time>
      </trkpt>
      <trkpt lat="46.10155" lon="6.70272">
        <ele>1010</ele>
        <time>2019-06-11T14:59:05Z</time>
      </trkpt>
      <trkpt lat="46.10163" lon="6.70267">
        <ele>1011</ele>
        <time>2019-06-11T14:59:06Z</time>
      </trkpt>
      <trkpt lat="46.10178" lon="6.70261">
        <ele>1012</ele>
        <time>2019-06-11T14:59:09Z</time>
      </trkpt>
      <trkpt lat="46.10195" lon="6.70258">
        <ele>1013</ele>
        <time>2019-06-11T14:59:12Z</time>
      </trkpt>
      <trkpt lat="46.10308" lon="6.70244">
        <ele>1023</ele>
        <time>2019-06-11T14:59:32Z</time>
      </trkpt>
      <trkpt lat="46.10328" lon="6.70234">
        <ele>1025</ele>
        <time>2019-06-11T14:59:36Z</time>
      </trkpt>
      <trkpt lat="46.10353" lon="6.70212">
        <ele>1030</ele>
        <time>2019-06-11T14:59:41Z</time>
      </trkpt>
      <trkpt lat="46.10358" lon="6.7021">
        <ele>1031</ele>
        <time>2019-06-11T14:59:42Z</time>
      </trkpt>
      <trkpt lat="46.10372" lon="6.70211">
        <ele>1035</ele>
        <time>2019-06-11T14:59:45Z</time>
      </trkpt>
      <trkpt lat="46.1038" lon="6.70219">
        <ele>1036</ele>
        <time>2019-06-11T14:59:47Z</time>
      </trkpt>
      <trkpt lat="46.10383" lon="6.70224">
        <ele>1036</ele>
        <time>2019-06-11T14:59:47Z</time>
      </trkpt>
      <trkpt lat="46.10384" lon="6.70237">
        <ele>1036</ele>
        <time>2019-06-11T14:59:49Z</time>
      </trkpt>
      <trkpt lat="46.1037" lon="6.70319">
        <ele>1036</ele>
        <time>2019-06-11T14:59:59Z</time>
      </trkpt>
      <trkpt lat="46.10367" lon="6.70347">
        <ele>1037</ele>
        <time>2019-06-11T15:00:03Z</time>
      </trkpt>
      <trkpt lat="46.10364" lon="6.70449">
        <ele>1045</ele>
        <time>2019-06-11T15:00:16Z</time>
      </trkpt>
      <trkpt lat="46.1036" lon="6.70468">
        <ele>1047</ele>
        <time>2019-06-11T15:00:18Z</time>
      </trkpt>
      <trkpt lat="46.10335" lon="6.7052">
        <ele>1051</ele>
        <time>2019-06-11T15:00:26Z</time>
      </trkpt>
      <trkpt lat="46.10311" lon="6.70589">
        <ele>1062</ele>
        <time>2019-06-11T15:00:35Z</time>
      </trkpt>
      <trkpt lat="46.1029" lon="6.70616">
        <ele>1060</ele>
        <time>2019-06-11T15:00:40Z</time>
      </trkpt>
      <trkpt lat="46.10259" lon="6.70641">
        <ele>1054</ele>
        <time>2019-06-11T15:00:47Z</time>
      </trkpt>
      <trkpt lat="46.10256" lon="6.70647">
        <ele>1053</ele>
        <time>2019-06-11T15:00:48Z</time>
      </trkpt>
      <trkpt lat="46.10255" lon="6.7066">
        <ele>1054</ele>
        <time>2019-06-11T15:00:49Z</time>
      </trkpt>
      <trkpt lat="46.10257" lon="6.70667">
        <ele>1055</ele>
        <time>2019-06-11T15:00:50Z</time>
      </trkpt>
      <trkpt lat="46.10262" lon="6.7067">
        <ele>1056</ele>
        <time>2019-06-11T15:00:51Z</time>
      </trkpt>
      <trkpt lat="46.10272" lon="6.70667">
        <ele>1059</ele>
        <time>2019-06-11T15:00:53Z</time>
      </trkpt>
      <trkpt lat="46.10285" lon="6.70642">
        <ele>1061</ele>
        <time>2019-06-11T15:00:57Z</time>
      </trkpt>
      <trkpt lat="46.10293" lon="6.70631">
        <ele>1062</ele>
        <time>2019-06-11T15:00:59Z</time>
      </trkpt>
      <trkpt lat="46.1031" lon="6.70616">
        <ele>1065</ele>
        <time>2019-06-11T15:01:02Z</time>
      </trkpt>
      <trkpt lat="46.10322" lon="6.70608">
        <ele>1067</ele>
        <time>2019-06-11T15:01:05Z</time>
      </trkpt>
      <trkpt lat="46.10354" lon="6.70567">
        <ele>1068</ele>
        <time>2019-06-11T15:01:12Z</time>
      </trkpt>
      <trkpt lat="46.10366" lon="6.70557">
        <ele>1068</ele>
        <time>2019-06-11T15:01:15Z</time>
      </trkpt>
      <trkpt lat="46.10431" lon="6.70538">
        <ele>1083</ele>
        <time>2019-06-11T15:01:26Z</time>
      </trkpt>
      <trkpt lat="46.10435" lon="6.70544">
        <ele>1086</ele>
        <time>2019-06-11T15:01:27Z</time>
      </trkpt>
      <trkpt lat="46.10435" lon="6.7055">
        <ele>1087</ele>
        <time>2019-06-11T15:01:28Z</time>
      </trkpt>
      <trkpt lat="46.10432" lon="6.70557">
        <ele>1087</ele>
        <time>2019-06-11T15:01:29Z</time>
      </trkpt>
      <trkpt lat="46.10392" lon="6.70585">
        <ele>1081</ele>
        <time>2019-06-11T15:01:37Z</time>
      </trkpt>
      <trkpt lat="46.1036" lon="6.70609">
        <ele>1076</ele>
        <time>2019-06-11T15:01:44Z</time>
      </trkpt>
      <trkpt lat="46.10355" lon="6.70616">
        <ele>1075</ele>
        <time>2019-06-11T15:01:45Z</time>
      </trkpt>
      <trkpt lat="46.10351" lon="6.70629">
        <ele>1076</ele>
        <time>2019-06-11T15:01:47Z</time>
      </trkpt>
      <trkpt lat="46.10351" lon="6.70641">
        <ele>1077</ele>
        <time>2019-06-11T15:01:48Z</time>
      </trkpt>
      <trkpt lat="46.10357" lon="6.70654">
        <ele>1080</ele>
        <time>2019-06-11T15:01:50Z</time>
      </trkpt>
      <trkpt lat="46.10412" lon="6.70708">
        <ele>1094</ele>
        <time>2019-06-11T15:02:02Z</time>
      </trkpt>
      <trkpt lat="46.10425" lon="6.70743">
        <ele>1099</ele>
        <time>2019-06-11T15:02:07Z</time>
      </trkpt>
      <trkpt lat="46.10428" lon="6.70762">
        <ele>1101</ele>
        <time>2019-06-11T15:02:09Z</time>
      </trkpt>
      <trkpt lat="46.10426" lon="6.70774">
        <ele>1101</ele>
        <time>2019-06-11T15:02:11Z</time>
      </trkpt>
      <trkpt lat="46.10405" lon="6.70812">
        <ele>1100</ele>
        <time>2019-06-11T15:02:17Z</time>
      </trkpt>
      <trkpt lat="46.10374" lon="6.70893">
        <ele>1105</ele>
        <time>2019-06-11T15:02:28Z</time>
      </trkpt>
      <trkpt lat="46.10357" lon="6.70925">
        <ele>1107</ele>
        <time>2019-06-11T15:02:33Z</time>
      </trkpt>
      <trkpt lat="46.10352" lon="6.70946">
        <ele>1107</ele>
        <time>2019-06-11T15:02:36Z</time>
      </trkpt>
      <trkpt lat="46.10357" lon="6.71002">
        <ele>1109</ele>
        <time>2019-06-11T15:02:43Z</time>
      </trkpt>
      <trkpt lat="46.10356" lon="6.71021">
        <ele>1111</ele>
        <time>2019-06-11T15:02:45Z</time>
      </trkpt>
      <trkpt lat="46.10352" lon="6.71044">
        <ele>1111</ele>
        <time>2019-06-11T15:02:48Z</time>
      </trkpt>
      <trkpt lat="46.10341" lon="6.71085">
        <ele>1112</ele>
        <time>2019-06-11T15:02:53Z</time>
      </trkpt>
      <trkpt lat="46.10325" lon="6.71134">
        <ele>1115</ele>
        <time>2019-06-11T15:03:00Z</time>
      </trkpt>
      <trkpt lat="46.10316" lon="6.71156">
        <ele>1117</ele>
        <time>2019-06-11T15:03:03Z</time>
      </trkpt>
      <trkpt lat="46.1027" lon="6.71246">
        <ele>1117</ele>
        <time>2019-06-11T15:03:17Z</time>
      </trkpt>
      <trkpt lat="46.10243" lon="6.71306">
        <ele>1119</ele>
        <time>2019-06-11T15:03:26Z</time>
      </trkpt>
      <trkpt lat="46.1024" lon="6.71319">
        <ele>1120</ele>
        <time>2019-06-11T15:03:28Z</time>
      </trkpt>
      <trkpt lat="46.10241" lon="6.71333">
        <ele>1121</ele>
        <time>2019-06-11T15:03:29Z</time>
      </trkpt>
      <trkpt lat="46.10271" lon="6.71398">
        <ele>1127</ele>
        <time>2019-06-11T15:03:39Z</time>
      </trkpt>
      <trkpt lat="46.10284" lon="6.71414">
        <ele>1129</ele>
        <time>2019-06-11T15:03:42Z</time>
      </trkpt>
      <trkpt lat="46.10337" lon="6.71453">
        <ele>1138</ele>
        <time>2019-06-11T15:03:53Z</time>
      </trkpt>
      <trkpt lat="46.10366" lon="6.71468">
        <ele>1144</ele>
        <time>2019-06-11T15:03:58Z</time>
      </trkpt>
      <trkpt lat="46.1042" lon="6.71484">
        <ele>1155</ele>
        <time>2019-06-11T15:04:08Z</time>
      </trkpt>
      <trkpt lat="46.10431" lon="6.71484">
        <ele>1157</ele>
        <time>2019-06-11T15:04:10Z</time>
      </trkpt>
      <trkpt lat="46.1044" lon="6.71481">
        <ele>1159</ele>
        <time>2019-06-11T15:04:11Z</time>
      </trkpt>
      <trkpt lat="46.10447" lon="6.71472">
        <ele>1160</ele>
        <time>2019-06-11T15:04:13Z</time>
      </trkpt>
      <trkpt lat="46.10452" lon="6.71459">
        <ele>1159</ele>
        <time>2019-06-11T15:04:15Z</time>
      </trkpt>
      <trkpt lat="46.1046" lon="6.71385">
        <ele>1157</ele>
        <time>2019-06-11T15:04:24Z</time>
      </trkpt>
      <trkpt lat="46.1046" lon="6.71372">
        <ele>1157</ele>
        <time>2019-06-11T15:04:26Z</time>
      </trkpt>
      <trkpt lat="46.10457" lon="6.71346">
        <ele>1157</ele>
        <time>2019-06-11T15:04:29Z</time>
      </trkpt>
      <trkpt lat="46.10459" lon="6.71339">
        <ele>1157</ele>
        <time>2019-06-11T15:04:30Z</time>
      </trkpt>
      <trkpt lat="46.10465" lon="6.71334">
        <ele>1159</ele>
        <time>2019-06-11T15:04:31Z</time>
      </trkpt>
      <trkpt lat="46.10474" lon="6.71337">
        <ele>1161</ele>
        <time>2019-06-11T15:04:33Z</time>
      </trkpt>
      <trkpt lat="46.1048" lon="6.71349">
        <ele>1162</ele>
        <time>2019-06-11T15:04:35Z</time>
      </trkpt>
      <trkpt lat="46.10485" lon="6.71368">
        <ele>1164</ele>
        <time>2019-06-11T15:04:37Z</time>
      </trkpt>
      <trkpt lat="46.10485" lon="6.71382">
        <ele>1164</ele>
        <time>2019-06-11T15:04:39Z</time>
      </trkpt>
      <trkpt lat="46.10479" lon="6.71411">
        <ele>1162</ele>
        <time>2019-06-11T15:04:43Z</time>
      </trkpt>
      <trkpt lat="46.1048" lon="6.71421">
        <ele>1163</ele>
        <time>2019-06-11T15:04:44Z</time>
      </trkpt>
      <trkpt lat="46.10483" lon="6.71426">
        <ele>1164</ele>
        <time>2019-06-11T15:04:45Z</time>
      </trkpt>
      <trkpt lat="46.10487" lon="6.71427">
        <ele>1165</ele>
        <time>2019-06-11T15:04:45Z</time>
      </trkpt>
      <trkpt lat="46.10491" lon="6.71425">
        <ele>1166</ele>
        <time>2019-06-11T15:04:46Z</time>
      </trkpt>
      <trkpt lat="46.10497" lon="6.71416">
        <ele>1167</ele>
        <time>2019-06-11T15:04:48Z</time>
      </trkpt>
      <trkpt lat="46.10516" lon="6.71365">
        <ele>1173</ele>
        <time>2019-06-11T15:04:55Z</time>
      </trkpt>
      <trkpt lat="46.10519" lon="6.71345">
        <ele>1174</ele>
        <time>2019-06-11T15:04:57Z</time>
      </trkpt>
      <trkpt lat="46.10521" lon="6.71288">
        <ele>1177</ele>
        <time>2019-06-11T15:05:04Z</time>
      </trkpt>
      <trkpt lat="46.10526" lon="6.71252">
        <ele>1180</ele>
        <time>2019-06-11T15:05:09Z</time>
      </trkpt>
      <trkpt lat="46.10552" lon="6.71139">
        <ele>1185</ele>
        <time>2019-06-11T15:05:24Z</time>
      </trkpt>
      <trkpt lat="46.10565" lon="6.71104">
        <ele>1185</ele>
        <time>2019-06-11T15:05:29Z</time>
      </trkpt>
      <trkpt lat="46.10574" lon="6.7109">
        <ele>1187</ele>
        <time>2019-06-11T15:05:31Z</time>
      </trkpt>
      <trkpt lat="46.10582" lon="6.71082">
        <ele>1188</ele>
        <time>2019-06-11T15:05:33Z</time>
      </trkpt>
      <trkpt lat="46.10587" lon="6.71079">
        <ele>1190</ele>
        <time>2019-06-11T15:05:34Z</time>
      </trkpt>
      <trkpt lat="46.10603" lon="6.71077">
        <ele>1195</ele>
        <time>2019-06-11T15:05:36Z</time>
      </trkpt>
      <trkpt lat="46.10611" lon="6.71079">
        <ele>1197</ele>
        <time>2019-06-11T15:05:38Z</time>
      </trkpt>
      <trkpt lat="46.10615" lon="6.71084">
        <ele>1199</ele>
        <time>2019-06-11T15:05:39Z</time>
      </trkpt>
      <trkpt lat="46.10619" lon="6.71096">
        <ele>1202</ele>
        <time>2019-06-11T15:05:40Z</time>
      </trkpt>
      <trkpt lat="46.10619" lon="6.71144">
        <ele>1207</ele>
        <time>2019-06-11T15:05:46Z</time>
      </trkpt>
      <trkpt lat="46.10616" lon="6.71171">
        <ele>1208</ele>
        <time>2019-06-11T15:05:50Z</time>
      </trkpt>
      <trkpt lat="46.1062" lon="6.71194">
        <ele>1210</ele>
        <time>2019-06-11T15:05:53Z</time>
      </trkpt>
      <trkpt lat="46.1065" lon="6.71259">
        <ele>1221</ele>
        <time>2019-06-11T15:06:02Z</time>
      </trkpt>
      <trkpt lat="46.10655" lon="6.71277">
        <ele>1224</ele>
        <time>2019-06-11T15:06:05Z</time>
      </trkpt>
      <trkpt lat="46.10658" lon="6.71312">
        <ele>1227</ele>
        <time>2019-06-11T15:06:09Z</time>
      </trkpt>
      <trkpt lat="46.1065" lon="6.71372">
        <ele>1226</ele>
        <time>2019-06-11T15:06:17Z</time>
      </trkpt>
      <trkpt lat="46.10653" lon="6.71381">
        <ele>1228</ele>
        <time>2019-06-11T15:06:18Z</time>
      </trkpt>
      <trkpt lat="46.10657" lon="6.71383">
        <ele>1230</ele>
        <time>2019-06-11T15:06:19Z</time>
      </trkpt>
      <trkpt lat="46.10663" lon="6.71381">
        <ele>1232</ele>
        <time>2019-06-11T15:06:20Z</time>
      </trkpt>
      <trkpt lat="46.10672" lon="6.71346">
        <ele>1235</ele>
        <time>2019-06-11T15:06:24Z</time>
      </trkpt>
      <trkpt lat="46.10713" lon="6.71259">
        <ele>1248</ele>
        <time>2019-06-11T15:06:37Z</time>
      </trkpt>
      <trkpt lat="46.10724" lon="6.7123">
        <ele>1251</ele>
        <time>2019-06-11T15:06:41Z</time>
      </trkpt>
      <trkpt lat="46.10752" lon="6.71144">
        <ele>1253</ele>
        <time>2019-06-11T15:06:53Z</time>
      </trkpt>
      <trkpt lat="46.10769" lon="6.71082">
        <ele>1251</ele>
        <time>2019-06-11T15:07:01Z</time>
      </trkpt>
      <trkpt lat="46.10778" lon="6.71047">
        <ele>1253</ele>
        <time>2019-06-11T15:07:06Z</time>
      </trkpt>
      <trkpt lat="46.10787" lon="6.71001">
        <ele>1256</ele>
        <time>2019-06-11T15:07:12Z</time>
      </trkpt>
      <trkpt lat="46.10793" lon="6.70986">
        <ele>1258</ele>
        <time>2019-06-11T15:07:14Z</time>
      </trkpt>
      <trkpt lat="46.10799" lon="6.70979">
        <ele>1260</ele>
        <time>2019-06-11T15:07:15Z</time>
      </trkpt>
      <trkpt lat="46.10806" lon="6.70979">
        <ele>1263</ele>
        <time>2019-06-11T15:07:17Z</time>
      </trkpt>
      <trkpt lat="46.10813" lon="6.70985">
        <ele>1266</ele>
        <time>2019-06-11T15:07:18Z</time>
      </trkpt>
      <trkpt lat="46.1082" lon="6.70997">
        <ele>1269</ele>
        <time>2019-06-11T15:07:20Z</time>
      </trkpt>
      <trkpt lat="46.10844" lon="6.71058">
        <ele>1277</ele>
        <time>2019-06-11T15:07:29Z</time>
      </trkpt>
      <trkpt lat="46.10851" lon="6.71088">
        <ele>1280</ele>
        <time>2019-06-11T15:07:33Z</time>
      </trkpt>
      <trkpt lat="46.10853" lon="6.71129">
        <ele>1282</ele>
        <time>2019-06-11T15:07:38Z</time>
      </trkpt>
      <trkpt lat="46.10852" lon="6.71208">
        <ele>1288</ele>
        <time>2019-06-11T15:07:47Z</time>
      </trkpt>
      <trkpt lat="46.10839" lon="6.71284">
        <ele>1290</ele>
        <time>2019-06-11T15:07:57Z</time>
      </trkpt>
      <trkpt lat="46.10838" lon="6.71295">
        <ele>1291</ele>
        <time>2019-06-11T15:07:58Z</time>
      </trkpt>
      <trkpt lat="46.1084" lon="6.71304">
        <ele>1292</ele>
        <time>2019-06-11T15:08:00Z</time>
      </trkpt>
      <trkpt lat="46.10847" lon="6.71309">
        <ele>1295</ele>
        <time>2019-06-11T15:08:01Z</time>
      </trkpt>
      <trkpt lat="46.10851" lon="6.71309">
        <ele>1296</ele>
        <time>2019-06-11T15:08:02Z</time>
      </trkpt>
      <trkpt lat="46.10853" lon="6.71306">
        <ele>1297</ele>
        <time>2019-06-11T15:08:02Z</time>
      </trkpt>
      <trkpt lat="46.10891" lon="6.71197">
        <ele>1305</ele>
        <time>2019-06-11T15:08:17Z</time>
      </trkpt>
      <trkpt lat="46.10896" lon="6.71163">
        <ele>1306</ele>
        <time>2019-06-11T15:08:21Z</time>
      </trkpt>
      <trkpt lat="46.10897" lon="6.71147">
        <ele>1306</ele>
        <time>2019-06-11T15:08:23Z</time>
      </trkpt>
      <trkpt lat="46.10895" lon="6.7108">
        <ele>1304</ele>
        <time>2019-06-11T15:08:32Z</time>
      </trkpt>
      <trkpt lat="46.10897" lon="6.71034">
        <ele>1308</ele>
        <time>2019-06-11T15:08:37Z</time>
      </trkpt>
      <trkpt lat="46.10896" lon="6.71016">
        <ele>1309</ele>
        <time>2019-06-11T15:08:40Z</time>
      </trkpt>
      <trkpt lat="46.1089" lon="6.70989">
        <ele>1307</ele>
        <time>2019-06-11T15:08:43Z</time>
      </trkpt>
      <trkpt lat="46.10889" lon="6.7097">
        <ele>1307</ele>
        <time>2019-06-11T15:08:45Z</time>
      </trkpt>
      <trkpt lat="46.10891" lon="6.70944">
        <ele>1309</ele>
        <time>2019-06-11T15:08:49Z</time>
      </trkpt>
      <trkpt lat="46.10897" lon="6.70924">
        <ele>1313</ele>
        <time>2019-06-11T15:08:51Z</time>
      </trkpt>
      <trkpt lat="46.10917" lon="6.70877">
        <ele>1324</ele>
        <time>2019-06-11T15:08:58Z</time>
      </trkpt>
      <trkpt lat="46.10928" lon="6.70824">
        <ele>1329</ele>
        <time>2019-06-11T15:09:05Z</time>
      </trkpt>
      <trkpt lat="46.10962" lon="6.70739">
        <ele>1343</ele>
        <time>2019-06-11T15:09:17Z</time>
      </trkpt>
      <trkpt lat="46.10969" lon="6.70716">
        <ele>1346</ele>
        <time>2019-06-11T15:09:20Z</time>
      </trkpt>
      <trkpt lat="46.10975" lon="6.70687">
        <ele>1347</ele>
        <time>2019-06-11T15:09:24Z</time>
      </trkpt>
      <trkpt lat="46.10981" lon="6.70633">
        <ele>1349</ele>
        <time>2019-06-11T15:09:31Z</time>
      </trkpt>
      <trkpt lat="46.10976" lon="6.70567">
        <ele>1347</ele>
        <time>2019-06-11T15:09:39Z</time>
      </trkpt>
      <trkpt lat="46.10969" lon="6.70398">
        <ele>1361</ele>
        <time>2019-06-11T15:10:00Z</time>
      </trkpt>
      <trkpt lat="46.10969" lon="6.70349">
        <ele>1368</ele>
        <time>2019-06-11T15:10:06Z</time>
      </trkpt>
      <trkpt lat="46.10966" lon="6.70335">
        <ele>1368</ele>
        <time>2019-06-11T15:10:08Z</time>
      </trkpt>
      <trkpt lat="46.10962" lon="6.7032">
        <ele>1367</ele>
        <time>2019-06-11T15:10:10Z</time>
      </trkpt>
      <trkpt lat="46.10944" lon="6.70274">
        <ele>1363</ele>
        <time>2019-06-11T15:10:16Z</time>
      </trkpt>
      <trkpt lat="46.10933" lon="6.70222">
        <ele>1362</ele>
        <time>2019-06-11T15:10:23Z</time>
      </trkpt>
      <trkpt lat="46.10913" lon="6.70162">
        <ele>1361</ele>
        <time>2019-06-11T15:10:31Z</time>
      </trkpt>
      <trkpt lat="46.10917" lon="6.70153">
        <ele>1363</ele>
        <time>2019-06-11T15:10:32Z</time>
      </trkpt>
      <trkpt lat="46.10923" lon="6.70149">
        <ele>1364</ele>
        <time>2019-06-11T15:10:34Z</time>
      </trkpt>
      <trkpt lat="46.10931" lon="6.70151">
        <ele>1365</ele>
        <time>2019-06-11T15:10:35Z</time>
      </trkpt>
      <trkpt lat="46.11008" lon="6.70195">
        <ele>1379</ele>
        <time>2019-06-11T15:10:50Z</time>
      </trkpt>
      <trkpt lat="46.1103" lon="6.70214">
        <ele>1383</ele>
        <time>2019-06-11T15:10:54Z</time>
      </trkpt>
      <trkpt lat="46.11046" lon="6.70235">
        <ele>1387</ele>
        <time>2019-06-11T15:10:58Z</time>
      </trkpt>
      <trkpt lat="46.11052" lon="6.70248">
        <ele>1389</ele>
        <time>2019-06-11T15:11:00Z</time>
      </trkpt>
      <trkpt lat="46.11052" lon="6.70257">
        <ele>1391</ele>
        <time>2019-06-11T15:11:01Z</time>
      </trkpt>
      <trkpt lat="46.1105" lon="6.70263">
        <ele>1391</ele>
        <time>2019-06-11T15:11:02Z</time>
      </trkpt>
      <trkpt lat="46.11043" lon="6.70266">
        <ele>1391</ele>
        <time>2019-06-11T15:11:03Z</time>
      </trkpt>
      <trkpt lat="46.11024" lon="6.70256">
        <ele>1387</ele>
        <time>2019-06-11T15:11:07Z</time>
      </trkpt>
      <trkpt lat="46.11012" lon="6.70256">
        <ele>1386</ele>
        <time>2019-06-11T15:11:09Z</time>
      </trkpt>
      <trkpt lat="46.11005" lon="6.7026">
        <ele>1386</ele>
        <time>2019-06-11T15:11:10Z</time>
      </trkpt>
      <trkpt lat="46.11001" lon="6.70266">
        <ele>1385</ele>
        <time>2019-06-11T15:11:11Z</time>
      </trkpt>
      <trkpt lat="46.10998" lon="6.70275">
        <ele>1384</ele>
        <time>2019-06-11T15:11:13Z</time>
      </trkpt>
      <trkpt lat="46.10997" lon="6.70286">
        <ele>1384</ele>
        <time>2019-06-11T15:11:14Z</time>
      </trkpt>
      <trkpt lat="46.10999" lon="6.70297">
        <ele>1385</ele>
        <time>2019-06-11T15:11:15Z</time>
      </trkpt>
      <trkpt lat="46.11005" lon="6.70306">
        <ele>1386</ele>
        <time>2019-06-11T15:11:17Z</time>
      </trkpt>
      <trkpt lat="46.11018" lon="6.70315">
        <ele>1390</ele>
        <time>2019-06-11T15:11:20Z</time>
      </trkpt>
      <trkpt lat="46.11042" lon="6.70318">
        <ele>1398</ele>
        <time>2019-06-11T15:11:24Z</time>
      </trkpt>
      <trkpt lat="46.11055" lon="6.70322">
        <ele>1402</ele>
        <time>2019-06-11T15:11:26Z</time>
      </trkpt>
      <trkpt lat="46.11145" lon="6.70363">
        <ele>1416</ele>
        <time>2019-06-11T15:11:43Z</time>
      </trkpt>
      <trkpt lat="46.11164" lon="6.70373">
        <ele>1418</ele>
        <time>2019-06-11T15:11:47Z</time>
      </trkpt>
      <trkpt lat="46.11183" lon="6.70386">
        <ele>1420</ele>
        <time>2019-06-11T15:11:50Z</time>
      </trkpt>
      <trkpt lat="46.112" lon="6.70403">
        <ele>1422</ele>
        <time>2019-06-11T15:11:54Z</time>
      </trkpt>
      <trkpt lat="46.11209" lon="6.70417">
        <ele>1423</ele>
        <time>2019-06-11T15:11:56Z</time>
      </trkpt>
      <trkpt lat="46.11215" lon="6.70433">
        <ele>1426</ele>
        <time>2019-06-11T15:11:59Z</time>
      </trkpt>
      <trkpt lat="46.1123" lon="6.70483">
        <ele>1434</ele>
        <time>2019-06-11T15:12:05Z</time>
      </trkpt>
      <trkpt lat="46.1124" lon="6.70505">
        <ele>1438</ele>
        <time>2019-06-11T15:12:09Z</time>
      </trkpt>
      <trkpt lat="46.11256" lon="6.70523">
        <ele>1442</ele>
        <time>2019-06-11T15:12:12Z</time>
      </trkpt>
      <trkpt lat="46.11306" lon="6.70555">
        <ele>1448</ele>
        <time>2019-06-11T15:12:22Z</time>
      </trkpt>
      <trkpt lat="46.11321" lon="6.70569">
        <ele>1450</ele>
        <time>2019-06-11T15:12:25Z</time>
      </trkpt>
      <trkpt lat="46.11346" lon="6.70603">
        <ele>1453</ele>
        <time>2019-06-11T15:12:31Z</time>
      </trkpt>
      <trkpt lat="46.11356" lon="6.70619">
        <ele>1454</ele>
        <time>2019-06-11T15:12:34Z</time>
      </trkpt>
      <trkpt lat="46.11373" lon="6.70657">
        <ele>1456</ele>
        <time>2019-06-11T15:12:39Z</time>
      </trkpt>
      <trkpt lat="46.11399" lon="6.70685">
        <ele>1456</ele>
        <time>2019-06-11T15:12:45Z</time>
      </trkpt>
      <trkpt lat="46.11399" lon="6.70694">
        <ele>1457</ele>
        <time>2019-06-11T15:12:46Z</time>
      </trkpt>
      <trkpt lat="46.11394" lon="6.707">
        <ele>1459</ele>
        <time>2019-06-11T15:12:47Z</time>
      </trkpt>
      <trkpt lat="46.11378" lon="6.707">
        <ele>1461</ele>
        <time>2019-06-11T15:12:50Z</time>
      </trkpt>
      <trkpt lat="46.11302" lon="6.70644">
        <ele>1468</ele>
        <time>2019-06-11T15:13:05Z</time>
      </trkpt>
      <trkpt lat="46.11288" lon="6.70635">
        <ele>1469</ele>
        <time>2019-06-11T15:13:08Z</time>
      </trkpt>
      <trkpt lat="46.11274" lon="6.7063">
        <ele>1471</ele>
        <time>2019-06-11T15:13:11Z</time>
      </trkpt>
      <trkpt lat="46.11248" lon="6.70632">
        <ele>1477</ele>
        <time>2019-06-11T15:13:15Z</time>
      </trkpt>
      <trkpt lat="46.11174" lon="6.70661">
        <ele>1478</ele>
        <time>2019-06-11T15:13:29Z</time>
      </trkpt>
      <trkpt lat="46.11133" lon="6.70665">
        <ele>1457</ele>
        <time>2019-06-11T15:13:36Z</time>
      </trkpt>
      <trkpt lat="46.11128" lon="6.70668">
        <ele>1454</ele>
        <time>2019-06-11T15:13:37Z</time>
      </trkpt>
      <trkpt lat="46.11125" lon="6.70676">
        <ele>1453</ele>
        <time>2019-06-11T15:13:38Z</time>
      </trkpt>
      <trkpt lat="46.11125" lon="6.70681">
        <ele>1453</ele>
        <time>2019-06-11T15:13:39Z</time>
      </trkpt>
      <trkpt lat="46.11133" lon="6.70689">
        <ele>1459</ele>
        <time>2019-06-11T15:13:41Z</time>
      </trkpt>
      <trkpt lat="46.11186" lon="6.70695">
        <ele>1484</ele>
        <time>2019-06-11T15:13:50Z</time>
      </trkpt>
      <trkpt lat="46.11213" lon="6.70707">
        <ele>1489</ele>
        <time>2019-06-11T15:13:55Z</time>
      </trkpt>
      <trkpt lat="46.11244" lon="6.70724">
        <ele>1497</ele>
        <time>2019-06-11T15:14:01Z</time>
      </trkpt>
      <trkpt lat="46.11256" lon="6.70736">
        <ele>1498</ele>
        <time>2019-06-11T15:14:04Z</time>
      </trkpt>
      <trkpt lat="46.11262" lon="6.70749">
        <ele>1499</ele>
        <time>2019-06-11T15:14:06Z</time>
      </trkpt>
      <trkpt lat="46.11307" lon="6.70899">
        <ele>1512</ele>
        <time>2019-06-11T15:14:26Z</time>
      </trkpt>
      <trkpt lat="46.11312" lon="6.70921">
        <ele>1515</ele>
        <time>2019-06-11T15:14:29Z</time>
      </trkpt>
      <trkpt lat="46.11317" lon="6.7096">
        <ele>1520</ele>
        <time>2019-06-11T15:14:34Z</time>
      </trkpt>
      <trkpt lat="46.11322" lon="6.7099">
        <ele>1524</ele>
        <time>2019-06-11T15:14:37Z</time>
      </trkpt>
      <trkpt lat="46.11329" lon="6.71007">
        <ele>1525</ele>
        <time>2019-06-11T15:14:40Z</time>
      </trkpt>
      <trkpt lat="46.11352" lon="6.7105">
        <ele>1529</ele>
        <time>2019-06-11T15:14:47Z</time>
      </trkpt>
      <trkpt lat="46.11369" lon="6.71076">
        <ele>1532</ele>
        <time>2019-06-11T15:14:51Z</time>
      </trkpt>
      <trkpt lat="46.11387" lon="6.71091">
        <ele>1533</ele>
        <time>2019-06-11T15:14:55Z</time>
      </trkpt>
      <trkpt lat="46.11406" lon="6.71098">
        <ele>1533</ele>
        <time>2019-06-11T15:14:58Z</time>
      </trkpt>
      <trkpt lat="46.11455" lon="6.71111">
        <ele>1535</ele>
        <time>2019-06-11T15:15:07Z</time>
      </trkpt>
      <trkpt lat="46.11513" lon="6.71151">
        <ele>1543</ele>
        <time>2019-06-11T15:15:18Z</time>
      </trkpt>
      <trkpt lat="46.11573" lon="6.71218">
        <ele>1550</ele>
        <time>2019-06-11T15:15:32Z</time>
      </trkpt>
      <trkpt lat="46.1158" lon="6.71223">
        <ele>1550</ele>
        <time>2019-06-11T15:15:33Z</time>
      </trkpt>
      <trkpt lat="46.1159" lon="6.71226">
        <ele>1551</ele>
        <time>2019-06-11T15:15:35Z</time>
      </trkpt>
      <trkpt lat="46.11605" lon="6.71227">
        <ele>1552</ele>
        <time>2019-06-11T15:15:38Z</time>
      </trkpt>
      <trkpt lat="46.11687" lon="6.712">
        <ele>1557</ele>
        <time>2019-06-11T15:15:53Z</time>
      </trkpt>
      <trkpt lat="46.11704" lon="6.71198">
        <ele>1558</ele>
        <time>2019-06-11T15:15:56Z</time>
      </trkpt>
      <trkpt lat="46.11715" lon="6.71199">
        <ele>1560</ele>
        <time>2019-06-11T15:15:58Z</time>
      </trkpt>
      <trkpt lat="46.11781" lon="6.71218">
        <ele>1569</ele>
        <time>2019-06-11T15:16:10Z</time>
      </trkpt>
      <trkpt lat="46.11786" lon="6.71218">
        <ele>1570</ele>
        <time>2019-06-11T15:16:11Z</time>
      </trkpt>
      <trkpt lat="46.11796" lon="6.71215">
        <ele>1571</ele>
        <time>2019-06-11T15:16:12Z</time>
      </trkpt>
      <trkpt lat="46.11864" lon="6.71168">
        <ele>1574</ele>
        <time>2019-06-11T15:16:26Z</time>
      </trkpt>
      <trkpt lat="46.11909" lon="6.71159">
        <ele>1578</ele>
        <time>2019-06-11T15:16:34Z</time>
      </trkpt>
      <trkpt lat="46.11952" lon="6.7114">
        <ele>1582</ele>
        <time>2019-06-11T15:16:42Z</time>
      </trkpt>
      <trkpt lat="46.12017" lon="6.71121">
        <ele>1590</ele>
        <time>2019-06-11T15:16:54Z</time>
      </trkpt>
      <trkpt lat="46.12057" lon="6.71112">
        <ele>1597</ele>
        <time>2019-06-11T15:17:01Z</time>
      </trkpt>
      <trkpt lat="46.12074" lon="6.71103">
        <ele>1599</ele>
        <time>2019-06-11T15:17:04Z</time>
      </trkpt>
      <trkpt lat="46.12098" lon="6.71088">
        <ele>1599</ele>
        <time>2019-06-11T15:17:09Z</time>
      </trkpt>
      <trkpt lat="46.12113" lon="6.71081">
        <ele>1599</ele>
        <time>2019-06-11T15:17:12Z</time>
      </trkpt>
      <trkpt lat="46.12128" lon="6.71078">
        <ele>1600</ele>
        <time>2019-06-11T15:17:14Z</time>
      </trkpt>
      <trkpt lat="46.12147" lon="6.71078">
        <ele>1602</ele>
        <time>2019-06-11T15:17:18Z</time>
      </trkpt>
      <trkpt lat="46.12198" lon="6.71094">
        <ele>1610</ele>
        <time>2019-06-11T15:17:27Z</time>
      </trkpt>
      <trkpt lat="46.12231" lon="6.71091">
        <ele>1612</ele>
        <time>2019-06-11T15:17:33Z</time>
      </trkpt>
      <trkpt lat="46.1227" lon="6.71096">
        <ele>1617</ele>
        <time>2019-06-11T15:17:40Z</time>
      </trkpt>
      <trkpt lat="46.12314" lon="6.71097">
        <ele>1621</ele>
        <time>2019-06-11T15:17:48Z</time>
      </trkpt>
      <trkpt lat="46.12412" lon="6.71115">
        <ele>1638</ele>
        <time>2019-06-11T15:18:05Z</time>
      </trkpt>
      <trkpt lat="46.12433" lon="6.71112">
        <ele>1639</ele>
        <time>2019-06-11T15:18:09Z</time>
      </trkpt>
      <trkpt lat="46.12464" lon="6.71101">
        <ele>1640</ele>
        <time>2019-06-11T15:18:15Z</time>
      </trkpt>
      <trkpt lat="46.12516" lon="6.71089">
        <ele>1642</ele>
        <time>2019-06-11T15:18:24Z</time>
      </trkpt>
      <trkpt lat="46.12528" lon="6.7109">
        <ele>1642</ele>
        <time>2019-06-11T15:18:26Z</time>
      </trkpt>
      <trkpt lat="46.1257" lon="6.7111">
        <ele>1652</ele>
        <time>2019-06-11T15:18:34Z</time>
      </trkpt>
      <trkpt lat="46.12586" lon="6.71108">
        <ele>1652</ele>
        <time>2019-06-11T15:18:37Z</time>
      </trkpt>
      <trkpt lat="46.12612" lon="6.71098">
        <ele>1649</ele>
        <time>2019-06-11T15:18:42Z</time>
      </trkpt>
      <trkpt lat="46.12619" lon="6.71098">
        <ele>1649</ele>
        <time>2019-06-11T15:18:43Z</time>
      </trkpt>
      <trkpt lat="46.12654" lon="6.7111">
        <ele>1656</ele>
        <time>2019-06-11T15:18:49Z</time>
      </trkpt>
      <trkpt lat="46.12727" lon="6.71105">
        <ele>1656</ele>
        <time>2019-06-11T15:19:02Z</time>
      </trkpt>
      <trkpt lat="46.12743" lon="6.7111">
        <ele>1658</ele>
        <time>2019-06-11T15:19:05Z</time>
      </trkpt>
      <trkpt lat="46.12826" lon="6.71183">
        <ele>1677</ele>
        <time>2019-06-11T15:19:23Z</time>
      </trkpt>
      <trkpt lat="46.1284" lon="6.71201">
        <ele>1680</ele>
        <time>2019-06-11T15:19:26Z</time>
      </trkpt>
      <trkpt lat="46.12848" lon="6.71217">
        <ele>1682</ele>
        <time>2019-06-11T15:19:28Z</time>
      </trkpt>
      <trkpt lat="46.12855" lon="6.71237">
        <ele>1685</ele>
        <time>2019-06-11T15:19:31Z</time>
      </trkpt>
      <trkpt lat="46.12874" lon="6.71317">
        <ele>1690</ele>
        <time>2019-06-11T15:19:42Z</time>
      </trkpt>
      <trkpt lat="46.1288" lon="6.7133">
        <ele>1690</ele>
        <time>2019-06-11T15:19:43Z</time>
      </trkpt>
      <trkpt lat="46.12889" lon="6.7134">
        <ele>1691</ele>
        <time>2019-06-11T15:19:46Z</time>
      </trkpt>
      <trkpt lat="46.12905" lon="6.71347">
        <ele>1690</ele>
        <time>2019-06-11T15:19:48Z</time>
      </trkpt>
      <trkpt lat="46.12916" lon="6.71346">
        <ele>1689</ele>
        <time>2019-06-11T15:19:50Z</time>
      </trkpt>
      <trkpt lat="46.12929" lon="6.71341">
        <ele>1690</ele>
        <time>2019-06-11T15:19:53Z</time>
      </trkpt>
      <trkpt lat="46.12948" lon="6.71322">
        <ele>1692</ele>
        <time>2019-06-11T15:19:57Z</time>
      </trkpt>
      <trkpt lat="46.1296" lon="6.71297">
        <ele>1692</ele>
        <time>2019-06-11T15:20:01Z</time>
      </trkpt>
      <trkpt lat="46.12963" lon="6.71286">
        <ele>1692</ele>
        <time>2019-06-11T15:20:02Z</time>
      </trkpt>
      <trkpt lat="46.12963" lon="6.71256">
        <ele>1690</ele>
        <time>2019-06-11T15:20:06Z</time>
      </trkpt>
      <trkpt lat="46.1296" lon="6.71154">
        <ele>1686</ele>
        <time>2019-06-11T15:20:18Z</time>
      </trkpt>
      <trkpt lat="46.12954" lon="6.7106">
        <ele>1685</ele>
        <time>2019-06-11T15:20:30Z</time>
      </trkpt>
      <trkpt lat="46.12956" lon="6.71029">
        <ele>1684</ele>
        <time>2019-06-11T15:20:34Z</time>
      </trkpt>
      <trkpt lat="46.12973" lon="6.70971">
        <ele>1682</ele>
        <time>2019-06-11T15:20:42Z</time>
      </trkpt>
      <trkpt lat="46.12975" lon="6.70955">
        <ele>1681</ele>
        <time>2019-06-11T15:20:44Z</time>
      </trkpt>
      <trkpt lat="46.12976" lon="6.70931">
        <ele>1680</ele>
        <time>2019-06-11T15:20:47Z</time>
      </trkpt>
      <trkpt lat="46.12974" lon="6.70882">
        <ele>1677</ele>
        <time>2019-06-11T15:20:53Z</time>
      </trkpt>
      <trkpt lat="46.12976" lon="6.7087">
        <ele>1677</ele>
        <time>2019-06-11T15:20:54Z</time>
      </trkpt>
      <trkpt lat="46.1298" lon="6.70859">
        <ele>1676</ele>
        <time>2019-06-11T15:20:56Z</time>
      </trkpt>
      <trkpt lat="46.12991" lon="6.70841">
        <ele>1677</ele>
        <time>2019-06-11T15:20:59Z</time>
      </trkpt>
      <trkpt lat="46.13021" lon="6.70808">
        <ele>1682</ele>
        <time>2019-06-11T15:21:05Z</time>
      </trkpt>
      <trkpt lat="46.13033" lon="6.70789">
        <ele>1684</ele>
        <time>2019-06-11T15:21:09Z</time>
      </trkpt>
      <trkpt lat="46.13037" lon="6.70778">
        <ele>1685</ele>
        <time>2019-06-11T15:21:10Z</time>
      </trkpt>
      <trkpt lat="46.13041" lon="6.70763">
        <ele>1686</ele>
        <time>2019-06-11T15:21:12Z</time>
      </trkpt>
      <trkpt lat="46.1304" lon="6.7074">
        <ele>1688</ele>
        <time>2019-06-11T15:21:15Z</time>
      </trkpt>
      <trkpt lat="46.13035" lon="6.70721">
        <ele>1689</ele>
        <time>2019-06-11T15:21:17Z</time>
      </trkpt>
      <trkpt lat="46.1299" lon="6.70622">
        <ele>1689</ele>
        <time>2019-06-11T15:21:32Z</time>
      </trkpt>
      <trkpt lat="46.12979" lon="6.70602">
        <ele>1690</ele>
        <time>2019-06-11T15:21:35Z</time>
      </trkpt>
      <trkpt lat="46.12959" lon="6.70576">
        <ele>1687</ele>
        <time>2019-06-11T15:21:40Z</time>
      </trkpt>
      <trkpt lat="46.12881" lon="6.70497">
        <ele>1671</ele>
        <time>2019-06-11T15:21:57Z</time>
      </trkpt>
      <trkpt lat="46.1284" lon="6.70437">
        <ele>1671</ele>
        <time>2019-06-11T15:22:07Z</time>
      </trkpt>
      <trkpt lat="46.12836" lon="6.70427">
        <ele>1672</ele>
        <time>2019-06-11T15:22:09Z</time>
      </trkpt>
      <trkpt lat="46.1283" lon="6.70408">
        <ele>1674</ele>
        <time>2019-06-11T15:22:11Z</time>
      </trkpt>
      <trkpt lat="46.12824" lon="6.70397">
        <ele>1674</ele>
        <time>2019-06-11T15:22:13Z</time>
      </trkpt>
      <trkpt lat="46.12816" lon="6.70389">
        <ele>1671</ele>
        <time>2019-06-11T15:22:15Z</time>
      </trkpt>
      <trkpt lat="46.128" lon="6.70379">
        <ele>1665</ele>
        <time>2019-06-11T15:22:18Z</time>
      </trkpt>
      <trkpt lat="46.12795" lon="6.70371">
        <ele>1665</ele>
        <time>2019-06-11T15:22:19Z</time>
      </trkpt>
      <trkpt lat="46.12782" lon="6.70344">
        <ele>1667</ele>
        <time>2019-06-11T15:22:23Z</time>
      </trkpt>
      <trkpt lat="46.12775" lon="6.70315">
        <ele>1672</ele>
        <time>2019-06-11T15:22:27Z</time>
      </trkpt>
      <trkpt lat="46.12772" lon="6.70308">
        <ele>1672</ele>
        <time>2019-06-11T15:22:28Z</time>
      </trkpt>
      <trkpt lat="46.12767" lon="6.70302">
        <ele>1671</ele>
        <time>2019-06-11T15:22:29Z</time>
      </trkpt>
      <trkpt lat="46.12754" lon="6.70294">
        <ele>1666</ele>
        <time>2019-06-11T15:22:32Z</time>
      </trkpt>
      <trkpt lat="46.12744" lon="6.70282">
        <ele>1663</ele>
        <time>2019-06-11T15:22:34Z</time>
      </trkpt>
      <trkpt lat="46.12739" lon="6.70261">
        <ele>1665</ele>
        <time>2019-06-11T15:22:37Z</time>
      </trkpt>
      <trkpt lat="46.12739" lon="6.70229">
        <ele>1666</ele>
        <time>2019-06-11T15:22:41Z</time>
      </trkpt>
      <trkpt lat="46.12744" lon="6.70196">
        <ele>1668</ele>
        <time>2019-06-11T15:22:45Z</time>
      </trkpt>
      <trkpt lat="46.12756" lon="6.7015">
        <ele>1675</ele>
        <time>2019-06-11T15:22:51Z</time>
      </trkpt>
      <trkpt lat="46.12758" lon="6.70127">
        <ele>1677</ele>
        <time>2019-06-11T15:22:54Z</time>
      </trkpt>
      <trkpt lat="46.12758" lon="6.70117">
        <ele>1678</ele>
        <time>2019-06-11T15:22:55Z</time>
      </trkpt>
      <trkpt lat="46.12755" lon="6.701">
        <ele>1677</ele>
        <time>2019-06-11T15:22:57Z</time>
      </trkpt>
      <trkpt lat="46.12749" lon="6.70082">
        <ele>1674</ele>
        <time>2019-06-11T15:23:00Z</time>
      </trkpt>
      <trkpt lat="46.12741" lon="6.70065">
        <ele>1673</ele>
        <time>2019-06-11T15:23:02Z</time>
      </trkpt>
      <trkpt lat="46.12718" lon="6.7003">
        <ele>1667</ele>
        <time>2019-06-11T15:23:08Z</time>
      </trkpt>
      <trkpt lat="46.1271" lon="6.70008">
        <ele>1666</ele>
        <time>2019-06-11T15:23:11Z</time>
      </trkpt>
      <trkpt lat="46.12706" lon="6.69991">
        <ele>1665</ele>
        <time>2019-06-11T15:23:13Z</time>
      </trkpt>
      <trkpt lat="46.12705" lon="6.69972">
        <ele>1664</ele>
        <time>2019-06-11T15:23:16Z</time>
      </trkpt>
      <trkpt lat="46.12707" lon="6.69937">
        <ele>1664</ele>
        <time>2019-06-11T15:23:20Z</time>
      </trkpt>
      <trkpt lat="46.12719" lon="6.69861">
        <ele>1658</ele>
        <time>2019-06-11T15:23:30Z</time>
      </trkpt>
      <trkpt lat="46.12726" lon="6.69838">
        <ele>1655</ele>
        <time>2019-06-11T15:23:33Z</time>
      </trkpt>
      <trkpt lat="46.12738" lon="6.69819">
        <ele>1655</ele>
        <time>2019-06-11T15:23:36Z</time>
      </trkpt>
      <trkpt lat="46.12756" lon="6.69809">
        <ele>1656</ele>
        <time>2019-06-11T15:23:39Z</time>
      </trkpt>
      <trkpt lat="46.12769" lon="6.69807">
        <ele>1655</ele>
        <time>2019-06-11T15:23:42Z</time>
      </trkpt>
      <trkpt lat="46.12788" lon="6.69813">
        <ele>1654</ele>
        <time>2019-06-11T15:23:45Z</time>
      </trkpt>
      <trkpt lat="46.12808" lon="6.69827">
        <ele>1654</ele>
        <time>2019-06-11T15:23:49Z</time>
      </trkpt>
      <trkpt lat="46.12827" lon="6.69837">
        <ele>1655</ele>
        <time>2019-06-11T15:23:53Z</time>
      </trkpt>
      <trkpt lat="46.1284" lon="6.6984">
        <ele>1655</ele>
        <time>2019-06-11T15:23:55Z</time>
      </trkpt>
      <trkpt lat="46.12893" lon="6.69836">
        <ele>1650</ele>
        <time>2019-06-11T15:24:05Z</time>
      </trkpt>
      <trkpt lat="46.12911" lon="6.69831">
        <ele>1648</ele>
        <time>2019-06-11T15:24:08Z</time>
      </trkpt>
      <trkpt lat="46.12926" lon="6.69823">
        <ele>1647</ele>
        <time>2019-06-11T15:24:11Z</time>
      </trkpt>
      <trkpt lat="46.12938" lon="6.69813">
        <ele>1647</ele>
        <time>2019-06-11T15:24:13Z</time>
      </trkpt>
      <trkpt lat="46.12949" lon="6.69797">
        <ele>1645</ele>
        <time>2019-06-11T15:24:16Z</time>
      </trkpt>
      <trkpt lat="46.12961" lon="6.69777">
        <ele>1643</ele>
        <time>2019-06-11T15:24:19Z</time>
      </trkpt>
      <trkpt lat="46.12986" lon="6.69725">
        <ele>1636</ele>
        <time>2019-06-11T15:24:27Z</time>
      </trkpt>
      <trkpt lat="46.12996" lon="6.69707">
        <ele>1634</ele>
        <time>2019-06-11T15:24:30Z</time>
      </trkpt>
      <trkpt lat="46.13014" lon="6.69686">
        <ele>1631</ele>
        <time>2019-06-11T15:24:34Z</time>
      </trkpt>
      <trkpt lat="46.13082" lon="6.69618">
        <ele>1621</ele>
        <time>2019-06-11T15:24:49Z</time>
      </trkpt>
      <trkpt lat="46.13101" lon="6.69606">
        <ele>1619</ele>
        <time>2019-06-11T15:24:52Z</time>
      </trkpt>
      <trkpt lat="46.1312" lon="6.69602">
        <ele>1618</ele>
        <time>2019-06-11T15:24:56Z</time>
      </trkpt>
      <trkpt lat="46.13373" lon="6.6957">
        <ele>1620</ele>
        <time>2019-06-11T15:25:41Z</time>
      </trkpt>
      <trkpt lat="46.13401" lon="6.69571">
        <ele>1621</ele>
        <time>2019-06-11T15:25:46Z</time>
      </trkpt>
      <trkpt lat="46.13423" lon="6.69574">
        <ele>1622</ele>
        <time>2019-06-11T15:25:50Z</time>
      </trkpt>
      <trkpt lat="46.13437" lon="6.69578">
        <ele>1623</ele>
        <time>2019-06-11T15:25:52Z</time>
      </trkpt>
      <trkpt lat="46.13473" lon="6.69596">
        <ele>1626</ele>
        <time>2019-06-11T15:25:59Z</time>
      </trkpt>
      <trkpt lat="46.13555" lon="6.69643">
        <ele>1629</ele>
        <time>2019-06-11T15:26:15Z</time>
      </trkpt>
      <trkpt lat="46.13565" lon="6.69653">
        <ele>1630</ele>
        <time>2019-06-11T15:26:17Z</time>
      </trkpt>
      <trkpt lat="46.1361" lon="6.69704">
        <ele>1646</ele>
        <time>2019-06-11T15:26:27Z</time>
      </trkpt>
      <trkpt lat="46.1362" lon="6.69712">
        <ele>1649</ele>
        <time>2019-06-11T15:26:29Z</time>
      </trkpt>
      <trkpt lat="46.13636" lon="6.69717">
        <ele>1651</ele>
        <time>2019-06-11T15:26:32Z</time>
      </trkpt>
      <trkpt lat="46.13646" lon="6.69716">
        <ele>1651</ele>
        <time>2019-06-11T15:26:34Z</time>
      </trkpt>
      <trkpt lat="46.13656" lon="6.69712">
        <ele>1650</ele>
        <time>2019-06-11T15:26:36Z</time>
      </trkpt>
      <trkpt lat="46.13677" lon="6.69694">
        <ele>1647</ele>
        <time>2019-06-11T15:26:40Z</time>
      </trkpt>
      <trkpt lat="46.13725" lon="6.69622">
        <ele>1647</ele>
        <time>2019-06-11T15:26:53Z</time>
      </trkpt>
      <trkpt lat="46.13779" lon="6.69553">
        <ele>1648</ele>
        <time>2019-06-11T15:27:05Z</time>
      </trkpt>
      <trkpt lat="46.13792" lon="6.69543">
        <ele>1647</ele>
        <time>2019-06-11T15:27:08Z</time>
      </trkpt>
      <trkpt lat="46.13807" lon="6.69538">
        <ele>1648</ele>
        <time>2019-06-11T15:27:11Z</time>
      </trkpt>
      <trkpt lat="46.13816" lon="6.69539">
        <ele>1650</ele>
        <time>2019-06-11T15:27:12Z</time>
      </trkpt>
      <trkpt lat="46.13887" lon="6.69582">
        <ele>1653</ele>
        <time>2019-06-11T15:27:26Z</time>
      </trkpt>
      <trkpt lat="46.13898" lon="6.69584">
        <ele>1652</ele>
        <time>2019-06-11T15:27:28Z</time>
      </trkpt>
      <trkpt lat="46.13916" lon="6.69579">
        <ele>1650</ele>
        <time>2019-06-11T15:27:31Z</time>
      </trkpt>
      <trkpt lat="46.13958" lon="6.69559">
        <ele>1650</ele>
        <time>2019-06-11T15:27:39Z</time>
      </trkpt>
      <trkpt lat="46.13986" lon="6.69554">
        <ele>1652</ele>
        <time>2019-06-11T15:27:44Z</time>
      </trkpt>
      <trkpt lat="46.13994" lon="6.69557">
        <ele>1652</ele>
        <time>2019-06-11T15:27:46Z</time>
      </trkpt>
      <trkpt lat="46.13997" lon="6.69564">
        <ele>1652</ele>
        <time>2019-06-11T15:27:47Z</time>
      </trkpt>
      <trkpt lat="46.13997" lon="6.69572">
        <ele>1652</ele>
        <time>2019-06-11T15:27:48Z</time>
      </trkpt>
      <trkpt lat="46.13993" lon="6.69577">
        <ele>1652</ele>
        <time>2019-06-11T15:27:49Z</time>
      </trkpt>
      <trkpt lat="46.13979" lon="6.69578">
        <ele>1651</ele>
        <time>2019-06-11T15:27:51Z</time>
      </trkpt>
      <trkpt lat="46.13953" lon="6.69591">
        <ele>1649</ele>
        <time>2019-06-11T15:27:56Z</time>
      </trkpt>
      <trkpt lat="46.13943" lon="6.69605">
        <ele>1646</ele>
        <time>2019-06-11T15:27:58Z</time>
      </trkpt>
      <trkpt lat="46.13928" lon="6.69637">
        <ele>1639</ele>
        <time>2019-06-11T15:28:03Z</time>
      </trkpt>
      <trkpt lat="46.13924" lon="6.69643">
        <ele>1638</ele>
        <time>2019-06-11T15:28:04Z</time>
      </trkpt>
      <trkpt lat="46.13907" lon="6.69655">
        <ele>1638</ele>
        <time>2019-06-11T15:28:08Z</time>
      </trkpt>
      <trkpt lat="46.13883" lon="6.69664">
        <ele>1642</ele>
        <time>2019-06-11T15:28:12Z</time>
      </trkpt>
      <trkpt lat="46.13873" lon="6.6967">
        <ele>1643</ele>
        <time>2019-06-11T15:28:14Z</time>
      </trkpt>
      <trkpt lat="46.13848" lon="6.69696">
        <ele>1643</ele>
        <time>2019-06-11T15:28:19Z</time>
      </trkpt>
      <trkpt lat="46.13836" lon="6.69714">
        <ele>1641</ele>
        <time>2019-06-11T15:28:22Z</time>
      </trkpt>
      <trkpt lat="46.13817" lon="6.69756">
        <ele>1637</ele>
        <time>2019-06-11T15:28:29Z</time>
      </trkpt>
      <trkpt lat="46.138" lon="6.69802">
        <ele>1637</ele>
        <time>2019-06-11T15:28:35Z</time>
      </trkpt>
      <trkpt lat="46.1378" lon="6.69919">
        <ele>1625</ele>
        <time>2019-06-11T15:28:50Z</time>
      </trkpt>
      <trkpt lat="46.13764" lon="6.69974">
        <ele>1624</ele>
        <time>2019-06-11T15:28:57Z</time>
      </trkpt>
      <trkpt lat="46.13759" lon="6.69996">
        <ele>1622</ele>
        <time>2019-06-11T15:29:00Z</time>
      </trkpt>
      <trkpt lat="46.13749" lon="6.70066">
        <ele>1610</ele>
        <time>2019-06-11T15:29:09Z</time>
      </trkpt>
      <trkpt lat="46.13752" lon="6.70079">
        <ele>1606</ele>
        <time>2019-06-11T15:29:11Z</time>
      </trkpt>
      <trkpt lat="46.13755" lon="6.70082">
        <ele>1605</ele>
        <time>2019-06-11T15:29:11Z</time>
      </trkpt>
      <trkpt lat="46.13759" lon="6.70083">
        <ele>1604</ele>
        <time>2019-06-11T15:29:12Z</time>
      </trkpt>
      <trkpt lat="46.13766" lon="6.70079">
        <ele>1603</ele>
        <time>2019-06-11T15:29:13Z</time>
      </trkpt>
      <trkpt lat="46.13808" lon="6.70012">
        <ele>1604</ele>
        <time>2019-06-11T15:29:24Z</time>
      </trkpt>
      <trkpt lat="46.13841" lon="6.69943">
        <ele>1600</ele>
        <time>2019-06-11T15:29:35Z</time>
      </trkpt>
      <trkpt lat="46.13847" lon="6.69936">
        <ele>1598</ele>
        <time>2019-06-11T15:29:36Z</time>
      </trkpt>
      <trkpt lat="46.13854" lon="6.69936">
        <ele>1596</ele>
        <time>2019-06-11T15:29:37Z</time>
      </trkpt>
      <trkpt lat="46.13856" lon="6.6994">
        <ele>1595</ele>
        <time>2019-06-11T15:29:38Z</time>
      </trkpt>
      <trkpt lat="46.13858" lon="6.6995">
        <ele>1594</ele>
        <time>2019-06-11T15:29:39Z</time>
      </trkpt>
      <trkpt lat="46.13857" lon="6.69995">
        <ele>1591</ele>
        <time>2019-06-11T15:29:45Z</time>
      </trkpt>
      <trkpt lat="46.13861" lon="6.70038">
        <ele>1584</ele>
        <time>2019-06-11T15:29:50Z</time>
      </trkpt>
      <trkpt lat="46.13861" lon="6.70054">
        <ele>1582</ele>
        <time>2019-06-11T15:29:52Z</time>
      </trkpt>
      <trkpt lat="46.13854" lon="6.70073">
        <ele>1582</ele>
        <time>2019-06-11T15:29:55Z</time>
      </trkpt>
      <trkpt lat="46.13834" lon="6.701">
        <ele>1584</ele>
        <time>2019-06-11T15:30:00Z</time>
      </trkpt>
      <trkpt lat="46.13816" lon="6.70132">
        <ele>1582</ele>
        <time>2019-06-11T15:30:05Z</time>
      </trkpt>
      <trkpt lat="46.13786" lon="6.70221">
        <ele>1569</ele>
        <time>2019-06-11T15:30:17Z</time>
      </trkpt>
      <trkpt lat="46.13767" lon="6.70258">
        <ele>1563</ele>
        <time>2019-06-11T15:30:23Z</time>
      </trkpt>
      <trkpt lat="46.13757" lon="6.70269">
        <ele>1561</ele>
        <time>2019-06-11T15:30:25Z</time>
      </trkpt>
      <trkpt lat="46.13751" lon="6.70272">
        <ele>1561</ele>
        <time>2019-06-11T15:30:26Z</time>
      </trkpt>
      <trkpt lat="46.13727" lon="6.70281">
        <ele>1563</ele>
        <time>2019-06-11T15:30:30Z</time>
      </trkpt>
      <trkpt lat="46.13718" lon="6.70291">
        <ele>1561</ele>
        <time>2019-06-11T15:30:33Z</time>
      </trkpt>
      <trkpt lat="46.137" lon="6.70318">
        <ele>1556</ele>
        <time>2019-06-11T15:30:37Z</time>
      </trkpt>
      <trkpt lat="46.13652" lon="6.70364">
        <ele>1555</ele>
        <time>2019-06-11T15:30:47Z</time>
      </trkpt>
      <trkpt lat="46.13629" lon="6.70396">
        <ele>1555</ele>
        <time>2019-06-11T15:30:53Z</time>
      </trkpt>
      <trkpt lat="46.13607" lon="6.70438">
        <ele>1553</ele>
        <time>2019-06-11T15:31:00Z</time>
      </trkpt>
      <trkpt lat="46.13601" lon="6.70456">
        <ele>1551</ele>
        <time>2019-06-11T15:31:02Z</time>
      </trkpt>
      <trkpt lat="46.13598" lon="6.70467">
        <ele>1550</ele>
        <time>2019-06-11T15:31:03Z</time>
      </trkpt>
      <trkpt lat="46.13597" lon="6.70488">
        <ele>1546</ele>
        <time>2019-06-11T15:31:06Z</time>
      </trkpt>
      <trkpt lat="46.136" lon="6.70508">
        <ele>1541</ele>
        <time>2019-06-11T15:31:09Z</time>
      </trkpt>
      <trkpt lat="46.13601" lon="6.70531">
        <ele>1537</ele>
        <time>2019-06-11T15:31:11Z</time>
      </trkpt>
      <trkpt lat="46.136" lon="6.7054">
        <ele>1537</ele>
        <time>2019-06-11T15:31:13Z</time>
      </trkpt>
      <trkpt lat="46.13592" lon="6.70568">
        <ele>1538</ele>
        <time>2019-06-11T15:31:16Z</time>
      </trkpt>
      <trkpt lat="46.13589" lon="6.70585">
        <ele>1538</ele>
        <time>2019-06-11T15:31:18Z</time>
      </trkpt>
      <trkpt lat="46.13588" lon="6.70614">
        <ele>1537</ele>
        <time>2019-06-11T15:31:22Z</time>
      </trkpt>
      <trkpt lat="46.13591" lon="6.70635">
        <ele>1535</ele>
        <time>2019-06-11T15:31:25Z</time>
      </trkpt>
      <trkpt lat="46.13603" lon="6.70676">
        <ele>1527</ele>
        <time>2019-06-11T15:31:30Z</time>
      </trkpt>
      <trkpt lat="46.13621" lon="6.70745">
        <ele>1521</ele>
        <time>2019-06-11T15:31:39Z</time>
      </trkpt>
      <trkpt lat="46.13625" lon="6.70755">
        <ele>1520</ele>
        <time>2019-06-11T15:31:41Z</time>
      </trkpt>
      <trkpt lat="46.13639" lon="6.70778">
        <ele>1517</ele>
        <time>2019-06-11T15:31:44Z</time>
      </trkpt>
      <trkpt lat="46.13665" lon="6.70811">
        <ele>1510</ele>
        <time>2019-06-11T15:31:51Z</time>
      </trkpt>
      <trkpt lat="46.1369" lon="6.70891">
        <ele>1514</ele>
        <time>2019-06-11T15:32:01Z</time>
      </trkpt>
      <trkpt lat="46.13696" lon="6.70899">
        <ele>1513</ele>
        <time>2019-06-11T15:32:03Z</time>
      </trkpt>
      <trkpt lat="46.13706" lon="6.7091">
        <ele>1511</ele>
        <time>2019-06-11T15:32:05Z</time>
      </trkpt>
      <trkpt lat="46.13722" lon="6.70919">
        <ele>1506</ele>
        <time>2019-06-11T15:32:08Z</time>
      </trkpt>
      <trkpt lat="46.13756" lon="6.70924">
        <ele>1495</ele>
        <time>2019-06-11T15:32:14Z</time>
      </trkpt>
      <trkpt lat="46.13776" lon="6.70922">
        <ele>1492</ele>
        <time>2019-06-11T15:32:18Z</time>
      </trkpt>
      <trkpt lat="46.13808" lon="6.70911">
        <ele>1488</ele>
        <time>2019-06-11T15:32:24Z</time>
      </trkpt>
      <trkpt lat="46.13816" lon="6.70911">
        <ele>1487</ele>
        <time>2019-06-11T15:32:25Z</time>
      </trkpt>
      <trkpt lat="46.13825" lon="6.70915">
        <ele>1486</ele>
        <time>2019-06-11T15:32:27Z</time>
      </trkpt>
      <trkpt lat="46.13833" lon="6.70922">
        <ele>1485</ele>
        <time>2019-06-11T15:32:28Z</time>
      </trkpt>
      <trkpt lat="46.1386" lon="6.70954">
        <ele>1485</ele>
        <time>2019-06-11T15:32:35Z</time>
      </trkpt>
      <trkpt lat="46.13869" lon="6.70959">
        <ele>1484</ele>
        <time>2019-06-11T15:32:36Z</time>
      </trkpt>
      <trkpt lat="46.13879" lon="6.70962">
        <ele>1484</ele>
        <time>2019-06-11T15:32:38Z</time>
      </trkpt>
      <trkpt lat="46.13921" lon="6.70947">
        <ele>1483</ele>
        <time>2019-06-11T15:32:46Z</time>
      </trkpt>
      <trkpt lat="46.13956" lon="6.70926">
        <ele>1483</ele>
        <time>2019-06-11T15:32:53Z</time>
      </trkpt>
      <trkpt lat="46.13966" lon="6.70917">
        <ele>1482</ele>
        <time>2019-06-11T15:32:55Z</time>
      </trkpt>
      <trkpt lat="46.13983" lon="6.70889">
        <ele>1480</ele>
        <time>2019-06-11T15:32:59Z</time>
      </trkpt>
      <trkpt lat="46.14006" lon="6.70842">
        <ele>1475</ele>
        <time>2019-06-11T15:33:06Z</time>
      </trkpt>
      <trkpt lat="46.14014" lon="6.7083">
        <ele>1474</ele>
        <time>2019-06-11T15:33:08Z</time>
      </trkpt>
      <trkpt lat="46.14024" lon="6.70819">
        <ele>1474</ele>
        <time>2019-06-11T15:33:11Z</time>
      </trkpt>
      <trkpt lat="46.14063" lon="6.70783">
        <ele>1470</ele>
        <time>2019-06-11T15:33:19Z</time>
      </trkpt>
      <trkpt lat="46.14089" lon="6.70745">
        <ele>1464</ele>
        <time>2019-06-11T15:33:26Z</time>
      </trkpt>
      <trkpt lat="46.14126" lon="6.70715">
        <ele>1461</ele>
        <time>2019-06-11T15:33:33Z</time>
      </trkpt>
      <trkpt lat="46.14138" lon="6.70702">
        <ele>1459</ele>
        <time>2019-06-11T15:33:36Z</time>
      </trkpt>
      <trkpt lat="46.14152" lon="6.70679">
        <ele>1455</ele>
        <time>2019-06-11T15:33:40Z</time>
      </trkpt>
      <trkpt lat="46.14164" lon="6.70665">
        <ele>1452</ele>
        <time>2019-06-11T15:33:42Z</time>
      </trkpt>
      <trkpt lat="46.14183" lon="6.70655">
        <ele>1452</ele>
        <time>2019-06-11T15:33:46Z</time>
      </trkpt>
      <trkpt lat="46.1421" lon="6.70651">
        <ele>1452</ele>
        <time>2019-06-11T15:33:51Z</time>
      </trkpt>
      <trkpt lat="46.14224" lon="6.70646">
        <ele>1452</ele>
        <time>2019-06-11T15:33:53Z</time>
      </trkpt>
      <trkpt lat="46.14279" lon="6.70615">
        <ele>1450</ele>
        <time>2019-06-11T15:34:04Z</time>
      </trkpt>
      <trkpt lat="46.143" lon="6.70596">
        <ele>1447</ele>
        <time>2019-06-11T15:34:08Z</time>
      </trkpt>
      <trkpt lat="46.14354" lon="6.70524">
        <ele>1437</ele>
        <time>2019-06-11T15:34:21Z</time>
      </trkpt>
      <trkpt lat="46.14364" lon="6.70518">
        <ele>1436</ele>
        <time>2019-06-11T15:34:23Z</time>
      </trkpt>
      <trkpt lat="46.14457" lon="6.70496">
        <ele>1431</ele>
        <time>2019-06-11T15:34:40Z</time>
      </trkpt>
      <trkpt lat="46.14523" lon="6.70475">
        <ele>1423</ele>
        <time>2019-06-11T15:34:52Z</time>
      </trkpt>
      <trkpt lat="46.14606" lon="6.70464">
        <ele>1410</ele>
        <time>2019-06-11T15:35:07Z</time>
      </trkpt>
      <trkpt lat="46.14642" lon="6.70447">
        <ele>1402</ele>
        <time>2019-06-11T15:35:14Z</time>
      </trkpt>
      <trkpt lat="46.14653" lon="6.70445">
        <ele>1400</ele>
        <time>2019-06-11T15:35:16Z</time>
      </trkpt>
      <trkpt lat="46.14663" lon="6.7045">
        <ele>1399</ele>
        <time>2019-06-11T15:35:17Z</time>
      </trkpt>
      <trkpt lat="46.1467" lon="6.70461">
        <ele>1399</ele>
        <time>2019-06-11T15:35:19Z</time>
      </trkpt>
      <trkpt lat="46.14673" lon="6.70476">
        <ele>1400</ele>
        <time>2019-06-11T15:35:21Z</time>
      </trkpt>
      <trkpt lat="46.14676" lon="6.70507">
        <ele>1403</ele>
        <time>2019-06-11T15:35:25Z</time>
      </trkpt>
      <trkpt lat="46.14678" lon="6.70513">
        <ele>1405</ele>
        <time>2019-06-11T15:35:26Z</time>
      </trkpt>
      <trkpt lat="46.14682" lon="6.70515">
        <ele>1404</ele>
        <time>2019-06-11T15:35:27Z</time>
      </trkpt>
      <trkpt lat="46.14691" lon="6.70514">
        <ele>1403</ele>
        <time>2019-06-11T15:35:28Z</time>
      </trkpt>
      <trkpt lat="46.14694" lon="6.70509">
        <ele>1401</ele>
        <time>2019-06-11T15:35:29Z</time>
      </trkpt>
      <trkpt lat="46.14697" lon="6.70503">
        <ele>1399</ele>
        <time>2019-06-11T15:35:30Z</time>
      </trkpt>
      <trkpt lat="46.14705" lon="6.70466">
        <ele>1395</ele>
        <time>2019-06-11T15:35:35Z</time>
      </trkpt>
      <trkpt lat="46.14707" lon="6.7046">
        <ele>1394</ele>
        <time>2019-06-11T15:35:36Z</time>
      </trkpt>
      <trkpt lat="46.14711" lon="6.70457">
        <ele>1393</ele>
        <time>2019-06-11T15:35:36Z</time>
      </trkpt>
      <trkpt lat="46.14715" lon="6.70457">
        <ele>1392</ele>
        <time>2019-06-11T15:35:37Z</time>
      </trkpt>
      <trkpt lat="46.14719" lon="6.70459">
        <ele>1392</ele>
        <time>2019-06-11T15:35:38Z</time>
      </trkpt>
      <trkpt lat="46.14724" lon="6.7047">
        <ele>1392</ele>
        <time>2019-06-11T15:35:39Z</time>
      </trkpt>
      <trkpt lat="46.14729" lon="6.70493">
        <ele>1393</ele>
        <time>2019-06-11T15:35:42Z</time>
      </trkpt>
      <trkpt lat="46.14735" lon="6.70508">
        <ele>1394</ele>
        <time>2019-06-11T15:35:45Z</time>
      </trkpt>
      <trkpt lat="46.14744" lon="6.70516">
        <ele>1395</ele>
        <time>2019-06-11T15:35:46Z</time>
      </trkpt>
      <trkpt lat="46.14757" lon="6.70521">
        <ele>1394</ele>
        <time>2019-06-11T15:35:49Z</time>
      </trkpt>
      <trkpt lat="46.14798" lon="6.70521">
        <ele>1387</ele>
        <time>2019-06-11T15:35:56Z</time>
      </trkpt>
      <trkpt lat="46.14862" lon="6.70516">
        <ele>1374</ele>
        <time>2019-06-11T15:36:08Z</time>
      </trkpt>
      <trkpt lat="46.1492" lon="6.7049">
        <ele>1361</ele>
        <time>2019-06-11T15:36:18Z</time>
      </trkpt>
      <trkpt lat="46.14932" lon="6.70488">
        <ele>1361</ele>
        <time>2019-06-11T15:36:20Z</time>
      </trkpt>
      <trkpt lat="46.14938" lon="6.70488">
        <ele>1361</ele>
        <time>2019-06-11T15:36:22Z</time>
      </trkpt>
      <trkpt lat="46.14958" lon="6.70495">
        <ele>1361</ele>
        <time>2019-06-11T15:36:25Z</time>
      </trkpt>
      <trkpt lat="46.14992" lon="6.70525">
        <ele>1361</ele>
        <time>2019-06-11T15:36:32Z</time>
      </trkpt>
      <trkpt lat="46.15005" lon="6.70532">
        <ele>1360</ele>
        <time>2019-06-11T15:36:35Z</time>
      </trkpt>
      <trkpt lat="46.15044" lon="6.70537">
        <ele>1356</ele>
        <time>2019-06-11T15:36:42Z</time>
      </trkpt>
      <trkpt lat="46.15086" lon="6.70535">
        <ele>1350</ele>
        <time>2019-06-11T15:36:49Z</time>
      </trkpt>
      <trkpt lat="46.15096" lon="6.70539">
        <ele>1349</ele>
        <time>2019-06-11T15:36:51Z</time>
      </trkpt>
      <trkpt lat="46.15121" lon="6.70558">
        <ele>1348</ele>
        <time>2019-06-11T15:36:56Z</time>
      </trkpt>
      <trkpt lat="46.15132" lon="6.70562">
        <ele>1347</ele>
        <time>2019-06-11T15:36:58Z</time>
      </trkpt>
      <trkpt lat="46.15151" lon="6.70558">
        <ele>1345</ele>
        <time>2019-06-11T15:37:02Z</time>
      </trkpt>
      <trkpt lat="46.15236" lon="6.70508">
        <ele>1338</ele>
        <time>2019-06-11T15:37:18Z</time>
      </trkpt>
      <trkpt lat="46.15252" lon="6.70501">
        <ele>1337</ele>
        <time>2019-06-11T15:37:21Z</time>
      </trkpt>
      <trkpt lat="46.15302" lon="6.70487">
        <ele>1339</ele>
        <time>2019-06-11T15:37:30Z</time>
      </trkpt>
      <trkpt lat="46.15366" lon="6.70463">
        <ele>1338</ele>
        <time>2019-06-11T15:37:42Z</time>
      </trkpt>
      <trkpt lat="46.15403" lon="6.70453">
        <ele>1338</ele>
        <time>2019-06-11T15:37:48Z</time>
      </trkpt>
      <trkpt lat="46.1546" lon="6.70444">
        <ele>1335</ele>
        <time>2019-06-11T15:37:59Z</time>
      </trkpt>
      <trkpt lat="46.15476" lon="6.70434">
        <ele>1332</ele>
        <time>2019-06-11T15:38:02Z</time>
      </trkpt>
      <trkpt lat="46.15493" lon="6.70414">
        <ele>1327</ele>
        <time>2019-06-11T15:38:06Z</time>
      </trkpt>
      <trkpt lat="46.15533" lon="6.70388">
        <ele>1321</ele>
        <time>2019-06-11T15:38:13Z</time>
      </trkpt>
      <trkpt lat="46.15556" lon="6.70378">
        <ele>1319</ele>
        <time>2019-06-11T15:38:18Z</time>
      </trkpt>
      <trkpt lat="46.15591" lon="6.7037">
        <ele>1315</ele>
        <time>2019-06-11T15:38:24Z</time>
      </trkpt>
      <trkpt lat="46.15615" lon="6.70367">
        <ele>1310</ele>
        <time>2019-06-11T15:38:28Z</time>
      </trkpt>
      <trkpt lat="46.15654" lon="6.7038">
        <ele>1305</ele>
        <time>2019-06-11T15:38:35Z</time>
      </trkpt>
      <trkpt lat="46.15663" lon="6.7038">
        <ele>1304</ele>
        <time>2019-06-11T15:38:37Z</time>
      </trkpt>
      <trkpt lat="46.1569" lon="6.70376">
        <ele>1299</ele>
        <time>2019-06-11T15:38:42Z</time>
      </trkpt>
      <trkpt lat="46.15713" lon="6.70387">
        <ele>1297</ele>
        <time>2019-06-11T15:38:46Z</time>
      </trkpt>
      <trkpt lat="46.15721" lon="6.70387">
        <ele>1296</ele>
        <time>2019-06-11T15:38:47Z</time>
      </trkpt>
      <trkpt lat="46.15727" lon="6.70379">
        <ele>1293</ele>
        <time>2019-06-11T15:38:49Z</time>
      </trkpt>
      <trkpt lat="46.15726" lon="6.70368">
        <ele>1291</ele>
        <time>2019-06-11T15:38:50Z</time>
      </trkpt>
      <trkpt lat="46.15723" lon="6.70363">
        <ele>1291</ele>
        <time>2019-06-11T15:38:51Z</time>
      </trkpt>
      <trkpt lat="46.15696" lon="6.7034">
        <ele>1290</ele>
        <time>2019-06-11T15:38:57Z</time>
      </trkpt>
      <trkpt lat="46.15687" lon="6.70328">
        <ele>1290</ele>
        <time>2019-06-11T15:38:59Z</time>
      </trkpt>
      <trkpt lat="46.15662" lon="6.70279">
        <ele>1286</ele>
        <time>2019-06-11T15:39:06Z</time>
      </trkpt>
      <trkpt lat="46.1565" lon="6.70269">
        <ele>1286</ele>
        <time>2019-06-11T15:39:09Z</time>
      </trkpt>
      <trkpt lat="46.15637" lon="6.70263">
        <ele>1286</ele>
        <time>2019-06-11T15:39:11Z</time>
      </trkpt>
      <trkpt lat="46.15631" lon="6.70255">
        <ele>1285</ele>
        <time>2019-06-11T15:39:13Z</time>
      </trkpt>
      <trkpt lat="46.1563" lon="6.70244">
        <ele>1284</ele>
        <time>2019-06-11T15:39:14Z</time>
      </trkpt>
      <trkpt lat="46.15635" lon="6.70236">
        <ele>1282</ele>
        <time>2019-06-11T15:39:15Z</time>
      </trkpt>
      <trkpt lat="46.15647" lon="6.70236">
        <ele>1281</ele>
        <time>2019-06-11T15:39:18Z</time>
      </trkpt>
      <trkpt lat="46.15683" lon="6.70249">
        <ele>1279</ele>
        <time>2019-06-11T15:39:24Z</time>
      </trkpt>
      <trkpt lat="46.15695" lon="6.7025">
        <ele>1277</ele>
        <time>2019-06-11T15:39:26Z</time>
      </trkpt>
      <trkpt lat="46.15706" lon="6.70249">
        <ele>1275</ele>
        <time>2019-06-11T15:39:28Z</time>
      </trkpt>
      <trkpt lat="46.15732" lon="6.70239">
        <ele>1271</ele>
        <time>2019-06-11T15:39:33Z</time>
      </trkpt>
      <trkpt lat="46.15741" lon="6.70238">
        <ele>1269</ele>
        <time>2019-06-11T15:39:35Z</time>
      </trkpt>
      <trkpt lat="46.15832" lon="6.70251">
        <ele>1262</ele>
        <time>2019-06-11T15:39:51Z</time>
      </trkpt>
      <trkpt lat="46.15843" lon="6.70255">
        <ele>1261</ele>
        <time>2019-06-11T15:39:53Z</time>
      </trkpt>
      <trkpt lat="46.15886" lon="6.70282">
        <ele>1256</ele>
        <time>2019-06-11T15:40:01Z</time>
      </trkpt>
      <trkpt lat="46.15924" lon="6.70312">
        <ele>1255</ele>
        <time>2019-06-11T15:40:09Z</time>
      </trkpt>
      <trkpt lat="46.15933" lon="6.70312">
        <ele>1253</ele>
        <time>2019-06-11T15:40:11Z</time>
      </trkpt>
      <trkpt lat="46.15941" lon="6.70306">
        <ele>1251</ele>
        <time>2019-06-11T15:40:12Z</time>
      </trkpt>
      <trkpt lat="46.15946" lon="6.70294">
        <ele>1248</ele>
        <time>2019-06-11T15:40:14Z</time>
      </trkpt>
      <trkpt lat="46.15948" lon="6.70279">
        <ele>1245</ele>
        <time>2019-06-11T15:40:16Z</time>
      </trkpt>
      <trkpt lat="46.15946" lon="6.70266">
        <ele>1243</ele>
        <time>2019-06-11T15:40:17Z</time>
      </trkpt>
      <trkpt lat="46.15939" lon="6.70256">
        <ele>1242</ele>
        <time>2019-06-11T15:40:19Z</time>
      </trkpt>
      <trkpt lat="46.15913" lon="6.70227">
        <ele>1245</ele>
        <time>2019-06-11T15:40:25Z</time>
      </trkpt>
      <trkpt lat="46.15907" lon="6.70215">
        <ele>1245</ele>
        <time>2019-06-11T15:40:27Z</time>
      </trkpt>
      <trkpt lat="46.15895" lon="6.70182">
        <ele>1246</ele>
        <time>2019-06-11T15:40:31Z</time>
      </trkpt>
      <trkpt lat="46.1588" lon="6.70159">
        <ele>1251</ele>
        <time>2019-06-11T15:40:35Z</time>
      </trkpt>
      <trkpt lat="46.15878" lon="6.70153">
        <ele>1253</ele>
        <time>2019-06-11T15:40:36Z</time>
      </trkpt>
      <trkpt lat="46.15879" lon="6.70143">
        <ele>1256</ele>
        <time>2019-06-11T15:40:37Z</time>
      </trkpt>
      <trkpt lat="46.15886" lon="6.70127">
        <ele>1260</ele>
        <time>2019-06-11T15:40:40Z</time>
      </trkpt>
      <trkpt lat="46.15888" lon="6.70123">
        <ele>1261</ele>
        <time>2019-06-11T15:40:40Z</time>
      </trkpt>
      <trkpt lat="46.15895" lon="6.7012">
        <ele>1262</ele>
        <time>2019-06-11T15:40:42Z</time>
      </trkpt>
      <trkpt lat="46.15904" lon="6.70123">
        <ele>1260</ele>
        <time>2019-06-11T15:40:43Z</time>
      </trkpt>
      <trkpt lat="46.15938" lon="6.70156">
        <ele>1248</ele>
        <time>2019-06-11T15:40:51Z</time>
      </trkpt>
      <trkpt lat="46.15965" lon="6.70159">
        <ele>1251</ele>
        <time>2019-06-11T15:40:55Z</time>
      </trkpt>
      <trkpt lat="46.15981" lon="6.70164">
        <ele>1251</ele>
        <time>2019-06-11T15:40:58Z</time>
      </trkpt>
      <trkpt lat="46.15993" lon="6.70173">
        <ele>1250</ele>
        <time>2019-06-11T15:41:01Z</time>
      </trkpt>
      <trkpt lat="46.16012" lon="6.70192">
        <ele>1246</ele>
        <time>2019-06-11T15:41:05Z</time>
      </trkpt>
      <trkpt lat="46.16023" lon="6.70198">
        <ele>1245</ele>
        <time>2019-06-11T15:41:07Z</time>
      </trkpt>
      <trkpt lat="46.16065" lon="6.70211">
        <ele>1242</ele>
        <time>2019-06-11T15:41:15Z</time>
      </trkpt>
      <trkpt lat="46.16092" lon="6.70226">
        <ele>1238</ele>
        <time>2019-06-11T15:41:20Z</time>
      </trkpt>
      <trkpt lat="46.16127" lon="6.70231">
        <ele>1240</ele>
        <time>2019-06-11T15:41:26Z</time>
      </trkpt>
      <trkpt lat="46.16145" lon="6.70237">
        <ele>1240</ele>
        <time>2019-06-11T15:41:29Z</time>
      </trkpt>
      <trkpt lat="46.16163" lon="6.70251">
        <ele>1239</ele>
        <time>2019-06-11T15:41:33Z</time>
      </trkpt>
      <trkpt lat="46.162" lon="6.70285">
        <ele>1233</ele>
        <time>2019-06-11T15:41:41Z</time>
      </trkpt>
      <trkpt lat="46.16218" lon="6.70289">
        <ele>1234</ele>
        <time>2019-06-11T15:41:44Z</time>
      </trkpt>
      <trkpt lat="46.16248" lon="6.7028">
        <ele>1238</ele>
        <time>2019-06-11T15:41:49Z</time>
      </trkpt>
      <trkpt lat="46.16259" lon="6.70281">
        <ele>1239</ele>
        <time>2019-06-11T15:41:51Z</time>
      </trkpt>
      <trkpt lat="46.16285" lon="6.70296">
        <ele>1240</ele>
        <time>2019-06-11T15:41:56Z</time>
      </trkpt>
      <trkpt lat="46.16298" lon="6.7031">
        <ele>1238</ele>
        <time>2019-06-11T15:41:59Z</time>
      </trkpt>
      <trkpt lat="46.16311" lon="6.70355">
        <ele>1232</ele>
        <time>2019-06-11T15:42:05Z</time>
      </trkpt>
      <trkpt lat="46.16315" lon="6.70364">
        <ele>1230</ele>
        <time>2019-06-11T15:42:07Z</time>
      </trkpt>
      <trkpt lat="46.16323" lon="6.70378">
        <ele>1229</ele>
        <time>2019-06-11T15:42:09Z</time>
      </trkpt>
      <trkpt lat="46.16334" lon="6.70389">
        <ele>1230</ele>
        <time>2019-06-11T15:42:11Z</time>
      </trkpt>
      <trkpt lat="46.1638" lon="6.70416">
        <ele>1231</ele>
        <time>2019-06-11T15:42:20Z</time>
      </trkpt>
      <trkpt lat="46.164" lon="6.70434">
        <ele>1230</ele>
        <time>2019-06-11T15:42:24Z</time>
      </trkpt>
      <trkpt lat="46.16407" lon="6.70443">
        <ele>1229</ele>
        <time>2019-06-11T15:42:26Z</time>
      </trkpt>
      <trkpt lat="46.16443" lon="6.70506">
        <ele>1220</ele>
        <time>2019-06-11T15:42:36Z</time>
      </trkpt>
      <trkpt lat="46.16504" lon="6.70597">
        <ele>1206</ele>
        <time>2019-06-11T15:42:52Z</time>
      </trkpt>
      <trkpt lat="46.16514" lon="6.70607">
        <ele>1203</ele>
        <time>2019-06-11T15:42:54Z</time>
      </trkpt>
      <trkpt lat="46.16524" lon="6.70613">
        <ele>1201</ele>
        <time>2019-06-11T15:42:56Z</time>
      </trkpt>
      <trkpt lat="46.16541" lon="6.70615">
        <ele>1199</ele>
        <time>2019-06-11T15:42:59Z</time>
      </trkpt>
      <trkpt lat="46.16565" lon="6.70608">
        <ele>1199</ele>
        <time>2019-06-11T15:43:03Z</time>
      </trkpt>
      <trkpt lat="46.16607" lon="6.70588">
        <ele>1198</ele>
        <time>2019-06-11T15:43:11Z</time>
      </trkpt>
      <trkpt lat="46.16612" lon="6.70587">
        <ele>1198</ele>
        <time>2019-06-11T15:43:12Z</time>
      </trkpt>
      <trkpt lat="46.16622" lon="6.7059">
        <ele>1196</ele>
        <time>2019-06-11T15:43:14Z</time>
      </trkpt>
      <trkpt lat="46.1663" lon="6.70599">
        <ele>1193</ele>
        <time>2019-06-11T15:43:15Z</time>
      </trkpt>
      <trkpt lat="46.16637" lon="6.70619">
        <ele>1189</ele>
        <time>2019-06-11T15:43:18Z</time>
      </trkpt>
      <trkpt lat="46.16638" lon="6.70636">
        <ele>1187</ele>
        <time>2019-06-11T15:43:20Z</time>
      </trkpt>
      <trkpt lat="46.16631" lon="6.70655">
        <ele>1185</ele>
        <time>2019-06-11T15:43:23Z</time>
      </trkpt>
      <trkpt lat="46.16608" lon="6.70681">
        <ele>1182</ele>
        <time>2019-06-11T15:43:28Z</time>
      </trkpt>
      <trkpt lat="46.16591" lon="6.70696">
        <ele>1180</ele>
        <time>2019-06-11T15:43:32Z</time>
      </trkpt>
      <trkpt lat="46.16571" lon="6.70708">
        <ele>1178</ele>
        <time>2019-06-11T15:43:36Z</time>
      </trkpt>
      <trkpt lat="46.16524" lon="6.70742">
        <ele>1168</ele>
        <time>2019-06-11T15:43:45Z</time>
      </trkpt>
      <trkpt lat="46.16518" lon="6.70751">
        <ele>1166</ele>
        <time>2019-06-11T15:43:46Z</time>
      </trkpt>
      <trkpt lat="46.16512" lon="6.70763">
        <ele>1165</ele>
        <time>2019-06-11T15:43:48Z</time>
      </trkpt>
      <trkpt lat="46.16502" lon="6.70796">
        <ele>1162</ele>
        <time>2019-06-11T15:43:53Z</time>
      </trkpt>
      <trkpt lat="46.16497" lon="6.70818">
        <ele>1161</ele>
        <time>2019-06-11T15:43:56Z</time>
      </trkpt>
      <trkpt lat="46.16495" lon="6.70835">
        <ele>1160</ele>
        <time>2019-06-11T15:43:58Z</time>
      </trkpt>
      <trkpt lat="46.16497" lon="6.70868">
        <ele>1159</ele>
        <time>2019-06-11T15:44:02Z</time>
      </trkpt>
      <trkpt lat="46.16503" lon="6.70901">
        <ele>1157</ele>
        <time>2019-06-11T15:44:06Z</time>
      </trkpt>
      <trkpt lat="46.16507" lon="6.70913">
        <ele>1156</ele>
        <time>2019-06-11T15:44:08Z</time>
      </trkpt>
      <trkpt lat="46.16514" lon="6.70924">
        <ele>1154</ele>
        <time>2019-06-11T15:44:09Z</time>
      </trkpt>
      <trkpt lat="46.1653" lon="6.70938">
        <ele>1150</ele>
        <time>2019-06-11T15:44:13Z</time>
      </trkpt>
      <trkpt lat="46.16544" lon="6.7094">
        <ele>1148</ele>
        <time>2019-06-11T15:44:15Z</time>
      </trkpt>
      <trkpt lat="46.16573" lon="6.70932">
        <ele>1147</ele>
        <time>2019-06-11T15:44:21Z</time>
      </trkpt>
      <trkpt lat="46.16592" lon="6.70932">
        <ele>1145</ele>
        <time>2019-06-11T15:44:24Z</time>
      </trkpt>
      <trkpt lat="46.16628" lon="6.7092">
        <ele>1140</ele>
        <time>2019-06-11T15:44:30Z</time>
      </trkpt>
      <trkpt lat="46.16677" lon="6.70895">
        <ele>1131</ele>
        <time>2019-06-11T15:44:40Z</time>
      </trkpt>
      <trkpt lat="46.16687" lon="6.70879">
        <ele>1130</ele>
        <time>2019-06-11T15:44:42Z</time>
      </trkpt>
      <trkpt lat="46.16695" lon="6.70832">
        <ele>1130</ele>
        <time>2019-06-11T15:44:48Z</time>
      </trkpt>
      <trkpt lat="46.16702" lon="6.70813">
        <ele>1133</ele>
        <time>2019-06-11T15:44:51Z</time>
      </trkpt>
      <trkpt lat="46.16709" lon="6.70805">
        <ele>1133</ele>
        <time>2019-06-11T15:44:53Z</time>
      </trkpt>
      <trkpt lat="46.1674" lon="6.70787">
        <ele>1129</ele>
        <time>2019-06-11T15:44:59Z</time>
      </trkpt>
      <trkpt lat="46.16748" lon="6.70781">
        <ele>1128</ele>
        <time>2019-06-11T15:45:00Z</time>
      </trkpt>
      <trkpt lat="46.16759" lon="6.70764">
        <ele>1129</ele>
        <time>2019-06-11T15:45:03Z</time>
      </trkpt>
      <trkpt lat="46.16773" lon="6.70729">
        <ele>1135</ele>
        <time>2019-06-11T15:45:08Z</time>
      </trkpt>
      <trkpt lat="46.1678" lon="6.70723">
        <ele>1135</ele>
        <time>2019-06-11T15:45:09Z</time>
      </trkpt>
      <trkpt lat="46.16785" lon="6.70721">
        <ele>1135</ele>
        <time>2019-06-11T15:45:10Z</time>
      </trkpt>
      <trkpt lat="46.16795" lon="6.70723">
        <ele>1132</ele>
        <time>2019-06-11T15:45:12Z</time>
      </trkpt>
      <trkpt lat="46.16812" lon="6.70734">
        <ele>1123</ele>
        <time>2019-06-11T15:45:15Z</time>
      </trkpt>
      <trkpt lat="46.16825" lon="6.70738">
        <ele>1118</ele>
        <time>2019-06-11T15:45:18Z</time>
      </trkpt>
      <trkpt lat="46.16838" lon="6.70736">
        <ele>1116</ele>
        <time>2019-06-11T15:45:20Z</time>
      </trkpt>
      <trkpt lat="46.16887" lon="6.7072">
        <ele>1113</ele>
        <time>2019-06-11T15:45:29Z</time>
      </trkpt>
      <trkpt lat="46.16911" lon="6.70721">
        <ele>1108</ele>
        <time>2019-06-11T15:45:33Z</time>
      </trkpt>
      <trkpt lat="46.16967" lon="6.7074">
        <ele>1094</ele>
        <time>2019-06-11T15:45:44Z</time>
      </trkpt>
      <trkpt lat="46.16987" lon="6.70744">
        <ele>1090</ele>
        <time>2019-06-11T15:45:47Z</time>
      </trkpt>
      <trkpt lat="46.17023" lon="6.70746">
        <ele>1087</ele>
        <time>2019-06-11T15:45:54Z</time>
      </trkpt>
      <trkpt lat="46.17048" lon="6.70754">
        <ele>1084</ele>
        <time>2019-06-11T15:45:58Z</time>
      </trkpt>
      <trkpt lat="46.17067" lon="6.70753">
        <ele>1083</ele>
        <time>2019-06-11T15:46:02Z</time>
      </trkpt>
      <trkpt lat="46.17092" lon="6.70741">
        <ele>1085</ele>
        <time>2019-06-11T15:46:06Z</time>
      </trkpt>
      <trkpt lat="46.17117" lon="6.70737">
        <ele>1082</ele>
        <time>2019-06-11T15:46:11Z</time>
      </trkpt>
      <trkpt lat="46.17173" lon="6.70739">
        <ele>1071</ele>
        <time>2019-06-11T15:46:21Z</time>
      </trkpt>
      <trkpt lat="46.17199" lon="6.70731">
        <ele>1068</ele>
        <time>2019-06-11T15:46:25Z</time>
      </trkpt>
      <trkpt lat="46.17292" lon="6.7072">
        <ele>1051</ele>
        <time>2019-06-11T15:46:42Z</time>
      </trkpt>
      <trkpt lat="46.17312" lon="6.70711">
        <ele>1049</ele>
        <time>2019-06-11T15:46:46Z</time>
      </trkpt>
      <trkpt lat="46.17358" lon="6.70683">
        <ele>1045</ele>
        <time>2019-06-11T15:46:55Z</time>
      </trkpt>
      <trkpt lat="46.17368" lon="6.7068">
        <ele>1044</ele>
        <time>2019-06-11T15:46:56Z</time>
      </trkpt>
      <trkpt lat="46.17377" lon="6.70681">
        <ele>1042</ele>
        <time>2019-06-11T15:46:58Z</time>
      </trkpt>
      <trkpt lat="46.17385" lon="6.70688">
        <ele>1040</ele>
        <time>2019-06-11T15:47:00Z</time>
      </trkpt>
      <trkpt lat="46.17387" lon="6.70694">
        <ele>1039</ele>
        <time>2019-06-11T15:47:01Z</time>
      </trkpt>
      <trkpt lat="46.1739" lon="6.70707">
        <ele>1037</ele>
        <time>2019-06-11T15:47:02Z</time>
      </trkpt>
      <trkpt lat="46.17389" lon="6.7072">
        <ele>1035</ele>
        <time>2019-06-11T15:47:04Z</time>
      </trkpt>
      <trkpt lat="46.17371" lon="6.70758">
        <ele>1033</ele>
        <time>2019-06-11T15:47:09Z</time>
      </trkpt>
      <trkpt lat="46.17365" lon="6.70789">
        <ele>1032</ele>
        <time>2019-06-11T15:47:13Z</time>
      </trkpt>
      <trkpt lat="46.17363" lon="6.70816">
        <ele>1030</ele>
        <time>2019-06-11T15:47:17Z</time>
      </trkpt>
      <trkpt lat="46.17365" lon="6.70828">
        <ele>1029</ele>
        <time>2019-06-11T15:47:18Z</time>
      </trkpt>
      <trkpt lat="46.17367" lon="6.70832">
        <ele>1029</ele>
        <time>2019-06-11T15:47:19Z</time>
      </trkpt>
      <trkpt lat="46.17376" lon="6.7084">
        <ele>1027</ele>
        <time>2019-06-11T15:47:21Z</time>
      </trkpt>
      <trkpt lat="46.17387" lon="6.70843">
        <ele>1025</ele>
        <time>2019-06-11T15:47:23Z</time>
      </trkpt>
      <trkpt lat="46.17409" lon="6.70839">
        <ele>1023</ele>
        <time>2019-06-11T15:47:27Z</time>
      </trkpt>
      <trkpt lat="46.17458" lon="6.70825">
        <ele>1018</ele>
        <time>2019-06-11T15:47:36Z</time>
      </trkpt>
      <trkpt lat="46.17469" lon="6.70823">
        <ele>1017</ele>
        <time>2019-06-11T15:47:38Z</time>
      </trkpt>
      <trkpt lat="46.17521" lon="6.70825">
        <ele>1009</ele>
        <time>2019-06-11T15:47:47Z</time>
      </trkpt>
      <trkpt lat="46.17542" lon="6.70821">
        <ele>1006</ele>
        <time>2019-06-11T15:47:51Z</time>
      </trkpt>
      <trkpt lat="46.17577" lon="6.7081">
        <ele>1000</ele>
        <time>2019-06-11T15:47:57Z</time>
      </trkpt>
      <trkpt lat="46.1767" lon="6.70776">
        <ele>988</ele>
        <time>2019-06-11T15:48:14Z</time>
      </trkpt>
      <trkpt lat="46.17683" lon="6.70773">
        <ele>988</ele>
        <time>2019-06-11T15:48:16Z</time>
      </trkpt>
      <trkpt lat="46.17702" lon="6.70771">
        <ele>988</ele>
        <time>2019-06-11T15:48:20Z</time>
      </trkpt>
      <trkpt lat="46.17716" lon="6.70772">
        <ele>987</ele>
        <time>2019-06-11T15:48:22Z</time>
      </trkpt>
      <trkpt lat="46.1774" lon="6.70777">
        <ele>985</ele>
        <time>2019-06-11T15:48:27Z</time>
      </trkpt>
      <trkpt lat="46.17744" lon="6.70771">
        <ele>986</ele>
        <time>2019-06-11T15:48:28Z</time>
      </trkpt>
      <trkpt lat="46.17758" lon="6.70704">
        <ele>987</ele>
        <time>2019-06-11T15:48:36Z</time>
      </trkpt>
      <trkpt lat="46.17757" lon="6.70693">
        <ele>987</ele>
        <time>2019-06-11T15:48:38Z</time>
      </trkpt>
      <trkpt lat="46.17755" lon="6.70686">
        <ele>987</ele>
        <time>2019-06-11T15:48:39Z</time>
      </trkpt>
      <trkpt lat="46.17758" lon="6.70683">
        <ele>987</ele>
        <time>2019-06-11T15:48:39Z</time>
      </trkpt>
      <trkpt lat="46.17761" lon="6.70675">
        <ele>987</ele>
        <time>2019-06-11T15:48:40Z</time>
      </trkpt>
      <trkpt lat="46.1776" lon="6.70667">
        <ele>987</ele>
        <time>2019-06-11T15:48:41Z</time>
      </trkpt>
      <trkpt lat="46.17757" lon="6.70663">
        <ele>987</ele>
        <time>2019-06-11T15:48:42Z</time>
      </trkpt>
      <trkpt lat="46.17752" lon="6.70661">
        <ele>987</ele>
        <time>2019-06-11T15:48:43Z</time>
      </trkpt>
      <trkpt lat="46.17746" lon="6.70664">
        <ele>987</ele>
        <time>2019-06-11T15:48:44Z</time>
      </trkpt>
      <trkpt lat="46.17743" lon="6.70673">
        <ele>988</ele>
        <time>2019-06-11T15:48:45Z</time>
      </trkpt>
      <trkpt lat="46.17745" lon="6.70682">
        <ele>988</ele>
        <time>2019-06-11T15:48:47Z</time>
      </trkpt>
      <trkpt lat="46.17679" lon="6.70793">
        <ele>985</ele>
        <time>2019-06-11T15:49:05Z</time>
      </trkpt>
      <trkpt lat="46.17663" lon="6.70812">
        <ele>984</ele>
        <time>2019-06-11T15:49:08Z</time>
      </trkpt>
      <trkpt lat="46.17621" lon="6.70846">
        <ele>987</ele>
        <time>2019-06-11T15:49:17Z</time>
      </trkpt>
      <trkpt lat="46.17581" lon="6.709">
        <ele>985</ele>
        <time>2019-06-11T15:49:27Z</time>
      </trkpt>
      <trkpt lat="46.17572" lon="6.70918">
        <ele>984</ele>
        <time>2019-06-11T15:49:29Z</time>
      </trkpt>
      <trkpt lat="46.1757" lon="6.70926">
        <ele>984</ele>
        <time>2019-06-11T15:49:30Z</time>
      </trkpt>
      <trkpt lat="46.17567" lon="6.70955">
        <ele>982</ele>
        <time>2019-06-11T15:49:34Z</time>
      </trkpt>
      <trkpt lat="46.17579" lon="6.71024">
        <ele>980</ele>
        <time>2019-06-11T15:49:43Z</time>
      </trkpt>
      <trkpt lat="46.17575" lon="6.71032">
        <ele>981</ele>
        <time>2019-06-11T15:49:44Z</time>
      </trkpt>
      <trkpt lat="46.17577" lon="6.7104">
        <ele>982</ele>
        <time>2019-06-11T15:49:45Z</time>
      </trkpt>
      <trkpt lat="46.17564" lon="6.7105">
        <ele>984</ele>
        <time>2019-06-11T15:49:48Z</time>
      </trkpt>
      <trkpt lat="46.175" lon="6.71075">
        <ele>986</ele>
        <time>2019-06-11T15:49:59Z</time>
      </trkpt>
      <trkpt lat="46.17495" lon="6.71082">
        <ele>986</ele>
        <time>2019-06-11T15:50:01Z</time>
      </trkpt>
      <trkpt lat="46.17494" lon="6.71092">
        <ele>988</ele>
        <time>2019-06-11T15:50:02Z</time>
      </trkpt>
      <trkpt lat="46.17496" lon="6.71096">
        <ele>988</ele>
        <time>2019-06-11T15:50:02Z</time>
      </trkpt>
      <trkpt lat="46.17501" lon="6.71101">
        <ele>989</ele>
        <time>2019-06-11T15:50:04Z</time>
      </trkpt>
      <trkpt lat="46.17508" lon="6.711">
        <ele>990</ele>
        <time>2019-06-11T15:50:05Z</time>
      </trkpt>
      <trkpt lat="46.17524" lon="6.71084">
        <ele>987</ele>
        <time>2019-06-11T15:50:08Z</time>
      </trkpt>
      <trkpt lat="46.17533" lon="6.71077">
        <ele>987</ele>
        <time>2019-06-11T15:50:10Z</time>
      </trkpt>
      <trkpt lat="46.17543" lon="6.71074">
        <ele>987</ele>
        <time>2019-06-11T15:50:12Z</time>
      </trkpt>
      <trkpt lat="46.17552" lon="6.71075">
        <ele>988</ele>
        <time>2019-06-11T15:50:14Z</time>
      </trkpt>
      <trkpt lat="46.17581" lon="6.71085">
        <ele>990</ele>
        <time>2019-06-11T15:50:19Z</time>
      </trkpt>
      <trkpt lat="46.17591" lon="6.71087">
        <ele>991</ele>
        <time>2019-06-11T15:50:21Z</time>
      </trkpt>
      <trkpt lat="46.17684" lon="6.7107">
        <ele>992</ele>
        <time>2019-06-11T15:50:37Z</time>
      </trkpt>
      <trkpt lat="46.17698" lon="6.71072">
        <ele>993</ele>
        <time>2019-06-11T15:50:40Z</time>
      </trkpt>
      <trkpt lat="46.17743" lon="6.71085">
        <ele>997</ele>
        <time>2019-06-11T15:50:48Z</time>
      </trkpt>
      <trkpt lat="46.17774" lon="6.71082">
        <ele>998</ele>
        <time>2019-06-11T15:50:53Z</time>
      </trkpt>
      <trkpt lat="46.17832" lon="6.71083">
        <ele>1000</ele>
        <time>2019-06-11T15:51:04Z</time>
      </trkpt>
      <trkpt lat="46.17844" lon="6.71085">
        <ele>999</ele>
        <time>2019-06-11T15:51:06Z</time>
      </trkpt>
      <trkpt lat="46.17872" lon="6.71101">
        <ele>997</ele>
        <time>2019-06-11T15:51:11Z</time>
      </trkpt>
      <trkpt lat="46.17878" lon="6.71109">
        <ele>997</ele>
        <time>2019-06-11T15:51:13Z</time>
      </trkpt>
      <trkpt lat="46.17879" lon="6.71115">
        <ele>997</ele>
        <time>2019-06-11T15:51:14Z</time>
      </trkpt>
      <trkpt lat="46.1788" lon="6.71134">
        <ele>998</ele>
        <time>2019-06-11T15:51:16Z</time>
      </trkpt>
      <trkpt lat="46.17874" lon="6.71188">
        <ele>1002</ele>
        <time>2019-06-11T15:51:23Z</time>
      </trkpt>
      <trkpt lat="46.17873" lon="6.7122">
        <ele>1005</ele>
        <time>2019-06-11T15:51:27Z</time>
      </trkpt>
      <trkpt lat="46.17876" lon="6.71246">
        <ele>1007</ele>
        <time>2019-06-11T15:51:30Z</time>
      </trkpt>
      <trkpt lat="46.17936" lon="6.71507">
        <ele>1019</ele>
        <time>2019-06-11T15:52:04Z</time>
      </trkpt>
      <trkpt lat="46.17942" lon="6.71524">
        <ele>1019</ele>
        <time>2019-06-11T15:52:06Z</time>
      </trkpt>
      <trkpt lat="46.17964" lon="6.71571">
        <ele>1018</ele>
        <time>2019-06-11T15:52:13Z</time>
      </trkpt>
      <trkpt lat="46.18007" lon="6.71646">
        <ele>1018</ele>
        <time>2019-06-11T15:52:25Z</time>
      </trkpt>
      <trkpt lat="46.18036" lon="6.71731">
        <ele>1020</ele>
        <time>2019-06-11T15:52:37Z</time>
      </trkpt>
      <trkpt lat="46.18079" lon="6.71868">
        <ele>1017</ele>
        <time>2019-06-11T15:52:55Z</time>
      </trkpt>
      <trkpt lat="46.1811" lon="6.71948">
        <ele>1023</ele>
        <time>2019-06-11T15:53:07Z</time>
      </trkpt>
      <trkpt lat="46.18105" lon="6.71961">
        <ele>1023</ele>
        <time>2019-06-11T15:53:08Z</time>
      </trkpt>
      <trkpt lat="46.18107" lon="6.71972">
        <ele>1024</ele>
        <time>2019-06-11T15:53:10Z</time>
      </trkpt>
      <trkpt lat="46.18114" lon="6.71977">
        <ele>1025</ele>
        <time>2019-06-11T15:53:11Z</time>
      </trkpt>
      <trkpt lat="46.1812" lon="6.71976">
        <ele>1025</ele>
        <time>2019-06-11T15:53:12Z</time>
      </trkpt>
      <trkpt lat="46.18124" lon="6.71972">
        <ele>1025</ele>
        <time>2019-06-11T15:53:13Z</time>
      </trkpt>
      <trkpt lat="46.18127" lon="6.71964">
        <ele>1025</ele>
        <time>2019-06-11T15:53:14Z</time>
      </trkpt>
      <trkpt lat="46.18142" lon="6.71959">
        <ele>1026</ele>
        <time>2019-06-11T15:53:17Z</time>
      </trkpt>
      <trkpt lat="46.18153" lon="6.71947">
        <ele>1027</ele>
        <time>2019-06-11T15:53:19Z</time>
      </trkpt>
      <trkpt lat="46.18157" lon="6.71936">
        <ele>1027</ele>
        <time>2019-06-11T15:53:21Z</time>
      </trkpt>
      <trkpt lat="46.1816" lon="6.71924">
        <ele>1027</ele>
        <time>2019-06-11T15:53:23Z</time>
      </trkpt>
      <trkpt lat="46.18173" lon="6.71756">
        <ele>1041</ele>
        <time>2019-06-11T15:53:43Z</time>
      </trkpt>
      <trkpt lat="46.18186" lon="6.71673">
        <ele>1042</ele>
        <time>2019-06-11T15:53:54Z</time>
      </trkpt>
      <trkpt lat="46.18176" lon="6.71424">
        <ele>1035</ele>
        <time>2019-06-11T15:54:25Z</time>
      </trkpt>
      <trkpt lat="46.18179" lon="6.71376">
        <ele>1035</ele>
        <time>2019-06-11T15:54:30Z</time>
      </trkpt>
      <trkpt lat="46.18185" lon="6.71335">
        <ele>1036</ele>
        <time>2019-06-11T15:54:36Z</time>
      </trkpt>
      <trkpt lat="46.18192" lon="6.71276">
        <ele>1038</ele>
        <time>2019-06-11T15:54:43Z</time>
      </trkpt>
      <trkpt lat="46.18198" lon="6.71238">
        <ele>1039</ele>
        <time>2019-06-11T15:54:48Z</time>
      </trkpt>
      <trkpt lat="46.18204" lon="6.7121">
        <ele>1039</ele>
        <time>2019-06-11T15:54:51Z</time>
      </trkpt>
      <trkpt lat="46.1823" lon="6.71165">
        <ele>1045</ele>
        <time>2019-06-11T15:54:59Z</time>
      </trkpt>
      <trkpt lat="46.18249" lon="6.71122">
        <ele>1045</ele>
        <time>2019-06-11T15:55:05Z</time>
      </trkpt>
      <trkpt lat="46.18303" lon="6.71069">
        <ele>1051</ele>
        <time>2019-06-11T15:55:17Z</time>
      </trkpt>
      <trkpt lat="46.18333" lon="6.71031">
        <ele>1052</ele>
        <time>2019-06-11T15:55:24Z</time>
      </trkpt>
      <trkpt lat="46.18372" lon="6.70991">
        <ele>1056</ele>
        <time>2019-06-11T15:55:32Z</time>
      </trkpt>
      <trkpt lat="46.18398" lon="6.70971">
        <ele>1058</ele>
        <time>2019-06-11T15:55:37Z</time>
      </trkpt>
      <trkpt lat="46.18464" lon="6.70932">
        <ele>1070</ele>
        <time>2019-06-11T15:55:50Z</time>
      </trkpt>
      <trkpt lat="46.18483" lon="6.70919">
        <ele>1073</ele>
        <time>2019-06-11T15:55:54Z</time>
      </trkpt>
      <trkpt lat="46.18499" lon="6.70898">
        <ele>1073</ele>
        <time>2019-06-11T15:55:58Z</time>
      </trkpt>
      <trkpt lat="46.1851" lon="6.70893">
        <ele>1077</ele>
        <time>2019-06-11T15:56:00Z</time>
      </trkpt>
      <trkpt lat="46.18517" lon="6.70898">
        <ele>1082</ele>
        <time>2019-06-11T15:56:01Z</time>
      </trkpt>
      <trkpt lat="46.1852" lon="6.70908">
        <ele>1086</ele>
        <time>2019-06-11T15:56:02Z</time>
      </trkpt>
      <trkpt lat="46.18519" lon="6.70918">
        <ele>1088</ele>
        <time>2019-06-11T15:56:04Z</time>
      </trkpt>
      <trkpt lat="46.18517" lon="6.70921">
        <ele>1088</ele>
        <time>2019-06-11T15:56:04Z</time>
      </trkpt>
      <trkpt lat="46.18489" lon="6.70937">
        <ele>1080</ele>
        <time>2019-06-11T15:56:10Z</time>
      </trkpt>
      <trkpt lat="46.1846" lon="6.70969">
        <ele>1078</ele>
        <time>2019-06-11T15:56:16Z</time>
      </trkpt>
      <trkpt lat="46.18431" lon="6.71017">
        <ele>1080</ele>
        <time>2019-06-11T15:56:24Z</time>
      </trkpt>
      <trkpt lat="46.18375" lon="6.7109">
        <ele>1079</ele>
        <time>2019-06-11T15:56:37Z</time>
      </trkpt>
      <trkpt lat="46.18361" lon="6.7111">
        <ele>1079</ele>
        <time>2019-06-11T15:56:41Z</time>
      </trkpt>
      <trkpt lat="46.18351" lon="6.7113">
        <ele>1081</ele>
        <time>2019-06-11T15:56:44Z</time>
      </trkpt>
      <trkpt lat="46.18338" lon="6.71164">
        <ele>1084</ele>
        <time>2019-06-11T15:56:49Z</time>
      </trkpt>
      <trkpt lat="46.18325" lon="6.71222">
        <ele>1091</ele>
        <time>2019-06-11T15:56:56Z</time>
      </trkpt>
      <trkpt lat="46.18328" lon="6.71233">
        <ele>1095</ele>
        <time>2019-06-11T15:56:58Z</time>
      </trkpt>
      <trkpt lat="46.18335" lon="6.71238">
        <ele>1099</ele>
        <time>2019-06-11T15:56:59Z</time>
      </trkpt>
      <trkpt lat="46.18339" lon="6.71237">
        <ele>1101</ele>
        <time>2019-06-11T15:57:00Z</time>
      </trkpt>
      <trkpt lat="46.18345" lon="6.71231">
        <ele>1103</ele>
        <time>2019-06-11T15:57:01Z</time>
      </trkpt>
      <trkpt lat="46.18346" lon="6.71225">
        <ele>1102</ele>
        <time>2019-06-11T15:57:02Z</time>
      </trkpt>
      <trkpt lat="46.18348" lon="6.71194">
        <ele>1096</ele>
        <time>2019-06-11T15:57:06Z</time>
      </trkpt>
      <trkpt lat="46.18354" lon="6.71169">
        <ele>1093</ele>
        <time>2019-06-11T15:57:09Z</time>
      </trkpt>
      <trkpt lat="46.18358" lon="6.71159">
        <ele>1092</ele>
        <time>2019-06-11T15:57:10Z</time>
      </trkpt>
      <trkpt lat="46.18372" lon="6.71139">
        <ele>1092</ele>
        <time>2019-06-11T15:57:14Z</time>
      </trkpt>
      <trkpt lat="46.18394" lon="6.71125">
        <ele>1097</ele>
        <time>2019-06-11T15:57:18Z</time>
      </trkpt>
      <trkpt lat="46.18458" lon="6.711">
        <ele>1116</ele>
        <time>2019-06-11T15:57:30Z</time>
      </trkpt>
      <trkpt lat="46.18465" lon="6.71093">
        <ele>1116</ele>
        <time>2019-06-11T15:57:31Z</time>
      </trkpt>
      <trkpt lat="46.18477" lon="6.71075">
        <ele>1115</ele>
        <time>2019-06-11T15:57:34Z</time>
      </trkpt>
      <trkpt lat="46.18483" lon="6.7107">
        <ele>1116</ele>
        <time>2019-06-11T15:57:36Z</time>
      </trkpt>
      <trkpt lat="46.1849" lon="6.71069">
        <ele>1119</ele>
        <time>2019-06-11T15:57:37Z</time>
      </trkpt>
      <trkpt lat="46.18495" lon="6.71075">
        <ele>1123</ele>
        <time>2019-06-11T15:57:38Z</time>
      </trkpt>
      <trkpt lat="46.18496" lon="6.71085">
        <ele>1127</ele>
        <time>2019-06-11T15:57:39Z</time>
      </trkpt>
      <trkpt lat="46.18494" lon="6.71095">
        <ele>1130</ele>
        <time>2019-06-11T15:57:41Z</time>
      </trkpt>
      <trkpt lat="46.18454" lon="6.71119">
        <ele>1121</ele>
        <time>2019-06-11T15:57:48Z</time>
      </trkpt>
      <trkpt lat="46.18421" lon="6.71146">
        <ele>1115</ele>
        <time>2019-06-11T15:57:55Z</time>
      </trkpt>
      <trkpt lat="46.18411" lon="6.71159">
        <ele>1115</ele>
        <time>2019-06-11T15:57:58Z</time>
      </trkpt>
      <trkpt lat="46.18405" lon="6.71176">
        <ele>1117</ele>
        <time>2019-06-11T15:58:00Z</time>
      </trkpt>
      <trkpt lat="46.18386" lon="6.71247">
        <ele>1127</ele>
        <time>2019-06-11T15:58:09Z</time>
      </trkpt>
      <trkpt lat="46.1837" lon="6.71289">
        <ele>1128</ele>
        <time>2019-06-11T15:58:15Z</time>
      </trkpt>
      <trkpt lat="46.1837" lon="6.713">
        <ele>1131</ele>
        <time>2019-06-11T15:58:16Z</time>
      </trkpt>
      <trkpt lat="46.18372" lon="6.71304">
        <ele>1133</ele>
        <time>2019-06-11T15:58:17Z</time>
      </trkpt>
      <trkpt lat="46.18375" lon="6.71307">
        <ele>1135</ele>
        <time>2019-06-11T15:58:18Z</time>
      </trkpt>
      <trkpt lat="46.1838" lon="6.71309">
        <ele>1138</ele>
        <time>2019-06-11T15:58:19Z</time>
      </trkpt>
      <trkpt lat="46.18384" lon="6.71307">
        <ele>1139</ele>
        <time>2019-06-11T15:58:19Z</time>
      </trkpt>
      <trkpt lat="46.18387" lon="6.71303">
        <ele>1140</ele>
        <time>2019-06-11T15:58:20Z</time>
      </trkpt>
      <trkpt lat="46.1839" lon="6.71292">
        <ele>1139</ele>
        <time>2019-06-11T15:58:22Z</time>
      </trkpt>
      <trkpt lat="46.18393" lon="6.71259">
        <ele>1133</ele>
        <time>2019-06-11T15:58:26Z</time>
      </trkpt>
      <trkpt lat="46.18404" lon="6.71239">
        <ele>1134</ele>
        <time>2019-06-11T15:58:29Z</time>
      </trkpt>
      <trkpt lat="46.18502" lon="6.71149">
        <ele>1157</ele>
        <time>2019-06-11T15:58:50Z</time>
      </trkpt>
      <trkpt lat="46.18536" lon="6.71115">
        <ele>1159</ele>
        <time>2019-06-11T15:58:57Z</time>
      </trkpt>
      <trkpt lat="46.18541" lon="6.71107">
        <ele>1158</ele>
        <time>2019-06-11T15:58:58Z</time>
      </trkpt>
      <trkpt lat="46.18563" lon="6.71057">
        <ele>1151</ele>
        <time>2019-06-11T15:59:06Z</time>
      </trkpt>
      <trkpt lat="46.18586" lon="6.71022">
        <ele>1152</ele>
        <time>2019-06-11T15:59:11Z</time>
      </trkpt>
      <trkpt lat="46.18594" lon="6.71011">
        <ele>1151</ele>
        <time>2019-06-11T15:59:13Z</time>
      </trkpt>
      <trkpt lat="46.18602" lon="6.71005">
        <ele>1153</ele>
        <time>2019-06-11T15:59:15Z</time>
      </trkpt>
      <trkpt lat="46.18632" lon="6.70987">
        <ele>1158</ele>
        <time>2019-06-11T15:59:21Z</time>
      </trkpt>
      <trkpt lat="46.18672" lon="6.70972">
        <ele>1170</ele>
        <time>2019-06-11T15:59:28Z</time>
      </trkpt>
      <trkpt lat="46.18682" lon="6.70967">
        <ele>1172</ele>
        <time>2019-06-11T15:59:30Z</time>
      </trkpt>
      <trkpt lat="46.18701" lon="6.70944">
        <ele>1173</ele>
        <time>2019-06-11T15:59:34Z</time>
      </trkpt>
      <trkpt lat="46.18709" lon="6.70943">
        <ele>1176</ele>
        <time>2019-06-11T15:59:36Z</time>
      </trkpt>
      <trkpt lat="46.18715" lon="6.70947">
        <ele>1180</ele>
        <time>2019-06-11T15:59:37Z</time>
      </trkpt>
      <trkpt lat="46.18717" lon="6.70957">
        <ele>1183</ele>
        <time>2019-06-11T15:59:38Z</time>
      </trkpt>
      <trkpt lat="46.18717" lon="6.70963">
        <ele>1184</ele>
        <time>2019-06-11T15:59:39Z</time>
      </trkpt>
      <trkpt lat="46.18714" lon="6.70967">
        <ele>1184</ele>
        <time>2019-06-11T15:59:40Z</time>
      </trkpt>
      <trkpt lat="46.18708" lon="6.70973">
        <ele>1183</ele>
        <time>2019-06-11T15:59:41Z</time>
      </trkpt>
      <trkpt lat="46.18687" lon="6.70983">
        <ele>1178</ele>
        <time>2019-06-11T15:59:45Z</time>
      </trkpt>
      <trkpt lat="46.18662" lon="6.71003">
        <ele>1174</ele>
        <time>2019-06-11T15:59:50Z</time>
      </trkpt>
      <trkpt lat="46.18654" lon="6.71013">
        <ele>1175</ele>
        <time>2019-06-11T15:59:52Z</time>
      </trkpt>
      <trkpt lat="46.18643" lon="6.71033">
        <ele>1177</ele>
        <time>2019-06-11T15:59:55Z</time>
      </trkpt>
      <trkpt lat="46.18628" lon="6.71054">
        <ele>1179</ele>
        <time>2019-06-11T15:59:59Z</time>
      </trkpt>
      <trkpt lat="46.18592" lon="6.71085">
        <ele>1174</ele>
        <time>2019-06-11T16:00:06Z</time>
      </trkpt>
      <trkpt lat="46.18587" lon="6.71096">
        <ele>1176</ele>
        <time>2019-06-11T16:00:08Z</time>
      </trkpt>
      <trkpt lat="46.18587" lon="6.71102">
        <ele>1179</ele>
        <time>2019-06-11T16:00:09Z</time>
      </trkpt>
      <trkpt lat="46.1859" lon="6.71109">
        <ele>1183</ele>
        <time>2019-06-11T16:00:10Z</time>
      </trkpt>
      <trkpt lat="46.18594" lon="6.71111">
        <ele>1185</ele>
        <time>2019-06-11T16:00:10Z</time>
      </trkpt>
      <trkpt lat="46.186" lon="6.71109">
        <ele>1187</ele>
        <time>2019-06-11T16:00:12Z</time>
      </trkpt>
      <trkpt lat="46.18617" lon="6.71088">
        <ele>1186</ele>
        <time>2019-06-11T16:00:16Z</time>
      </trkpt>
      <trkpt lat="46.18643" lon="6.71067">
        <ele>1189</ele>
        <time>2019-06-11T16:00:21Z</time>
      </trkpt>
      <trkpt lat="46.18671" lon="6.71037">
        <ele>1189</ele>
        <time>2019-06-11T16:00:27Z</time>
      </trkpt>
      <trkpt lat="46.18677" lon="6.71035">
        <ele>1191</ele>
        <time>2019-06-11T16:00:28Z</time>
      </trkpt>
      <trkpt lat="46.18682" lon="6.7104">
        <ele>1194</ele>
        <time>2019-06-11T16:00:29Z</time>
      </trkpt>
      <trkpt lat="46.18685" lon="6.7105">
        <ele>1199</ele>
        <time>2019-06-11T16:00:31Z</time>
      </trkpt>
      <trkpt lat="46.18682" lon="6.7106">
        <ele>1201</ele>
        <time>2019-06-11T16:00:32Z</time>
      </trkpt>
      <trkpt lat="46.18646" lon="6.71092">
        <ele>1199</ele>
        <time>2019-06-11T16:00:39Z</time>
      </trkpt>
      <trkpt lat="46.18623" lon="6.71116">
        <ele>1199</ele>
        <time>2019-06-11T16:00:44Z</time>
      </trkpt>
      <trkpt lat="46.1855" lon="6.71237">
        <ele>1209</ele>
        <time>2019-06-11T16:01:04Z</time>
      </trkpt>
      <trkpt lat="46.1854" lon="6.71252">
        <ele>1209</ele>
        <time>2019-06-11T16:01:07Z</time>
      </trkpt>
      <trkpt lat="46.18521" lon="6.71274">
        <ele>1209</ele>
        <time>2019-06-11T16:01:11Z</time>
      </trkpt>
      <trkpt lat="46.18518" lon="6.71279">
        <ele>1209</ele>
        <time>2019-06-11T16:01:12Z</time>
      </trkpt>
      <trkpt lat="46.18517" lon="6.71288">
        <ele>1211</ele>
        <time>2019-06-11T16:01:13Z</time>
      </trkpt>
      <trkpt lat="46.18523" lon="6.713">
        <ele>1217</ele>
        <time>2019-06-11T16:01:15Z</time>
      </trkpt>
      <trkpt lat="46.18527" lon="6.71301">
        <ele>1219</ele>
        <time>2019-06-11T16:01:16Z</time>
      </trkpt>
      <trkpt lat="46.18535" lon="6.71297">
        <ele>1221</ele>
        <time>2019-06-11T16:01:17Z</time>
      </trkpt>
      <trkpt lat="46.18539" lon="6.71291">
        <ele>1221</ele>
        <time>2019-06-11T16:01:18Z</time>
      </trkpt>
      <trkpt lat="46.18548" lon="6.71267">
        <ele>1217</ele>
        <time>2019-06-11T16:01:22Z</time>
      </trkpt>
      <trkpt lat="46.18557" lon="6.71251">
        <ele>1216</ele>
        <time>2019-06-11T16:01:24Z</time>
      </trkpt>
      <trkpt lat="46.18649" lon="6.71155">
        <ele>1224</ele>
        <time>2019-06-11T16:01:44Z</time>
      </trkpt>
      <trkpt lat="46.18677" lon="6.71135">
        <ele>1227</ele>
        <time>2019-06-11T16:01:50Z</time>
      </trkpt>
      <trkpt lat="46.18725" lon="6.71104">
        <ele>1232</ele>
        <time>2019-06-11T16:01:59Z</time>
      </trkpt>
      <trkpt lat="46.18761" lon="6.71074">
        <ele>1234</ele>
        <time>2019-06-11T16:02:07Z</time>
      </trkpt>
      <trkpt lat="46.18823" lon="6.71037">
        <ele>1238</ele>
        <time>2019-06-11T16:02:18Z</time>
      </trkpt>
      <trkpt lat="46.18846" lon="6.71028">
        <ele>1239</ele>
        <time>2019-06-11T16:02:23Z</time>
      </trkpt>
      <trkpt lat="46.18864" lon="6.71023">
        <ele>1240</ele>
        <time>2019-06-11T16:02:26Z</time>
      </trkpt>
      <trkpt lat="46.18885" lon="6.71021">
        <ele>1242</ele>
        <time>2019-06-11T16:02:30Z</time>
      </trkpt>
      <trkpt lat="46.18904" lon="6.71021">
        <ele>1244</ele>
        <time>2019-06-11T16:02:33Z</time>
      </trkpt>
      <trkpt lat="46.18962" lon="6.71035">
        <ele>1248</ele>
        <time>2019-06-11T16:02:44Z</time>
      </trkpt>
      <trkpt lat="46.18964" lon="6.71038">
        <ele>1248</ele>
        <time>2019-06-11T16:02:44Z</time>
      </trkpt>
      <trkpt lat="46.18967" lon="6.71047">
        <ele>1251</ele>
        <time>2019-06-11T16:02:45Z</time>
      </trkpt>
      <trkpt lat="46.18965" lon="6.71054">
        <ele>1253</ele>
        <time>2019-06-11T16:02:46Z</time>
      </trkpt>
      <trkpt lat="46.18959" lon="6.71059">
        <ele>1255</ele>
        <time>2019-06-11T16:02:47Z</time>
      </trkpt>
      <trkpt lat="46.18925" lon="6.71048">
        <ele>1253</ele>
        <time>2019-06-11T16:02:54Z</time>
      </trkpt>
      <trkpt lat="46.18913" lon="6.71049">
        <ele>1254</ele>
        <time>2019-06-11T16:02:56Z</time>
      </trkpt>
      <trkpt lat="46.18901" lon="6.71052">
        <ele>1253</ele>
        <time>2019-06-11T16:02:58Z</time>
      </trkpt>
      <trkpt lat="46.18863" lon="6.71073">
        <ele>1257</ele>
        <time>2019-06-11T16:03:05Z</time>
      </trkpt>
      <trkpt lat="46.18847" lon="6.71087">
        <ele>1260</ele>
        <time>2019-06-11T16:03:09Z</time>
      </trkpt>
      <trkpt lat="46.18766" lon="6.71182">
        <ele>1272</ele>
        <time>2019-06-11T16:03:27Z</time>
      </trkpt>
      <trkpt lat="46.18734" lon="6.7123">
        <ele>1277</ele>
        <time>2019-06-11T16:03:35Z</time>
      </trkpt>
      <trkpt lat="46.18715" lon="6.71263">
        <ele>1280</ele>
        <time>2019-06-11T16:03:41Z</time>
      </trkpt>
      <trkpt lat="46.18698" lon="6.71303">
        <ele>1285</ele>
        <time>2019-06-11T16:03:46Z</time>
      </trkpt>
      <trkpt lat="46.18684" lon="6.71356">
        <ele>1295</ele>
        <time>2019-06-11T16:03:53Z</time>
      </trkpt>
      <trkpt lat="46.18678" lon="6.7137">
        <ele>1297</ele>
        <time>2019-06-11T16:03:55Z</time>
      </trkpt>
      <trkpt lat="46.18653" lon="6.71394">
        <ele>1294</ele>
        <time>2019-06-11T16:04:01Z</time>
      </trkpt>
      <trkpt lat="46.18641" lon="6.71411">
        <ele>1294</ele>
        <time>2019-06-11T16:04:04Z</time>
      </trkpt>
      <trkpt lat="46.18545" lon="6.71662">
        <ele>1305</ele>
        <time>2019-06-11T16:04:39Z</time>
      </trkpt>
      <trkpt lat="46.18537" lon="6.71702">
        <ele>1308</ele>
        <time>2019-06-11T16:04:44Z</time>
      </trkpt>
      <trkpt lat="46.1851" lon="6.71959">
        <ele>1331</ele>
        <time>2019-06-11T16:05:16Z</time>
      </trkpt>
      <trkpt lat="46.18501" lon="6.7201">
        <ele>1329</ele>
        <time>2019-06-11T16:05:23Z</time>
      </trkpt>
      <trkpt lat="46.185" lon="6.72025">
        <ele>1327</ele>
        <time>2019-06-11T16:05:25Z</time>
      </trkpt>
      <trkpt lat="46.18503" lon="6.72036">
        <ele>1327</ele>
        <time>2019-06-11T16:05:26Z</time>
      </trkpt>
      <trkpt lat="46.18505" lon="6.72039">
        <ele>1328</ele>
        <time>2019-06-11T16:05:27Z</time>
      </trkpt>
      <trkpt lat="46.18511" lon="6.72041">
        <ele>1330</ele>
        <time>2019-06-11T16:05:28Z</time>
      </trkpt>
      <trkpt lat="46.18517" lon="6.72037">
        <ele>1332</ele>
        <time>2019-06-11T16:05:29Z</time>
      </trkpt>
      <trkpt lat="46.18521" lon="6.72029">
        <ele>1335</ele>
        <time>2019-06-11T16:05:30Z</time>
      </trkpt>
      <trkpt lat="46.18524" lon="6.71987">
        <ele>1337</ele>
        <time>2019-06-11T16:05:35Z</time>
      </trkpt>
      <trkpt lat="46.1855" lon="6.71889">
        <ele>1338</ele>
        <time>2019-06-11T16:05:48Z</time>
      </trkpt>
      <trkpt lat="46.18555" lon="6.71874">
        <ele>1338</ele>
        <time>2019-06-11T16:05:50Z</time>
      </trkpt>
      <trkpt lat="46.18572" lon="6.71838">
        <ele>1339</ele>
        <time>2019-06-11T16:05:56Z</time>
      </trkpt>
      <trkpt lat="46.18617" lon="6.71755">
        <ele>1348</ele>
        <time>2019-06-11T16:06:09Z</time>
      </trkpt>
      <trkpt lat="46.18684" lon="6.71647">
        <ele>1355</ele>
        <time>2019-06-11T16:06:26Z</time>
      </trkpt>
      <trkpt lat="46.18697" lon="6.71614">
        <ele>1353</ele>
        <time>2019-06-11T16:06:31Z</time>
      </trkpt>
      <trkpt lat="46.187" lon="6.7161">
        <ele>1354</ele>
        <time>2019-06-11T16:06:32Z</time>
      </trkpt>
      <trkpt lat="46.18706" lon="6.7161">
        <ele>1355</ele>
        <time>2019-06-11T16:06:33Z</time>
      </trkpt>
      <trkpt lat="46.18709" lon="6.71611">
        <ele>1356</ele>
        <time>2019-06-11T16:06:33Z</time>
      </trkpt>
      <trkpt lat="46.18714" lon="6.71618">
        <ele>1359</ele>
        <time>2019-06-11T16:06:35Z</time>
      </trkpt>
      <trkpt lat="46.18716" lon="6.71631">
        <ele>1361</ele>
        <time>2019-06-11T16:06:36Z</time>
      </trkpt>
      <trkpt lat="46.18714" lon="6.71639">
        <ele>1362</ele>
        <time>2019-06-11T16:06:37Z</time>
      </trkpt>
      <trkpt lat="46.18692" lon="6.7167">
        <ele>1361</ele>
        <time>2019-06-11T16:06:43Z</time>
      </trkpt>
      <trkpt lat="46.18677" lon="6.71719">
        <ele>1365</ele>
        <time>2019-06-11T16:06:49Z</time>
      </trkpt>
      <trkpt lat="46.18655" lon="6.71805">
        <ele>1368</ele>
        <time>2019-06-11T16:07:01Z</time>
      </trkpt>
      <trkpt lat="46.1865" lon="6.71836">
        <ele>1369</ele>
        <time>2019-06-11T16:07:05Z</time>
      </trkpt>
      <trkpt lat="46.18645" lon="6.71912">
        <ele>1377</ele>
        <time>2019-06-11T16:07:14Z</time>
      </trkpt>
      <trkpt lat="46.18644" lon="6.71935">
        <ele>1378</ele>
        <time>2019-06-11T16:07:17Z</time>
      </trkpt>
      <trkpt lat="46.1865" lon="6.72065">
        <ele>1388</ele>
        <time>2019-06-11T16:07:33Z</time>
      </trkpt>
      <trkpt lat="46.18655" lon="6.721">
        <ele>1390</ele>
        <time>2019-06-11T16:07:37Z</time>
      </trkpt>
      <trkpt lat="46.18663" lon="6.72128">
        <ele>1394</ele>
        <time>2019-06-11T16:07:41Z</time>
      </trkpt>
      <trkpt lat="46.18692" lon="6.72212">
        <ele>1405</ele>
        <time>2019-06-11T16:07:53Z</time>
      </trkpt>
      <trkpt lat="46.18696" lon="6.72225">
        <ele>1407</ele>
        <time>2019-06-11T16:07:54Z</time>
      </trkpt>
      <trkpt lat="46.18697" lon="6.72239">
        <ele>1407</ele>
        <time>2019-06-11T16:07:56Z</time>
      </trkpt>
      <trkpt lat="46.18697" lon="6.72291">
        <ele>1407</ele>
        <time>2019-06-11T16:08:03Z</time>
      </trkpt>
      <trkpt lat="46.18701" lon="6.72366">
        <ele>1410</ele>
        <time>2019-06-11T16:08:12Z</time>
      </trkpt>
      <trkpt lat="46.187" lon="6.72401">
        <ele>1411</ele>
        <time>2019-06-11T16:08:16Z</time>
      </trkpt>
      <trkpt lat="46.18703" lon="6.72411">
        <ele>1412</ele>
        <time>2019-06-11T16:08:17Z</time>
      </trkpt>
      <trkpt lat="46.18709" lon="6.72417">
        <ele>1415</ele>
        <time>2019-06-11T16:08:19Z</time>
      </trkpt>
      <trkpt lat="46.18716" lon="6.72417">
        <ele>1419</ele>
        <time>2019-06-11T16:08:20Z</time>
      </trkpt>
      <trkpt lat="46.18719" lon="6.72414">
        <ele>1420</ele>
        <time>2019-06-11T16:08:21Z</time>
      </trkpt>
      <trkpt lat="46.18722" lon="6.72403">
        <ele>1421</ele>
        <time>2019-06-11T16:08:22Z</time>
      </trkpt>
      <trkpt lat="46.18719" lon="6.7236">
        <ele>1419</ele>
        <time>2019-06-11T16:08:27Z</time>
      </trkpt>
      <trkpt lat="46.18723" lon="6.72299">
        <ele>1420</ele>
        <time>2019-06-11T16:08:35Z</time>
      </trkpt>
      <trkpt lat="46.1873" lon="6.72217">
        <ele>1423</ele>
        <time>2019-06-11T16:08:45Z</time>
      </trkpt>
      <trkpt lat="46.18739" lon="6.72146">
        <ele>1426</ele>
        <time>2019-06-11T16:08:54Z</time>
      </trkpt>
      <trkpt lat="46.18745" lon="6.72119">
        <ele>1428</ele>
        <time>2019-06-11T16:08:58Z</time>
      </trkpt>
      <trkpt lat="46.18762" lon="6.72081">
        <ele>1434</ele>
        <time>2019-06-11T16:09:03Z</time>
      </trkpt>
      <trkpt lat="46.18776" lon="6.72011">
        <ele>1434</ele>
        <time>2019-06-11T16:09:12Z</time>
      </trkpt>
      <trkpt lat="46.18781" lon="6.71996">
        <ele>1435</ele>
        <time>2019-06-11T16:09:14Z</time>
      </trkpt>
      <trkpt lat="46.18788" lon="6.71982">
        <ele>1435</ele>
        <time>2019-06-11T16:09:16Z</time>
      </trkpt>
      <trkpt lat="46.18804" lon="6.71966">
        <ele>1438</ele>
        <time>2019-06-11T16:09:20Z</time>
      </trkpt>
      <trkpt lat="46.18844" lon="6.7193">
        <ele>1446</ele>
        <time>2019-06-11T16:09:28Z</time>
      </trkpt>
      <trkpt lat="46.18875" lon="6.71893">
        <ele>1445</ele>
        <time>2019-06-11T16:09:35Z</time>
      </trkpt>
      <trkpt lat="46.18882" lon="6.71893">
        <ele>1446</ele>
        <time>2019-06-11T16:09:36Z</time>
      </trkpt>
      <trkpt lat="46.18885" lon="6.71895">
        <ele>1447</ele>
        <time>2019-06-11T16:09:37Z</time>
      </trkpt>
      <trkpt lat="46.18889" lon="6.71905">
        <ele>1449</ele>
        <time>2019-06-11T16:09:39Z</time>
      </trkpt>
      <trkpt lat="46.1889" lon="6.71915">
        <ele>1450</ele>
        <time>2019-06-11T16:09:40Z</time>
      </trkpt>
      <trkpt lat="46.18888" lon="6.71922">
        <ele>1451</ele>
        <time>2019-06-11T16:09:41Z</time>
      </trkpt>
      <trkpt lat="46.1887" lon="6.7194">
        <ele>1451</ele>
        <time>2019-06-11T16:09:45Z</time>
      </trkpt>
      <trkpt lat="46.18861" lon="6.71953">
        <ele>1451</ele>
        <time>2019-06-11T16:09:47Z</time>
      </trkpt>
      <trkpt lat="46.18841" lon="6.71999">
        <ele>1451</ele>
        <time>2019-06-11T16:09:54Z</time>
      </trkpt>
      <trkpt lat="46.18837" lon="6.72016">
        <ele>1451</ele>
        <time>2019-06-11T16:09:56Z</time>
      </trkpt>
      <trkpt lat="46.18835" lon="6.72037">
        <ele>1453</ele>
        <time>2019-06-11T16:09:58Z</time>
      </trkpt>
      <trkpt lat="46.18833" lon="6.72095">
        <ele>1457</ele>
        <time>2019-06-11T16:10:06Z</time>
      </trkpt>
      <trkpt lat="46.18836" lon="6.72107">
        <ele>1458</ele>
        <time>2019-06-11T16:10:07Z</time>
      </trkpt>
      <trkpt lat="46.18843" lon="6.72113">
        <ele>1461</ele>
        <time>2019-06-11T16:10:09Z</time>
      </trkpt>
      <trkpt lat="46.18851" lon="6.72109">
        <ele>1463</ele>
        <time>2019-06-11T16:10:10Z</time>
      </trkpt>
      <trkpt lat="46.18854" lon="6.72097">
        <ele>1462</ele>
        <time>2019-06-11T16:10:12Z</time>
      </trkpt>
      <trkpt lat="46.18853" lon="6.72078">
        <ele>1460</ele>
        <time>2019-06-11T16:10:14Z</time>
      </trkpt>
      <trkpt lat="46.18855" lon="6.72064">
        <ele>1460</ele>
        <time>2019-06-11T16:10:16Z</time>
      </trkpt>
      <trkpt lat="46.18862" lon="6.72046">
        <ele>1460</ele>
        <time>2019-06-11T16:10:18Z</time>
      </trkpt>
      <trkpt lat="46.18871" lon="6.72035">
        <ele>1461</ele>
        <time>2019-06-11T16:10:20Z</time>
      </trkpt>
      <trkpt lat="46.18911" lon="6.72007">
        <ele>1468</ele>
        <time>2019-06-11T16:10:28Z</time>
      </trkpt>
      <trkpt lat="46.18932" lon="6.71982">
        <ele>1468</ele>
        <time>2019-06-11T16:10:33Z</time>
      </trkpt>
      <trkpt lat="46.18937" lon="6.71981">
        <ele>1468</ele>
        <time>2019-06-11T16:10:34Z</time>
      </trkpt>
      <trkpt lat="46.18943" lon="6.71984">
        <ele>1469</ele>
        <time>2019-06-11T16:10:35Z</time>
      </trkpt>
      <trkpt lat="46.18947" lon="6.71989">
        <ele>1471</ele>
        <time>2019-06-11T16:10:36Z</time>
      </trkpt>
      <trkpt lat="46.18948" lon="6.71996">
        <ele>1472</ele>
        <time>2019-06-11T16:10:37Z</time>
      </trkpt>
      <trkpt lat="46.18946" lon="6.72008">
        <ele>1473</ele>
        <time>2019-06-11T16:10:38Z</time>
      </trkpt>
      <trkpt lat="46.18924" lon="6.72027">
        <ele>1473</ele>
        <time>2019-06-11T16:10:43Z</time>
      </trkpt>
      <trkpt lat="46.18916" lon="6.72037">
        <ele>1472</ele>
        <time>2019-06-11T16:10:45Z</time>
      </trkpt>
      <trkpt lat="46.18904" lon="6.72065">
        <ele>1472</ele>
        <time>2019-06-11T16:10:49Z</time>
      </trkpt>
      <trkpt lat="46.18901" lon="6.72085">
        <ele>1473</ele>
        <time>2019-06-11T16:10:51Z</time>
      </trkpt>
      <trkpt lat="46.18909" lon="6.72123">
        <ele>1480</ele>
        <time>2019-06-11T16:10:56Z</time>
      </trkpt>
      <trkpt lat="46.18908" lon="6.72144">
        <ele>1482</ele>
        <time>2019-06-11T16:10:59Z</time>
      </trkpt>
      <trkpt lat="46.18901" lon="6.72163">
        <ele>1483</ele>
        <time>2019-06-11T16:11:02Z</time>
      </trkpt>
      <trkpt lat="46.1889" lon="6.72184">
        <ele>1481</ele>
        <time>2019-06-11T16:11:05Z</time>
      </trkpt>
      <trkpt lat="46.18884" lon="6.72212">
        <ele>1482</ele>
        <time>2019-06-11T16:11:08Z</time>
      </trkpt>
      <trkpt lat="46.18882" lon="6.72231">
        <ele>1483</ele>
        <time>2019-06-11T16:11:11Z</time>
      </trkpt>
      <trkpt lat="46.18882" lon="6.72288">
        <ele>1489</ele>
        <time>2019-06-11T16:11:18Z</time>
      </trkpt>
      <trkpt lat="46.18878" lon="6.72335">
        <ele>1492</ele>
        <time>2019-06-11T16:11:24Z</time>
      </trkpt>
      <trkpt lat="46.18878" lon="6.72365">
        <ele>1493</ele>
        <time>2019-06-11T16:11:27Z</time>
      </trkpt>
      <trkpt lat="46.1888" lon="6.72386">
        <ele>1494</ele>
        <time>2019-06-11T16:11:30Z</time>
      </trkpt>
      <trkpt lat="46.18888" lon="6.72446">
        <ele>1496</ele>
        <time>2019-06-11T16:11:38Z</time>
      </trkpt>
      <trkpt lat="46.18893" lon="6.72454">
        <ele>1498</ele>
        <time>2019-06-11T16:11:39Z</time>
      </trkpt>
      <trkpt lat="46.18899" lon="6.72456">
        <ele>1500</ele>
        <time>2019-06-11T16:11:40Z</time>
      </trkpt>
      <trkpt lat="46.18905" lon="6.72451">
        <ele>1503</ele>
        <time>2019-06-11T16:11:41Z</time>
      </trkpt>
      <trkpt lat="46.18908" lon="6.72441">
        <ele>1505</ele>
        <time>2019-06-11T16:11:43Z</time>
      </trkpt>
      <trkpt lat="46.18905" lon="6.72421">
        <ele>1506</ele>
        <time>2019-06-11T16:11:45Z</time>
      </trkpt>
      <trkpt lat="46.18904" lon="6.72406">
        <ele>1505</ele>
        <time>2019-06-11T16:11:47Z</time>
      </trkpt>
      <trkpt lat="46.18905" lon="6.72391">
        <ele>1505</ele>
        <time>2019-06-11T16:11:49Z</time>
      </trkpt>
      <trkpt lat="46.18908" lon="6.72376">
        <ele>1505</ele>
        <time>2019-06-11T16:11:51Z</time>
      </trkpt>
      <trkpt lat="46.18919" lon="6.72346">
        <ele>1507</ele>
        <time>2019-06-11T16:11:55Z</time>
      </trkpt>
      <trkpt lat="46.18944" lon="6.72294">
        <ele>1509</ele>
        <time>2019-06-11T16:12:03Z</time>
      </trkpt>
      <trkpt lat="46.18953" lon="6.72264">
        <ele>1508</ele>
        <time>2019-06-11T16:12:07Z</time>
      </trkpt>
      <trkpt lat="46.18956" lon="6.7226">
        <ele>1508</ele>
        <time>2019-06-11T16:12:07Z</time>
      </trkpt>
      <trkpt lat="46.18958" lon="6.72257">
        <ele>1508</ele>
        <time>2019-06-11T16:12:08Z</time>
      </trkpt>
      <trkpt lat="46.18965" lon="6.72257">
        <ele>1510</ele>
        <time>2019-06-11T16:12:09Z</time>
      </trkpt>
      <trkpt lat="46.18971" lon="6.72264">
        <ele>1513</ele>
        <time>2019-06-11T16:12:11Z</time>
      </trkpt>
      <trkpt lat="46.18972" lon="6.72269">
        <ele>1514</ele>
        <time>2019-06-11T16:12:11Z</time>
      </trkpt>
      <trkpt lat="46.18971" lon="6.72281">
        <ele>1515</ele>
        <time>2019-06-11T16:12:13Z</time>
      </trkpt>
      <trkpt lat="46.18961" lon="6.72312">
        <ele>1516</ele>
        <time>2019-06-11T16:12:17Z</time>
      </trkpt>
      <trkpt lat="46.1895" lon="6.72384">
        <ele>1519</ele>
        <time>2019-06-11T16:12:26Z</time>
      </trkpt>
      <trkpt lat="46.1895" lon="6.72391">
        <ele>1519</ele>
        <time>2019-06-11T16:12:27Z</time>
      </trkpt>
      <trkpt lat="46.18953" lon="6.72397">
        <ele>1521</ele>
        <time>2019-06-11T16:12:28Z</time>
      </trkpt>
      <trkpt lat="46.18962" lon="6.72401">
        <ele>1523</ele>
        <time>2019-06-11T16:12:29Z</time>
      </trkpt>
      <trkpt lat="46.18966" lon="6.72399">
        <ele>1524</ele>
        <time>2019-06-11T16:12:30Z</time>
      </trkpt>
      <trkpt lat="46.1897" lon="6.72393">
        <ele>1525</ele>
        <time>2019-06-11T16:12:31Z</time>
      </trkpt>
      <trkpt lat="46.18975" lon="6.72364">
        <ele>1524</ele>
        <time>2019-06-11T16:12:35Z</time>
      </trkpt>
      <trkpt lat="46.1898" lon="6.72353">
        <ele>1525</ele>
        <time>2019-06-11T16:12:37Z</time>
      </trkpt>
      <trkpt lat="46.19027" lon="6.72288">
        <ele>1532</ele>
        <time>2019-06-11T16:12:48Z</time>
      </trkpt>
      <trkpt lat="46.19044" lon="6.72252">
        <ele>1532</ele>
        <time>2019-06-11T16:12:53Z</time>
      </trkpt>
      <trkpt lat="46.19053" lon="6.72224">
        <ele>1529</ele>
        <time>2019-06-11T16:12:57Z</time>
      </trkpt>
      <trkpt lat="46.19058" lon="6.72219">
        <ele>1529</ele>
        <time>2019-06-11T16:12:58Z</time>
      </trkpt>
      <trkpt lat="46.19066" lon="6.7222">
        <ele>1531</ele>
        <time>2019-06-11T16:13:00Z</time>
      </trkpt>
      <trkpt lat="46.19072" lon="6.72227">
        <ele>1534</ele>
        <time>2019-06-11T16:13:01Z</time>
      </trkpt>
      <trkpt lat="46.19074" lon="6.72236">
        <ele>1537</ele>
        <time>2019-06-11T16:13:02Z</time>
      </trkpt>
      <trkpt lat="46.19073" lon="6.72243">
        <ele>1538</ele>
        <time>2019-06-11T16:13:03Z</time>
      </trkpt>
      <trkpt lat="46.19058" lon="6.72272">
        <ele>1539</ele>
        <time>2019-06-11T16:13:08Z</time>
      </trkpt>
      <trkpt lat="46.1905" lon="6.72296">
        <ele>1539</ele>
        <time>2019-06-11T16:13:11Z</time>
      </trkpt>
      <trkpt lat="46.1904" lon="6.72358">
        <ele>1544</ele>
        <time>2019-06-11T16:13:19Z</time>
      </trkpt>
      <trkpt lat="46.19033" lon="6.72419">
        <ele>1548</ele>
        <time>2019-06-11T16:13:26Z</time>
      </trkpt>
      <trkpt lat="46.19033" lon="6.72449">
        <ele>1548</ele>
        <time>2019-06-11T16:13:30Z</time>
      </trkpt>
      <trkpt lat="46.19038" lon="6.72503">
        <ele>1551</ele>
        <time>2019-06-11T16:13:37Z</time>
      </trkpt>
      <trkpt lat="46.19051" lon="6.72553">
        <ele>1554</ele>
        <time>2019-06-11T16:13:43Z</time>
      </trkpt>
      <trkpt lat="46.19059" lon="6.72591">
        <ele>1557</ele>
        <time>2019-06-11T16:13:48Z</time>
      </trkpt>
      <trkpt lat="46.19059" lon="6.72606">
        <ele>1557</ele>
        <time>2019-06-11T16:13:50Z</time>
      </trkpt>
      <trkpt lat="46.19051" lon="6.7265">
        <ele>1554</ele>
        <time>2019-06-11T16:13:56Z</time>
      </trkpt>
      <trkpt lat="46.19049" lon="6.72664">
        <ele>1553</ele>
        <time>2019-06-11T16:13:57Z</time>
      </trkpt>
      <trkpt lat="46.19052" lon="6.72702">
        <ele>1555</ele>
        <time>2019-06-11T16:14:02Z</time>
      </trkpt>
      <trkpt lat="46.19051" lon="6.72762">
        <ele>1558</ele>
        <time>2019-06-11T16:14:10Z</time>
      </trkpt>
      <trkpt lat="46.19051" lon="6.72789">
        <ele>1561</ele>
        <time>2019-06-11T16:14:13Z</time>
      </trkpt>
      <trkpt lat="46.19053" lon="6.72806">
        <ele>1564</ele>
        <time>2019-06-11T16:14:15Z</time>
      </trkpt>
      <trkpt lat="46.19066" lon="6.72856">
        <ele>1572</ele>
        <time>2019-06-11T16:14:22Z</time>
      </trkpt>
      <trkpt lat="46.1907" lon="6.72882">
        <ele>1575</ele>
        <time>2019-06-11T16:14:25Z</time>
      </trkpt>
      <trkpt lat="46.19058" lon="6.73103">
        <ele>1586</ele>
        <time>2019-06-11T16:14:52Z</time>
      </trkpt>
      <trkpt lat="46.19059" lon="6.73128">
        <ele>1587</ele>
        <time>2019-06-11T16:14:55Z</time>
      </trkpt>
      <trkpt lat="46.19062" lon="6.73152">
        <ele>1590</ele>
        <time>2019-06-11T16:14:58Z</time>
      </trkpt>
      <trkpt lat="46.19076" lon="6.73214">
        <ele>1595</ele>
        <time>2019-06-11T16:15:06Z</time>
      </trkpt>
      <trkpt lat="46.19108" lon="6.73314">
        <ele>1595</ele>
        <time>2019-06-11T16:15:20Z</time>
      </trkpt>
      <trkpt lat="46.19124" lon="6.73353">
        <ele>1599</ele>
        <time>2019-06-11T16:15:25Z</time>
      </trkpt>
      <trkpt lat="46.19174" lon="6.7345">
        <ele>1612</ele>
        <time>2019-06-11T16:15:40Z</time>
      </trkpt>
      <trkpt lat="46.19189" lon="6.73466">
        <ele>1612</ele>
        <time>2019-06-11T16:15:44Z</time>
      </trkpt>
      <trkpt lat="46.19221" lon="6.73486">
        <ele>1617</ele>
        <time>2019-06-11T16:15:50Z</time>
      </trkpt>
      <trkpt lat="46.19237" lon="6.735">
        <ele>1619</ele>
        <time>2019-06-11T16:15:53Z</time>
      </trkpt>
      <trkpt lat="46.19245" lon="6.73517">
        <ele>1619</ele>
        <time>2019-06-11T16:15:56Z</time>
      </trkpt>
      <trkpt lat="46.19248" lon="6.73535">
        <ele>1618</ele>
        <time>2019-06-11T16:15:58Z</time>
      </trkpt>
      <trkpt lat="46.1925" lon="6.73581">
        <ele>1615</ele>
        <time>2019-06-11T16:16:04Z</time>
      </trkpt>
      <trkpt lat="46.19254" lon="6.73601">
        <ele>1614</ele>
        <time>2019-06-11T16:16:06Z</time>
      </trkpt>
      <trkpt lat="46.19258" lon="6.73613">
        <ele>1614</ele>
        <time>2019-06-11T16:16:08Z</time>
      </trkpt>
      <trkpt lat="46.19275" lon="6.73648">
        <ele>1615</ele>
        <time>2019-06-11T16:16:13Z</time>
      </trkpt>
      <trkpt lat="46.19297" lon="6.73671">
        <ele>1619</ele>
        <time>2019-06-11T16:16:18Z</time>
      </trkpt>
      <trkpt lat="46.19304" lon="6.73682">
        <ele>1622</ele>
        <time>2019-06-11T16:16:20Z</time>
      </trkpt>
      <trkpt lat="46.19309" lon="6.73695">
        <ele>1625</ele>
        <time>2019-06-11T16:16:22Z</time>
      </trkpt>
      <trkpt lat="46.1931" lon="6.73708">
        <ele>1626</ele>
        <time>2019-06-11T16:16:23Z</time>
      </trkpt>
      <trkpt lat="46.19309" lon="6.73715">
        <ele>1627</ele>
        <time>2019-06-11T16:16:24Z</time>
      </trkpt>
      <trkpt lat="46.19297" lon="6.73753">
        <ele>1627</ele>
        <time>2019-06-11T16:16:29Z</time>
      </trkpt>
      <trkpt lat="46.19295" lon="6.73772">
        <ele>1627</ele>
        <time>2019-06-11T16:16:32Z</time>
      </trkpt>
      <trkpt lat="46.19295" lon="6.7379">
        <ele>1628</ele>
        <time>2019-06-11T16:16:34Z</time>
      </trkpt>
      <trkpt lat="46.19298" lon="6.73816">
        <ele>1629</ele>
        <time>2019-06-11T16:16:37Z</time>
      </trkpt>
      <trkpt lat="46.19304" lon="6.73844">
        <ele>1629</ele>
        <time>2019-06-11T16:16:41Z</time>
      </trkpt>
      <trkpt lat="46.19309" lon="6.7386">
        <ele>1628</ele>
        <time>2019-06-11T16:16:43Z</time>
      </trkpt>
      <trkpt lat="46.19322" lon="6.73891">
        <ele>1627</ele>
        <time>2019-06-11T16:16:47Z</time>
      </trkpt>
      <trkpt lat="46.19339" lon="6.73916">
        <ele>1630</ele>
        <time>2019-06-11T16:16:52Z</time>
      </trkpt>
      <trkpt lat="46.19357" lon="6.73935">
        <ele>1630</ele>
        <time>2019-06-11T16:16:56Z</time>
      </trkpt>
      <trkpt lat="46.1937" lon="6.73942">
        <ele>1631</ele>
        <time>2019-06-11T16:16:58Z</time>
      </trkpt>
      <trkpt lat="46.19401" lon="6.73948">
        <ele>1636</ele>
        <time>2019-06-11T16:17:04Z</time>
      </trkpt>
      <trkpt lat="46.19418" lon="6.73955">
        <ele>1638</ele>
        <time>2019-06-11T16:17:07Z</time>
      </trkpt>
      <trkpt lat="46.19433" lon="6.73968">
        <ele>1640</ele>
        <time>2019-06-11T16:17:10Z</time>
      </trkpt>
      <trkpt lat="46.19455" lon="6.74001">
        <ele>1642</ele>
        <time>2019-06-11T16:17:16Z</time>
      </trkpt>
      <trkpt lat="46.19465" lon="6.74012">
        <ele>1643</ele>
        <time>2019-06-11T16:17:18Z</time>
      </trkpt>
      <trkpt lat="46.19476" lon="6.74018">
        <ele>1643</ele>
        <time>2019-06-11T16:17:20Z</time>
      </trkpt>
      <trkpt lat="46.19507" lon="6.74019">
        <ele>1648</ele>
        <time>2019-06-11T16:17:25Z</time>
      </trkpt>
      <trkpt lat="46.19528" lon="6.74025">
        <ele>1650</ele>
        <time>2019-06-11T16:17:29Z</time>
      </trkpt>
      <trkpt lat="46.19539" lon="6.74033">
        <ele>1651</ele>
        <time>2019-06-11T16:17:31Z</time>
      </trkpt>
      <trkpt lat="46.19548" lon="6.74043">
        <ele>1651</ele>
        <time>2019-06-11T16:17:33Z</time>
      </trkpt>
      <trkpt lat="46.19556" lon="6.74054">
        <ele>1651</ele>
        <time>2019-06-11T16:17:35Z</time>
      </trkpt>
      <trkpt lat="46.19585" lon="6.74109">
        <ele>1651</ele>
        <time>2019-06-11T16:17:44Z</time>
      </trkpt>
      <trkpt lat="46.19596" lon="6.74125">
        <ele>1652</ele>
        <time>2019-06-11T16:17:47Z</time>
      </trkpt>
      <trkpt lat="46.19716" lon="6.74286">
        <ele>1668</ele>
        <time>2019-06-11T16:18:16Z</time>
      </trkpt>
      <trkpt lat="46.1973" lon="6.74309">
        <ele>1670</ele>
        <time>2019-06-11T16:18:20Z</time>
      </trkpt>
      <trkpt lat="46.19737" lon="6.74331">
        <ele>1670</ele>
        <time>2019-06-11T16:18:23Z</time>
      </trkpt>
      <trkpt lat="46.1974" lon="6.74347">
        <ele>1670</ele>
        <time>2019-06-11T16:18:25Z</time>
      </trkpt>
      <trkpt lat="46.19749" lon="6.74496">
        <ele>1676</ele>
        <time>2019-06-11T16:18:43Z</time>
      </trkpt>
      <trkpt lat="46.1975" lon="6.74505">
        <ele>1676</ele>
        <time>2019-06-11T16:18:44Z</time>
      </trkpt>
      <trkpt lat="46.19756" lon="6.74522">
        <ele>1676</ele>
        <time>2019-06-11T16:18:47Z</time>
      </trkpt>
      <trkpt lat="46.19768" lon="6.74539">
        <ele>1678</ele>
        <time>2019-06-11T16:18:50Z</time>
      </trkpt>
      <trkpt lat="46.19778" lon="6.74547">
        <ele>1679</ele>
        <time>2019-06-11T16:18:52Z</time>
      </trkpt>
      <trkpt lat="46.19829" lon="6.74577">
        <ele>1685</ele>
        <time>2019-06-11T16:19:01Z</time>
      </trkpt>
      <trkpt lat="46.1985" lon="6.74593">
        <ele>1688</ele>
        <time>2019-06-11T16:19:06Z</time>
      </trkpt>
      <trkpt lat="46.19867" lon="6.74609">
        <ele>1691</ele>
        <time>2019-06-11T16:19:09Z</time>
      </trkpt>
      <trkpt lat="46.1988" lon="6.74625">
        <ele>1693</ele>
        <time>2019-06-11T16:19:12Z</time>
      </trkpt>
      <trkpt lat="46.19892" lon="6.74645">
        <ele>1695</ele>
        <time>2019-06-11T16:19:16Z</time>
      </trkpt>
      <trkpt lat="46.19906" lon="6.74671">
        <ele>1697</ele>
        <time>2019-06-11T16:19:20Z</time>
      </trkpt>
      <trkpt lat="46.1992" lon="6.74712">
        <ele>1698</ele>
        <time>2019-06-11T16:19:25Z</time>
      </trkpt>
      <trkpt lat="46.19942" lon="6.7479">
        <ele>1703</ele>
        <time>2019-06-11T16:19:36Z</time>
      </trkpt>
      <trkpt lat="46.19991" lon="6.75021">
        <ele>1714</ele>
        <time>2019-06-11T16:20:05Z</time>
      </trkpt>
      <trkpt lat="46.20001" lon="6.75061">
        <ele>1716</ele>
        <time>2019-06-11T16:20:11Z</time>
      </trkpt>
      <trkpt lat="46.20009" lon="6.75083">
        <ele>1718</ele>
        <time>2019-06-11T16:20:14Z</time>
      </trkpt>
      <trkpt lat="46.20038" lon="6.75149">
        <ele>1725</ele>
        <time>2019-06-11T16:20:23Z</time>
      </trkpt>
      <trkpt lat="46.20043" lon="6.75164">
        <ele>1726</ele>
        <time>2019-06-11T16:20:25Z</time>
      </trkpt>
      <trkpt lat="46.20047" lon="6.75185">
        <ele>1729</ele>
        <time>2019-06-11T16:20:28Z</time>
      </trkpt>
      <trkpt lat="46.20048" lon="6.75224">
        <ele>1731</ele>
        <time>2019-06-11T16:20:33Z</time>
      </trkpt>
      <trkpt lat="46.20034" lon="6.75385">
        <ele>1735</ele>
        <time>2019-06-11T16:20:53Z</time>
      </trkpt>
      <trkpt lat="46.20036" lon="6.75444">
        <ele>1738</ele>
        <time>2019-06-11T16:21:00Z</time>
      </trkpt>
      <trkpt lat="46.20051" lon="6.7565">
        <ele>1750</ele>
        <time>2019-06-11T16:21:26Z</time>
      </trkpt>
      <trkpt lat="46.2005" lon="6.75686">
        <ele>1752</ele>
        <time>2019-06-11T16:21:30Z</time>
      </trkpt>
      <trkpt lat="46.20022" lon="6.75841">
        <ele>1757</ele>
        <time>2019-06-11T16:21:50Z</time>
      </trkpt>
      <trkpt lat="46.20011" lon="6.75885">
        <ele>1756</ele>
        <time>2019-06-11T16:21:55Z</time>
      </trkpt>
      <trkpt lat="46.19997" lon="6.75926">
        <ele>1757</ele>
        <time>2019-06-11T16:22:01Z</time>
      </trkpt>
      <trkpt lat="46.20006" lon="6.75929">
        <ele>1757</ele>
        <time>2019-06-11T16:22:03Z</time>
      </trkpt>
      <trkpt lat="46.2001" lon="6.75927">
        <ele>1756</ele>
        <time>2019-06-11T16:22:04Z</time>
      </trkpt>
      <trkpt lat="46.20027" lon="6.7591">
        <ele>1755</ele>
        <time>2019-06-11T16:22:07Z</time>
      </trkpt>
      <trkpt lat="46.20072" lon="6.75882">
        <ele>1755</ele>
        <time>2019-06-11T16:22:16Z</time>
      </trkpt>
      <trkpt lat="46.20076" lon="6.7588">
        <ele>1755</ele>
        <time>2019-06-11T16:22:17Z</time>
      </trkpt>
      <trkpt lat="46.20081" lon="6.75882">
        <ele>1754</ele>
        <time>2019-06-11T16:22:18Z</time>
      </trkpt>
      <trkpt lat="46.20083" lon="6.75887">
        <ele>1753</ele>
        <time>2019-06-11T16:22:18Z</time>
      </trkpt>
      <trkpt lat="46.20083" lon="6.75895">
        <ele>1752</ele>
        <time>2019-06-11T16:22:19Z</time>
      </trkpt>
      <trkpt lat="46.2008" lon="6.75903">
        <ele>1751</ele>
        <time>2019-06-11T16:22:20Z</time>
      </trkpt>
      <trkpt lat="46.20055" lon="6.75916">
        <ele>1751</ele>
        <time>2019-06-11T16:22:25Z</time>
      </trkpt>
      <trkpt lat="46.20046" lon="6.75925">
        <ele>1751</ele>
        <time>2019-06-11T16:22:27Z</time>
      </trkpt>
      <trkpt lat="46.20044" lon="6.75933">
        <ele>1750</ele>
        <time>2019-06-11T16:22:28Z</time>
      </trkpt>
      <trkpt lat="46.20046" lon="6.75941">
        <ele>1749</ele>
        <time>2019-06-11T16:22:29Z</time>
      </trkpt>
      <trkpt lat="46.20051" lon="6.75947">
        <ele>1747</ele>
        <time>2019-06-11T16:22:30Z</time>
      </trkpt>
      <trkpt lat="46.20056" lon="6.75947">
        <ele>1746</ele>
        <time>2019-06-11T16:22:31Z</time>
      </trkpt>
      <trkpt lat="46.20115" lon="6.75888">
        <ele>1746</ele>
        <time>2019-06-11T16:22:44Z</time>
      </trkpt>
      <trkpt lat="46.20202" lon="6.75823">
        <ele>1745</ele>
        <time>2019-06-11T16:23:01Z</time>
      </trkpt>
      <trkpt lat="46.20221" lon="6.75813">
        <ele>1743</ele>
        <time>2019-06-11T16:23:05Z</time>
      </trkpt>
      <trkpt lat="46.20248" lon="6.75814">
        <ele>1736</ele>
        <time>2019-06-11T16:23:10Z</time>
      </trkpt>
      <trkpt lat="46.20263" lon="6.75812">
        <ele>1732</ele>
        <time>2019-06-11T16:23:12Z</time>
      </trkpt>
      <trkpt lat="46.20288" lon="6.75787">
        <ele>1729</ele>
        <time>2019-06-11T16:23:18Z</time>
      </trkpt>
      <trkpt lat="46.20291" lon="6.75787">
        <ele>1728</ele>
        <time>2019-06-11T16:23:18Z</time>
      </trkpt>
      <trkpt lat="46.20294" lon="6.75789">
        <ele>1726</ele>
        <time>2019-06-11T16:23:19Z</time>
      </trkpt>
      <trkpt lat="46.20298" lon="6.75797">
        <ele>1723</ele>
        <time>2019-06-11T16:23:20Z</time>
      </trkpt>
      <trkpt lat="46.20298" lon="6.75803">
        <ele>1723</ele>
        <time>2019-06-11T16:23:21Z</time>
      </trkpt>
      <trkpt lat="46.20296" lon="6.75813">
        <ele>1722</ele>
        <time>2019-06-11T16:23:22Z</time>
      </trkpt>
      <trkpt lat="46.20293" lon="6.75817">
        <ele>1722</ele>
        <time>2019-06-11T16:23:23Z</time>
      </trkpt>
      <trkpt lat="46.20281" lon="6.75829">
        <ele>1723</ele>
        <time>2019-06-11T16:23:26Z</time>
      </trkpt>
      <trkpt lat="46.20271" lon="6.75833">
        <ele>1725</ele>
        <time>2019-06-11T16:23:27Z</time>
      </trkpt>
      <trkpt lat="46.20238" lon="6.7584">
        <ele>1731</ele>
        <time>2019-06-11T16:23:33Z</time>
      </trkpt>
      <trkpt lat="46.2023" lon="6.75846">
        <ele>1732</ele>
        <time>2019-06-11T16:23:35Z</time>
      </trkpt>
      <trkpt lat="46.20205" lon="6.7589">
        <ele>1725</ele>
        <time>2019-06-11T16:23:42Z</time>
      </trkpt>
      <trkpt lat="46.20171" lon="6.75926">
        <ele>1721</ele>
        <time>2019-06-11T16:23:49Z</time>
      </trkpt>
      <trkpt lat="46.20152" lon="6.75938">
        <ele>1723</ele>
        <time>2019-06-11T16:23:53Z</time>
      </trkpt>
      <trkpt lat="46.2012" lon="6.75972">
        <ele>1724</ele>
        <time>2019-06-11T16:24:00Z</time>
      </trkpt>
      <trkpt lat="46.20117" lon="6.75976">
        <ele>1724</ele>
        <time>2019-06-11T16:24:01Z</time>
      </trkpt>
      <trkpt lat="46.20109" lon="6.75999">
        <ele>1720</ele>
        <time>2019-06-11T16:24:04Z</time>
      </trkpt>
      <trkpt lat="46.201" lon="6.76037">
        <ele>1717</ele>
        <time>2019-06-11T16:24:09Z</time>
      </trkpt>
      <trkpt lat="46.20094" lon="6.76118">
        <ele>1707</ele>
        <time>2019-06-11T16:24:19Z</time>
      </trkpt>
      <trkpt lat="46.20087" lon="6.7614">
        <ele>1706</ele>
        <time>2019-06-11T16:24:22Z</time>
      </trkpt>
      <trkpt lat="46.20066" lon="6.76183">
        <ele>1711</ele>
        <time>2019-06-11T16:24:29Z</time>
      </trkpt>
      <trkpt lat="46.20064" lon="6.7619">
        <ele>1711</ele>
        <time>2019-06-11T16:24:29Z</time>
      </trkpt>
      <trkpt lat="46.20063" lon="6.76205">
        <ele>1709</ele>
        <time>2019-06-11T16:24:31Z</time>
      </trkpt>
      <trkpt lat="46.20063" lon="6.76256">
        <ele>1703</ele>
        <time>2019-06-11T16:24:38Z</time>
      </trkpt>
      <trkpt lat="46.20066" lon="6.76327">
        <ele>1699</ele>
        <time>2019-06-11T16:24:46Z</time>
      </trkpt>
      <trkpt lat="46.20071" lon="6.76366">
        <ele>1697</ele>
        <time>2019-06-11T16:24:51Z</time>
      </trkpt>
      <trkpt lat="46.20085" lon="6.76423">
        <ele>1690</ele>
        <time>2019-06-11T16:24:59Z</time>
      </trkpt>
      <trkpt lat="46.20085" lon="6.76443">
        <ele>1690</ele>
        <time>2019-06-11T16:25:01Z</time>
      </trkpt>
      <trkpt lat="46.20082" lon="6.76479">
        <ele>1692</ele>
        <time>2019-06-11T16:25:06Z</time>
      </trkpt>
      <trkpt lat="46.20082" lon="6.76484">
        <ele>1692</ele>
        <time>2019-06-11T16:25:06Z</time>
      </trkpt>
      <trkpt lat="46.20089" lon="6.7649">
        <ele>1690</ele>
        <time>2019-06-11T16:25:08Z</time>
      </trkpt>
      <trkpt lat="46.20094" lon="6.76487">
        <ele>1688</ele>
        <time>2019-06-11T16:25:09Z</time>
      </trkpt>
      <trkpt lat="46.20097" lon="6.7648">
        <ele>1687</ele>
        <time>2019-06-11T16:25:10Z</time>
      </trkpt>
      <trkpt lat="46.20099" lon="6.76387">
        <ele>1686</ele>
        <time>2019-06-11T16:25:21Z</time>
      </trkpt>
      <trkpt lat="46.20106" lon="6.76363">
        <ele>1684</ele>
        <time>2019-06-11T16:25:24Z</time>
      </trkpt>
      <trkpt lat="46.20112" lon="6.76353">
        <ele>1683</ele>
        <time>2019-06-11T16:25:26Z</time>
      </trkpt>
      <trkpt lat="46.2012" lon="6.76346">
        <ele>1681</ele>
        <time>2019-06-11T16:25:28Z</time>
      </trkpt>
      <trkpt lat="46.20142" lon="6.76342">
        <ele>1675</ele>
        <time>2019-06-11T16:25:32Z</time>
      </trkpt>
      <trkpt lat="46.20148" lon="6.76334">
        <ele>1674</ele>
        <time>2019-06-11T16:25:33Z</time>
      </trkpt>
      <trkpt lat="46.20152" lon="6.76323">
        <ele>1673</ele>
        <time>2019-06-11T16:25:35Z</time>
      </trkpt>
      <trkpt lat="46.20152" lon="6.76306">
        <ele>1672</ele>
        <time>2019-06-11T16:25:37Z</time>
      </trkpt>
      <trkpt lat="46.20144" lon="6.76274">
        <ele>1674</ele>
        <time>2019-06-11T16:25:41Z</time>
      </trkpt>
      <trkpt lat="46.20145" lon="6.76261">
        <ele>1673</ele>
        <time>2019-06-11T16:25:42Z</time>
      </trkpt>
      <trkpt lat="46.2015" lon="6.76249">
        <ele>1672</ele>
        <time>2019-06-11T16:25:44Z</time>
      </trkpt>
      <trkpt lat="46.20157" lon="6.76242">
        <ele>1671</ele>
        <time>2019-06-11T16:25:46Z</time>
      </trkpt>
      <trkpt lat="46.20174" lon="6.7623">
        <ele>1669</ele>
        <time>2019-06-11T16:25:49Z</time>
      </trkpt>
      <trkpt lat="46.20183" lon="6.76231">
        <ele>1667</ele>
        <time>2019-06-11T16:25:51Z</time>
      </trkpt>
      <trkpt lat="46.20203" lon="6.76243">
        <ele>1662</ele>
        <time>2019-06-11T16:25:55Z</time>
      </trkpt>
      <trkpt lat="46.20213" lon="6.76244">
        <ele>1660</ele>
        <time>2019-06-11T16:25:56Z</time>
      </trkpt>
      <trkpt lat="46.20222" lon="6.7624">
        <ele>1659</ele>
        <time>2019-06-11T16:25:58Z</time>
      </trkpt>
      <trkpt lat="46.20235" lon="6.76229">
        <ele>1658</ele>
        <time>2019-06-11T16:26:01Z</time>
      </trkpt>
      <trkpt lat="46.20252" lon="6.76207">
        <ele>1657</ele>
        <time>2019-06-11T16:26:05Z</time>
      </trkpt>
      <trkpt lat="46.20286" lon="6.76174">
        <ele>1656</ele>
        <time>2019-06-11T16:26:12Z</time>
      </trkpt>
      <trkpt lat="46.20302" lon="6.76152">
        <ele>1657</ele>
        <time>2019-06-11T16:26:16Z</time>
      </trkpt>
      <trkpt lat="46.2031" lon="6.76147">
        <ele>1656</ele>
        <time>2019-06-11T16:26:18Z</time>
      </trkpt>
      <trkpt lat="46.20318" lon="6.76149">
        <ele>1655</ele>
        <time>2019-06-11T16:26:19Z</time>
      </trkpt>
      <trkpt lat="46.20324" lon="6.76158">
        <ele>1654</ele>
        <time>2019-06-11T16:26:20Z</time>
      </trkpt>
      <trkpt lat="46.20324" lon="6.76169">
        <ele>1654</ele>
        <time>2019-06-11T16:26:22Z</time>
      </trkpt>
      <trkpt lat="46.20319" lon="6.76191">
        <ele>1653</ele>
        <time>2019-06-11T16:26:25Z</time>
      </trkpt>
      <trkpt lat="46.20319" lon="6.76219">
        <ele>1651</ele>
        <time>2019-06-11T16:26:28Z</time>
      </trkpt>
      <trkpt lat="46.20317" lon="6.76234">
        <ele>1650</ele>
        <time>2019-06-11T16:26:30Z</time>
      </trkpt>
      <trkpt lat="46.20313" lon="6.76246">
        <ele>1650</ele>
        <time>2019-06-11T16:26:32Z</time>
      </trkpt>
      <trkpt lat="46.20298" lon="6.76262">
        <ele>1649</ele>
        <time>2019-06-11T16:26:35Z</time>
      </trkpt>
      <trkpt lat="46.20291" lon="6.76277">
        <ele>1648</ele>
        <time>2019-06-11T16:26:37Z</time>
      </trkpt>
      <trkpt lat="46.20282" lon="6.76328">
        <ele>1644</ele>
        <time>2019-06-11T16:26:44Z</time>
      </trkpt>
      <trkpt lat="46.20267" lon="6.76384">
        <ele>1643</ele>
        <time>2019-06-11T16:26:51Z</time>
      </trkpt>
      <trkpt lat="46.20267" lon="6.76419">
        <ele>1641</ele>
        <time>2019-06-11T16:26:55Z</time>
      </trkpt>
      <trkpt lat="46.20264" lon="6.76437">
        <ele>1641</ele>
        <time>2019-06-11T16:26:58Z</time>
      </trkpt>
      <trkpt lat="46.20246" lon="6.76467">
        <ele>1643</ele>
        <time>2019-06-11T16:27:03Z</time>
      </trkpt>
      <trkpt lat="46.20244" lon="6.76473">
        <ele>1643</ele>
        <time>2019-06-11T16:27:03Z</time>
      </trkpt>
      <trkpt lat="46.20246" lon="6.76486">
        <ele>1642</ele>
        <time>2019-06-11T16:27:05Z</time>
      </trkpt>
      <trkpt lat="46.2025" lon="6.7649">
        <ele>1641</ele>
        <time>2019-06-11T16:27:06Z</time>
      </trkpt>
      <trkpt lat="46.20257" lon="6.76492">
        <ele>1639</ele>
        <time>2019-06-11T16:27:07Z</time>
      </trkpt>
      <trkpt lat="46.20262" lon="6.76489">
        <ele>1638</ele>
        <time>2019-06-11T16:27:08Z</time>
      </trkpt>
      <trkpt lat="46.20278" lon="6.76452">
        <ele>1637</ele>
        <time>2019-06-11T16:27:14Z</time>
      </trkpt>
      <trkpt lat="46.20281" lon="6.76445">
        <ele>1636</ele>
        <time>2019-06-11T16:27:15Z</time>
      </trkpt>
      <trkpt lat="46.2029" lon="6.76437">
        <ele>1635</ele>
        <time>2019-06-11T16:27:16Z</time>
      </trkpt>
      <trkpt lat="46.20331" lon="6.76426">
        <ele>1626</ele>
        <time>2019-06-11T16:27:24Z</time>
      </trkpt>
      <trkpt lat="46.20349" lon="6.76426">
        <ele>1624</ele>
        <time>2019-06-11T16:27:27Z</time>
      </trkpt>
      <trkpt lat="46.2036" lon="6.76431">
        <ele>1623</ele>
        <time>2019-06-11T16:27:29Z</time>
      </trkpt>
      <trkpt lat="46.20387" lon="6.76452">
        <ele>1619</ele>
        <time>2019-06-11T16:27:35Z</time>
      </trkpt>
      <trkpt lat="46.20403" lon="6.76458">
        <ele>1617</ele>
        <time>2019-06-11T16:27:37Z</time>
      </trkpt>
      <trkpt lat="46.20414" lon="6.76459">
        <ele>1616</ele>
        <time>2019-06-11T16:27:39Z</time>
      </trkpt>
      <trkpt lat="46.20463" lon="6.76452">
        <ele>1609</ele>
        <time>2019-06-11T16:27:48Z</time>
      </trkpt>
      <trkpt lat="46.20492" lon="6.76444">
        <ele>1605</ele>
        <time>2019-06-11T16:27:53Z</time>
      </trkpt>
      <trkpt lat="46.20506" lon="6.76435">
        <ele>1604</ele>
        <time>2019-06-11T16:27:56Z</time>
      </trkpt>
      <trkpt lat="46.20511" lon="6.76425">
        <ele>1604</ele>
        <time>2019-06-11T16:27:58Z</time>
      </trkpt>
      <trkpt lat="46.20512" lon="6.76406">
        <ele>1605</ele>
        <time>2019-06-11T16:28:00Z</time>
      </trkpt>
      <trkpt lat="46.20505" lon="6.7638">
        <ele>1606</ele>
        <time>2019-06-11T16:28:03Z</time>
      </trkpt>
      <trkpt lat="46.20503" lon="6.76358">
        <ele>1607</ele>
        <time>2019-06-11T16:28:06Z</time>
      </trkpt>
      <trkpt lat="46.2051" lon="6.76324">
        <ele>1605</ele>
        <time>2019-06-11T16:28:11Z</time>
      </trkpt>
      <trkpt lat="46.20522" lon="6.76295">
        <ele>1603</ele>
        <time>2019-06-11T16:28:15Z</time>
      </trkpt>
      <trkpt lat="46.20532" lon="6.76279">
        <ele>1600</ele>
        <time>2019-06-11T16:28:17Z</time>
      </trkpt>
      <trkpt lat="46.20544" lon="6.7626">
        <ele>1597</ele>
        <time>2019-06-11T16:28:21Z</time>
      </trkpt>
      <trkpt lat="46.2056" lon="6.76242">
        <ele>1594</ele>
        <time>2019-06-11T16:28:24Z</time>
      </trkpt>
      <trkpt lat="46.20566" lon="6.76231">
        <ele>1592</ele>
        <time>2019-06-11T16:28:26Z</time>
      </trkpt>
      <trkpt lat="46.20568" lon="6.7622">
        <ele>1592</ele>
        <time>2019-06-11T16:28:27Z</time>
      </trkpt>
      <trkpt lat="46.20573" lon="6.76175">
        <ele>1591</ele>
        <time>2019-06-11T16:28:33Z</time>
      </trkpt>
      <trkpt lat="46.20579" lon="6.76157">
        <ele>1588</ele>
        <time>2019-06-11T16:28:35Z</time>
      </trkpt>
      <trkpt lat="46.20587" lon="6.76149">
        <ele>1586</ele>
        <time>2019-06-11T16:28:37Z</time>
      </trkpt>
      <trkpt lat="46.20592" lon="6.76148">
        <ele>1586</ele>
        <time>2019-06-11T16:28:38Z</time>
      </trkpt>
      <trkpt lat="46.20599" lon="6.76151">
        <ele>1585</ele>
        <time>2019-06-11T16:28:39Z</time>
      </trkpt>
      <trkpt lat="46.20603" lon="6.76158">
        <ele>1585</ele>
        <time>2019-06-11T16:28:40Z</time>
      </trkpt>
      <trkpt lat="46.20606" lon="6.76169">
        <ele>1586</ele>
        <time>2019-06-11T16:28:42Z</time>
      </trkpt>
      <trkpt lat="46.20605" lon="6.76175">
        <ele>1586</ele>
        <time>2019-06-11T16:28:43Z</time>
      </trkpt>
      <trkpt lat="46.20593" lon="6.76212">
        <ele>1588</ele>
        <time>2019-06-11T16:28:48Z</time>
      </trkpt>
      <trkpt lat="46.20592" lon="6.76226">
        <ele>1588</ele>
        <time>2019-06-11T16:28:49Z</time>
      </trkpt>
      <trkpt lat="46.20595" lon="6.76241">
        <ele>1588</ele>
        <time>2019-06-11T16:28:51Z</time>
      </trkpt>
      <trkpt lat="46.20605" lon="6.76258">
        <ele>1587</ele>
        <time>2019-06-11T16:28:54Z</time>
      </trkpt>
      <trkpt lat="46.20629" lon="6.76277">
        <ele>1586</ele>
        <time>2019-06-11T16:28:59Z</time>
      </trkpt>
      <trkpt lat="46.20635" lon="6.76286">
        <ele>1585</ele>
        <time>2019-06-11T16:29:00Z</time>
      </trkpt>
      <trkpt lat="46.20636" lon="6.76292">
        <ele>1586</ele>
        <time>2019-06-11T16:29:01Z</time>
      </trkpt>
      <trkpt lat="46.20636" lon="6.76304">
        <ele>1586</ele>
        <time>2019-06-11T16:29:03Z</time>
      </trkpt>
      <trkpt lat="46.20627" lon="6.76328">
        <ele>1588</ele>
        <time>2019-06-11T16:29:06Z</time>
      </trkpt>
      <trkpt lat="46.20624" lon="6.7634">
        <ele>1589</ele>
        <time>2019-06-11T16:29:08Z</time>
      </trkpt>
      <trkpt lat="46.20625" lon="6.76354">
        <ele>1589</ele>
        <time>2019-06-11T16:29:09Z</time>
      </trkpt>
      <trkpt lat="46.20632" lon="6.76371">
        <ele>1588</ele>
        <time>2019-06-11T16:29:12Z</time>
      </trkpt>
      <trkpt lat="46.20647" lon="6.76386">
        <ele>1587</ele>
        <time>2019-06-11T16:29:15Z</time>
      </trkpt>
      <trkpt lat="46.20656" lon="6.7639">
        <ele>1586</ele>
        <time>2019-06-11T16:29:17Z</time>
      </trkpt>
      <trkpt lat="46.207" lon="6.76397">
        <ele>1582</ele>
        <time>2019-06-11T16:29:25Z</time>
      </trkpt>
      <trkpt lat="46.20754" lon="6.76409">
        <ele>1575</ele>
        <time>2019-06-11T16:29:34Z</time>
      </trkpt>
      <trkpt lat="46.20761" lon="6.76413">
        <ele>1571</ele>
        <time>2019-06-11T16:29:36Z</time>
      </trkpt>
      <trkpt lat="46.20764" lon="6.7642">
        <ele>1569</ele>
        <time>2019-06-11T16:29:37Z</time>
      </trkpt>
      <trkpt lat="46.20766" lon="6.76431">
        <ele>1567</ele>
        <time>2019-06-11T16:29:38Z</time>
      </trkpt>
      <trkpt lat="46.20764" lon="6.76475">
        <ele>1564</ele>
        <time>2019-06-11T16:29:44Z</time>
      </trkpt>
      <trkpt lat="46.20739" lon="6.76562">
        <ele>1569</ele>
        <time>2019-06-11T16:29:55Z</time>
      </trkpt>
      <trkpt lat="46.20721" lon="6.76598">
        <ele>1571</ele>
        <time>2019-06-11T16:30:01Z</time>
      </trkpt>
      <trkpt lat="46.20695" lon="6.76645">
        <ele>1573</ele>
        <time>2019-06-11T16:30:08Z</time>
      </trkpt>
      <trkpt lat="46.20688" lon="6.76672">
        <ele>1572</ele>
        <time>2019-06-11T16:30:12Z</time>
      </trkpt>
      <trkpt lat="46.20676" lon="6.76695">
        <ele>1574</ele>
        <time>2019-06-11T16:30:15Z</time>
      </trkpt>
      <trkpt lat="46.20672" lon="6.76719">
        <ele>1573</ele>
        <time>2019-06-11T16:30:18Z</time>
      </trkpt>
      <trkpt lat="46.20672" lon="6.76752">
        <ele>1571</ele>
        <time>2019-06-11T16:30:22Z</time>
      </trkpt>
      <trkpt lat="46.20677" lon="6.76775">
        <ele>1571</ele>
        <time>2019-06-11T16:30:25Z</time>
      </trkpt>
      <trkpt lat="46.20684" lon="6.76789">
        <ele>1570</ele>
        <time>2019-06-11T16:30:27Z</time>
      </trkpt>
      <trkpt lat="46.20711" lon="6.76818">
        <ele>1562</ele>
        <time>2019-06-11T16:30:33Z</time>
      </trkpt>
      <trkpt lat="46.20723" lon="6.7686">
        <ele>1561</ele>
        <time>2019-06-11T16:30:39Z</time>
      </trkpt>
      <trkpt lat="46.20732" lon="6.76903">
        <ele>1560</ele>
        <time>2019-06-11T16:30:44Z</time>
      </trkpt>
      <trkpt lat="46.20731" lon="6.76962">
        <ele>1559</ele>
        <time>2019-06-11T16:30:52Z</time>
      </trkpt>
      <trkpt lat="46.20734" lon="6.7701">
        <ele>1555</ele>
        <time>2019-06-11T16:30:58Z</time>
      </trkpt>
      <trkpt lat="46.20733" lon="6.77038">
        <ele>1553</ele>
        <time>2019-06-11T16:31:01Z</time>
      </trkpt>
      <trkpt lat="46.20699" lon="6.77112">
        <ele>1561</ele>
        <time>2019-06-11T16:31:12Z</time>
      </trkpt>
      <trkpt lat="46.20697" lon="6.77125">
        <ele>1562</ele>
        <time>2019-06-11T16:31:14Z</time>
      </trkpt>
      <trkpt lat="46.20698" lon="6.77138">
        <ele>1561</ele>
        <time>2019-06-11T16:31:15Z</time>
      </trkpt>
      <trkpt lat="46.20712" lon="6.77164">
        <ele>1557</ele>
        <time>2019-06-11T16:31:19Z</time>
      </trkpt>
      <trkpt lat="46.20739" lon="6.77198">
        <ele>1551</ele>
        <time>2019-06-11T16:31:26Z</time>
      </trkpt>
      <trkpt lat="46.20755" lon="6.77209">
        <ele>1549</ele>
        <time>2019-06-11T16:31:29Z</time>
      </trkpt>
      <trkpt lat="46.20789" lon="6.77208">
        <ele>1545</ele>
        <time>2019-06-11T16:31:35Z</time>
      </trkpt>
      <trkpt lat="46.20794" lon="6.77209">
        <ele>1545</ele>
        <time>2019-06-11T16:31:36Z</time>
      </trkpt>
      <trkpt lat="46.20802" lon="6.77217">
        <ele>1544</ele>
        <time>2019-06-11T16:31:37Z</time>
      </trkpt>
      <trkpt lat="46.20804" lon="6.77224">
        <ele>1544</ele>
        <time>2019-06-11T16:31:38Z</time>
      </trkpt>
      <trkpt lat="46.20806" lon="6.77238">
        <ele>1544</ele>
        <time>2019-06-11T16:31:40Z</time>
      </trkpt>
      <trkpt lat="46.20799" lon="6.773">
        <ele>1544</ele>
        <time>2019-06-11T16:31:48Z</time>
      </trkpt>
      <trkpt lat="46.20801" lon="6.77317">
        <ele>1543</ele>
        <time>2019-06-11T16:31:50Z</time>
      </trkpt>
      <trkpt lat="46.20807" lon="6.77326">
        <ele>1542</ele>
        <time>2019-06-11T16:31:52Z</time>
      </trkpt>
      <trkpt lat="46.20811" lon="6.77328">
        <ele>1541</ele>
        <time>2019-06-11T16:31:52Z</time>
      </trkpt>
      <trkpt lat="46.20817" lon="6.77328">
        <ele>1540</ele>
        <time>2019-06-11T16:31:53Z</time>
      </trkpt>
      <trkpt lat="46.2084" lon="6.77314">
        <ele>1534</ele>
        <time>2019-06-11T16:31:58Z</time>
      </trkpt>
      <trkpt lat="46.20844" lon="6.77314">
        <ele>1532</ele>
        <time>2019-06-11T16:31:59Z</time>
      </trkpt>
      <trkpt lat="46.20851" lon="6.7732">
        <ele>1528</ele>
        <time>2019-06-11T16:32:00Z</time>
      </trkpt>
      <trkpt lat="46.20854" lon="6.77336">
        <ele>1526</ele>
        <time>2019-06-11T16:32:02Z</time>
      </trkpt>
      <trkpt lat="46.20853" lon="6.77381">
        <ele>1524</ele>
        <time>2019-06-11T16:32:08Z</time>
      </trkpt>
      <trkpt lat="46.20842" lon="6.77431">
        <ele>1525</ele>
        <time>2019-06-11T16:32:14Z</time>
      </trkpt>
      <trkpt lat="46.20839" lon="6.77437">
        <ele>1524</ele>
        <time>2019-06-11T16:32:15Z</time>
      </trkpt>
      <trkpt lat="46.20809" lon="6.77472">
        <ele>1524</ele>
        <time>2019-06-11T16:32:22Z</time>
      </trkpt>
      <trkpt lat="46.20779" lon="6.77497">
        <ele>1525</ele>
        <time>2019-06-11T16:32:28Z</time>
      </trkpt>
      <trkpt lat="46.20755" lon="6.77521">
        <ele>1524</ele>
        <time>2019-06-11T16:32:33Z</time>
      </trkpt>
      <trkpt lat="46.20714" lon="6.77553">
        <ele>1520</ele>
        <time>2019-06-11T16:32:41Z</time>
      </trkpt>
      <trkpt lat="46.20679" lon="6.7757">
        <ele>1520</ele>
        <time>2019-06-11T16:32:48Z</time>
      </trkpt>
      <trkpt lat="46.20659" lon="6.77593">
        <ele>1518</ele>
        <time>2019-06-11T16:32:53Z</time>
      </trkpt>
      <trkpt lat="46.2063" lon="6.77621">
        <ele>1519</ele>
        <time>2019-06-11T16:32:59Z</time>
      </trkpt>
      <trkpt lat="46.20627" lon="6.7763">
        <ele>1517</ele>
        <time>2019-06-11T16:33:00Z</time>
      </trkpt>
      <trkpt lat="46.20629" lon="6.77639">
        <ele>1515</ele>
        <time>2019-06-11T16:33:01Z</time>
      </trkpt>
      <trkpt lat="46.20634" lon="6.77641">
        <ele>1514</ele>
        <time>2019-06-11T16:33:02Z</time>
      </trkpt>
      <trkpt lat="46.20641" lon="6.77639">
        <ele>1513</ele>
        <time>2019-06-11T16:33:03Z</time>
      </trkpt>
      <trkpt lat="46.20656" lon="6.7762">
        <ele>1514</ele>
        <time>2019-06-11T16:33:07Z</time>
      </trkpt>
      <trkpt lat="46.20684" lon="6.77595">
        <ele>1514</ele>
        <time>2019-06-11T16:33:13Z</time>
      </trkpt>
      <trkpt lat="46.20696" lon="6.77592">
        <ele>1513</ele>
        <time>2019-06-11T16:33:15Z</time>
      </trkpt>
      <trkpt lat="46.20733" lon="6.77588">
        <ele>1508</ele>
        <time>2019-06-11T16:33:22Z</time>
      </trkpt>
      <trkpt lat="46.20764" lon="6.77569">
        <ele>1509</ele>
        <time>2019-06-11T16:33:28Z</time>
      </trkpt>
      <trkpt lat="46.2078" lon="6.77562">
        <ele>1509</ele>
        <time>2019-06-11T16:33:31Z</time>
      </trkpt>
      <trkpt lat="46.20859" lon="6.77552">
        <ele>1505</ele>
        <time>2019-06-11T16:33:45Z</time>
      </trkpt>
      <trkpt lat="46.20888" lon="6.77545">
        <ele>1505</ele>
        <time>2019-06-11T16:33:50Z</time>
      </trkpt>
      <trkpt lat="46.20901" lon="6.77534">
        <ele>1504</ele>
        <time>2019-06-11T16:33:53Z</time>
      </trkpt>
      <trkpt lat="46.20904" lon="6.7753">
        <ele>1503</ele>
        <time>2019-06-11T16:33:53Z</time>
      </trkpt>
      <trkpt lat="46.20908" lon="6.77519">
        <ele>1501</ele>
        <time>2019-06-11T16:33:55Z</time>
      </trkpt>
      <trkpt lat="46.20908" lon="6.77498">
        <ele>1497</ele>
        <time>2019-06-11T16:33:57Z</time>
      </trkpt>
      <trkpt lat="46.20911" lon="6.77488">
        <ele>1496</ele>
        <time>2019-06-11T16:33:59Z</time>
      </trkpt>
      <trkpt lat="46.20932" lon="6.77471">
        <ele>1494</ele>
        <time>2019-06-11T16:34:03Z</time>
      </trkpt>
      <trkpt lat="46.2095" lon="6.77436">
        <ele>1488</ele>
        <time>2019-06-11T16:34:08Z</time>
      </trkpt>
      <trkpt lat="46.2096" lon="6.77435">
        <ele>1487</ele>
        <time>2019-06-11T16:34:10Z</time>
      </trkpt>
      <trkpt lat="46.20987" lon="6.77445">
        <ele>1487</ele>
        <time>2019-06-11T16:34:15Z</time>
      </trkpt>
      <trkpt lat="46.21001" lon="6.77445">
        <ele>1486</ele>
        <time>2019-06-11T16:34:18Z</time>
      </trkpt>
      <trkpt lat="46.21021" lon="6.77442">
        <ele>1487</ele>
        <time>2019-06-11T16:34:21Z</time>
      </trkpt>
      <trkpt lat="46.21061" lon="6.77422">
        <ele>1481</ele>
        <time>2019-06-11T16:34:29Z</time>
      </trkpt>
      <trkpt lat="46.21073" lon="6.77415">
        <ele>1479</ele>
        <time>2019-06-11T16:34:31Z</time>
      </trkpt>
      <trkpt lat="46.21094" lon="6.77393">
        <ele>1479</ele>
        <time>2019-06-11T16:34:36Z</time>
      </trkpt>
      <trkpt lat="46.21098" lon="6.77379">
        <ele>1477</ele>
        <time>2019-06-11T16:34:38Z</time>
      </trkpt>
      <trkpt lat="46.21097" lon="6.77373">
        <ele>1476</ele>
        <time>2019-06-11T16:34:38Z</time>
      </trkpt>
      <trkpt lat="46.21093" lon="6.77361">
        <ele>1473</ele>
        <time>2019-06-11T16:34:40Z</time>
      </trkpt>
      <trkpt lat="46.21084" lon="6.77353">
        <ele>1471</ele>
        <time>2019-06-11T16:34:42Z</time>
      </trkpt>
      <trkpt lat="46.21041" lon="6.77356">
        <ele>1470</ele>
        <time>2019-06-11T16:34:49Z</time>
      </trkpt>
      <trkpt lat="46.21025" lon="6.77352">
        <ele>1469</ele>
        <time>2019-06-11T16:34:52Z</time>
      </trkpt>
      <trkpt lat="46.2101" lon="6.77337">
        <ele>1466</ele>
        <time>2019-06-11T16:34:56Z</time>
      </trkpt>
      <trkpt lat="46.21008" lon="6.77324">
        <ele>1464</ele>
        <time>2019-06-11T16:34:57Z</time>
      </trkpt>
      <trkpt lat="46.21012" lon="6.77315">
        <ele>1463</ele>
        <time>2019-06-11T16:34:59Z</time>
      </trkpt>
      <trkpt lat="46.21028" lon="6.77302">
        <ele>1461</ele>
        <time>2019-06-11T16:35:02Z</time>
      </trkpt>
      <trkpt lat="46.21047" lon="6.77294">
        <ele>1460</ele>
        <time>2019-06-11T16:35:05Z</time>
      </trkpt>
      <trkpt lat="46.21058" lon="6.77294">
        <ele>1460</ele>
        <time>2019-06-11T16:35:07Z</time>
      </trkpt>
      <trkpt lat="46.21085" lon="6.77303">
        <ele>1462</ele>
        <time>2019-06-11T16:35:12Z</time>
      </trkpt>
      <trkpt lat="46.21093" lon="6.773">
        <ele>1462</ele>
        <time>2019-06-11T16:35:14Z</time>
      </trkpt>
      <trkpt lat="46.21172" lon="6.77202">
        <ele>1437</ele>
        <time>2019-06-11T16:35:32Z</time>
      </trkpt>
      <trkpt lat="46.21193" lon="6.77182">
        <ele>1432</ele>
        <time>2019-06-11T16:35:37Z</time>
      </trkpt>
      <trkpt lat="46.21217" lon="6.77168">
        <ele>1430</ele>
        <time>2019-06-11T16:35:41Z</time>
      </trkpt>
      <trkpt lat="46.2123" lon="6.77164">
        <ele>1430</ele>
        <time>2019-06-11T16:35:44Z</time>
      </trkpt>
      <trkpt lat="46.21257" lon="6.77161">
        <ele>1432</ele>
        <time>2019-06-11T16:35:48Z</time>
      </trkpt>
      <trkpt lat="46.21287" lon="6.77163">
        <ele>1435</ele>
        <time>2019-06-11T16:35:54Z</time>
      </trkpt>
      <trkpt lat="46.21333" lon="6.77154">
        <ele>1434</ele>
        <time>2019-06-11T16:36:02Z</time>
      </trkpt>
      <trkpt lat="46.21355" lon="6.77147">
        <ele>1435</ele>
        <time>2019-06-11T16:36:06Z</time>
      </trkpt>
      <trkpt lat="46.21368" lon="6.77137">
        <ele>1432</ele>
        <time>2019-06-11T16:36:09Z</time>
      </trkpt>
      <trkpt lat="46.21381" lon="6.77105">
        <ele>1418</ele>
        <time>2019-06-11T16:36:13Z</time>
      </trkpt>
      <trkpt lat="46.21386" lon="6.77098">
        <ele>1415</ele>
        <time>2019-06-11T16:36:15Z</time>
      </trkpt>
      <trkpt lat="46.21394" lon="6.77095">
        <ele>1415</ele>
        <time>2019-06-11T16:36:16Z</time>
      </trkpt>
      <trkpt lat="46.2141" lon="6.77093">
        <ele>1417</ele>
        <time>2019-06-11T16:36:19Z</time>
      </trkpt>
      <trkpt lat="46.21449" lon="6.77065">
        <ele>1424</ele>
        <time>2019-06-11T16:36:27Z</time>
      </trkpt>
      <trkpt lat="46.21451" lon="6.77058">
        <ele>1422</ele>
        <time>2019-06-11T16:36:28Z</time>
      </trkpt>
      <trkpt lat="46.21449" lon="6.7705">
        <ele>1419</ele>
        <time>2019-06-11T16:36:29Z</time>
      </trkpt>
      <trkpt lat="46.21447" lon="6.77046">
        <ele>1417</ele>
        <time>2019-06-11T16:36:29Z</time>
      </trkpt>
      <trkpt lat="46.21442" lon="6.77045">
        <ele>1414</ele>
        <time>2019-06-11T16:36:30Z</time>
      </trkpt>
      <trkpt lat="46.21412" lon="6.77065">
        <ele>1407</ele>
        <time>2019-06-11T16:36:36Z</time>
      </trkpt>
      <trkpt lat="46.21369" lon="6.77068">
        <ele>1400</ele>
        <time>2019-06-11T16:36:44Z</time>
      </trkpt>
      <trkpt lat="46.21364" lon="6.77071">
        <ele>1400</ele>
        <time>2019-06-11T16:36:45Z</time>
      </trkpt>
      <trkpt lat="46.2136" lon="6.77075">
        <ele>1400</ele>
        <time>2019-06-11T16:36:45Z</time>
      </trkpt>
      <trkpt lat="46.21347" lon="6.77099">
        <ele>1409</ele>
        <time>2019-06-11T16:36:49Z</time>
      </trkpt>
      <trkpt lat="46.21341" lon="6.77106">
        <ele>1411</ele>
        <time>2019-06-11T16:36:51Z</time>
      </trkpt>
      <trkpt lat="46.21334" lon="6.77105">
        <ele>1409</ele>
        <time>2019-06-11T16:36:52Z</time>
      </trkpt>
      <trkpt lat="46.21332" lon="6.77096">
        <ele>1404</ele>
        <time>2019-06-11T16:36:53Z</time>
      </trkpt>
      <trkpt lat="46.21334" lon="6.77086">
        <ele>1399</ele>
        <time>2019-06-11T16:36:54Z</time>
      </trkpt>
      <trkpt lat="46.21349" lon="6.77061">
        <ele>1394</ele>
        <time>2019-06-11T16:36:58Z</time>
      </trkpt>
      <trkpt lat="46.21355" lon="6.77054">
        <ele>1393</ele>
        <time>2019-06-11T16:37:00Z</time>
      </trkpt>
      <trkpt lat="46.21365" lon="6.77045">
        <ele>1392</ele>
        <time>2019-06-11T16:37:02Z</time>
      </trkpt>
      <trkpt lat="46.21394" lon="6.77028">
        <ele>1393</ele>
        <time>2019-06-11T16:37:07Z</time>
      </trkpt>
      <trkpt lat="46.21401" lon="6.7702">
        <ele>1392</ele>
        <time>2019-06-11T16:37:09Z</time>
      </trkpt>
      <trkpt lat="46.21406" lon="6.7701">
        <ele>1391</ele>
        <time>2019-06-11T16:37:10Z</time>
      </trkpt>
      <trkpt lat="46.21413" lon="6.76971">
        <ele>1383</ele>
        <time>2019-06-11T16:37:15Z</time>
      </trkpt>
      <trkpt lat="46.2142" lon="6.76949">
        <ele>1381</ele>
        <time>2019-06-11T16:37:18Z</time>
      </trkpt>
      <trkpt lat="46.21437" lon="6.76918">
        <ele>1383</ele>
        <time>2019-06-11T16:37:23Z</time>
      </trkpt>
      <trkpt lat="46.21449" lon="6.76905">
        <ele>1386</ele>
        <time>2019-06-11T16:37:26Z</time>
      </trkpt>
      <trkpt lat="46.21461" lon="6.76896">
        <ele>1390</ele>
        <time>2019-06-11T16:37:28Z</time>
      </trkpt>
      <trkpt lat="46.21464" lon="6.76892">
        <ele>1390</ele>
        <time>2019-06-11T16:37:29Z</time>
      </trkpt>
      <trkpt lat="46.21465" lon="6.76887">
        <ele>1390</ele>
        <time>2019-06-11T16:37:30Z</time>
      </trkpt>
      <trkpt lat="46.21463" lon="6.76882">
        <ele>1387</ele>
        <time>2019-06-11T16:37:30Z</time>
      </trkpt>
      <trkpt lat="46.21461" lon="6.76879">
        <ele>1385</ele>
        <time>2019-06-11T16:37:31Z</time>
      </trkpt>
      <trkpt lat="46.21455" lon="6.76878">
        <ele>1382</ele>
        <time>2019-06-11T16:37:32Z</time>
      </trkpt>
      <trkpt lat="46.21447" lon="6.76882">
        <ele>1378</ele>
        <time>2019-06-11T16:37:34Z</time>
      </trkpt>
      <trkpt lat="46.21391" lon="6.76923">
        <ele>1369</ele>
        <time>2019-06-11T16:37:45Z</time>
      </trkpt>
      <trkpt lat="46.21374" lon="6.76942">
        <ele>1370</ele>
        <time>2019-06-11T16:37:49Z</time>
      </trkpt>
      <trkpt lat="46.21365" lon="6.76941">
        <ele>1368</ele>
        <time>2019-06-11T16:37:50Z</time>
      </trkpt>
      <trkpt lat="46.21362" lon="6.76933">
        <ele>1366</ele>
        <time>2019-06-11T16:37:51Z</time>
      </trkpt>
      <trkpt lat="46.21364" lon="6.76923">
        <ele>1365</ele>
        <time>2019-06-11T16:37:53Z</time>
      </trkpt>
      <trkpt lat="46.21381" lon="6.76897">
        <ele>1361</ele>
        <time>2019-06-11T16:37:57Z</time>
      </trkpt>
      <trkpt lat="46.21409" lon="6.7683">
        <ele>1347</ele>
        <time>2019-06-11T16:38:07Z</time>
      </trkpt>
      <trkpt lat="46.21436" lon="6.76773">
        <ele>1350</ele>
        <time>2019-06-11T16:38:15Z</time>
      </trkpt>
      <trkpt lat="46.21452" lon="6.76756">
        <ele>1352</ele>
        <time>2019-06-11T16:38:19Z</time>
      </trkpt>
      <trkpt lat="46.21487" lon="6.76733">
        <ele>1359</ele>
        <time>2019-06-11T16:38:25Z</time>
      </trkpt>
      <trkpt lat="46.21489" lon="6.76729">
        <ele>1359</ele>
        <time>2019-06-11T16:38:26Z</time>
      </trkpt>
      <trkpt lat="46.21491" lon="6.76719">
        <ele>1359</ele>
        <time>2019-06-11T16:38:27Z</time>
      </trkpt>
      <trkpt lat="46.21489" lon="6.76713">
        <ele>1357</ele>
        <time>2019-06-11T16:38:28Z</time>
      </trkpt>
      <trkpt lat="46.21472" lon="6.76704">
        <ele>1352</ele>
        <time>2019-06-11T16:38:31Z</time>
      </trkpt>
      <trkpt lat="46.21454" lon="6.76685">
        <ele>1346</ele>
        <time>2019-06-11T16:38:35Z</time>
      </trkpt>
      <trkpt lat="46.21449" lon="6.76674">
        <ele>1344</ele>
        <time>2019-06-11T16:38:37Z</time>
      </trkpt>
      <trkpt lat="46.21449" lon="6.76658">
        <ele>1341</ele>
        <time>2019-06-11T16:38:39Z</time>
      </trkpt>
      <trkpt lat="46.2145" lon="6.76651">
        <ele>1339</ele>
        <time>2019-06-11T16:38:40Z</time>
      </trkpt>
      <trkpt lat="46.21471" lon="6.76621">
        <ele>1334</ele>
        <time>2019-06-11T16:38:45Z</time>
      </trkpt>
      <trkpt lat="46.21473" lon="6.76616">
        <ele>1333</ele>
        <time>2019-06-11T16:38:46Z</time>
      </trkpt>
      <trkpt lat="46.21476" lon="6.766">
        <ele>1329</ele>
        <time>2019-06-11T16:38:48Z</time>
      </trkpt>
      <trkpt lat="46.21475" lon="6.76593">
        <ele>1326</ele>
        <time>2019-06-11T16:38:49Z</time>
      </trkpt>
      <trkpt lat="46.21472" lon="6.76585">
        <ele>1323</ele>
        <time>2019-06-11T16:38:50Z</time>
      </trkpt>
      <trkpt lat="46.21463" lon="6.76574">
        <ele>1317</ele>
        <time>2019-06-11T16:38:52Z</time>
      </trkpt>
      <trkpt lat="46.21461" lon="6.76563">
        <ele>1313</ele>
        <time>2019-06-11T16:38:53Z</time>
      </trkpt>
      <trkpt lat="46.21463" lon="6.76557">
        <ele>1312</ele>
        <time>2019-06-11T16:38:54Z</time>
      </trkpt>
      <trkpt lat="46.21467" lon="6.76554">
        <ele>1312</ele>
        <time>2019-06-11T16:38:55Z</time>
      </trkpt>
      <trkpt lat="46.21473" lon="6.76555">
        <ele>1314</ele>
        <time>2019-06-11T16:38:56Z</time>
      </trkpt>
      <trkpt lat="46.21493" lon="6.76594">
        <ele>1331</ele>
        <time>2019-06-11T16:39:02Z</time>
      </trkpt>
      <trkpt lat="46.21498" lon="6.76596">
        <ele>1333</ele>
        <time>2019-06-11T16:39:03Z</time>
      </trkpt>
      <trkpt lat="46.21503" lon="6.76594">
        <ele>1335</ele>
        <time>2019-06-11T16:39:04Z</time>
      </trkpt>
      <trkpt lat="46.21507" lon="6.76585">
        <ele>1335</ele>
        <time>2019-06-11T16:39:05Z</time>
      </trkpt>
      <trkpt lat="46.21506" lon="6.76573">
        <ele>1332</ele>
        <time>2019-06-11T16:39:07Z</time>
      </trkpt>
      <trkpt lat="46.21497" lon="6.76557">
        <ele>1323</ele>
        <time>2019-06-11T16:39:09Z</time>
      </trkpt>
      <trkpt lat="46.21487" lon="6.76545">
        <ele>1317</ele>
        <time>2019-06-11T16:39:12Z</time>
      </trkpt>
      <trkpt lat="46.21486" lon="6.76534">
        <ele>1314</ele>
        <time>2019-06-11T16:39:13Z</time>
      </trkpt>
      <trkpt lat="46.2149" lon="6.76526">
        <ele>1313</ele>
        <time>2019-06-11T16:39:14Z</time>
      </trkpt>
      <trkpt lat="46.21494" lon="6.76525">
        <ele>1315</ele>
        <time>2019-06-11T16:39:15Z</time>
      </trkpt>
      <trkpt lat="46.21515" lon="6.76526">
        <ele>1327</ele>
        <time>2019-06-11T16:39:19Z</time>
      </trkpt>
      <trkpt lat="46.21522" lon="6.76522">
        <ele>1330</ele>
        <time>2019-06-11T16:39:20Z</time>
      </trkpt>
      <trkpt lat="46.21528" lon="6.76513">
        <ele>1332</ele>
        <time>2019-06-11T16:39:21Z</time>
      </trkpt>
      <trkpt lat="46.21563" lon="6.76409">
        <ele>1316</ele>
        <time>2019-06-11T16:39:36Z</time>
      </trkpt>
      <trkpt lat="46.21576" lon="6.76376">
        <ele>1313</ele>
        <time>2019-06-11T16:39:40Z</time>
      </trkpt>
      <trkpt lat="46.21578" lon="6.76365">
        <ele>1310</ele>
        <time>2019-06-11T16:39:42Z</time>
      </trkpt>
      <trkpt lat="46.21575" lon="6.76357">
        <ele>1306</ele>
        <time>2019-06-11T16:39:43Z</time>
      </trkpt>
      <trkpt lat="46.2157" lon="6.76356">
        <ele>1302</ele>
        <time>2019-06-11T16:39:44Z</time>
      </trkpt>
      <trkpt lat="46.21565" lon="6.7636">
        <ele>1301</ele>
        <time>2019-06-11T16:39:45Z</time>
      </trkpt>
      <trkpt lat="46.21552" lon="6.76394">
        <ele>1305</ele>
        <time>2019-06-11T16:39:50Z</time>
      </trkpt>
      <trkpt lat="46.21545" lon="6.76408">
        <ele>1305</ele>
        <time>2019-06-11T16:39:52Z</time>
      </trkpt>
      <trkpt lat="46.21516" lon="6.76447">
        <ele>1301</ele>
        <time>2019-06-11T16:39:59Z</time>
      </trkpt>
      <trkpt lat="46.21479" lon="6.7647">
        <ele>1291</ele>
        <time>2019-06-11T16:40:06Z</time>
      </trkpt>
      <trkpt lat="46.2147" lon="6.76476">
        <ele>1289</ele>
        <time>2019-06-11T16:40:08Z</time>
      </trkpt>
      <trkpt lat="46.214" lon="6.7654">
        <ele>1283</ele>
        <time>2019-06-11T16:40:22Z</time>
      </trkpt>
      <trkpt lat="46.21365" lon="6.76581">
        <ele>1284</ele>
        <time>2019-06-11T16:40:30Z</time>
      </trkpt>
      <trkpt lat="46.21361" lon="6.76582">
        <ele>1283</ele>
        <time>2019-06-11T16:40:31Z</time>
      </trkpt>
      <trkpt lat="46.21357" lon="6.7658">
        <ele>1280</ele>
        <time>2019-06-11T16:40:32Z</time>
      </trkpt>
      <trkpt lat="46.21354" lon="6.76572">
        <ele>1277</ele>
        <time>2019-06-11T16:40:33Z</time>
      </trkpt>
      <trkpt lat="46.21355" lon="6.76566">
        <ele>1276</ele>
        <time>2019-06-11T16:40:34Z</time>
      </trkpt>
      <trkpt lat="46.21357" lon="6.76563">
        <ele>1276</ele>
        <time>2019-06-11T16:40:34Z</time>
      </trkpt>
      <trkpt lat="46.21382" lon="6.76536">
        <ele>1276</ele>
        <time>2019-06-11T16:40:40Z</time>
      </trkpt>
      <trkpt lat="46.21412" lon="6.76493">
        <ele>1268</ele>
        <time>2019-06-11T16:40:47Z</time>
      </trkpt>
      <trkpt lat="46.21458" lon="6.76419">
        <ele>1265</ele>
        <time>2019-06-11T16:41:00Z</time>
      </trkpt>
      <trkpt lat="46.21477" lon="6.7637">
        <ele>1260</ele>
        <time>2019-06-11T16:41:07Z</time>
      </trkpt>
      <trkpt lat="46.21493" lon="6.76345">
        <ele>1258</ele>
        <time>2019-06-11T16:41:11Z</time>
      </trkpt>
      <trkpt lat="46.21504" lon="6.76324">
        <ele>1257</ele>
        <time>2019-06-11T16:41:14Z</time>
      </trkpt>
      <trkpt lat="46.21516" lon="6.76286">
        <ele>1256</ele>
        <time>2019-06-11T16:41:19Z</time>
      </trkpt>
      <trkpt lat="46.21525" lon="6.76227">
        <ele>1248</ele>
        <time>2019-06-11T16:41:27Z</time>
      </trkpt>
      <trkpt lat="46.21531" lon="6.76201">
        <ele>1244</ele>
        <time>2019-06-11T16:41:30Z</time>
      </trkpt>
      <trkpt lat="46.21557" lon="6.76129">
        <ele>1243</ele>
        <time>2019-06-11T16:41:40Z</time>
      </trkpt>
      <trkpt lat="46.21559" lon="6.76116">
        <ele>1242</ele>
        <time>2019-06-11T16:41:42Z</time>
      </trkpt>
      <trkpt lat="46.21553" lon="6.76079">
        <ele>1235</ele>
        <time>2019-06-11T16:41:46Z</time>
      </trkpt>
      <trkpt lat="46.21557" lon="6.76069">
        <ele>1235</ele>
        <time>2019-06-11T16:41:48Z</time>
      </trkpt>
      <trkpt lat="46.21569" lon="6.76042">
        <ele>1237</ele>
        <time>2019-06-11T16:41:52Z</time>
      </trkpt>
      <trkpt lat="46.21574" lon="6.76026">
        <ele>1238</ele>
        <time>2019-06-11T16:41:54Z</time>
      </trkpt>
      <trkpt lat="46.21582" lon="6.75947">
        <ele>1231</ele>
        <time>2019-06-11T16:42:04Z</time>
      </trkpt>
      <trkpt lat="46.2158" lon="6.75927">
        <ele>1227</ele>
        <time>2019-06-11T16:42:06Z</time>
      </trkpt>
      <trkpt lat="46.21573" lon="6.759">
        <ele>1223</ele>
        <time>2019-06-11T16:42:10Z</time>
      </trkpt>
      <trkpt lat="46.21529" lon="6.75755">
        <ele>1208</ele>
        <time>2019-06-11T16:42:29Z</time>
      </trkpt>
      <trkpt lat="46.21517" lon="6.75724">
        <ele>1206</ele>
        <time>2019-06-11T16:42:33Z</time>
      </trkpt>
      <trkpt lat="46.21497" lon="6.75647">
        <ele>1205</ele>
        <time>2019-06-11T16:42:44Z</time>
      </trkpt>
      <trkpt lat="46.21492" lon="6.75618">
        <ele>1208</ele>
        <time>2019-06-11T16:42:47Z</time>
      </trkpt>
      <trkpt lat="46.21489" lon="6.75587">
        <ele>1209</ele>
        <time>2019-06-11T16:42:51Z</time>
      </trkpt>
      <trkpt lat="46.2149" lon="6.7556">
        <ele>1207</ele>
        <time>2019-06-11T16:42:54Z</time>
      </trkpt>
      <trkpt lat="46.21495" lon="6.75525">
        <ele>1204</ele>
        <time>2019-06-11T16:42:59Z</time>
      </trkpt>
      <trkpt lat="46.21506" lon="6.7549">
        <ele>1203</ele>
        <time>2019-06-11T16:43:04Z</time>
      </trkpt>
      <trkpt lat="46.21509" lon="6.75462">
        <ele>1200</ele>
        <time>2019-06-11T16:43:07Z</time>
      </trkpt>
      <trkpt lat="46.21509" lon="6.75397">
        <ele>1191</ele>
        <time>2019-06-11T16:43:15Z</time>
      </trkpt>
      <trkpt lat="46.2151" lon="6.75375">
        <ele>1190</ele>
        <time>2019-06-11T16:43:18Z</time>
      </trkpt>
      <trkpt lat="46.21514" lon="6.75357">
        <ele>1191</ele>
        <time>2019-06-11T16:43:20Z</time>
      </trkpt>
      <trkpt lat="46.21525" lon="6.75315">
        <ele>1196</ele>
        <time>2019-06-11T16:43:26Z</time>
      </trkpt>
      <trkpt lat="46.21528" lon="6.75278">
        <ele>1198</ele>
        <time>2019-06-11T16:43:30Z</time>
      </trkpt>
      <trkpt lat="46.21522" lon="6.7522">
        <ele>1195</ele>
        <time>2019-06-11T16:43:37Z</time>
      </trkpt>
      <trkpt lat="46.21521" lon="6.75182">
        <ele>1193</ele>
        <time>2019-06-11T16:43:42Z</time>
      </trkpt>
      <trkpt lat="46.21516" lon="6.75144">
        <ele>1193</ele>
        <time>2019-06-11T16:43:47Z</time>
      </trkpt>
      <trkpt lat="46.21503" lon="6.7511">
        <ele>1191</ele>
        <time>2019-06-11T16:43:52Z</time>
      </trkpt>
      <trkpt lat="46.2146" lon="6.75022">
        <ele>1181</ele>
        <time>2019-06-11T16:44:05Z</time>
      </trkpt>
      <trkpt lat="46.21451" lon="6.75">
        <ele>1178</ele>
        <time>2019-06-11T16:44:08Z</time>
      </trkpt>
      <trkpt lat="46.2144" lon="6.74951">
        <ele>1179</ele>
        <time>2019-06-11T16:44:14Z</time>
      </trkpt>
      <trkpt lat="46.21435" lon="6.74939">
        <ele>1178</ele>
        <time>2019-06-11T16:44:16Z</time>
      </trkpt>
      <trkpt lat="46.21384" lon="6.74814">
        <ele>1175</ele>
        <time>2019-06-11T16:44:34Z</time>
      </trkpt>
      <trkpt lat="46.21376" lon="6.74798">
        <ele>1174</ele>
        <time>2019-06-11T16:44:36Z</time>
      </trkpt>
      <trkpt lat="46.21355" lon="6.74764">
        <ele>1168</ele>
        <time>2019-06-11T16:44:42Z</time>
      </trkpt>
      <trkpt lat="46.21319" lon="6.74719">
        <ele>1155</ele>
        <time>2019-06-11T16:44:51Z</time>
      </trkpt>
      <trkpt lat="46.21303" lon="6.74691">
        <ele>1152</ele>
        <time>2019-06-11T16:44:55Z</time>
      </trkpt>
      <trkpt lat="46.21294" lon="6.74667">
        <ele>1151</ele>
        <time>2019-06-11T16:44:58Z</time>
      </trkpt>
      <trkpt lat="46.21259" lon="6.7454">
        <ele>1145</ele>
        <time>2019-06-11T16:45:15Z</time>
      </trkpt>
      <trkpt lat="46.21257" lon="6.74522">
        <ele>1145</ele>
        <time>2019-06-11T16:45:17Z</time>
      </trkpt>
      <trkpt lat="46.21262" lon="6.74469">
        <ele>1149</ele>
        <time>2019-06-11T16:45:24Z</time>
      </trkpt>
      <trkpt lat="46.2126" lon="6.74447">
        <ele>1148</ele>
        <time>2019-06-11T16:45:27Z</time>
      </trkpt>
      <trkpt lat="46.2124" lon="6.74374">
        <ele>1141</ele>
        <time>2019-06-11T16:45:36Z</time>
      </trkpt>
      <trkpt lat="46.21238" lon="6.74324">
        <ele>1143</ele>
        <time>2019-06-11T16:45:43Z</time>
      </trkpt>
      <trkpt lat="46.21236" lon="6.74316">
        <ele>1142</ele>
        <time>2019-06-11T16:45:44Z</time>
      </trkpt>
      <trkpt lat="46.21227" lon="6.74292">
        <ele>1139</ele>
        <time>2019-06-11T16:45:47Z</time>
      </trkpt>
      <trkpt lat="46.21196" lon="6.74262">
        <ele>1126</ele>
        <time>2019-06-11T16:45:54Z</time>
      </trkpt>
      <trkpt lat="46.21188" lon="6.74246">
        <ele>1124</ele>
        <time>2019-06-11T16:45:56Z</time>
      </trkpt>
      <trkpt lat="46.21184" lon="6.74231">
        <ele>1123</ele>
        <time>2019-06-11T16:45:58Z</time>
      </trkpt>
      <trkpt lat="46.2118" lon="6.74194">
        <ele>1124</ele>
        <time>2019-06-11T16:46:03Z</time>
      </trkpt>
      <trkpt lat="46.21173" lon="6.74109">
        <ele>1121</ele>
        <time>2019-06-11T16:46:13Z</time>
      </trkpt>
      <trkpt lat="46.21167" lon="6.74066">
        <ele>1117</ele>
        <time>2019-06-11T16:46:19Z</time>
      </trkpt>
      <trkpt lat="46.21148" lon="6.73959">
        <ele>1114</ele>
        <time>2019-06-11T16:46:32Z</time>
      </trkpt>
      <trkpt lat="46.21136" lon="6.73838">
        <ele>1115</ele>
        <time>2019-06-11T16:46:47Z</time>
      </trkpt>
      <trkpt lat="46.21131" lon="6.73817">
        <ele>1113</ele>
        <time>2019-06-11T16:46:50Z</time>
      </trkpt>
      <trkpt lat="46.21114" lon="6.73771">
        <ele>1107</ele>
        <time>2019-06-11T16:46:56Z</time>
      </trkpt>
      <trkpt lat="46.21112" lon="6.73755">
        <ele>1107</ele>
        <time>2019-06-11T16:46:58Z</time>
      </trkpt>
      <trkpt lat="46.21111" lon="6.73729">
        <ele>1106</ele>
        <time>2019-06-11T16:47:02Z</time>
      </trkpt>
      <trkpt lat="46.21113" lon="6.73682">
        <ele>1108</ele>
        <time>2019-06-11T16:47:07Z</time>
      </trkpt>
      <trkpt lat="46.21111" lon="6.73661">
        <ele>1107</ele>
        <time>2019-06-11T16:47:10Z</time>
      </trkpt>
      <trkpt lat="46.21094" lon="6.7357">
        <ele>1100</ele>
        <time>2019-06-11T16:47:22Z</time>
      </trkpt>
      <trkpt lat="46.21089" lon="6.73532">
        <ele>1097</ele>
        <time>2019-06-11T16:47:26Z</time>
      </trkpt>
      <trkpt lat="46.21082" lon="6.73432">
        <ele>1098</ele>
        <time>2019-06-11T16:47:39Z</time>
      </trkpt>
      <trkpt lat="46.21071" lon="6.73357">
        <ele>1096</ele>
        <time>2019-06-11T16:47:48Z</time>
      </trkpt>
      <trkpt lat="46.21039" lon="6.73191">
        <ele>1089</ele>
        <time>2019-06-11T16:48:09Z</time>
      </trkpt>
      <trkpt lat="46.21035" lon="6.73149">
        <ele>1089</ele>
        <time>2019-06-11T16:48:15Z</time>
      </trkpt>
      <trkpt lat="46.21035" lon="6.73124">
        <ele>1089</ele>
        <time>2019-06-11T16:48:18Z</time>
      </trkpt>
      <trkpt lat="46.21048" lon="6.73054">
        <ele>1094</ele>
        <time>2019-06-11T16:48:27Z</time>
      </trkpt>
      <trkpt lat="46.21049" lon="6.73028">
        <ele>1096</ele>
        <time>2019-06-11T16:48:30Z</time>
      </trkpt>
      <trkpt lat="46.21046" lon="6.7297">
        <ele>1095</ele>
        <time>2019-06-11T16:48:37Z</time>
      </trkpt>
      <trkpt lat="46.21038" lon="6.7287">
        <ele>1092</ele>
        <time>2019-06-11T16:48:49Z</time>
      </trkpt>
      <trkpt lat="46.21037" lon="6.72812">
        <ele>1093</ele>
        <time>2019-06-11T16:48:57Z</time>
      </trkpt>
      <trkpt lat="46.21037" lon="6.72725">
        <ele>1092</ele>
        <time>2019-06-11T16:49:07Z</time>
      </trkpt>
      <trkpt lat="46.21028" lon="6.72629">
        <ele>1084</ele>
        <time>2019-06-11T16:49:19Z</time>
      </trkpt>
      <trkpt lat="46.21029" lon="6.72609">
        <ele>1084</ele>
        <time>2019-06-11T16:49:22Z</time>
      </trkpt>
      <trkpt lat="46.21036" lon="6.72544">
        <ele>1085</ele>
        <time>2019-06-11T16:49:30Z</time>
      </trkpt>
      <trkpt lat="46.21038" lon="6.72431">
        <ele>1083</ele>
        <time>2019-06-11T16:49:44Z</time>
      </trkpt>
      <trkpt lat="46.21043" lon="6.72393">
        <ele>1085</ele>
        <time>2019-06-11T16:49:48Z</time>
      </trkpt>
      <trkpt lat="46.21062" lon="6.72299">
        <ele>1089</ele>
        <time>2019-06-11T16:50:01Z</time>
      </trkpt>
      <trkpt lat="46.21063" lon="6.72283">
        <ele>1089</ele>
        <time>2019-06-11T16:50:03Z</time>
      </trkpt>
      <trkpt lat="46.21062" lon="6.72263">
        <ele>1087</ele>
        <time>2019-06-11T16:50:05Z</time>
      </trkpt>
      <trkpt lat="46.21048" lon="6.72221">
        <ele>1085</ele>
        <time>2019-06-11T16:50:11Z</time>
      </trkpt>
      <trkpt lat="46.21043" lon="6.72202">
        <ele>1085</ele>
        <time>2019-06-11T16:50:13Z</time>
      </trkpt>
      <trkpt lat="46.21038" lon="6.72166">
        <ele>1086</ele>
        <time>2019-06-11T16:50:18Z</time>
      </trkpt>
      <trkpt lat="46.21031" lon="6.72144">
        <ele>1088</ele>
        <time>2019-06-11T16:50:21Z</time>
      </trkpt>
      <trkpt lat="46.21027" lon="6.72134">
        <ele>1088</ele>
        <time>2019-06-11T16:50:22Z</time>
      </trkpt>
      <trkpt lat="46.21016" lon="6.72118">
        <ele>1088</ele>
        <time>2019-06-11T16:50:25Z</time>
      </trkpt>
      <trkpt lat="46.20996" lon="6.72099">
        <ele>1087</ele>
        <time>2019-06-11T16:50:29Z</time>
      </trkpt>
      <trkpt lat="46.20928" lon="6.72054">
        <ele>1082</ele>
        <time>2019-06-11T16:50:42Z</time>
      </trkpt>
      <trkpt lat="46.20921" lon="6.72047">
        <ele>1082</ele>
        <time>2019-06-11T16:50:44Z</time>
      </trkpt>
      <trkpt lat="46.2091" lon="6.72032">
        <ele>1083</ele>
        <time>2019-06-11T16:50:47Z</time>
      </trkpt>
      <trkpt lat="46.20901" lon="6.72011">
        <ele>1086</ele>
        <time>2019-06-11T16:50:50Z</time>
      </trkpt>
      <trkpt lat="46.20886" lon="6.71947">
        <ele>1093</ele>
        <time>2019-06-11T16:50:58Z</time>
      </trkpt>
      <trkpt lat="46.20872" lon="6.71835">
        <ele>1095</ele>
        <time>2019-06-11T16:51:12Z</time>
      </trkpt>
      <trkpt lat="46.20865" lon="6.7181">
        <ele>1093</ele>
        <time>2019-06-11T16:51:15Z</time>
      </trkpt>
      <trkpt lat="46.20854" lon="6.71794">
        <ele>1089</ele>
        <time>2019-06-11T16:51:18Z</time>
      </trkpt>
      <trkpt lat="46.20856" lon="6.71775">
        <ele>1089</ele>
        <time>2019-06-11T16:51:21Z</time>
      </trkpt>
      <trkpt lat="46.20844" lon="6.71677">
        <ele>1082</ele>
        <time>2019-06-11T16:51:33Z</time>
      </trkpt>
      <trkpt lat="46.20835" lon="6.71656">
        <ele>1078</ele>
        <time>2019-06-11T16:51:36Z</time>
      </trkpt>
      <trkpt lat="46.20805" lon="6.71606">
        <ele>1070</ele>
        <time>2019-06-11T16:51:44Z</time>
      </trkpt>
      <trkpt lat="46.2079" lon="6.71571">
        <ele>1066</ele>
        <time>2019-06-11T16:51:49Z</time>
      </trkpt>
      <trkpt lat="46.20775" lon="6.71528">
        <ele>1061</ele>
        <time>2019-06-11T16:51:55Z</time>
      </trkpt>
      <trkpt lat="46.20773" lon="6.71501">
        <ele>1060</ele>
        <time>2019-06-11T16:51:58Z</time>
      </trkpt>
      <trkpt lat="46.20774" lon="6.71484">
        <ele>1058</ele>
        <time>2019-06-11T16:52:00Z</time>
      </trkpt>
      <trkpt lat="46.20777" lon="6.7147">
        <ele>1058</ele>
        <time>2019-06-11T16:52:02Z</time>
      </trkpt>
      <trkpt lat="46.20787" lon="6.71446">
        <ele>1058</ele>
        <time>2019-06-11T16:52:06Z</time>
      </trkpt>
      <trkpt lat="46.20791" lon="6.7143">
        <ele>1058</ele>
        <time>2019-06-11T16:52:08Z</time>
      </trkpt>
      <trkpt lat="46.20795" lon="6.71377">
        <ele>1052</ele>
        <time>2019-06-11T16:52:14Z</time>
      </trkpt>
      <trkpt lat="46.208" lon="6.71349">
        <ele>1049</ele>
        <time>2019-06-11T16:52:18Z</time>
      </trkpt>
      <trkpt lat="46.20804" lon="6.71339">
        <ele>1048</ele>
        <time>2019-06-11T16:52:19Z</time>
      </trkpt>
      <trkpt lat="46.20808" lon="6.71332">
        <ele>1049</ele>
        <time>2019-06-11T16:52:20Z</time>
      </trkpt>
      <trkpt lat="46.20821" lon="6.71318">
        <ele>1050</ele>
        <time>2019-06-11T16:52:23Z</time>
      </trkpt>
      <trkpt lat="46.20836" lon="6.7131">
        <ele>1053</ele>
        <time>2019-06-11T16:52:26Z</time>
      </trkpt>
      <trkpt lat="46.2084" lon="6.71301">
        <ele>1054</ele>
        <time>2019-06-11T16:52:27Z</time>
      </trkpt>
      <trkpt lat="46.20847" lon="6.71262">
        <ele>1051</ele>
        <time>2019-06-11T16:52:32Z</time>
      </trkpt>
      <trkpt lat="46.20846" lon="6.71219">
        <ele>1050</ele>
        <time>2019-06-11T16:52:38Z</time>
      </trkpt>
      <trkpt lat="46.20844" lon="6.7121">
        <ele>1049</ele>
        <time>2019-06-11T16:52:39Z</time>
      </trkpt>
      <trkpt lat="46.20796" lon="6.71154">
        <ele>1033</ele>
        <time>2019-06-11T16:52:50Z</time>
      </trkpt>
      <trkpt lat="46.20785" lon="6.71139">
        <ele>1031</ele>
        <time>2019-06-11T16:52:53Z</time>
      </trkpt>
      <trkpt lat="46.20753" lon="6.71082">
        <ele>1026</ele>
        <time>2019-06-11T16:53:02Z</time>
      </trkpt>
      <trkpt lat="46.20747" lon="6.71077">
        <ele>1025</ele>
        <time>2019-06-11T16:53:03Z</time>
      </trkpt>
      <trkpt lat="46.20745" lon="6.71078">
        <ele>1024</ele>
        <time>2019-06-11T16:53:03Z</time>
      </trkpt>
      <trkpt lat="46.20744" lon="6.71082">
        <ele>1023</ele>
        <time>2019-06-11T16:53:04Z</time>
      </trkpt>
      <trkpt lat="46.2075" lon="6.71126">
        <ele>1019</ele>
        <time>2019-06-11T16:53:09Z</time>
      </trkpt>
      <trkpt lat="46.20748" lon="6.71149">
        <ele>1016</ele>
        <time>2019-06-11T16:53:12Z</time>
      </trkpt>
      <trkpt lat="46.20745" lon="6.71164">
        <ele>1013</ele>
        <time>2019-06-11T16:53:14Z</time>
      </trkpt>
      <trkpt lat="46.20732" lon="6.712">
        <ele>1013</ele>
        <time>2019-06-11T16:53:19Z</time>
      </trkpt>
      <trkpt lat="46.20723" lon="6.71214">
        <ele>1012</ele>
        <time>2019-06-11T16:53:21Z</time>
      </trkpt>
      <trkpt lat="46.20715" lon="6.7122">
        <ele>1011</ele>
        <time>2019-06-11T16:53:23Z</time>
      </trkpt>
      <trkpt lat="46.20705" lon="6.71219">
        <ele>1009</ele>
        <time>2019-06-11T16:53:25Z</time>
      </trkpt>
      <trkpt lat="46.20693" lon="6.7121">
        <ele>1006</ele>
        <time>2019-06-11T16:53:27Z</time>
      </trkpt>
      <trkpt lat="46.20675" lon="6.71164">
        <ele>999</ele>
        <time>2019-06-11T16:53:34Z</time>
      </trkpt>
      <trkpt lat="46.20671" lon="6.71149">
        <ele>997</ele>
        <time>2019-06-11T16:53:36Z</time>
      </trkpt>
      <trkpt lat="46.2066" lon="6.71079">
        <ele>994</ele>
        <time>2019-06-11T16:53:45Z</time>
      </trkpt>
      <trkpt lat="46.20648" lon="6.71029">
        <ele>997</ele>
        <time>2019-06-11T16:53:51Z</time>
      </trkpt>
      <trkpt lat="46.20641" lon="6.71011">
        <ele>996</ele>
        <time>2019-06-11T16:53:54Z</time>
      </trkpt>
      <trkpt lat="46.2057" lon="6.7086">
        <ele>993</ele>
        <time>2019-06-11T16:54:16Z</time>
      </trkpt>
      <trkpt lat="46.20548" lon="6.70808">
        <ele>991</ele>
        <time>2019-06-11T16:54:24Z</time>
      </trkpt>
      <trkpt lat="46.20544" lon="6.70792">
        <ele>991</ele>
        <time>2019-06-11T16:54:26Z</time>
      </trkpt>
      <trkpt lat="46.20537" lon="6.70724">
        <ele>991</ele>
        <time>2019-06-11T16:54:34Z</time>
      </trkpt>
      <trkpt lat="46.20529" lon="6.70595">
        <ele>992</ele>
        <time>2019-06-11T16:54:50Z</time>
      </trkpt>
      <trkpt lat="46.20531" lon="6.7057">
        <ele>992</ele>
        <time>2019-06-11T16:54:53Z</time>
      </trkpt>
      <trkpt lat="46.20536" lon="6.70526">
        <ele>992</ele>
        <time>2019-06-11T16:54:59Z</time>
      </trkpt>
      <trkpt lat="46.20536" lon="6.70505">
        <ele>991</ele>
        <time>2019-06-11T16:55:01Z</time>
      </trkpt>
      <trkpt lat="46.20531" lon="6.70482">
        <ele>991</ele>
        <time>2019-06-11T16:55:04Z</time>
      </trkpt>
      <trkpt lat="46.2049" lon="6.70383">
        <ele>987</ele>
        <time>2019-06-11T16:55:18Z</time>
      </trkpt>
      <trkpt lat="46.20484" lon="6.70356">
        <ele>987</ele>
        <time>2019-06-11T16:55:22Z</time>
      </trkpt>
      <trkpt lat="46.2046" lon="6.70188">
        <ele>989</ele>
        <time>2019-06-11T16:55:43Z</time>
      </trkpt>
      <trkpt lat="46.20452" lon="6.70168">
        <ele>987</ele>
        <time>2019-06-11T16:55:46Z</time>
      </trkpt>
      <trkpt lat="46.20445" lon="6.70156">
        <ele>985</ele>
        <time>2019-06-11T16:55:48Z</time>
      </trkpt>
      <trkpt lat="46.20433" lon="6.70142">
        <ele>981</ele>
        <time>2019-06-11T16:55:51Z</time>
      </trkpt>
      <trkpt lat="46.20418" lon="6.70116">
        <ele>977</ele>
        <time>2019-06-11T16:55:55Z</time>
      </trkpt>
      <trkpt lat="46.20409" lon="6.70094">
        <ele>976</ele>
        <time>2019-06-11T16:55:58Z</time>
      </trkpt>
      <trkpt lat="46.20389" lon="6.70037">
        <ele>972</ele>
        <time>2019-06-11T16:56:06Z</time>
      </trkpt>
      <trkpt lat="46.20378" lon="6.69945">
        <ele>973</ele>
        <time>2019-06-11T16:56:17Z</time>
      </trkpt>
      <trkpt lat="46.20357" lon="6.69817">
        <ele>972</ele>
        <time>2019-06-11T16:56:33Z</time>
      </trkpt>
      <trkpt lat="46.20353" lon="6.69771">
        <ele>973</ele>
        <time>2019-06-11T16:56:39Z</time>
      </trkpt>
      <trkpt lat="46.20349" lon="6.69756">
        <ele>972</ele>
        <time>2019-06-11T16:56:41Z</time>
      </trkpt>
      <trkpt lat="46.20316" lon="6.69658">
        <ele>961</ele>
        <time>2019-06-11T16:56:55Z</time>
      </trkpt>
      <trkpt lat="46.20306" lon="6.69636">
        <ele>959</ele>
        <time>2019-06-11T16:56:58Z</time>
      </trkpt>
      <trkpt lat="46.20276" lon="6.69592">
        <ele>952</ele>
        <time>2019-06-11T16:57:05Z</time>
      </trkpt>
      <trkpt lat="46.2026" lon="6.69572">
        <ele>949</ele>
        <time>2019-06-11T16:57:09Z</time>
      </trkpt>
      <trkpt lat="46.20255" lon="6.69563">
        <ele>948</ele>
        <time>2019-06-11T16:57:11Z</time>
      </trkpt>
      <trkpt lat="46.20243" lon="6.69529">
        <ele>944</ele>
        <time>2019-06-11T16:57:15Z</time>
      </trkpt>
      <trkpt lat="46.2024" lon="6.695">
        <ele>942</ele>
        <time>2019-06-11T16:57:19Z</time>
      </trkpt>
      <trkpt lat="46.20247" lon="6.69444">
        <ele>945</ele>
        <time>2019-06-11T16:57:26Z</time>
      </trkpt>
      <trkpt lat="46.20248" lon="6.6941">
        <ele>946</ele>
        <time>2019-06-11T16:57:30Z</time>
      </trkpt>
      <trkpt lat="46.20244" lon="6.69373">
        <ele>946</ele>
        <time>2019-06-11T16:57:35Z</time>
      </trkpt>
      <trkpt lat="46.20233" lon="6.69334">
        <ele>946</ele>
        <time>2019-06-11T16:57:40Z</time>
      </trkpt>
      <trkpt lat="46.20192" lon="6.69223">
        <ele>942</ele>
        <time>2019-06-11T16:57:55Z</time>
      </trkpt>
      <trkpt lat="46.20184" lon="6.6919">
        <ele>942</ele>
        <time>2019-06-11T16:58:00Z</time>
      </trkpt>
      <trkpt lat="46.20141" lon="6.68937">
        <ele>925</ele>
        <time>2019-06-11T16:58:32Z</time>
      </trkpt>
      <trkpt lat="46.20141" lon="6.68918">
        <ele>925</ele>
        <time>2019-06-11T16:58:34Z</time>
      </trkpt>
      <trkpt lat="46.20142" lon="6.689">
        <ele>924</ele>
        <time>2019-06-11T16:58:36Z</time>
      </trkpt>
      <trkpt lat="46.20156" lon="6.68788">
        <ele>919</ele>
        <time>2019-06-11T16:58:50Z</time>
      </trkpt>
      <trkpt lat="46.20155" lon="6.68598">
        <ele>904</ele>
        <time>2019-06-11T16:59:14Z</time>
      </trkpt>
      <trkpt lat="46.20157" lon="6.68577">
        <ele>903</ele>
        <time>2019-06-11T16:59:16Z</time>
      </trkpt>
      <trkpt lat="46.20164" lon="6.68533">
        <ele>902</ele>
        <time>2019-06-11T16:59:22Z</time>
      </trkpt>
      <trkpt lat="46.20166" lon="6.68506">
        <ele>900</ele>
        <time>2019-06-11T16:59:25Z</time>
      </trkpt>
      <trkpt lat="46.20164" lon="6.68488">
        <ele>899</ele>
        <time>2019-06-11T16:59:28Z</time>
      </trkpt>
      <trkpt lat="46.20159" lon="6.68462">
        <ele>898</ele>
        <time>2019-06-11T16:59:31Z</time>
      </trkpt>
      <trkpt lat="46.20152" lon="6.68444">
        <ele>897</ele>
        <time>2019-06-11T16:59:33Z</time>
      </trkpt>
      <trkpt lat="46.20138" lon="6.68428">
        <ele>896</ele>
        <time>2019-06-11T16:59:37Z</time>
      </trkpt>
      <trkpt lat="46.20184" lon="6.68359">
        <ele>893</ele>
        <time>2019-06-11T16:59:48Z</time>
      </trkpt>
      <trkpt lat="46.20196" lon="6.68335">
        <ele>892</ele>
        <time>2019-06-11T16:59:52Z</time>
      </trkpt>
      <trkpt lat="46.20198" lon="6.68335">
        <ele>892</ele>
        <time>2019-06-11T16:59:52Z</time>
      </trkpt>
      <trkpt lat="46.20202" lon="6.68332">
        <ele>893</ele>
        <time>2019-06-11T16:59:53Z</time>
      </trkpt>
      <trkpt lat="46.20203" lon="6.68328">
        <ele>893</ele>
        <time>2019-06-11T16:59:54Z</time>
      </trkpt>
      <trkpt lat="46.20202" lon="6.68322">
        <ele>892</ele>
        <time>2019-06-11T16:59:54Z</time>
      </trkpt>
      <trkpt lat="46.20197" lon="6.68318">
        <ele>892</ele>
        <time>2019-06-11T16:59:55Z</time>
      </trkpt>
      <trkpt lat="46.20192" lon="6.68324">
        <ele>892</ele>
        <time>2019-06-11T16:59:57Z</time>
      </trkpt>
      <trkpt lat="46.20188" lon="6.68321">
        <ele>891</ele>
        <time>2019-06-11T16:59:57Z</time>
      </trkpt>
      <trkpt lat="46.20138" lon="6.68303">
        <ele>891</ele>
        <time>2019-06-11T17:00:07Z</time>
      </trkpt>
      <trkpt lat="46.19618" lon="6.68124">
        <ele>922</ele>
        <time>2019-06-11T17:01:42Z</time>
      </trkpt>
      <trkpt lat="46.19606" lon="6.68116">
        <ele>921</ele>
        <time>2019-06-11T17:01:44Z</time>
      </trkpt>
      <trkpt lat="46.1959" lon="6.68101">
        <ele>919</ele>
        <time>2019-06-11T17:01:47Z</time>
      </trkpt>
      <trkpt lat="46.19549" lon="6.68038">
        <ele>924</ele>
        <time>2019-06-11T17:01:58Z</time>
      </trkpt>
      <trkpt lat="46.19541" lon="6.68033">
        <ele>925</ele>
        <time>2019-06-11T17:02:00Z</time>
      </trkpt>
      <trkpt lat="46.19528" lon="6.68035">
        <ele>928</ele>
        <time>2019-06-11T17:02:02Z</time>
      </trkpt>
      <trkpt lat="46.19519" lon="6.68045">
        <ele>930</ele>
        <time>2019-06-11T17:02:04Z</time>
      </trkpt>
      <trkpt lat="46.19515" lon="6.68057">
        <ele>932</ele>
        <time>2019-06-11T17:02:06Z</time>
      </trkpt>
      <trkpt lat="46.19515" lon="6.6807">
        <ele>933</ele>
        <time>2019-06-11T17:02:07Z</time>
      </trkpt>
      <trkpt lat="46.19521" lon="6.68088">
        <ele>934</ele>
        <time>2019-06-11T17:02:10Z</time>
      </trkpt>
      <trkpt lat="46.19528" lon="6.68101">
        <ele>934</ele>
        <time>2019-06-11T17:02:12Z</time>
      </trkpt>
      <trkpt lat="46.19538" lon="6.68114">
        <ele>933</ele>
        <time>2019-06-11T17:02:14Z</time>
      </trkpt>
      <trkpt lat="46.19658" lon="6.6821">
        <ele>933</ele>
        <time>2019-06-11T17:02:39Z</time>
      </trkpt>
      <trkpt lat="46.1967" lon="6.6822">
        <ele>934</ele>
        <time>2019-06-11T17:02:41Z</time>
      </trkpt>
      <trkpt lat="46.19679" lon="6.68236">
        <ele>935</ele>
        <time>2019-06-11T17:02:44Z</time>
      </trkpt>
      <trkpt lat="46.19682" lon="6.68248">
        <ele>936</ele>
        <time>2019-06-11T17:02:45Z</time>
      </trkpt>
      <trkpt lat="46.19682" lon="6.68263">
        <ele>937</ele>
        <time>2019-06-11T17:02:47Z</time>
      </trkpt>
      <trkpt lat="46.19681" lon="6.68279">
        <ele>938</ele>
        <time>2019-06-11T17:02:49Z</time>
      </trkpt>
      <trkpt lat="46.19674" lon="6.68299">
        <ele>939</ele>
        <time>2019-06-11T17:02:52Z</time>
      </trkpt>
      <trkpt lat="46.19663" lon="6.68317">
        <ele>940</ele>
        <time>2019-06-11T17:02:55Z</time>
      </trkpt>
      <trkpt lat="46.19555" lon="6.68441">
        <ele>947</ele>
        <time>2019-06-11T17:03:19Z</time>
      </trkpt>
      <trkpt lat="46.19541" lon="6.68464">
        <ele>948</ele>
        <time>2019-06-11T17:03:23Z</time>
      </trkpt>
      <trkpt lat="46.19529" lon="6.68494">
        <ele>949</ele>
        <time>2019-06-11T17:03:27Z</time>
      </trkpt>
      <trkpt lat="46.19484" lon="6.68637">
        <ele>950</ele>
        <time>2019-06-11T17:03:47Z</time>
      </trkpt>
      <trkpt lat="46.19481" lon="6.68659">
        <ele>949</ele>
        <time>2019-06-11T17:03:49Z</time>
      </trkpt>
      <trkpt lat="46.19482" lon="6.68667">
        <ele>949</ele>
        <time>2019-06-11T17:03:50Z</time>
      </trkpt>
      <trkpt lat="46.19471" lon="6.68671">
        <ele>950</ele>
        <time>2019-06-11T17:03:52Z</time>
      </trkpt>
      <trkpt lat="46.19466" lon="6.68679">
        <ele>951</ele>
        <time>2019-06-11T17:03:54Z</time>
      </trkpt>
      <trkpt lat="46.19465" lon="6.68691">
        <ele>951</ele>
        <time>2019-06-11T17:03:55Z</time>
      </trkpt>
      <trkpt lat="46.19469" lon="6.68704">
        <ele>950</ele>
        <time>2019-06-11T17:03:57Z</time>
      </trkpt>
      <trkpt lat="46.19465" lon="6.68708">
        <ele>951</ele>
        <time>2019-06-11T17:03:58Z</time>
      </trkpt>
      <trkpt lat="46.1946" lon="6.68722">
        <ele>951</ele>
        <time>2019-06-11T17:04:00Z</time>
      </trkpt>
      <trkpt lat="46.19455" lon="6.68754">
        <ele>952</ele>
        <time>2019-06-11T17:04:04Z</time>
      </trkpt>
      <trkpt lat="46.1945" lon="6.68772">
        <ele>952</ele>
        <time>2019-06-11T17:04:06Z</time>
      </trkpt>
      <trkpt lat="46.19441" lon="6.68793">
        <ele>953</ele>
        <time>2019-06-11T17:04:09Z</time>
      </trkpt>
      <trkpt lat="46.19421" lon="6.68816">
        <ele>954</ele>
        <time>2019-06-11T17:04:14Z</time>
      </trkpt>
      <trkpt lat="46.19349" lon="6.68874">
        <ele>958</ele>
        <time>2019-06-11T17:04:28Z</time>
      </trkpt>
      <trkpt lat="46.19263" lon="6.68927">
        <ele>963</ele>
        <time>2019-06-11T17:04:45Z</time>
      </trkpt>
      <trkpt lat="46.19254" lon="6.6893">
        <ele>963</ele>
        <time>2019-06-11T17:04:47Z</time>
      </trkpt>
      <trkpt lat="46.1925" lon="6.6893">
        <ele>964</ele>
        <time>2019-06-11T17:04:47Z</time>
      </trkpt>
      <trkpt lat="46.19241" lon="6.68924">
        <ele>966</ele>
        <time>2019-06-11T17:04:49Z</time>
      </trkpt>
      <trkpt lat="46.19237" lon="6.68913">
        <ele>968</ele>
        <time>2019-06-11T17:04:51Z</time>
      </trkpt>
      <trkpt lat="46.19236" lon="6.68905">
        <ele>969</ele>
        <time>2019-06-11T17:04:52Z</time>
      </trkpt>
      <trkpt lat="46.19237" lon="6.68893">
        <ele>970</ele>
        <time>2019-06-11T17:04:53Z</time>
      </trkpt>
      <trkpt lat="46.19244" lon="6.68883">
        <ele>971</ele>
        <time>2019-06-11T17:04:55Z</time>
      </trkpt>
      <trkpt lat="46.19296" lon="6.68846">
        <ele>968</ele>
        <time>2019-06-11T17:05:05Z</time>
      </trkpt>
      <trkpt lat="46.19362" lon="6.6878">
        <ele>965</ele>
        <time>2019-06-11T17:05:20Z</time>
      </trkpt>
      <trkpt lat="46.1937" lon="6.68767">
        <ele>965</ele>
        <time>2019-06-11T17:05:22Z</time>
      </trkpt>
      <trkpt lat="46.19375" lon="6.68755">
        <ele>965</ele>
        <time>2019-06-11T17:05:23Z</time>
      </trkpt>
      <trkpt lat="46.19383" lon="6.68716">
        <ele>964</ele>
        <time>2019-06-11T17:05:28Z</time>
      </trkpt>
      <trkpt lat="46.19383" lon="6.68683">
        <ele>964</ele>
        <time>2019-06-11T17:05:32Z</time>
      </trkpt>
      <trkpt lat="46.19369" lon="6.68616">
        <ele>970</ele>
        <time>2019-06-11T17:05:41Z</time>
      </trkpt>
      <trkpt lat="46.19358" lon="6.68573">
        <ele>973</ele>
        <time>2019-06-11T17:05:47Z</time>
      </trkpt>
      <trkpt lat="46.19351" lon="6.68558">
        <ele>973</ele>
        <time>2019-06-11T17:05:49Z</time>
      </trkpt>
      <trkpt lat="46.1934" lon="6.68544">
        <ele>974</ele>
        <time>2019-06-11T17:05:52Z</time>
      </trkpt>
      <trkpt lat="46.19317" lon="6.68533">
        <ele>976</ele>
        <time>2019-06-11T17:05:56Z</time>
      </trkpt>
      <trkpt lat="46.19316" lon="6.68516">
        <ele>976</ele>
        <time>2019-06-11T17:05:58Z</time>
      </trkpt>
      <trkpt lat="46.19313" lon="6.68499">
        <ele>976</ele>
        <time>2019-06-11T17:06:00Z</time>
      </trkpt>
      <trkpt lat="46.19298" lon="6.68462">
        <ele>978</ele>
        <time>2019-06-11T17:06:05Z</time>
      </trkpt>
      <trkpt lat="46.19272" lon="6.68363">
        <ele>980</ele>
        <time>2019-06-11T17:06:18Z</time>
      </trkpt>
      <trkpt lat="46.19242" lon="6.68291">
        <ele>979</ele>
        <time>2019-06-11T17:06:29Z</time>
      </trkpt>
      <trkpt lat="46.19238" lon="6.68267">
        <ele>979</ele>
        <time>2019-06-11T17:06:32Z</time>
      </trkpt>
      <trkpt lat="46.19239" lon="6.6824">
        <ele>977</ele>
        <time>2019-06-11T17:06:35Z</time>
      </trkpt>
      <trkpt lat="46.19246" lon="6.68214">
        <ele>975</ele>
        <time>2019-06-11T17:06:39Z</time>
      </trkpt>
      <trkpt lat="46.19255" lon="6.68196">
        <ele>973</ele>
        <time>2019-06-11T17:06:41Z</time>
      </trkpt>
      <trkpt lat="46.19271" lon="6.68169">
        <ele>970</ele>
        <time>2019-06-11T17:06:46Z</time>
      </trkpt>
      <trkpt lat="46.19289" lon="6.68133">
        <ele>966</ele>
        <time>2019-06-11T17:06:51Z</time>
      </trkpt>
      <trkpt lat="46.19291" lon="6.68117">
        <ele>964</ele>
        <time>2019-06-11T17:06:53Z</time>
      </trkpt>
      <trkpt lat="46.19288" lon="6.681">
        <ele>962</ele>
        <time>2019-06-11T17:06:55Z</time>
      </trkpt>
      <trkpt lat="46.19279" lon="6.68087">
        <ele>961</ele>
        <time>2019-06-11T17:06:58Z</time>
      </trkpt>
      <trkpt lat="46.19271" lon="6.68082">
        <ele>961</ele>
        <time>2019-06-11T17:06:59Z</time>
      </trkpt>
      <trkpt lat="46.1924" lon="6.68072">
        <ele>961</ele>
        <time>2019-06-11T17:07:05Z</time>
      </trkpt>
      <trkpt lat="46.19215" lon="6.68061">
        <ele>961</ele>
        <time>2019-06-11T17:07:09Z</time>
      </trkpt>
      <trkpt lat="46.19168" lon="6.68033">
        <ele>957</ele>
        <time>2019-06-11T17:07:19Z</time>
      </trkpt>
      <trkpt lat="46.19159" lon="6.68031">
        <ele>956</ele>
        <time>2019-06-11T17:07:20Z</time>
      </trkpt>
      <trkpt lat="46.19149" lon="6.68034">
        <ele>956</ele>
        <time>2019-06-11T17:07:22Z</time>
      </trkpt>
      <trkpt lat="46.1912" lon="6.68053">
        <ele>958</ele>
        <time>2019-06-11T17:07:28Z</time>
      </trkpt>
      <trkpt lat="46.19116" lon="6.68054">
        <ele>958</ele>
        <time>2019-06-11T17:07:28Z</time>
      </trkpt>
      <trkpt lat="46.19109" lon="6.68049">
        <ele>956</ele>
        <time>2019-06-11T17:07:30Z</time>
      </trkpt>
      <trkpt lat="46.19104" lon="6.6804">
        <ele>953</ele>
        <time>2019-06-11T17:07:31Z</time>
      </trkpt>
      <trkpt lat="46.19105" lon="6.68034">
        <ele>952</ele>
        <time>2019-06-11T17:07:32Z</time>
      </trkpt>
      <trkpt lat="46.19113" lon="6.67996">
        <ele>945</ele>
        <time>2019-06-11T17:07:37Z</time>
      </trkpt>
      <trkpt lat="46.19116" lon="6.67969">
        <ele>944</ele>
        <time>2019-06-11T17:07:40Z</time>
      </trkpt>
      <trkpt lat="46.19116" lon="6.67922">
        <ele>943</ele>
        <time>2019-06-11T17:07:46Z</time>
      </trkpt>
      <trkpt lat="46.19117" lon="6.67915">
        <ele>943</ele>
        <time>2019-06-11T17:07:47Z</time>
      </trkpt>
      <trkpt lat="46.19123" lon="6.67904">
        <ele>945</ele>
        <time>2019-06-11T17:07:49Z</time>
      </trkpt>
      <trkpt lat="46.19131" lon="6.67897">
        <ele>947</ele>
        <time>2019-06-11T17:07:50Z</time>
      </trkpt>
      <trkpt lat="46.19165" lon="6.67899">
        <ele>946</ele>
        <time>2019-06-11T17:07:56Z</time>
      </trkpt>
      <trkpt lat="46.19194" lon="6.67887">
        <ele>947</ele>
        <time>2019-06-11T17:08:02Z</time>
      </trkpt>
      <trkpt lat="46.19224" lon="6.67884">
        <ele>947</ele>
        <time>2019-06-11T17:08:07Z</time>
      </trkpt>
      <trkpt lat="46.19241" lon="6.6788">
        <ele>947</ele>
        <time>2019-06-11T17:08:10Z</time>
      </trkpt>
      <trkpt lat="46.19288" lon="6.67856">
        <ele>947</ele>
        <time>2019-06-11T17:08:19Z</time>
      </trkpt>
      <trkpt lat="46.19348" lon="6.67822">
        <ele>946</ele>
        <time>2019-06-11T17:08:30Z</time>
      </trkpt>
      <trkpt lat="46.19382" lon="6.67801">
        <ele>946</ele>
        <time>2019-06-11T17:08:37Z</time>
      </trkpt>
      <trkpt lat="46.19407" lon="6.67781">
        <ele>945</ele>
        <time>2019-06-11T17:08:42Z</time>
      </trkpt>
      <trkpt lat="46.19454" lon="6.67731">
        <ele>946</ele>
        <time>2019-06-11T17:08:52Z</time>
      </trkpt>
      <trkpt lat="46.1948" lon="6.677">
        <ele>947</ele>
        <time>2019-06-11T17:08:58Z</time>
      </trkpt>
      <trkpt lat="46.195" lon="6.67631">
        <ele>952</ele>
        <time>2019-06-11T17:09:08Z</time>
      </trkpt>
      <trkpt lat="46.19501" lon="6.67619">
        <ele>953</ele>
        <time>2019-06-11T17:09:09Z</time>
      </trkpt>
      <trkpt lat="46.19499" lon="6.67607">
        <ele>955</ele>
        <time>2019-06-11T17:09:11Z</time>
      </trkpt>
      <trkpt lat="46.19494" lon="6.67598">
        <ele>956</ele>
        <time>2019-06-11T17:09:12Z</time>
      </trkpt>
      <trkpt lat="46.19486" lon="6.67593">
        <ele>958</ele>
        <time>2019-06-11T17:09:14Z</time>
      </trkpt>
      <trkpt lat="46.19449" lon="6.67594">
        <ele>965</ele>
        <time>2019-06-11T17:09:20Z</time>
      </trkpt>
      <trkpt lat="46.19422" lon="6.676">
        <ele>968</ele>
        <time>2019-06-11T17:09:25Z</time>
      </trkpt>
      <trkpt lat="46.19386" lon="6.67614">
        <ele>971</ele>
        <time>2019-06-11T17:09:32Z</time>
      </trkpt>
      <trkpt lat="46.19335" lon="6.67623">
        <ele>978</ele>
        <time>2019-06-11T17:09:41Z</time>
      </trkpt>
      <trkpt lat="46.19241" lon="6.67651">
        <ele>989</ele>
        <time>2019-06-11T17:09:58Z</time>
      </trkpt>
      <trkpt lat="46.19229" lon="6.67653">
        <ele>989</ele>
        <time>2019-06-11T17:10:00Z</time>
      </trkpt>
      <trkpt lat="46.19151" lon="6.67646">
        <ele>997</ele>
        <time>2019-06-11T17:10:14Z</time>
      </trkpt>
      <trkpt lat="46.19135" lon="6.6765">
        <ele>998</ele>
        <time>2019-06-11T17:10:17Z</time>
      </trkpt>
      <trkpt lat="46.19107" lon="6.67672">
        <ele>998</ele>
        <time>2019-06-11T17:10:23Z</time>
      </trkpt>
      <trkpt lat="46.19103" lon="6.67673">
        <ele>998</ele>
        <time>2019-06-11T17:10:23Z</time>
      </trkpt>
      <trkpt lat="46.19094" lon="6.67673">
        <ele>999</ele>
        <time>2019-06-11T17:10:25Z</time>
      </trkpt>
      <trkpt lat="46.19085" lon="6.67664">
        <ele>1002</ele>
        <time>2019-06-11T17:10:27Z</time>
      </trkpt>
      <trkpt lat="46.19083" lon="6.67659">
        <ele>1004</ele>
        <time>2019-06-11T17:10:28Z</time>
      </trkpt>
      <trkpt lat="46.19082" lon="6.67643">
        <ele>1008</ele>
        <time>2019-06-11T17:10:30Z</time>
      </trkpt>
      <trkpt lat="46.19085" lon="6.67634">
        <ele>1009</ele>
        <time>2019-06-11T17:10:31Z</time>
      </trkpt>
      <trkpt lat="46.19097" lon="6.67616">
        <ele>1011</ele>
        <time>2019-06-11T17:10:34Z</time>
      </trkpt>
      <trkpt lat="46.19117" lon="6.67595">
        <ele>1013</ele>
        <time>2019-06-11T17:10:38Z</time>
      </trkpt>
      <trkpt lat="46.19136" lon="6.67581">
        <ele>1013</ele>
        <time>2019-06-11T17:10:42Z</time>
      </trkpt>
      <trkpt lat="46.19153" lon="6.67573">
        <ele>1013</ele>
        <time>2019-06-11T17:10:45Z</time>
      </trkpt>
      <trkpt lat="46.19207" lon="6.67557">
        <ele>1016</ele>
        <time>2019-06-11T17:10:55Z</time>
      </trkpt>
      <trkpt lat="46.1921" lon="6.67554">
        <ele>1017</ele>
        <time>2019-06-11T17:10:56Z</time>
      </trkpt>
      <trkpt lat="46.19214" lon="6.67544">
        <ele>1020</ele>
        <time>2019-06-11T17:10:57Z</time>
      </trkpt>
      <trkpt lat="46.19212" lon="6.67534">
        <ele>1024</ele>
        <time>2019-06-11T17:10:58Z</time>
      </trkpt>
      <trkpt lat="46.19209" lon="6.67531">
        <ele>1025</ele>
        <time>2019-06-11T17:10:59Z</time>
      </trkpt>
      <trkpt lat="46.19199" lon="6.67527">
        <ele>1027</ele>
        <time>2019-06-11T17:11:01Z</time>
      </trkpt>
      <trkpt lat="46.19149" lon="6.67529">
        <ele>1030</ele>
        <time>2019-06-11T17:11:10Z</time>
      </trkpt>
      <trkpt lat="46.19127" lon="6.67534">
        <ele>1031</ele>
        <time>2019-06-11T17:11:14Z</time>
      </trkpt>
      <trkpt lat="46.19086" lon="6.67529">
        <ele>1037</ele>
        <time>2019-06-11T17:11:21Z</time>
      </trkpt>
      <trkpt lat="46.19057" lon="6.67531">
        <ele>1039</ele>
        <time>2019-06-11T17:11:26Z</time>
      </trkpt>
      <trkpt lat="46.18975" lon="6.67493">
        <ele>1051</ele>
        <time>2019-06-11T17:11:42Z</time>
      </trkpt>
      <trkpt lat="46.18883" lon="6.67478">
        <ele>1056</ele>
        <time>2019-06-11T17:11:58Z</time>
      </trkpt>
      <trkpt lat="46.18876" lon="6.67472">
        <ele>1056</ele>
        <time>2019-06-11T17:11:59Z</time>
      </trkpt>
      <trkpt lat="46.18871" lon="6.67462">
        <ele>1058</ele>
        <time>2019-06-11T17:12:01Z</time>
      </trkpt>
      <trkpt lat="46.1887" lon="6.67449">
        <ele>1059</ele>
        <time>2019-06-11T17:12:03Z</time>
      </trkpt>
      <trkpt lat="46.18873" lon="6.67439">
        <ele>1061</ele>
        <time>2019-06-11T17:12:04Z</time>
      </trkpt>
      <trkpt lat="46.1888" lon="6.67431">
        <ele>1063</ele>
        <time>2019-06-11T17:12:06Z</time>
      </trkpt>
      <trkpt lat="46.18884" lon="6.67429">
        <ele>1063</ele>
        <time>2019-06-11T17:12:06Z</time>
      </trkpt>
      <trkpt lat="46.1895" lon="6.6742">
        <ele>1065</ele>
        <time>2019-06-11T17:12:18Z</time>
      </trkpt>
      <trkpt lat="46.1901" lon="6.67398">
        <ele>1068</ele>
        <time>2019-06-11T17:12:29Z</time>
      </trkpt>
      <trkpt lat="46.19058" lon="6.67376">
        <ele>1075</ele>
        <time>2019-06-11T17:12:38Z</time>
      </trkpt>
      <trkpt lat="46.19097" lon="6.67364">
        <ele>1081</ele>
        <time>2019-06-11T17:12:45Z</time>
      </trkpt>
      <trkpt lat="46.191" lon="6.67356">
        <ele>1084</ele>
        <time>2019-06-11T17:12:46Z</time>
      </trkpt>
      <trkpt lat="46.19099" lon="6.67351">
        <ele>1086</ele>
        <time>2019-06-11T17:12:47Z</time>
      </trkpt>
      <trkpt lat="46.19095" lon="6.67345">
        <ele>1087</ele>
        <time>2019-06-11T17:12:48Z</time>
      </trkpt>
      <trkpt lat="46.19063" lon="6.67337">
        <ele>1085</ele>
        <time>2019-06-11T17:12:54Z</time>
      </trkpt>
      <trkpt lat="46.19052" lon="6.6733">
        <ele>1086</ele>
        <time>2019-06-11T17:12:56Z</time>
      </trkpt>
      <trkpt lat="46.19012" lon="6.67297">
        <ele>1091</ele>
        <time>2019-06-11T17:13:04Z</time>
      </trkpt>
      <trkpt lat="46.1898" lon="6.67275">
        <ele>1095</ele>
        <time>2019-06-11T17:13:10Z</time>
      </trkpt>
      <trkpt lat="46.18916" lon="6.67251">
        <ele>1096</ele>
        <time>2019-06-11T17:13:22Z</time>
      </trkpt>
      <trkpt lat="46.18896" lon="6.67236">
        <ele>1099</ele>
        <time>2019-06-11T17:13:26Z</time>
      </trkpt>
      <trkpt lat="46.18878" lon="6.67217">
        <ele>1103</ele>
        <time>2019-06-11T17:13:30Z</time>
      </trkpt>
      <trkpt lat="46.18849" lon="6.67179">
        <ele>1110</ele>
        <time>2019-06-11T17:13:37Z</time>
      </trkpt>
      <trkpt lat="46.1883" lon="6.67164">
        <ele>1113</ele>
        <time>2019-06-11T17:13:41Z</time>
      </trkpt>
      <trkpt lat="46.18806" lon="6.67153">
        <ele>1112</ele>
        <time>2019-06-11T17:13:45Z</time>
      </trkpt>
      <trkpt lat="46.18779" lon="6.67135">
        <ele>1113</ele>
        <time>2019-06-11T17:13:51Z</time>
      </trkpt>
      <trkpt lat="46.18752" lon="6.67113">
        <ele>1114</ele>
        <time>2019-06-11T17:13:56Z</time>
      </trkpt>
      <trkpt lat="46.18743" lon="6.67098">
        <ele>1115</ele>
        <time>2019-06-11T17:13:59Z</time>
      </trkpt>
      <trkpt lat="46.18742" lon="6.67081">
        <ele>1118</ele>
        <time>2019-06-11T17:14:01Z</time>
      </trkpt>
      <trkpt lat="46.18747" lon="6.67073">
        <ele>1121</ele>
        <time>2019-06-11T17:14:02Z</time>
      </trkpt>
      <trkpt lat="46.18755" lon="6.67071">
        <ele>1122</ele>
        <time>2019-06-11T17:14:04Z</time>
      </trkpt>
      <trkpt lat="46.18781" lon="6.67074">
        <ele>1124</ele>
        <time>2019-06-11T17:14:08Z</time>
      </trkpt>
      <trkpt lat="46.18859" lon="6.67072">
        <ele>1129</ele>
        <time>2019-06-11T17:14:22Z</time>
      </trkpt>
      <trkpt lat="46.18875" lon="6.67069">
        <ele>1131</ele>
        <time>2019-06-11T17:14:25Z</time>
      </trkpt>
      <trkpt lat="46.18911" lon="6.6705">
        <ele>1138</ele>
        <time>2019-06-11T17:14:32Z</time>
      </trkpt>
      <trkpt lat="46.1893" lon="6.67046">
        <ele>1143</ele>
        <time>2019-06-11T17:14:35Z</time>
      </trkpt>
      <trkpt lat="46.1895" lon="6.67047">
        <ele>1147</ele>
        <time>2019-06-11T17:14:39Z</time>
      </trkpt>
      <trkpt lat="46.18959" lon="6.67051">
        <ele>1148</ele>
        <time>2019-06-11T17:14:40Z</time>
      </trkpt>
      <trkpt lat="46.18972" lon="6.67061">
        <ele>1148</ele>
        <time>2019-06-11T17:14:43Z</time>
      </trkpt>
      <trkpt lat="46.18979" lon="6.67063">
        <ele>1149</ele>
        <time>2019-06-11T17:14:44Z</time>
      </trkpt>
      <trkpt lat="46.18984" lon="6.67057">
        <ele>1152</ele>
        <time>2019-06-11T17:14:45Z</time>
      </trkpt>
      <trkpt lat="46.18985" lon="6.67047">
        <ele>1155</ele>
        <time>2019-06-11T17:14:47Z</time>
      </trkpt>
      <trkpt lat="46.18978" lon="6.67038">
        <ele>1156</ele>
        <time>2019-06-11T17:14:48Z</time>
      </trkpt>
      <trkpt lat="46.18962" lon="6.67027">
        <ele>1155</ele>
        <time>2019-06-11T17:14:52Z</time>
      </trkpt>
      <trkpt lat="46.18926" lon="6.67005">
        <ele>1153</ele>
        <time>2019-06-11T17:14:58Z</time>
      </trkpt>
      <trkpt lat="46.18887" lon="6.66987">
        <ele>1151</ele>
        <time>2019-06-11T17:15:06Z</time>
      </trkpt>
      <trkpt lat="46.18878" lon="6.6698">
        <ele>1152</ele>
        <time>2019-06-11T17:15:08Z</time>
      </trkpt>
      <trkpt lat="46.18865" lon="6.6696">
        <ele>1155</ele>
        <time>2019-06-11T17:15:11Z</time>
      </trkpt>
      <trkpt lat="46.18843" lon="6.66902">
        <ele>1167</ele>
        <time>2019-06-11T17:15:19Z</time>
      </trkpt>
      <trkpt lat="46.18835" lon="6.66888">
        <ele>1168</ele>
        <time>2019-06-11T17:15:21Z</time>
      </trkpt>
      <trkpt lat="46.18796" lon="6.66845">
        <ele>1171</ele>
        <time>2019-06-11T17:15:30Z</time>
      </trkpt>
      <trkpt lat="46.18778" lon="6.6683">
        <ele>1172</ele>
        <time>2019-06-11T17:15:34Z</time>
      </trkpt>
      <trkpt lat="46.18771" lon="6.6682">
        <ele>1171</ele>
        <time>2019-06-11T17:15:36Z</time>
      </trkpt>
      <trkpt lat="46.18765" lon="6.66805">
        <ele>1172</ele>
        <time>2019-06-11T17:15:38Z</time>
      </trkpt>
      <trkpt lat="46.18758" lon="6.6677">
        <ele>1172</ele>
        <time>2019-06-11T17:15:42Z</time>
      </trkpt>
      <trkpt lat="46.18755" lon="6.66726">
        <ele>1176</ele>
        <time>2019-06-11T17:15:48Z</time>
      </trkpt>
      <trkpt lat="46.18751" lon="6.66713">
        <ele>1177</ele>
        <time>2019-06-11T17:15:49Z</time>
      </trkpt>
      <trkpt lat="46.18745" lon="6.66702">
        <ele>1177</ele>
        <time>2019-06-11T17:15:51Z</time>
      </trkpt>
      <trkpt lat="46.18719" lon="6.66666">
        <ele>1179</ele>
        <time>2019-06-11T17:15:57Z</time>
      </trkpt>
      <trkpt lat="46.18701" lon="6.6663">
        <ele>1184</ele>
        <time>2019-06-11T17:16:03Z</time>
      </trkpt>
      <trkpt lat="46.18674" lon="6.66567">
        <ele>1192</ele>
        <time>2019-06-11T17:16:12Z</time>
      </trkpt>
      <trkpt lat="46.18636" lon="6.66494">
        <ele>1197</ele>
        <time>2019-06-11T17:16:23Z</time>
      </trkpt>
      <trkpt lat="46.18595" lon="6.66421">
        <ele>1203</ele>
        <time>2019-06-11T17:16:35Z</time>
      </trkpt>
      <trkpt lat="46.18526" lon="6.66302">
        <ele>1209</ele>
        <time>2019-06-11T17:16:54Z</time>
      </trkpt>
      <trkpt lat="46.18516" lon="6.66278">
        <ele>1209</ele>
        <time>2019-06-11T17:16:57Z</time>
      </trkpt>
      <trkpt lat="46.1851" lon="6.66244">
        <ele>1211</ele>
        <time>2019-06-11T17:17:02Z</time>
      </trkpt>
      <trkpt lat="46.18501" lon="6.66122">
        <ele>1229</ele>
        <time>2019-06-11T17:17:17Z</time>
      </trkpt>
      <trkpt lat="46.18495" lon="6.66083">
        <ele>1235</ele>
        <time>2019-06-11T17:17:22Z</time>
      </trkpt>
      <trkpt lat="46.18485" lon="6.66043">
        <ele>1236</ele>
        <time>2019-06-11T17:17:27Z</time>
      </trkpt>
      <trkpt lat="46.1845" lon="6.65948">
        <ele>1235</ele>
        <time>2019-06-11T17:17:40Z</time>
      </trkpt>
      <trkpt lat="46.18442" lon="6.65916">
        <ele>1237</ele>
        <time>2019-06-11T17:17:45Z</time>
      </trkpt>
      <trkpt lat="46.18431" lon="6.65852">
        <ele>1242</ele>
        <time>2019-06-11T17:17:53Z</time>
      </trkpt>
      <trkpt lat="46.18427" lon="6.65802">
        <ele>1246</ele>
        <time>2019-06-11T17:17:59Z</time>
      </trkpt>
      <trkpt lat="46.18426" lon="6.65652">
        <ele>1260</ele>
        <time>2019-06-11T17:18:17Z</time>
      </trkpt>
      <trkpt lat="46.18423" lon="6.65633">
        <ele>1261</ele>
        <time>2019-06-11T17:18:20Z</time>
      </trkpt>
      <trkpt lat="46.18409" lon="6.65563">
        <ele>1262</ele>
        <time>2019-06-11T17:18:29Z</time>
      </trkpt>
      <trkpt lat="46.18408" lon="6.65537">
        <ele>1264</ele>
        <time>2019-06-11T17:18:32Z</time>
      </trkpt>
      <trkpt lat="46.18417" lon="6.65383">
        <ele>1275</ele>
        <time>2019-06-11T17:18:51Z</time>
      </trkpt>
      <trkpt lat="46.18416" lon="6.6535">
        <ele>1278</ele>
        <time>2019-06-11T17:18:55Z</time>
      </trkpt>
      <trkpt lat="46.18412" lon="6.65313">
        <ele>1281</ele>
        <time>2019-06-11T17:19:00Z</time>
      </trkpt>
      <trkpt lat="46.18406" lon="6.65276">
        <ele>1283</ele>
        <time>2019-06-11T17:19:04Z</time>
      </trkpt>
      <trkpt lat="46.18393" lon="6.65209">
        <ele>1287</ele>
        <time>2019-06-11T17:19:13Z</time>
      </trkpt>
      <trkpt lat="46.18369" lon="6.65099">
        <ele>1289</ele>
        <time>2019-06-11T17:19:27Z</time>
      </trkpt>
      <trkpt lat="46.18357" lon="6.6503">
        <ele>1286</ele>
        <time>2019-06-11T17:19:36Z</time>
      </trkpt>
      <trkpt lat="46.18356" lon="6.64992">
        <ele>1287</ele>
        <time>2019-06-11T17:19:41Z</time>
      </trkpt>
      <trkpt lat="46.18362" lon="6.64936">
        <ele>1290</ele>
        <time>2019-06-11T17:19:48Z</time>
      </trkpt>
      <trkpt lat="46.18378" lon="6.64867">
        <ele>1293</ele>
        <time>2019-06-11T17:19:56Z</time>
      </trkpt>
      <trkpt lat="46.18387" lon="6.64844">
        <ele>1296</ele>
        <time>2019-06-11T17:20:00Z</time>
      </trkpt>
      <trkpt lat="46.18446" lon="6.64732">
        <ele>1304</ele>
        <time>2019-06-11T17:20:17Z</time>
      </trkpt>
      <trkpt lat="46.18461" lon="6.64674">
        <ele>1299</ele>
        <time>2019-06-11T17:20:25Z</time>
      </trkpt>
      <trkpt lat="46.18481" lon="6.64524">
        <ele>1298</ele>
        <time>2019-06-11T17:20:44Z</time>
      </trkpt>
      <trkpt lat="46.18479" lon="6.64508">
        <ele>1297</ele>
        <time>2019-06-11T17:20:46Z</time>
      </trkpt>
      <trkpt lat="46.18457" lon="6.64441">
        <ele>1302</ele>
        <time>2019-06-11T17:20:55Z</time>
      </trkpt>
      <trkpt lat="46.18453" lon="6.64431">
        <ele>1303</ele>
        <time>2019-06-11T17:20:56Z</time>
      </trkpt>
      <trkpt lat="46.1845" lon="6.64428">
        <ele>1303</ele>
        <time>2019-06-11T17:20:57Z</time>
      </trkpt>
      <trkpt lat="46.18443" lon="6.64427">
        <ele>1303</ele>
        <time>2019-06-11T17:20:58Z</time>
      </trkpt>
      <trkpt lat="46.1844" lon="6.64429">
        <ele>1302</ele>
        <time>2019-06-11T17:20:59Z</time>
      </trkpt>
      <trkpt lat="46.18415" lon="6.64469">
        <ele>1293</ele>
        <time>2019-06-11T17:21:05Z</time>
      </trkpt>
      <trkpt lat="46.18406" lon="6.64494">
        <ele>1290</ele>
        <time>2019-06-11T17:21:09Z</time>
      </trkpt>
      <trkpt lat="46.18396" lon="6.64509">
        <ele>1290</ele>
        <time>2019-06-11T17:21:11Z</time>
      </trkpt>
      <trkpt lat="46.18359" lon="6.6453">
        <ele>1294</ele>
        <time>2019-06-11T17:21:18Z</time>
      </trkpt>
      <trkpt lat="46.18312" lon="6.64531">
        <ele>1306</ele>
        <time>2019-06-11T17:21:27Z</time>
      </trkpt>
      <trkpt lat="46.18303" lon="6.64533">
        <ele>1308</ele>
        <time>2019-06-11T17:21:28Z</time>
      </trkpt>
      <trkpt lat="46.18294" lon="6.6454">
        <ele>1308</ele>
        <time>2019-06-11T17:21:30Z</time>
      </trkpt>
      <trkpt lat="46.18273" lon="6.64581">
        <ele>1299</ele>
        <time>2019-06-11T17:21:36Z</time>
      </trkpt>
      <trkpt lat="46.18269" lon="6.64585">
        <ele>1298</ele>
        <time>2019-06-11T17:21:37Z</time>
      </trkpt>
      <trkpt lat="46.1826" lon="6.64588">
        <ele>1299</ele>
        <time>2019-06-11T17:21:39Z</time>
      </trkpt>
      <trkpt lat="46.1822" lon="6.64575">
        <ele>1309</ele>
        <time>2019-06-11T17:21:46Z</time>
      </trkpt>
      <trkpt lat="46.18204" lon="6.64575">
        <ele>1311</ele>
        <time>2019-06-11T17:21:49Z</time>
      </trkpt>
      <trkpt lat="46.18188" lon="6.64581">
        <ele>1310</ele>
        <time>2019-06-11T17:21:52Z</time>
      </trkpt>
      <trkpt lat="46.18158" lon="6.64606">
        <ele>1305</ele>
        <time>2019-06-11T17:21:58Z</time>
      </trkpt>
      <trkpt lat="46.18148" lon="6.64607">
        <ele>1304</ele>
        <time>2019-06-11T17:22:00Z</time>
      </trkpt>
      <trkpt lat="46.18137" lon="6.64604">
        <ele>1305</ele>
        <time>2019-06-11T17:22:02Z</time>
      </trkpt>
      <trkpt lat="46.18091" lon="6.64575">
        <ele>1313</ele>
        <time>2019-06-11T17:22:11Z</time>
      </trkpt>
      <trkpt lat="46.18076" lon="6.64559">
        <ele>1317</ele>
        <time>2019-06-11T17:22:14Z</time>
      </trkpt>
      <trkpt lat="46.18036" lon="6.64495">
        <ele>1329</ele>
        <time>2019-06-11T17:22:25Z</time>
      </trkpt>
      <trkpt lat="46.18024" lon="6.64478">
        <ele>1331</ele>
        <time>2019-06-11T17:22:28Z</time>
      </trkpt>
      <trkpt lat="46.18006" lon="6.64463">
        <ele>1331</ele>
        <time>2019-06-11T17:22:31Z</time>
      </trkpt>
      <trkpt lat="46.17995" lon="6.64448">
        <ele>1332</ele>
        <time>2019-06-11T17:22:34Z</time>
      </trkpt>
      <trkpt lat="46.17976" lon="6.64432">
        <ele>1331</ele>
        <time>2019-06-11T17:22:38Z</time>
      </trkpt>
      <trkpt lat="46.17969" lon="6.6442">
        <ele>1332</ele>
        <time>2019-06-11T17:22:40Z</time>
      </trkpt>
      <trkpt lat="46.17954" lon="6.64375">
        <ele>1337</ele>
        <time>2019-06-11T17:22:46Z</time>
      </trkpt>
      <trkpt lat="46.1791" lon="6.64299">
        <ele>1340</ele>
        <time>2019-06-11T17:22:58Z</time>
      </trkpt>
      <trkpt lat="46.17868" lon="6.64234">
        <ele>1342</ele>
        <time>2019-06-11T17:23:09Z</time>
      </trkpt>
      <trkpt lat="46.17865" lon="6.64221">
        <ele>1345</ele>
        <time>2019-06-11T17:23:11Z</time>
      </trkpt>
      <trkpt lat="46.17863" lon="6.64187">
        <ele>1354</ele>
        <time>2019-06-11T17:23:15Z</time>
      </trkpt>
      <trkpt lat="46.17861" lon="6.64174">
        <ele>1357</ele>
        <time>2019-06-11T17:23:17Z</time>
      </trkpt>
      <trkpt lat="46.17842" lon="6.64134">
        <ele>1360</ele>
        <time>2019-06-11T17:23:23Z</time>
      </trkpt>
      <trkpt lat="46.17799" lon="6.6404">
        <ele>1370</ele>
        <time>2019-06-11T17:23:37Z</time>
      </trkpt>
      <trkpt lat="46.17755" lon="6.63958">
        <ele>1376</ele>
        <time>2019-06-11T17:23:49Z</time>
      </trkpt>
      <trkpt lat="46.17742" lon="6.6394">
        <ele>1376</ele>
        <time>2019-06-11T17:23:53Z</time>
      </trkpt>
      <trkpt lat="46.17682" lon="6.63868">
        <ele>1381</ele>
        <time>2019-06-11T17:24:07Z</time>
      </trkpt>
      <trkpt lat="46.17646" lon="6.63797">
        <ele>1393</ele>
        <time>2019-06-11T17:24:17Z</time>
      </trkpt>
      <trkpt lat="46.17603" lon="6.63747">
        <ele>1400</ele>
        <time>2019-06-11T17:24:27Z</time>
      </trkpt>
      <trkpt lat="46.17579" lon="6.63706">
        <ele>1409</ele>
        <time>2019-06-11T17:24:34Z</time>
      </trkpt>
      <trkpt lat="46.17544" lon="6.63665">
        <ele>1417</ele>
        <time>2019-06-11T17:24:42Z</time>
      </trkpt>
      <trkpt lat="46.17516" lon="6.63655">
        <ele>1415</ele>
        <time>2019-06-11T17:24:47Z</time>
      </trkpt>
      <trkpt lat="46.17475" lon="6.6363">
        <ele>1418</ele>
        <time>2019-06-11T17:24:55Z</time>
      </trkpt>
      <trkpt lat="46.1746" lon="6.63619">
        <ele>1420</ele>
        <time>2019-06-11T17:24:58Z</time>
      </trkpt>
      <trkpt lat="46.17448" lon="6.63606">
        <ele>1422</ele>
        <time>2019-06-11T17:25:01Z</time>
      </trkpt>
      <trkpt lat="46.17352" lon="6.63445">
        <ele>1439</ele>
        <time>2019-06-11T17:25:27Z</time>
      </trkpt>
      <trkpt lat="46.17322" lon="6.63416">
        <ele>1437</ele>
        <time>2019-06-11T17:25:33Z</time>
      </trkpt>
      <trkpt lat="46.17305" lon="6.63388">
        <ele>1440</ele>
        <time>2019-06-11T17:25:38Z</time>
      </trkpt>
      <trkpt lat="46.17293" lon="6.63378">
        <ele>1440</ele>
        <time>2019-06-11T17:25:40Z</time>
      </trkpt>
      <trkpt lat="46.17252" lon="6.63357">
        <ele>1434</ele>
        <time>2019-06-11T17:25:48Z</time>
      </trkpt>
      <trkpt lat="46.17245" lon="6.6335">
        <ele>1433</ele>
        <time>2019-06-11T17:25:49Z</time>
      </trkpt>
      <trkpt lat="46.17226" lon="6.63318">
        <ele>1432</ele>
        <time>2019-06-11T17:25:55Z</time>
      </trkpt>
      <trkpt lat="46.17216" lon="6.63306">
        <ele>1433</ele>
        <time>2019-06-11T17:25:57Z</time>
      </trkpt>
      <trkpt lat="46.17165" lon="6.63259">
        <ele>1426</ele>
        <time>2019-06-11T17:26:08Z</time>
      </trkpt>
      <trkpt lat="46.17137" lon="6.63222">
        <ele>1430</ele>
        <time>2019-06-11T17:26:15Z</time>
      </trkpt>
      <trkpt lat="46.17105" lon="6.63186">
        <ele>1435</ele>
        <time>2019-06-11T17:26:22Z</time>
      </trkpt>
      <trkpt lat="46.17085" lon="6.6317">
        <ele>1435</ele>
        <time>2019-06-11T17:26:26Z</time>
      </trkpt>
      <trkpt lat="46.17018" lon="6.63143">
        <ele>1423</ele>
        <time>2019-06-11T17:26:38Z</time>
      </trkpt>
      <trkpt lat="46.16998" lon="6.6313">
        <ele>1421</ele>
        <time>2019-06-11T17:26:42Z</time>
      </trkpt>
      <trkpt lat="46.1696" lon="6.63117">
        <ele>1417</ele>
        <time>2019-06-11T17:26:49Z</time>
      </trkpt>
      <trkpt lat="46.16872" lon="6.63072">
        <ele>1406</ele>
        <time>2019-06-11T17:27:06Z</time>
      </trkpt>
      <trkpt lat="46.16855" lon="6.63058">
        <ele>1406</ele>
        <time>2019-06-11T17:27:09Z</time>
      </trkpt>
      <trkpt lat="46.16847" lon="6.63055">
        <ele>1404</ele>
        <time>2019-06-11T17:27:11Z</time>
      </trkpt>
      <trkpt lat="46.16835" lon="6.63046">
        <ele>1404</ele>
        <time>2019-06-11T17:27:13Z</time>
      </trkpt>
      <trkpt lat="46.16781" lon="6.63003">
        <ele>1401</ele>
        <time>2019-06-11T17:27:24Z</time>
      </trkpt>
      <trkpt lat="46.1674" lon="6.6296">
        <ele>1400</ele>
        <time>2019-06-11T17:27:33Z</time>
      </trkpt>
      <trkpt lat="46.16723" lon="6.62935">
        <ele>1400</ele>
        <time>2019-06-11T17:27:37Z</time>
      </trkpt>
      <trkpt lat="46.16702" lon="6.62883">
        <ele>1402</ele>
        <time>2019-06-11T17:27:45Z</time>
      </trkpt>
      <trkpt lat="46.16698" lon="6.62876">
        <ele>1401</ele>
        <time>2019-06-11T17:27:46Z</time>
      </trkpt>
      <trkpt lat="46.16678" lon="6.62851">
        <ele>1399</ele>
        <time>2019-06-11T17:27:51Z</time>
      </trkpt>
      <trkpt lat="46.16638" lon="6.62809">
        <ele>1394</ele>
        <time>2019-06-11T17:27:59Z</time>
      </trkpt>
      <trkpt lat="46.16579" lon="6.62701">
        <ele>1392</ele>
        <time>2019-06-11T17:28:16Z</time>
      </trkpt>
      <trkpt lat="46.16575" lon="6.62681">
        <ele>1393</ele>
        <time>2019-06-11T17:28:19Z</time>
      </trkpt>
      <trkpt lat="46.1657" lon="6.626">
        <ele>1394</ele>
        <time>2019-06-11T17:28:29Z</time>
      </trkpt>
      <trkpt lat="46.16574" lon="6.62582">
        <ele>1395</ele>
        <time>2019-06-11T17:28:31Z</time>
      </trkpt>
      <trkpt lat="46.16655" lon="6.62443">
        <ele>1392</ele>
        <time>2019-06-11T17:28:54Z</time>
      </trkpt>
      <trkpt lat="46.167" lon="6.62393">
        <ele>1389</ele>
        <time>2019-06-11T17:29:04Z</time>
      </trkpt>
      <trkpt lat="46.16777" lon="6.62343">
        <ele>1386</ele>
        <time>2019-06-11T17:29:19Z</time>
      </trkpt>
      <trkpt lat="46.16878" lon="6.62307">
        <ele>1379</ele>
        <time>2019-06-11T17:29:37Z</time>
      </trkpt>
      <trkpt lat="46.1689" lon="6.62306">
        <ele>1379</ele>
        <time>2019-06-11T17:29:39Z</time>
      </trkpt>
      <trkpt lat="46.16914" lon="6.6231">
        <ele>1382</ele>
        <time>2019-06-11T17:29:44Z</time>
      </trkpt>
      <trkpt lat="46.17008" lon="6.6228">
        <ele>1378</ele>
        <time>2019-06-11T17:30:01Z</time>
      </trkpt>
      <trkpt lat="46.1702" lon="6.62272">
        <ele>1376</ele>
        <time>2019-06-11T17:30:03Z</time>
      </trkpt>
      <trkpt lat="46.17044" lon="6.6225">
        <ele>1371</ele>
        <time>2019-06-11T17:30:08Z</time>
      </trkpt>
      <trkpt lat="46.17081" lon="6.62228">
        <ele>1369</ele>
        <time>2019-06-11T17:30:15Z</time>
      </trkpt>
      <trkpt lat="46.17137" lon="6.62186">
        <ele>1355</ele>
        <time>2019-06-11T17:30:27Z</time>
      </trkpt>
      <trkpt lat="46.17168" lon="6.62152">
        <ele>1346</ele>
        <time>2019-06-11T17:30:33Z</time>
      </trkpt>
      <trkpt lat="46.17204" lon="6.62119">
        <ele>1342</ele>
        <time>2019-06-11T17:30:41Z</time>
      </trkpt>
      <trkpt lat="46.17258" lon="6.6206">
        <ele>1339</ele>
        <time>2019-06-11T17:30:53Z</time>
      </trkpt>
      <trkpt lat="46.17288" lon="6.62034">
        <ele>1344</ele>
        <time>2019-06-11T17:30:59Z</time>
      </trkpt>
      <trkpt lat="46.17292" lon="6.62023">
        <ele>1343</ele>
        <time>2019-06-11T17:31:01Z</time>
      </trkpt>
      <trkpt lat="46.17292" lon="6.62011">
        <ele>1342</ele>
        <time>2019-06-11T17:31:02Z</time>
      </trkpt>
      <trkpt lat="46.17284" lon="6.61985">
        <ele>1339</ele>
        <time>2019-06-11T17:31:06Z</time>
      </trkpt>
      <trkpt lat="46.17282" lon="6.61971">
        <ele>1339</ele>
        <time>2019-06-11T17:31:08Z</time>
      </trkpt>
      <trkpt lat="46.17286" lon="6.61939">
        <ele>1342</ele>
        <time>2019-06-11T17:31:12Z</time>
      </trkpt>
      <trkpt lat="46.17295" lon="6.61893">
        <ele>1346</ele>
        <time>2019-06-11T17:31:18Z</time>
      </trkpt>
      <trkpt lat="46.17312" lon="6.61738">
        <ele>1348</ele>
        <time>2019-06-11T17:31:37Z</time>
      </trkpt>
      <trkpt lat="46.17318" lon="6.61716">
        <ele>1350</ele>
        <time>2019-06-11T17:31:40Z</time>
      </trkpt>
      <trkpt lat="46.17325" lon="6.61703">
        <ele>1351</ele>
        <time>2019-06-11T17:31:42Z</time>
      </trkpt>
      <trkpt lat="46.17341" lon="6.61684">
        <ele>1357</ele>
        <time>2019-06-11T17:31:45Z</time>
      </trkpt>
      <trkpt lat="46.17349" lon="6.61669">
        <ele>1359</ele>
        <time>2019-06-11T17:31:48Z</time>
      </trkpt>
      <trkpt lat="46.17373" lon="6.61611">
        <ele>1368</ele>
        <time>2019-06-11T17:31:56Z</time>
      </trkpt>
      <trkpt lat="46.17379" lon="6.61576">
        <ele>1369</ele>
        <time>2019-06-11T17:32:01Z</time>
      </trkpt>
      <trkpt lat="46.1738" lon="6.61525">
        <ele>1367</ele>
        <time>2019-06-11T17:32:07Z</time>
      </trkpt>
      <trkpt lat="46.1739" lon="6.61363">
        <ele>1362</ele>
        <time>2019-06-11T17:32:27Z</time>
      </trkpt>
      <trkpt lat="46.17389" lon="6.61343">
        <ele>1361</ele>
        <time>2019-06-11T17:32:29Z</time>
      </trkpt>
      <trkpt lat="46.17387" lon="6.61333">
        <ele>1361</ele>
        <time>2019-06-11T17:32:31Z</time>
      </trkpt>
      <trkpt lat="46.1738" lon="6.61319">
        <ele>1361</ele>
        <time>2019-06-11T17:32:33Z</time>
      </trkpt>
      <trkpt lat="46.17364" lon="6.61306">
        <ele>1361</ele>
        <time>2019-06-11T17:32:36Z</time>
      </trkpt>
      <trkpt lat="46.17348" lon="6.61299">
        <ele>1361</ele>
        <time>2019-06-11T17:32:39Z</time>
      </trkpt>
      <trkpt lat="46.17331" lon="6.61303">
        <ele>1361</ele>
        <time>2019-06-11T17:32:42Z</time>
      </trkpt>
      <trkpt lat="46.17314" lon="6.61317">
        <ele>1363</ele>
        <time>2019-06-11T17:32:46Z</time>
      </trkpt>
      <trkpt lat="46.17273" lon="6.61391">
        <ele>1361</ele>
        <time>2019-06-11T17:32:57Z</time>
      </trkpt>
      <trkpt lat="46.17255" lon="6.61433">
        <ele>1358</ele>
        <time>2019-06-11T17:33:03Z</time>
      </trkpt>
      <trkpt lat="46.17213" lon="6.61536">
        <ele>1346</ele>
        <time>2019-06-11T17:33:18Z</time>
      </trkpt>
      <trkpt lat="46.17208" lon="6.61545">
        <ele>1345</ele>
        <time>2019-06-11T17:33:19Z</time>
      </trkpt>
      <trkpt lat="46.17197" lon="6.61559">
        <ele>1343</ele>
        <time>2019-06-11T17:33:22Z</time>
      </trkpt>
      <trkpt lat="46.17182" lon="6.61571">
        <ele>1342</ele>
        <time>2019-06-11T17:33:25Z</time>
      </trkpt>
      <trkpt lat="46.17165" lon="6.61578">
        <ele>1341</ele>
        <time>2019-06-11T17:33:28Z</time>
      </trkpt>
      <trkpt lat="46.17156" lon="6.61578">
        <ele>1339</ele>
        <time>2019-06-11T17:33:30Z</time>
      </trkpt>
      <trkpt lat="46.17147" lon="6.61577">
        <ele>1337</ele>
        <time>2019-06-11T17:33:32Z</time>
      </trkpt>
      <trkpt lat="46.17129" lon="6.61571">
        <ele>1335</ele>
        <time>2019-06-11T17:33:35Z</time>
      </trkpt>
      <trkpt lat="46.17099" lon="6.61554">
        <ele>1333</ele>
        <time>2019-06-11T17:33:41Z</time>
      </trkpt>
      <trkpt lat="46.17059" lon="6.61517">
        <ele>1336</ele>
        <time>2019-06-11T17:33:49Z</time>
      </trkpt>
      <trkpt lat="46.17054" lon="6.61515">
        <ele>1335</ele>
        <time>2019-06-11T17:33:50Z</time>
      </trkpt>
      <trkpt lat="46.17047" lon="6.61515">
        <ele>1334</ele>
        <time>2019-06-11T17:33:51Z</time>
      </trkpt>
      <trkpt lat="46.17044" lon="6.61518">
        <ele>1333</ele>
        <time>2019-06-11T17:33:52Z</time>
      </trkpt>
      <trkpt lat="46.17044" lon="6.61531">
        <ele>1329</ele>
        <time>2019-06-11T17:33:53Z</time>
      </trkpt>
      <trkpt lat="46.17047" lon="6.61536">
        <ele>1328</ele>
        <time>2019-06-11T17:33:54Z</time>
      </trkpt>
      <trkpt lat="46.17063" lon="6.61555">
        <ele>1326</ele>
        <time>2019-06-11T17:33:58Z</time>
      </trkpt>
      <trkpt lat="46.17072" lon="6.61571">
        <ele>1324</ele>
        <time>2019-06-11T17:34:00Z</time>
      </trkpt>
      <trkpt lat="46.17079" lon="6.61589">
        <ele>1321</ele>
        <time>2019-06-11T17:34:03Z</time>
      </trkpt>
      <trkpt lat="46.17084" lon="6.61613">
        <ele>1317</ele>
        <time>2019-06-11T17:34:06Z</time>
      </trkpt>
      <trkpt lat="46.17087" lon="6.61622">
        <ele>1316</ele>
        <time>2019-06-11T17:34:07Z</time>
      </trkpt>
      <trkpt lat="46.17092" lon="6.61633">
        <ele>1315</ele>
        <time>2019-06-11T17:34:09Z</time>
      </trkpt>
      <trkpt lat="46.17106" lon="6.61653">
        <ele>1313</ele>
        <time>2019-06-11T17:34:12Z</time>
      </trkpt>
      <trkpt lat="46.17125" lon="6.61672">
        <ele>1313</ele>
        <time>2019-06-11T17:34:17Z</time>
      </trkpt>
      <trkpt lat="46.17137" lon="6.61678">
        <ele>1314</ele>
        <time>2019-06-11T17:34:19Z</time>
      </trkpt>
      <trkpt lat="46.17151" lon="6.61681">
        <ele>1316</ele>
        <time>2019-06-11T17:34:21Z</time>
      </trkpt>
      <trkpt lat="46.17165" lon="6.61682">
        <ele>1319</ele>
        <time>2019-06-11T17:34:24Z</time>
      </trkpt>
      <trkpt lat="46.1719" lon="6.61678">
        <ele>1322</ele>
        <time>2019-06-11T17:34:28Z</time>
      </trkpt>
      <trkpt lat="46.17196" lon="6.61682">
        <ele>1322</ele>
        <time>2019-06-11T17:34:29Z</time>
      </trkpt>
      <trkpt lat="46.172" lon="6.61693">
        <ele>1321</ele>
        <time>2019-06-11T17:34:31Z</time>
      </trkpt>
      <trkpt lat="46.17198" lon="6.61704">
        <ele>1319</ele>
        <time>2019-06-11T17:34:32Z</time>
      </trkpt>
      <trkpt lat="46.17196" lon="6.61706">
        <ele>1319</ele>
        <time>2019-06-11T17:34:33Z</time>
      </trkpt>
      <trkpt lat="46.17156" lon="6.61716">
        <ele>1310</ele>
        <time>2019-06-11T17:34:40Z</time>
      </trkpt>
      <trkpt lat="46.17124" lon="6.61739">
        <ele>1299</ele>
        <time>2019-06-11T17:34:46Z</time>
      </trkpt>
      <trkpt lat="46.17106" lon="6.61746">
        <ele>1294</ele>
        <time>2019-06-11T17:34:50Z</time>
      </trkpt>
      <trkpt lat="46.17088" lon="6.61743">
        <ele>1291</ele>
        <time>2019-06-11T17:34:53Z</time>
      </trkpt>
      <trkpt lat="46.16931" lon="6.61667">
        <ele>1281</ele>
        <time>2019-06-11T17:35:22Z</time>
      </trkpt>
      <trkpt lat="46.16909" lon="6.6166">
        <ele>1280</ele>
        <time>2019-06-11T17:35:26Z</time>
      </trkpt>
      <trkpt lat="46.16757" lon="6.61681">
        <ele>1267</ele>
        <time>2019-06-11T17:35:54Z</time>
      </trkpt>
      <trkpt lat="46.16743" lon="6.61686">
        <ele>1267</ele>
        <time>2019-06-11T17:35:56Z</time>
      </trkpt>
      <trkpt lat="46.16653" lon="6.61728">
        <ele>1257</ele>
        <time>2019-06-11T17:36:13Z</time>
      </trkpt>
      <trkpt lat="46.16561" lon="6.61773">
        <ele>1252</ele>
        <time>2019-06-11T17:36:30Z</time>
      </trkpt>
      <trkpt lat="46.16446" lon="6.61838">
        <ele>1235</ele>
        <time>2019-06-11T17:36:52Z</time>
      </trkpt>
      <trkpt lat="46.1643" lon="6.61844">
        <ele>1233</ele>
        <time>2019-06-11T17:36:55Z</time>
      </trkpt>
      <trkpt lat="46.16396" lon="6.61851">
        <ele>1232</ele>
        <time>2019-06-11T17:37:01Z</time>
      </trkpt>
      <trkpt lat="46.16378" lon="6.61857">
        <ele>1231</ele>
        <time>2019-06-11T17:37:05Z</time>
      </trkpt>
      <trkpt lat="46.16302" lon="6.61897">
        <ele>1220</ele>
        <time>2019-06-11T17:37:19Z</time>
      </trkpt>
      <trkpt lat="46.16287" lon="6.61901">
        <ele>1217</ele>
        <time>2019-06-11T17:37:22Z</time>
      </trkpt>
      <trkpt lat="46.1625" lon="6.61896">
        <ele>1212</ele>
        <time>2019-06-11T17:37:28Z</time>
      </trkpt>
      <trkpt lat="46.16206" lon="6.61885">
        <ele>1212</ele>
        <time>2019-06-11T17:37:36Z</time>
      </trkpt>
      <trkpt lat="46.16149" lon="6.61867">
        <ele>1211</ele>
        <time>2019-06-11T17:37:47Z</time>
      </trkpt>
      <trkpt lat="46.16025" lon="6.6186">
        <ele>1213</ele>
        <time>2019-06-11T17:38:09Z</time>
      </trkpt>
      <trkpt lat="46.16004" lon="6.61862">
        <ele>1213</ele>
        <time>2019-06-11T17:38:12Z</time>
      </trkpt>
      <trkpt lat="46.15979" lon="6.61857">
        <ele>1210</ele>
        <time>2019-06-11T17:38:17Z</time>
      </trkpt>
      <trkpt lat="46.15905" lon="6.61832">
        <ele>1200</ele>
        <time>2019-06-11T17:38:30Z</time>
      </trkpt>
      <trkpt lat="46.15842" lon="6.61802">
        <ele>1206</ele>
        <time>2019-06-11T17:38:42Z</time>
      </trkpt>
      <trkpt lat="46.15707" lon="6.61751">
        <ele>1201</ele>
        <time>2019-06-11T17:39:07Z</time>
      </trkpt>
      <trkpt lat="46.15688" lon="6.61748">
        <ele>1199</ele>
        <time>2019-06-11T17:39:11Z</time>
      </trkpt>
      <trkpt lat="46.15668" lon="6.61748">
        <ele>1197</ele>
        <time>2019-06-11T17:39:14Z</time>
      </trkpt>
      <trkpt lat="46.15595" lon="6.61757">
        <ele>1190</ele>
        <time>2019-06-11T17:39:27Z</time>
      </trkpt>
      <trkpt lat="46.15589" lon="6.61756">
        <ele>1190</ele>
        <time>2019-06-11T17:39:28Z</time>
      </trkpt>
      <trkpt lat="46.15567" lon="6.61747">
        <ele>1189</ele>
        <time>2019-06-11T17:39:32Z</time>
      </trkpt>
      <trkpt lat="46.15506" lon="6.6171">
        <ele>1193</ele>
        <time>2019-06-11T17:39:44Z</time>
      </trkpt>
      <trkpt lat="46.15479" lon="6.61691">
        <ele>1192</ele>
        <time>2019-06-11T17:39:49Z</time>
      </trkpt>
      <trkpt lat="46.15469" lon="6.6168">
        <ele>1191</ele>
        <time>2019-06-11T17:39:52Z</time>
      </trkpt>
      <trkpt lat="46.15448" lon="6.61653">
        <ele>1192</ele>
        <time>2019-06-11T17:39:57Z</time>
      </trkpt>
      <trkpt lat="46.15429" lon="6.61634">
        <ele>1192</ele>
        <time>2019-06-11T17:40:01Z</time>
      </trkpt>
      <trkpt lat="46.15381" lon="6.61599">
        <ele>1191</ele>
        <time>2019-06-11T17:40:10Z</time>
      </trkpt>
      <trkpt lat="46.15358" lon="6.61579">
        <ele>1188</ele>
        <time>2019-06-11T17:40:15Z</time>
      </trkpt>
      <trkpt lat="46.15338" lon="6.61556">
        <ele>1187</ele>
        <time>2019-06-11T17:40:20Z</time>
      </trkpt>
      <trkpt lat="46.153" lon="6.61505">
        <ele>1185</ele>
        <time>2019-06-11T17:40:29Z</time>
      </trkpt>
      <trkpt lat="46.15245" lon="6.61438">
        <ele>1182</ele>
        <time>2019-06-11T17:40:42Z</time>
      </trkpt>
      <trkpt lat="46.15237" lon="6.61425">
        <ele>1181</ele>
        <time>2019-06-11T17:40:44Z</time>
      </trkpt>
      <trkpt lat="46.15232" lon="6.61411">
        <ele>1180</ele>
        <time>2019-06-11T17:40:46Z</time>
      </trkpt>
      <trkpt lat="46.15196" lon="6.61285">
        <ele>1174</ele>
        <time>2019-06-11T17:41:03Z</time>
      </trkpt>
      <trkpt lat="46.15191" lon="6.61261">
        <ele>1174</ele>
        <time>2019-06-11T17:41:06Z</time>
      </trkpt>
      <trkpt lat="46.15182" lon="6.6118">
        <ele>1184</ele>
        <time>2019-06-11T17:41:16Z</time>
      </trkpt>
      <trkpt lat="46.15178" lon="6.61161">
        <ele>1186</ele>
        <time>2019-06-11T17:41:18Z</time>
      </trkpt>
      <trkpt lat="46.15173" lon="6.61149">
        <ele>1186</ele>
        <time>2019-06-11T17:41:20Z</time>
      </trkpt>
      <trkpt lat="46.1517" lon="6.61145">
        <ele>1185</ele>
        <time>2019-06-11T17:41:21Z</time>
      </trkpt>
      <trkpt lat="46.15148" lon="6.61136">
        <ele>1190</ele>
        <time>2019-06-11T17:41:25Z</time>
      </trkpt>
      <trkpt lat="46.15144" lon="6.61137">
        <ele>1190</ele>
        <time>2019-06-11T17:41:25Z</time>
      </trkpt>
      <trkpt lat="46.15139" lon="6.61146">
        <ele>1189</ele>
        <time>2019-06-11T17:41:27Z</time>
      </trkpt>
      <trkpt lat="46.15131" lon="6.61182">
        <ele>1181</ele>
        <time>2019-06-11T17:41:32Z</time>
      </trkpt>
      <trkpt lat="46.15127" lon="6.61191">
        <ele>1179</ele>
        <time>2019-06-11T17:41:33Z</time>
      </trkpt>
      <trkpt lat="46.15118" lon="6.61199">
        <ele>1179</ele>
        <time>2019-06-11T17:41:35Z</time>
      </trkpt>
      <trkpt lat="46.15086" lon="6.61206">
        <ele>1181</ele>
        <time>2019-06-11T17:41:40Z</time>
      </trkpt>
      <trkpt lat="46.15073" lon="6.61212">
        <ele>1183</ele>
        <time>2019-06-11T17:41:43Z</time>
      </trkpt>
      <trkpt lat="46.15063" lon="6.61219">
        <ele>1184</ele>
        <time>2019-06-11T17:41:45Z</time>
      </trkpt>
      <trkpt lat="46.15051" lon="6.61233">
        <ele>1183</ele>
        <time>2019-06-11T17:41:48Z</time>
      </trkpt>
      <trkpt lat="46.15035" lon="6.61268">
        <ele>1175</ele>
        <time>2019-06-11T17:41:53Z</time>
      </trkpt>
      <trkpt lat="46.15027" lon="6.61278">
        <ele>1173</ele>
        <time>2019-06-11T17:41:55Z</time>
      </trkpt>
      <trkpt lat="46.15017" lon="6.61284">
        <ele>1172</ele>
        <time>2019-06-11T17:41:57Z</time>
      </trkpt>
      <trkpt lat="46.14921" lon="6.61316">
        <ele>1168</ele>
        <time>2019-06-11T17:42:14Z</time>
      </trkpt>
      <trkpt lat="46.1486" lon="6.6133">
        <ele>1165</ele>
        <time>2019-06-11T17:42:25Z</time>
      </trkpt>
      <trkpt lat="46.1483" lon="6.6135">
        <ele>1159</ele>
        <time>2019-06-11T17:42:31Z</time>
      </trkpt>
      <trkpt lat="46.14808" lon="6.61351">
        <ele>1160</ele>
        <time>2019-06-11T17:42:35Z</time>
      </trkpt>
      <trkpt lat="46.14746" lon="6.6138">
        <ele>1152</ele>
        <time>2019-06-11T17:42:47Z</time>
      </trkpt>
      <trkpt lat="46.14692" lon="6.61418">
        <ele>1141</ele>
        <time>2019-06-11T17:42:57Z</time>
      </trkpt>
      <trkpt lat="46.14589" lon="6.61465">
        <ele>1132</ele>
        <time>2019-06-11T17:43:16Z</time>
      </trkpt>
      <trkpt lat="46.1457" lon="6.61469">
        <ele>1131</ele>
        <time>2019-06-11T17:43:20Z</time>
      </trkpt>
      <trkpt lat="46.14552" lon="6.61471">
        <ele>1131</ele>
        <time>2019-06-11T17:43:23Z</time>
      </trkpt>
      <trkpt lat="46.14492" lon="6.61466">
        <ele>1133</ele>
        <time>2019-06-11T17:43:34Z</time>
      </trkpt>
      <trkpt lat="46.14478" lon="6.61468">
        <ele>1133</ele>
        <time>2019-06-11T17:43:36Z</time>
      </trkpt>
      <trkpt lat="46.14463" lon="6.61474">
        <ele>1131</ele>
        <time>2019-06-11T17:43:39Z</time>
      </trkpt>
      <trkpt lat="46.14397" lon="6.61513">
        <ele>1115</ele>
        <time>2019-06-11T17:43:52Z</time>
      </trkpt>
      <trkpt lat="46.14386" lon="6.61517">
        <ele>1113</ele>
        <time>2019-06-11T17:43:54Z</time>
      </trkpt>
      <trkpt lat="46.14376" lon="6.61517">
        <ele>1112</ele>
        <time>2019-06-11T17:43:55Z</time>
      </trkpt>
      <trkpt lat="46.14355" lon="6.61503">
        <ele>1117</ele>
        <time>2019-06-11T17:44:00Z</time>
      </trkpt>
      <trkpt lat="46.14345" lon="6.61501">
        <ele>1118</ele>
        <time>2019-06-11T17:44:01Z</time>
      </trkpt>
      <trkpt lat="46.14304" lon="6.61516">
        <ele>1112</ele>
        <time>2019-06-11T17:44:09Z</time>
      </trkpt>
      <trkpt lat="46.14256" lon="6.61525">
        <ele>1112</ele>
        <time>2019-06-11T17:44:18Z</time>
      </trkpt>
      <trkpt lat="46.14203" lon="6.61541">
        <ele>1107</ele>
        <time>2019-06-11T17:44:27Z</time>
      </trkpt>
      <trkpt lat="46.14176" lon="6.61552">
        <ele>1103</ele>
        <time>2019-06-11T17:44:32Z</time>
      </trkpt>
      <trkpt lat="46.14127" lon="6.61579">
        <ele>1100</ele>
        <time>2019-06-11T17:44:42Z</time>
      </trkpt>
      <trkpt lat="46.14115" lon="6.6159">
        <ele>1098</ele>
        <time>2019-06-11T17:44:44Z</time>
      </trkpt>
      <trkpt lat="46.1408" lon="6.61645">
        <ele>1082</ele>
        <time>2019-06-11T17:44:53Z</time>
      </trkpt>
      <trkpt lat="46.14023" lon="6.61715">
        <ele>1081</ele>
        <time>2019-06-11T17:45:07Z</time>
      </trkpt>
      <trkpt lat="46.1393" lon="6.61836">
        <ele>1068</ele>
        <time>2019-06-11T17:45:29Z</time>
      </trkpt>
      <trkpt lat="46.13879" lon="6.61908">
        <ele>1054</ele>
        <time>2019-06-11T17:45:42Z</time>
      </trkpt>
      <trkpt lat="46.13863" lon="6.61923">
        <ele>1053</ele>
        <time>2019-06-11T17:45:45Z</time>
      </trkpt>
      <trkpt lat="46.13835" lon="6.61935">
        <ele>1057</ele>
        <time>2019-06-11T17:45:50Z</time>
      </trkpt>
      <trkpt lat="46.13826" lon="6.61943">
        <ele>1058</ele>
        <time>2019-06-11T17:45:52Z</time>
      </trkpt>
      <trkpt lat="46.13819" lon="6.61955">
        <ele>1055</ele>
        <time>2019-06-11T17:45:54Z</time>
      </trkpt>
      <trkpt lat="46.13806" lon="6.61989">
        <ele>1044</ele>
        <time>2019-06-11T17:45:59Z</time>
      </trkpt>
      <trkpt lat="46.13791" lon="6.62012">
        <ele>1040</ele>
        <time>2019-06-11T17:46:03Z</time>
      </trkpt>
      <trkpt lat="46.13771" lon="6.62057">
        <ele>1028</ele>
        <time>2019-06-11T17:46:09Z</time>
      </trkpt>
      <trkpt lat="46.13709" lon="6.6212">
        <ele>1020</ele>
        <time>2019-06-11T17:46:23Z</time>
      </trkpt>
      <trkpt lat="46.13629" lon="6.62226">
        <ele>1000</ele>
        <time>2019-06-11T17:46:42Z</time>
      </trkpt>
      <trkpt lat="46.13617" lon="6.62239">
        <ele>997</ele>
        <time>2019-06-11T17:46:45Z</time>
      </trkpt>
      <trkpt lat="46.13553" lon="6.62285">
        <ele>988</ele>
        <time>2019-06-11T17:46:57Z</time>
      </trkpt>
      <trkpt lat="46.13516" lon="6.62319">
        <ele>981</ele>
        <time>2019-06-11T17:47:05Z</time>
      </trkpt>
      <trkpt lat="46.13499" lon="6.62324">
        <ele>980</ele>
        <time>2019-06-11T17:47:08Z</time>
      </trkpt>
      <trkpt lat="46.13478" lon="6.6232">
        <ele>981</ele>
        <time>2019-06-11T17:47:12Z</time>
      </trkpt>
      <trkpt lat="46.13471" lon="6.62326">
        <ele>978</ele>
        <time>2019-06-11T17:47:14Z</time>
      </trkpt>
      <trkpt lat="46.13468" lon="6.62333">
        <ele>976</ele>
        <time>2019-06-11T17:47:15Z</time>
      </trkpt>
      <trkpt lat="46.13468" lon="6.62338">
        <ele>975</ele>
        <time>2019-06-11T17:47:15Z</time>
      </trkpt>
      <trkpt lat="46.13395" lon="6.62296">
        <ele>984</ele>
        <time>2019-06-11T17:47:29Z</time>
      </trkpt>
      <trkpt lat="46.13223" lon="6.6219">
        <ele>978</ele>
        <time>2019-06-11T17:48:02Z</time>
      </trkpt>
      <trkpt lat="46.13184" lon="6.62177">
        <ele>977</ele>
        <time>2019-06-11T17:48:10Z</time>
      </trkpt>
      <trkpt lat="46.13133" lon="6.6215">
        <ele>982</ele>
        <time>2019-06-11T17:48:19Z</time>
      </trkpt>
      <trkpt lat="46.13125" lon="6.62148">
        <ele>982</ele>
        <time>2019-06-11T17:48:21Z</time>
      </trkpt>
      <trkpt lat="46.131" lon="6.62149">
        <ele>979</ele>
        <time>2019-06-11T17:48:25Z</time>
      </trkpt>
      <trkpt lat="46.13029" lon="6.62143">
        <ele>972</ele>
        <time>2019-06-11T17:48:38Z</time>
      </trkpt>
      <trkpt lat="46.13014" lon="6.62137">
        <ele>971</ele>
        <time>2019-06-11T17:48:41Z</time>
      </trkpt>
      <trkpt lat="46.13001" lon="6.62129">
        <ele>972</ele>
        <time>2019-06-11T17:48:43Z</time>
      </trkpt>
      <trkpt lat="46.12985" lon="6.62112">
        <ele>976</ele>
        <time>2019-06-11T17:48:47Z</time>
      </trkpt>
      <trkpt lat="46.12973" lon="6.62106">
        <ele>977</ele>
        <time>2019-06-11T17:48:49Z</time>
      </trkpt>
      <trkpt lat="46.12895" lon="6.6211">
        <ele>967</ele>
        <time>2019-06-11T17:49:03Z</time>
      </trkpt>
      <trkpt lat="46.12869" lon="6.62105">
        <ele>967</ele>
        <time>2019-06-11T17:49:07Z</time>
      </trkpt>
      <trkpt lat="46.12842" lon="6.62094">
        <ele>969</ele>
        <time>2019-06-11T17:49:12Z</time>
      </trkpt>
      <trkpt lat="46.12773" lon="6.62061">
        <ele>970</ele>
        <time>2019-06-11T17:49:25Z</time>
      </trkpt>
      <trkpt lat="46.12751" lon="6.62054">
        <ele>969</ele>
        <time>2019-06-11T17:49:29Z</time>
      </trkpt>
      <trkpt lat="46.1269" lon="6.62041">
        <ele>959</ele>
        <time>2019-06-11T17:49:40Z</time>
      </trkpt>
      <trkpt lat="46.12659" lon="6.62027">
        <ele>956</ele>
        <time>2019-06-11T17:49:46Z</time>
      </trkpt>
      <trkpt lat="46.12571" lon="6.61948">
        <ele>957</ele>
        <time>2019-06-11T17:50:05Z</time>
      </trkpt>
      <trkpt lat="46.12543" lon="6.6192">
        <ele>955</ele>
        <time>2019-06-11T17:50:11Z</time>
      </trkpt>
      <trkpt lat="46.1247" lon="6.61809">
        <ele>961</ele>
        <time>2019-06-11T17:50:29Z</time>
      </trkpt>
      <trkpt lat="46.12446" lon="6.61761">
        <ele>956</ele>
        <time>2019-06-11T17:50:37Z</time>
      </trkpt>
      <trkpt lat="46.12423" lon="6.61701">
        <ele>953</ele>
        <time>2019-06-11T17:50:45Z</time>
      </trkpt>
      <trkpt lat="46.12379" lon="6.61568">
        <ele>946</ele>
        <time>2019-06-11T17:51:03Z</time>
      </trkpt>
      <trkpt lat="46.12369" lon="6.61547">
        <ele>945</ele>
        <time>2019-06-11T17:51:07Z</time>
      </trkpt>
      <trkpt lat="46.12363" lon="6.61538">
        <ele>944</ele>
        <time>2019-06-11T17:51:08Z</time>
      </trkpt>
      <trkpt lat="46.12332" lon="6.61498">
        <ele>939</ele>
        <time>2019-06-11T17:51:15Z</time>
      </trkpt>
      <trkpt lat="46.12321" lon="6.61482">
        <ele>935</ele>
        <time>2019-06-11T17:51:18Z</time>
      </trkpt>
      <trkpt lat="46.12315" lon="6.61468">
        <ele>934</ele>
        <time>2019-06-11T17:51:20Z</time>
      </trkpt>
      <trkpt lat="46.12308" lon="6.61445">
        <ele>932</ele>
        <time>2019-06-11T17:51:23Z</time>
      </trkpt>
      <trkpt lat="46.12306" lon="6.6143">
        <ele>933</ele>
        <time>2019-06-11T17:51:25Z</time>
      </trkpt>
      <trkpt lat="46.12305" lon="6.61414">
        <ele>933</ele>
        <time>2019-06-11T17:51:27Z</time>
      </trkpt>
      <trkpt lat="46.12308" lon="6.61374">
        <ele>935</ele>
        <time>2019-06-11T17:51:32Z</time>
      </trkpt>
      <trkpt lat="46.12304" lon="6.61329">
        <ele>932</ele>
        <time>2019-06-11T17:51:38Z</time>
      </trkpt>
      <trkpt lat="46.12304" lon="6.61308">
        <ele>933</ele>
        <time>2019-06-11T17:51:40Z</time>
      </trkpt>
      <trkpt lat="46.12309" lon="6.61249">
        <ele>936</ele>
        <time>2019-06-11T17:51:48Z</time>
      </trkpt>
      <trkpt lat="46.12308" lon="6.61208">
        <ele>933</ele>
        <time>2019-06-11T17:51:53Z</time>
      </trkpt>
      <trkpt lat="46.12309" lon="6.6117">
        <ele>932</ele>
        <time>2019-06-11T17:51:57Z</time>
      </trkpt>
      <trkpt lat="46.12319" lon="6.611">
        <ele>934</ele>
        <time>2019-06-11T17:52:06Z</time>
      </trkpt>
      <trkpt lat="46.12317" lon="6.6104">
        <ele>929</ele>
        <time>2019-06-11T17:52:14Z</time>
      </trkpt>
      <trkpt lat="46.12318" lon="6.61007">
        <ele>927</ele>
        <time>2019-06-11T17:52:18Z</time>
      </trkpt>
      <trkpt lat="46.12325" lon="6.60974">
        <ele>930</ele>
        <time>2019-06-11T17:52:22Z</time>
      </trkpt>
      <trkpt lat="46.12329" lon="6.60934">
        <ele>930</ele>
        <time>2019-06-11T17:52:27Z</time>
      </trkpt>
      <trkpt lat="46.12332" lon="6.60916">
        <ele>931</ele>
        <time>2019-06-11T17:52:29Z</time>
      </trkpt>
      <trkpt lat="46.12363" lon="6.60811">
        <ele>927</ele>
        <time>2019-06-11T17:52:43Z</time>
      </trkpt>
      <trkpt lat="46.12371" lon="6.60802">
        <ele>929</ele>
        <time>2019-06-11T17:52:45Z</time>
      </trkpt>
      <trkpt lat="46.12381" lon="6.60796">
        <ele>932</ele>
        <time>2019-06-11T17:52:47Z</time>
      </trkpt>
      <trkpt lat="46.12393" lon="6.60792">
        <ele>936</ele>
        <time>2019-06-11T17:52:49Z</time>
      </trkpt>
      <trkpt lat="46.12402" lon="6.60785">
        <ele>938</ele>
        <time>2019-06-11T17:52:51Z</time>
      </trkpt>
      <trkpt lat="46.12437" lon="6.60747">
        <ele>945</ele>
        <time>2019-06-11T17:52:59Z</time>
      </trkpt>
      <trkpt lat="46.12444" lon="6.60737">
        <ele>951</ele>
        <time>2019-06-11T17:53:01Z</time>
      </trkpt>
      <trkpt lat="46.12447" lon="6.60723">
        <ele>956</ele>
        <time>2019-06-11T17:53:02Z</time>
      </trkpt>
      <trkpt lat="46.12444" lon="6.60712">
        <ele>957</ele>
        <time>2019-06-11T17:53:04Z</time>
      </trkpt>
      <trkpt lat="46.12434" lon="6.60703">
        <ele>955</ele>
        <time>2019-06-11T17:53:06Z</time>
      </trkpt>
      <trkpt lat="46.12405" lon="6.60699">
        <ele>945</ele>
        <time>2019-06-11T17:53:11Z</time>
      </trkpt>
      <trkpt lat="46.12349" lon="6.60674">
        <ele>931</ele>
        <time>2019-06-11T17:53:22Z</time>
      </trkpt>
      <trkpt lat="46.12322" lon="6.60661">
        <ele>926</ele>
        <time>2019-06-11T17:53:27Z</time>
      </trkpt>
      <trkpt lat="46.12298" lon="6.60635">
        <ele>929</ele>
        <time>2019-06-11T17:53:32Z</time>
      </trkpt>
      <trkpt lat="46.12269" lon="6.60617">
        <ele>925</ele>
        <time>2019-06-11T17:53:38Z</time>
      </trkpt>
      <trkpt lat="46.12248" lon="6.60599">
        <ele>921</ele>
        <time>2019-06-11T17:53:42Z</time>
      </trkpt>
      <trkpt lat="46.12237" lon="6.60586">
        <ele>918</ele>
        <time>2019-06-11T17:53:45Z</time>
      </trkpt>
      <trkpt lat="46.12232" lon="6.60572">
        <ele>919</ele>
        <time>2019-06-11T17:53:46Z</time>
      </trkpt>
      <trkpt lat="46.1223" lon="6.60543">
        <ele>923</ele>
        <time>2019-06-11T17:53:50Z</time>
      </trkpt>
      <trkpt lat="46.12226" lon="6.60528">
        <ele>923</ele>
        <time>2019-06-11T17:53:52Z</time>
      </trkpt>
      <trkpt lat="46.12208" lon="6.60494">
        <ele>919</ele>
        <time>2019-06-11T17:53:57Z</time>
      </trkpt>
      <trkpt lat="46.122" lon="6.60483">
        <ele>917</ele>
        <time>2019-06-11T17:53:59Z</time>
      </trkpt>
      <trkpt lat="46.12194" lon="6.60467">
        <ele>916</ele>
        <time>2019-06-11T17:54:02Z</time>
      </trkpt>
      <trkpt lat="46.1218" lon="6.60422">
        <ele>914</ele>
        <time>2019-06-11T17:54:08Z</time>
      </trkpt>
      <trkpt lat="46.12149" lon="6.60375">
        <ele>902</ele>
        <time>2019-06-11T17:54:16Z</time>
      </trkpt>
      <trkpt lat="46.12126" lon="6.60322">
        <ele>897</ele>
        <time>2019-06-11T17:54:23Z</time>
      </trkpt>
      <trkpt lat="46.12111" lon="6.60271">
        <ele>901</ele>
        <time>2019-06-11T17:54:30Z</time>
      </trkpt>
      <trkpt lat="46.12108" lon="6.60254">
        <ele>905</ele>
        <time>2019-06-11T17:54:32Z</time>
      </trkpt>
      <trkpt lat="46.12108" lon="6.6023">
        <ele>911</ele>
        <time>2019-06-11T17:54:35Z</time>
      </trkpt>
      <trkpt lat="46.12103" lon="6.60215">
        <ele>911</ele>
        <time>2019-06-11T17:54:37Z</time>
      </trkpt>
      <trkpt lat="46.12046" lon="6.60133">
        <ele>886</ele>
        <time>2019-06-11T17:54:52Z</time>
      </trkpt>
      <trkpt lat="46.12036" lon="6.60111">
        <ele>882</ele>
        <time>2019-06-11T17:54:55Z</time>
      </trkpt>
      <trkpt lat="46.12031" lon="6.60092">
        <ele>882</ele>
        <time>2019-06-11T17:54:57Z</time>
      </trkpt>
      <trkpt lat="46.12032" lon="6.60051">
        <ele>894</ele>
        <time>2019-06-11T17:55:02Z</time>
      </trkpt>
      <trkpt lat="46.1203" lon="6.60035">
        <ele>897</ele>
        <time>2019-06-11T17:55:04Z</time>
      </trkpt>
      <trkpt lat="46.12024" lon="6.60022">
        <ele>897</ele>
        <time>2019-06-11T17:55:06Z</time>
      </trkpt>
      <trkpt lat="46.1202" lon="6.60016">
        <ele>897</ele>
        <time>2019-06-11T17:55:07Z</time>
      </trkpt>
      <trkpt lat="46.1201" lon="6.6001">
        <ele>893</ele>
        <time>2019-06-11T17:55:09Z</time>
      </trkpt>
      <trkpt lat="46.11996" lon="6.60004">
        <ele>886</ele>
        <time>2019-06-11T17:55:12Z</time>
      </trkpt>
      <trkpt lat="46.11981" lon="6.59994">
        <ele>881</ele>
        <time>2019-06-11T17:55:15Z</time>
      </trkpt>
      <trkpt lat="46.11932" lon="6.59941">
        <ele>867</ele>
        <time>2019-06-11T17:55:26Z</time>
      </trkpt>
      <trkpt lat="46.11916" lon="6.59914">
        <ele>865</ele>
        <time>2019-06-11T17:55:30Z</time>
      </trkpt>
      <trkpt lat="46.11892" lon="6.59881">
        <ele>862</ele>
        <time>2019-06-11T17:55:36Z</time>
      </trkpt>
      <trkpt lat="46.11852" lon="6.59814">
        <ele>859</ele>
        <time>2019-06-11T17:55:47Z</time>
      </trkpt>
      <trkpt lat="46.11842" lon="6.5979">
        <ele>858</ele>
        <time>2019-06-11T17:55:50Z</time>
      </trkpt>
      <trkpt lat="46.11827" lon="6.59764">
        <ele>855</ele>
        <time>2019-06-11T17:55:55Z</time>
      </trkpt>
      <trkpt lat="46.11808" lon="6.59716">
        <ele>856</ele>
        <time>2019-06-11T17:56:01Z</time>
      </trkpt>
      <trkpt lat="46.11803" lon="6.59708">
        <ele>855</ele>
        <time>2019-06-11T17:56:03Z</time>
      </trkpt>
      <trkpt lat="46.11793" lon="6.59699">
        <ele>851</ele>
        <time>2019-06-11T17:56:05Z</time>
      </trkpt>
      <trkpt lat="46.11772" lon="6.59688">
        <ele>840</ele>
        <time>2019-06-11T17:56:09Z</time>
      </trkpt>
      <trkpt lat="46.11768" lon="6.59683">
        <ele>838</ele>
        <time>2019-06-11T17:56:10Z</time>
      </trkpt>
      <trkpt lat="46.11766" lon="6.59676">
        <ele>838</ele>
        <time>2019-06-11T17:56:11Z</time>
      </trkpt>
      <trkpt lat="46.11761" lon="6.59653">
        <ele>837</ele>
        <time>2019-06-11T17:56:14Z</time>
      </trkpt>
      <trkpt lat="46.11752" lon="6.59631">
        <ele>833</ele>
        <time>2019-06-11T17:56:17Z</time>
      </trkpt>
      <trkpt lat="46.1175" lon="6.59621">
        <ele>833</ele>
        <time>2019-06-11T17:56:18Z</time>
      </trkpt>
      <trkpt lat="46.11749" lon="6.59603">
        <ele>835</ele>
        <time>2019-06-11T17:56:20Z</time>
      </trkpt>
      <trkpt lat="46.11751" lon="6.59562">
        <ele>844</ele>
        <time>2019-06-11T17:56:25Z</time>
      </trkpt>
      <trkpt lat="46.11748" lon="6.59547">
        <ele>847</ele>
        <time>2019-06-11T17:56:27Z</time>
      </trkpt>
      <trkpt lat="46.11744" lon="6.59541">
        <ele>848</ele>
        <time>2019-06-11T17:56:28Z</time>
      </trkpt>
      <trkpt lat="46.11731" lon="6.59529">
        <ele>847</ele>
        <time>2019-06-11T17:56:31Z</time>
      </trkpt>
      <trkpt lat="46.11721" lon="6.59529">
        <ele>844</ele>
        <time>2019-06-11T17:56:33Z</time>
      </trkpt>
      <trkpt lat="46.11704" lon="6.59536">
        <ele>836</ele>
        <time>2019-06-11T17:56:36Z</time>
      </trkpt>
      <trkpt lat="46.11692" lon="6.59533">
        <ele>833</ele>
        <time>2019-06-11T17:56:38Z</time>
      </trkpt>
      <trkpt lat="46.11671" lon="6.59515">
        <ele>834</ele>
        <time>2019-06-11T17:56:43Z</time>
      </trkpt>
      <trkpt lat="46.1166" lon="6.5951">
        <ele>832</ele>
        <time>2019-06-11T17:56:45Z</time>
      </trkpt>
      <trkpt lat="46.11592" lon="6.59514">
        <ele>814</ele>
        <time>2019-06-11T17:56:57Z</time>
      </trkpt>
      <trkpt lat="46.11579" lon="6.5951">
        <ele>811</ele>
        <time>2019-06-11T17:56:59Z</time>
      </trkpt>
      <trkpt lat="46.11567" lon="6.59503">
        <ele>809</ele>
        <time>2019-06-11T17:57:01Z</time>
      </trkpt>
      <trkpt lat="46.11558" lon="6.5949">
        <ele>808</ele>
        <time>2019-06-11T17:57:04Z</time>
      </trkpt>
      <trkpt lat="46.11551" lon="6.59473">
        <ele>807</ele>
        <time>2019-06-11T17:57:06Z</time>
      </trkpt>
      <trkpt lat="46.11528" lon="6.59389">
        <ele>804</ele>
        <time>2019-06-11T17:57:17Z</time>
      </trkpt>
      <trkpt lat="46.11485" lon="6.59243">
        <ele>797</ele>
        <time>2019-06-11T17:57:37Z</time>
      </trkpt>
      <trkpt lat="46.11467" lon="6.59194">
        <ele>794</ele>
        <time>2019-06-11T17:57:44Z</time>
      </trkpt>
      <trkpt lat="46.11446" lon="6.59152">
        <ele>790</ele>
        <time>2019-06-11T17:57:50Z</time>
      </trkpt>
      <trkpt lat="46.11433" lon="6.59134">
        <ele>786</ele>
        <time>2019-06-11T17:57:53Z</time>
      </trkpt>
      <trkpt lat="46.11428" lon="6.59118">
        <ele>785</ele>
        <time>2019-06-11T17:57:55Z</time>
      </trkpt>
      <trkpt lat="46.11426" lon="6.59103">
        <ele>785</ele>
        <time>2019-06-11T17:57:57Z</time>
      </trkpt>
      <trkpt lat="46.11433" lon="6.5907">
        <ele>789</ele>
        <time>2019-06-11T17:58:01Z</time>
      </trkpt>
      <trkpt lat="46.11435" lon="6.59054">
        <ele>791</ele>
        <time>2019-06-11T17:58:04Z</time>
      </trkpt>
      <trkpt lat="46.11434" lon="6.59038">
        <ele>790</ele>
        <time>2019-06-11T17:58:05Z</time>
      </trkpt>
      <trkpt lat="46.11428" lon="6.58996">
        <ele>789</ele>
        <time>2019-06-11T17:58:11Z</time>
      </trkpt>
      <trkpt lat="46.11411" lon="6.58954">
        <ele>787</ele>
        <time>2019-06-11T17:58:17Z</time>
      </trkpt>
      <trkpt lat="46.1141" lon="6.58919">
        <ele>792</ele>
        <time>2019-06-11T17:58:21Z</time>
      </trkpt>
      <trkpt lat="46.11408" lon="6.58914">
        <ele>791</ele>
        <time>2019-06-11T17:58:22Z</time>
      </trkpt>
      <trkpt lat="46.11372" lon="6.58871">
        <ele>781</ele>
        <time>2019-06-11T17:58:30Z</time>
      </trkpt>
      <trkpt lat="46.11363" lon="6.58846">
        <ele>780</ele>
        <time>2019-06-11T17:58:34Z</time>
      </trkpt>
      <trkpt lat="46.1136" lon="6.58828">
        <ele>781</ele>
        <time>2019-06-11T17:58:36Z</time>
      </trkpt>
      <trkpt lat="46.11352" lon="6.58805">
        <ele>779</ele>
        <time>2019-06-11T17:58:39Z</time>
      </trkpt>
      <trkpt lat="46.11328" lon="6.58762">
        <ele>773</ele>
        <time>2019-06-11T17:58:46Z</time>
      </trkpt>
      <trkpt lat="46.11325" lon="6.5875">
        <ele>773</ele>
        <time>2019-06-11T17:58:47Z</time>
      </trkpt>
      <trkpt lat="46.11323" lon="6.58726">
        <ele>774</ele>
        <time>2019-06-11T17:58:50Z</time>
      </trkpt>
      <trkpt lat="46.11326" lon="6.58644">
        <ele>778</ele>
        <time>2019-06-11T17:59:01Z</time>
      </trkpt>
      <trkpt lat="46.11323" lon="6.58626">
        <ele>777</ele>
        <time>2019-06-11T17:59:03Z</time>
      </trkpt>
      <trkpt lat="46.11313" lon="6.58578">
        <ele>774</ele>
        <time>2019-06-11T17:59:09Z</time>
      </trkpt>
      <trkpt lat="46.11287" lon="6.58421">
        <ele>762</ele>
        <time>2019-06-11T17:59:29Z</time>
      </trkpt>
      <trkpt lat="46.11287" lon="6.58374">
        <ele>761</ele>
        <time>2019-06-11T17:59:35Z</time>
      </trkpt>
      <trkpt lat="46.1128" lon="6.5832">
        <ele>758</ele>
        <time>2019-06-11T17:59:41Z</time>
      </trkpt>
      <trkpt lat="46.11277" lon="6.58305">
        <ele>758</ele>
        <time>2019-06-11T17:59:43Z</time>
      </trkpt>
      <trkpt lat="46.11272" lon="6.58291">
        <ele>756</ele>
        <time>2019-06-11T17:59:45Z</time>
      </trkpt>
      <trkpt lat="46.11248" lon="6.58246">
        <ele>753</ele>
        <time>2019-06-11T17:59:52Z</time>
      </trkpt>
      <trkpt lat="46.11243" lon="6.58231">
        <ele>752</ele>
        <time>2019-06-11T17:59:54Z</time>
      </trkpt>
      <trkpt lat="46.11239" lon="6.58206">
        <ele>753</ele>
        <time>2019-06-11T17:59:58Z</time>
      </trkpt>
      <trkpt lat="46.11232" lon="6.58196">
        <ele>751</ele>
        <time>2019-06-11T17:59:59Z</time>
      </trkpt>
      <trkpt lat="46.11227" lon="6.58194">
        <ele>749</ele>
        <time>2019-06-11T18:00:00Z</time>
      </trkpt>
      <trkpt lat="46.11223" lon="6.58195">
        <ele>748</ele>
        <time>2019-06-11T18:00:01Z</time>
      </trkpt>
      <trkpt lat="46.11217" lon="6.582">
        <ele>745</ele>
        <time>2019-06-11T18:00:02Z</time>
      </trkpt>
      <trkpt lat="46.11214" lon="6.58208">
        <ele>743</ele>
        <time>2019-06-11T18:00:03Z</time>
      </trkpt>
      <trkpt lat="46.11213" lon="6.58223">
        <ele>741</ele>
        <time>2019-06-11T18:00:05Z</time>
      </trkpt>
      <trkpt lat="46.11224" lon="6.58251">
        <ele>743</ele>
        <time>2019-06-11T18:00:09Z</time>
      </trkpt>
      <trkpt lat="46.11228" lon="6.58269">
        <ele>744</ele>
        <time>2019-06-11T18:00:11Z</time>
      </trkpt>
      <trkpt lat="46.11228" lon="6.58325">
        <ele>742</ele>
        <time>2019-06-11T18:00:18Z</time>
      </trkpt>
      <trkpt lat="46.11223" lon="6.58362">
        <ele>740</ele>
        <time>2019-06-11T18:00:23Z</time>
      </trkpt>
      <trkpt lat="46.11184" lon="6.58512">
        <ele>729</ele>
        <time>2019-06-11T18:00:43Z</time>
      </trkpt>
      <trkpt lat="46.11161" lon="6.58586">
        <ele>724</ele>
        <time>2019-06-11T18:00:53Z</time>
      </trkpt>
      <trkpt lat="46.11128" lon="6.58717">
        <ele>718</ele>
        <time>2019-06-11T18:01:10Z</time>
      </trkpt>
      <trkpt lat="46.11124" lon="6.5874">
        <ele>716</ele>
        <time>2019-06-11T18:01:13Z</time>
      </trkpt>
      <trkpt lat="46.11119" lon="6.58751">
        <ele>714</ele>
        <time>2019-06-11T18:01:15Z</time>
      </trkpt>
      <trkpt lat="46.1111" lon="6.58757">
        <ele>711</ele>
        <time>2019-06-11T18:01:16Z</time>
      </trkpt>
      <trkpt lat="46.111" lon="6.58754">
        <ele>709</ele>
        <time>2019-06-11T18:01:18Z</time>
      </trkpt>
      <trkpt lat="46.11097" lon="6.58747">
        <ele>709</ele>
        <time>2019-06-11T18:01:19Z</time>
      </trkpt>
      <trkpt lat="46.11097" lon="6.58732">
        <ele>709</ele>
        <time>2019-06-11T18:01:21Z</time>
      </trkpt>
      <trkpt lat="46.11102" lon="6.58701">
        <ele>712</ele>
        <time>2019-06-11T18:01:25Z</time>
      </trkpt>
      <trkpt lat="46.11104" lon="6.58673">
        <ele>714</ele>
        <time>2019-06-11T18:01:28Z</time>
      </trkpt>
      <trkpt lat="46.11104" lon="6.5865">
        <ele>713</ele>
        <time>2019-06-11T18:01:31Z</time>
      </trkpt>
      <trkpt lat="46.11102" lon="6.58622">
        <ele>711</ele>
        <time>2019-06-11T18:01:35Z</time>
      </trkpt>
      <trkpt lat="46.11082" lon="6.58446">
        <ele>698</ele>
        <time>2019-06-11T18:01:57Z</time>
      </trkpt>
      <trkpt lat="46.11081" lon="6.58421">
        <ele>697</ele>
        <time>2019-06-11T18:02:00Z</time>
      </trkpt>
      <trkpt lat="46.11085" lon="6.58388">
        <ele>698</ele>
        <time>2019-06-11T18:02:04Z</time>
      </trkpt>
      <trkpt lat="46.11097" lon="6.58308">
        <ele>700</ele>
        <time>2019-06-11T18:02:14Z</time>
      </trkpt>
      <trkpt lat="46.11096" lon="6.58299">
        <ele>699</ele>
        <time>2019-06-11T18:02:15Z</time>
      </trkpt>
      <trkpt lat="46.11086" lon="6.5828">
        <ele>695</ele>
        <time>2019-06-11T18:02:18Z</time>
      </trkpt>
      <trkpt lat="46.11076" lon="6.58274">
        <ele>692</ele>
        <time>2019-06-11T18:02:20Z</time>
      </trkpt>
      <trkpt lat="46.11066" lon="6.58274">
        <ele>689</ele>
        <time>2019-06-11T18:02:22Z</time>
      </trkpt>
      <trkpt lat="46.11054" lon="6.5828">
        <ele>686</ele>
        <time>2019-06-11T18:02:24Z</time>
      </trkpt>
      <trkpt lat="46.11045" lon="6.58295">
        <ele>685</ele>
        <time>2019-06-11T18:02:27Z</time>
      </trkpt>
      <trkpt lat="46.11039" lon="6.58324">
        <ele>684</ele>
        <time>2019-06-11T18:02:30Z</time>
      </trkpt>
      <trkpt lat="46.11033" lon="6.58376">
        <ele>682</ele>
        <time>2019-06-11T18:02:37Z</time>
      </trkpt>
      <trkpt lat="46.11028" lon="6.58453">
        <ele>681</ele>
        <time>2019-06-11T18:02:46Z</time>
      </trkpt>
      <trkpt lat="46.11025" lon="6.5847">
        <ele>680</ele>
        <time>2019-06-11T18:02:48Z</time>
      </trkpt>
      <trkpt lat="46.1102" lon="6.5849">
        <ele>678</ele>
        <time>2019-06-11T18:02:51Z</time>
      </trkpt>
      <trkpt lat="46.11" lon="6.58559">
        <ele>677</ele>
        <time>2019-06-11T18:03:00Z</time>
      </trkpt>
      <trkpt lat="46.10992" lon="6.58588">
        <ele>676</ele>
        <time>2019-06-11T18:03:04Z</time>
      </trkpt>
      <trkpt lat="46.10988" lon="6.58633">
        <ele>673</ele>
        <time>2019-06-11T18:03:10Z</time>
      </trkpt>
      <trkpt lat="46.10989" lon="6.58701">
        <ele>671</ele>
        <time>2019-06-11T18:03:18Z</time>
      </trkpt>
      <trkpt lat="46.10988" lon="6.58779">
        <ele>668</ele>
        <time>2019-06-11T18:03:28Z</time>
      </trkpt>
      <trkpt lat="46.10991" lon="6.58847">
        <ele>666</ele>
        <time>2019-06-11T18:03:36Z</time>
      </trkpt>
      <trkpt lat="46.10988" lon="6.58858">
        <ele>666</ele>
        <time>2019-06-11T18:03:38Z</time>
      </trkpt>
      <trkpt lat="46.10968" lon="6.58888">
        <ele>662</ele>
        <time>2019-06-11T18:03:43Z</time>
      </trkpt>
      <trkpt lat="46.10962" lon="6.58907">
        <ele>661</ele>
        <time>2019-06-11T18:03:45Z</time>
      </trkpt>
      <trkpt lat="46.10958" lon="6.58911">
        <ele>660</ele>
        <time>2019-06-11T18:03:46Z</time>
      </trkpt>
      <trkpt lat="46.1095" lon="6.58913">
        <ele>658</ele>
        <time>2019-06-11T18:03:48Z</time>
      </trkpt>
      <trkpt lat="46.10941" lon="6.58909">
        <ele>656</ele>
        <time>2019-06-11T18:03:49Z</time>
      </trkpt>
      <trkpt lat="46.10938" lon="6.58897">
        <ele>655</ele>
        <time>2019-06-11T18:03:51Z</time>
      </trkpt>
      <trkpt lat="46.10938" lon="6.58891">
        <ele>655</ele>
        <time>2019-06-11T18:03:52Z</time>
      </trkpt>
      <trkpt lat="46.1095" lon="6.58851">
        <ele>657</ele>
        <time>2019-06-11T18:03:57Z</time>
      </trkpt>
      <trkpt lat="46.10947" lon="6.58799">
        <ele>657</ele>
        <time>2019-06-11T18:04:03Z</time>
      </trkpt>
      <trkpt lat="46.10948" lon="6.58781">
        <ele>657</ele>
        <time>2019-06-11T18:04:06Z</time>
      </trkpt>
      <trkpt lat="46.10951" lon="6.58761">
        <ele>658</ele>
        <time>2019-06-11T18:04:08Z</time>
      </trkpt>
      <trkpt lat="46.10951" lon="6.58746">
        <ele>658</ele>
        <time>2019-06-11T18:04:10Z</time>
      </trkpt>
      <trkpt lat="46.10948" lon="6.5874">
        <ele>657</ele>
        <time>2019-06-11T18:04:11Z</time>
      </trkpt>
      <trkpt lat="46.10944" lon="6.58736">
        <ele>655</ele>
        <time>2019-06-11T18:04:12Z</time>
      </trkpt>
      <trkpt lat="46.10934" lon="6.58737">
        <ele>652</ele>
        <time>2019-06-11T18:04:14Z</time>
      </trkpt>
      <trkpt lat="46.1093" lon="6.58742">
        <ele>651</ele>
        <time>2019-06-11T18:04:15Z</time>
      </trkpt>
      <trkpt lat="46.10927" lon="6.58754">
        <ele>650</ele>
        <time>2019-06-11T18:04:16Z</time>
      </trkpt>
      <trkpt lat="46.1093" lon="6.58777">
        <ele>652</ele>
        <time>2019-06-11T18:04:19Z</time>
      </trkpt>
      <trkpt lat="46.10929" lon="6.58791">
        <ele>652</ele>
        <time>2019-06-11T18:04:21Z</time>
      </trkpt>
      <trkpt lat="46.10927" lon="6.58796">
        <ele>651</ele>
        <time>2019-06-11T18:04:21Z</time>
      </trkpt>
      <trkpt lat="46.10918" lon="6.58801">
        <ele>649</ele>
        <time>2019-06-11T18:04:23Z</time>
      </trkpt>
      <trkpt lat="46.1091" lon="6.58795">
        <ele>648</ele>
        <time>2019-06-11T18:04:25Z</time>
      </trkpt>
      <trkpt lat="46.10907" lon="6.5879">
        <ele>648</ele>
        <time>2019-06-11T18:04:26Z</time>
      </trkpt>
      <trkpt lat="46.10906" lon="6.58778">
        <ele>647</ele>
        <time>2019-06-11T18:04:27Z</time>
      </trkpt>
      <trkpt lat="46.10905" lon="6.58748">
        <ele>646</ele>
        <time>2019-06-11T18:04:31Z</time>
      </trkpt>
      <trkpt lat="46.10903" lon="6.5873">
        <ele>645</ele>
        <time>2019-06-11T18:04:33Z</time>
      </trkpt>
      <trkpt lat="46.10898" lon="6.58701">
        <ele>644</ele>
        <time>2019-06-11T18:04:37Z</time>
      </trkpt>
      <trkpt lat="46.1089" lon="6.5868">
        <ele>643</ele>
        <time>2019-06-11T18:04:40Z</time>
      </trkpt>
      <trkpt lat="46.10887" lon="6.58677">
        <ele>643</ele>
        <time>2019-06-11T18:04:40Z</time>
      </trkpt>
      <trkpt lat="46.10817" lon="6.58656">
        <ele>639</ele>
        <time>2019-06-11T18:04:53Z</time>
      </trkpt>
      <trkpt lat="46.10795" lon="6.59085">
        <ele>647</ele>
        <time>2019-06-11T18:05:46Z</time>
      </trkpt>
      <trkpt lat="46.10792" lon="6.59113">
        <ele>648</ele>
        <time>2019-06-11T18:05:50Z</time>
      </trkpt>
      <trkpt lat="46.10787" lon="6.59113">
        <ele>647</ele>
        <time>2019-06-11T18:05:51Z</time>
      </trkpt>
      <trkpt lat="46.10784" lon="6.59115">
        <ele>647</ele>
        <time>2019-06-11T18:05:51Z</time>
      </trkpt>
      <trkpt lat="46.10782" lon="6.59122">
        <ele>647</ele>
        <time>2019-06-11T18:05:52Z</time>
      </trkpt>
      <trkpt lat="46.10768" lon="6.59112">
        <ele>646</ele>
        <time>2019-06-11T18:05:55Z</time>
      </trkpt>
      <trkpt lat="46.1075" lon="6.59107">
        <ele>645</ele>
        <time>2019-06-11T18:05:58Z</time>
      </trkpt>
      <trkpt lat="46.10687" lon="6.59098">
        <ele>643</ele>
        <time>2019-06-11T18:06:09Z</time>
      </trkpt>
      <trkpt lat="46.10547" lon="6.59082">
        <ele>639</ele>
        <time>2019-06-11T18:06:34Z</time>
      </trkpt>
      <trkpt lat="46.10531" lon="6.59083">
        <ele>639</ele>
        <time>2019-06-11T18:06:37Z</time>
      </trkpt>
      <trkpt lat="46.10509" lon="6.59078">
        <ele>638</ele>
        <time>2019-06-11T18:06:41Z</time>
      </trkpt>
      <trkpt lat="46.10377" lon="6.59062">
        <ele>634</ele>
        <time>2019-06-11T18:07:05Z</time>
      </trkpt>
      <trkpt lat="46.09706" lon="6.58985">
        <ele>627</ele>
        <time>2019-06-11T18:09:04Z</time>
      </trkpt>
      <trkpt lat="46.09689" lon="6.58986">
        <ele>630</ele>
        <time>2019-06-11T18:09:07Z</time>
      </trkpt>
      <trkpt lat="46.09675" lon="6.58997">
        <ele>632</ele>
        <time>2019-06-11T18:09:10Z</time>
      </trkpt>
      <trkpt lat="46.09668" lon="6.59007">
        <ele>633</ele>
        <time>2019-06-11T18:09:12Z</time>
      </trkpt>
      <trkpt lat="46.09664" lon="6.59021">
        <ele>634</ele>
        <time>2019-06-11T18:09:14Z</time>
      </trkpt>
      <trkpt lat="46.09662" lon="6.59035">
        <ele>635</ele>
        <time>2019-06-11T18:09:16Z</time>
      </trkpt>
      <trkpt lat="46.09668" lon="6.59108">
        <ele>636</ele>
        <time>2019-06-11T18:09:25Z</time>
      </trkpt>
      <trkpt lat="46.09666" lon="6.5914">
        <ele>636</ele>
        <time>2019-06-11T18:09:29Z</time>
      </trkpt>
      <trkpt lat="46.09645" lon="6.59234">
        <ele>641</ele>
        <time>2019-06-11T18:09:41Z</time>
      </trkpt>
      <trkpt lat="46.09643" lon="6.59257">
        <ele>642</ele>
        <time>2019-06-11T18:09:44Z</time>
      </trkpt>
      <trkpt lat="46.09642" lon="6.59431">
        <ele>648</ele>
        <time>2019-06-11T18:10:05Z</time>
      </trkpt>
      <trkpt lat="46.09638" lon="6.5949">
        <ele>651</ele>
        <time>2019-06-11T18:10:13Z</time>
      </trkpt>
      <trkpt lat="46.09627" lon="6.59583">
        <ele>655</ele>
        <time>2019-06-11T18:10:24Z</time>
      </trkpt>
      <trkpt lat="46.09625" lon="6.5962">
        <ele>657</ele>
        <time>2019-06-11T18:10:29Z</time>
      </trkpt>
      <trkpt lat="46.09627" lon="6.59648">
        <ele>657</ele>
        <time>2019-06-11T18:10:32Z</time>
      </trkpt>
      <trkpt lat="46.09644" lon="6.59721">
        <ele>656</ele>
        <time>2019-06-11T18:10:42Z</time>
      </trkpt>
      <trkpt lat="46.09646" lon="6.5975">
        <ele>658</ele>
        <time>2019-06-11T18:10:45Z</time>
      </trkpt>
      <trkpt lat="46.09642" lon="6.59787">
        <ele>660</ele>
        <time>2019-06-11T18:10:50Z</time>
      </trkpt>
      <trkpt lat="46.09627" lon="6.59872">
        <ele>668</ele>
        <time>2019-06-11T18:11:01Z</time>
      </trkpt>
      <trkpt lat="46.09623" lon="6.59886">
        <ele>670</ele>
        <time>2019-06-11T18:11:03Z</time>
      </trkpt>
      <trkpt lat="46.09613" lon="6.59897">
        <ele>674</ele>
        <time>2019-06-11T18:11:05Z</time>
      </trkpt>
      <trkpt lat="46.09601" lon="6.59898">
        <ele>678</ele>
        <time>2019-06-11T18:11:07Z</time>
      </trkpt>
      <trkpt lat="46.09597" lon="6.59895">
        <ele>680</ele>
        <time>2019-06-11T18:11:08Z</time>
      </trkpt>
      <trkpt lat="46.0962" lon="6.59978">
        <ele>673</ele>
        <time>2019-06-11T18:11:19Z</time>
      </trkpt>
      <trkpt lat="46.09625" lon="6.60029">
        <ele>671</ele>
        <time>2019-06-11T18:11:25Z</time>
      </trkpt>
      <trkpt lat="46.09627" lon="6.6008">
        <ele>671</ele>
        <time>2019-06-11T18:11:32Z</time>
      </trkpt>
      <trkpt lat="46.09616" lon="6.6025">
        <ele>668</ele>
        <time>2019-06-11T18:11:53Z</time>
      </trkpt>
      <trkpt lat="46.09622" lon="6.60368">
        <ele>668</ele>
        <time>2019-06-11T18:12:07Z</time>
      </trkpt>
      <trkpt lat="46.09604" lon="6.60467">
        <ele>668</ele>
        <time>2019-06-11T18:12:20Z</time>
      </trkpt>
      <trkpt lat="46.09603" lon="6.60505">
        <ele>667</ele>
        <time>2019-06-11T18:12:25Z</time>
      </trkpt>
      <trkpt lat="46.09618" lon="6.60559">
        <ele>663</ele>
        <time>2019-06-11T18:12:32Z</time>
      </trkpt>
      <trkpt lat="46.0962" lon="6.60595">
        <ele>662</ele>
        <time>2019-06-11T18:12:36Z</time>
      </trkpt>
      <trkpt lat="46.09612" lon="6.60649">
        <ele>663</ele>
        <time>2019-06-11T18:12:43Z</time>
      </trkpt>
      <trkpt lat="46.09601" lon="6.60691">
        <ele>664</ele>
        <time>2019-06-11T18:12:49Z</time>
      </trkpt>
      <trkpt lat="46.09557" lon="6.60782">
        <ele>670</ele>
        <time>2019-06-11T18:13:02Z</time>
      </trkpt>
      <trkpt lat="46.09556" lon="6.60833">
        <ele>669</ele>
        <time>2019-06-11T18:13:09Z</time>
      </trkpt>
      <trkpt lat="46.09563" lon="6.60963">
        <ele>667</ele>
        <time>2019-06-11T18:13:25Z</time>
      </trkpt>
      <trkpt lat="46.0957" lon="6.61006">
        <ele>667</ele>
        <time>2019-06-11T18:13:30Z</time>
      </trkpt>
      <trkpt lat="46.09592" lon="6.6107">
        <ele>666</ele>
        <time>2019-06-11T18:13:39Z</time>
      </trkpt>
      <trkpt lat="46.09665" lon="6.61213">
        <ele>658</ele>
        <time>2019-06-11T18:14:01Z</time>
      </trkpt>
      <trkpt lat="46.09678" lon="6.61308">
        <ele>656</ele>
        <time>2019-06-11T18:14:13Z</time>
      </trkpt>
      <trkpt lat="46.0967" lon="6.61383">
        <ele>654</ele>
        <time>2019-06-11T18:14:22Z</time>
      </trkpt>
      <trkpt lat="46.09629" lon="6.61556">
        <ele>653</ele>
        <time>2019-06-11T18:14:45Z</time>
      </trkpt>
      <trkpt lat="46.09577" lon="6.61706">
        <ele>657</ele>
        <time>2019-06-11T18:15:05Z</time>
      </trkpt>
      <trkpt lat="46.09577" lon="6.61764">
        <ele>651</ele>
        <time>2019-06-11T18:15:12Z</time>
      </trkpt>
      <trkpt lat="46.09598" lon="6.61847">
        <ele>645</ele>
        <time>2019-06-11T18:15:23Z</time>
      </trkpt>
      <trkpt lat="46.09593" lon="6.61927">
        <ele>643</ele>
        <time>2019-06-11T18:15:33Z</time>
      </trkpt>
      <trkpt lat="46.09588" lon="6.61973">
        <ele>643</ele>
        <time>2019-06-11T18:15:39Z</time>
      </trkpt>
      <trkpt lat="46.09569" lon="6.62105">
        <ele>643</ele>
        <time>2019-06-11T18:15:56Z</time>
      </trkpt>
      <trkpt lat="46.09562" lon="6.6219">
        <ele>645</ele>
        <time>2019-06-11T18:16:06Z</time>
      </trkpt>
      <trkpt lat="46.09566" lon="6.62633">
        <ele>639</ele>
        <time>2019-06-11T18:17:01Z</time>
      </trkpt>
      <trkpt lat="46.09565" lon="6.62704">
        <ele>641</ele>
        <time>2019-06-11T18:17:10Z</time>
      </trkpt>
      <trkpt lat="46.0953" lon="6.62996">
        <ele>640</ele>
        <time>2019-06-11T18:17:46Z</time>
      </trkpt>
      <trkpt lat="46.09519" lon="6.63091">
        <ele>639</ele>
        <time>2019-06-11T18:17:58Z</time>
      </trkpt>
      <trkpt lat="46.09514" lon="6.63128">
        <ele>640</ele>
        <time>2019-06-11T18:18:03Z</time>
      </trkpt>
      <trkpt lat="46.09506" lon="6.63165">
        <ele>641</ele>
        <time>2019-06-11T18:18:08Z</time>
      </trkpt>
      <trkpt lat="46.09482" lon="6.63242">
        <ele>644</ele>
        <time>2019-06-11T18:18:18Z</time>
      </trkpt>
      <trkpt lat="46.09429" lon="6.63372">
        <ele>646</ele>
        <time>2019-06-11T18:18:37Z</time>
      </trkpt>
      <trkpt lat="46.09408" lon="6.63446">
        <ele>648</ele>
        <time>2019-06-11T18:18:46Z</time>
      </trkpt>
      <trkpt lat="46.09383" lon="6.63631">
        <ele>653</ele>
        <time>2019-06-11T18:19:10Z</time>
      </trkpt>
      <trkpt lat="46.09369" lon="6.63696">
        <ele>653</ele>
        <time>2019-06-11T18:19:18Z</time>
      </trkpt>
      <trkpt lat="46.09326" lon="6.63847">
        <ele>648</ele>
        <time>2019-06-11T18:19:38Z</time>
      </trkpt>
      <trkpt lat="46.09321" lon="6.63881">
        <ele>649</ele>
        <time>2019-06-11T18:19:43Z</time>
      </trkpt>
      <trkpt lat="46.09319" lon="6.63912">
        <ele>649</ele>
        <time>2019-06-11T18:19:46Z</time>
      </trkpt>
      <trkpt lat="46.09324" lon="6.64039">
        <ele>645</ele>
        <time>2019-06-11T18:20:02Z</time>
      </trkpt>
      <trkpt lat="46.09323" lon="6.64103">
        <ele>644</ele>
        <time>2019-06-11T18:20:10Z</time>
      </trkpt>
      <trkpt lat="46.09307" lon="6.64613">
        <ele>648</ele>
        <time>2019-06-11T18:21:13Z</time>
      </trkpt>
      <trkpt lat="46.09231" lon="6.64951">
        <ele>652</ele>
        <time>2019-06-11T18:21:57Z</time>
      </trkpt>
      <trkpt lat="46.09119" lon="6.65499">
        <ele>650</ele>
        <time>2019-06-11T18:23:07Z</time>
      </trkpt>
      <trkpt lat="46.09108" lon="6.65543">
        <ele>651</ele>
        <time>2019-06-11T18:23:13Z</time>
      </trkpt>
      <trkpt lat="46.09105" lon="6.65552">
        <ele>652</ele>
        <time>2019-06-11T18:23:14Z</time>
      </trkpt>
      <trkpt lat="46.09074" lon="6.65621">
        <ele>654</ele>
        <time>2019-06-11T18:23:24Z</time>
      </trkpt>
      <trkpt lat="46.0905" lon="6.65668">
        <ele>654</ele>
        <time>2019-06-11T18:23:32Z</time>
      </trkpt>
      <trkpt lat="46.09034" lon="6.65708">
        <ele>655</ele>
        <time>2019-06-11T18:23:37Z</time>
      </trkpt>
      <trkpt lat="46.0898" lon="6.65941">
        <ele>655</ele>
        <time>2019-06-11T18:24:08Z</time>
      </trkpt>
      <trkpt lat="46.08942" lon="6.66034">
        <ele>655</ele>
        <time>2019-06-11T18:24:21Z</time>
      </trkpt>
      <trkpt lat="46.08743" lon="6.66508">
        <ele>664</ele>
        <time>2019-06-11T18:25:29Z</time>
      </trkpt>
      <trkpt lat="46.08712" lon="6.66623">
        <ele>672</ele>
        <time>2019-06-11T18:25:45Z</time>
      </trkpt>
      <trkpt lat="46.08668" lon="6.66808">
        <ele>667</ele>
        <time>2019-06-11T18:26:09Z</time>
      </trkpt>
      <trkpt lat="46.08662" lon="6.66808">
        <ele>668</ele>
        <time>2019-06-11T18:26:10Z</time>
      </trkpt>
      <trkpt lat="46.08658" lon="6.66812">
        <ele>668</ele>
        <time>2019-06-11T18:26:11Z</time>
      </trkpt>
      <trkpt lat="46.08656" lon="6.6682">
        <ele>668</ele>
        <time>2019-06-11T18:26:12Z</time>
      </trkpt>
      <trkpt lat="46.08656" lon="6.66824">
        <ele>668</ele>
        <time>2019-06-11T18:26:12Z</time>
      </trkpt>
      <trkpt lat="46.08659" lon="6.66831">
        <ele>667</ele>
        <time>2019-06-11T18:26:13Z</time>
      </trkpt>
      <trkpt lat="46.08662" lon="6.66833">
        <ele>667</ele>
        <time>2019-06-11T18:26:14Z</time>
      </trkpt>
      <trkpt lat="46.08642" lon="6.66889">
        <ele>669</ele>
        <time>2019-06-11T18:26:22Z</time>
      </trkpt>
      <trkpt lat="46.08567" lon="6.67023">
        <ele>670</ele>
        <time>2019-06-11T18:26:43Z</time>
      </trkpt>
      <trkpt lat="46.08548" lon="6.67065">
        <ele>671</ele>
        <time>2019-06-11T18:26:49Z</time>
      </trkpt>
      <trkpt lat="46.08538" lon="6.67092">
        <ele>672</ele>
        <time>2019-06-11T18:26:53Z</time>
      </trkpt>
      <trkpt lat="46.08493" lon="6.67165">
        <ele>672</ele>
        <time>2019-06-11T18:27:05Z</time>
      </trkpt>
      <trkpt lat="46.08487" lon="6.67179">
        <ele>674</ele>
        <time>2019-06-11T18:27:07Z</time>
      </trkpt>
      <trkpt lat="46.08481" lon="6.672">
        <ele>675</ele>
        <time>2019-06-11T18:27:10Z</time>
      </trkpt>
      <trkpt lat="46.08474" lon="6.67243">
        <ele>675</ele>
        <time>2019-06-11T18:27:15Z</time>
      </trkpt>
      <trkpt lat="46.08463" lon="6.67284">
        <ele>676</ele>
        <time>2019-06-11T18:27:21Z</time>
      </trkpt>
      <trkpt lat="46.08455" lon="6.67311">
        <ele>676</ele>
        <time>2019-06-11T18:27:24Z</time>
      </trkpt>
      <trkpt lat="46.08435" lon="6.67353">
        <ele>678</ele>
        <time>2019-06-11T18:27:30Z</time>
      </trkpt>
      <trkpt lat="46.0843" lon="6.67372">
        <ele>678</ele>
        <time>2019-06-11T18:27:33Z</time>
      </trkpt>
      <trkpt lat="46.08425" lon="6.67434">
        <ele>681</ele>
        <time>2019-06-11T18:27:41Z</time>
      </trkpt>
      <trkpt lat="46.08407" lon="6.67501">
        <ele>686</ele>
        <time>2019-06-11T18:27:50Z</time>
      </trkpt>
      <trkpt lat="46.08397" lon="6.67534">
        <ele>687</ele>
        <time>2019-06-11T18:27:54Z</time>
      </trkpt>
      <trkpt lat="46.08383" lon="6.6757">
        <ele>687</ele>
        <time>2019-06-11T18:27:59Z</time>
      </trkpt>
      <trkpt lat="46.08351" lon="6.67643">
        <ele>687</ele>
        <time>2019-06-11T18:28:10Z</time>
      </trkpt>
      <trkpt lat="46.08328" lon="6.6772">
        <ele>686</ele>
        <time>2019-06-11T18:28:20Z</time>
      </trkpt>
      <trkpt lat="46.08308" lon="6.67751">
        <ele>686</ele>
        <time>2019-06-11T18:28:25Z</time>
      </trkpt>
      <trkpt lat="46.08245" lon="6.67892">
        <ele>684</ele>
        <time>2019-06-11T18:28:46Z</time>
      </trkpt>
      <trkpt lat="46.08212" lon="6.68008">
        <ele>684</ele>
        <time>2019-06-11T18:29:01Z</time>
      </trkpt>
      <trkpt lat="46.08191" lon="6.68062">
        <ele>686</ele>
        <time>2019-06-11T18:29:09Z</time>
      </trkpt>
      <trkpt lat="46.08168" lon="6.68152">
        <ele>687</ele>
        <time>2019-06-11T18:29:21Z</time>
      </trkpt>
      <trkpt lat="46.08165" lon="6.68185">
        <ele>687</ele>
        <time>2019-06-11T18:29:25Z</time>
      </trkpt>
      <trkpt lat="46.08163" lon="6.68227">
        <ele>687</ele>
        <time>2019-06-11T18:29:30Z</time>
      </trkpt>
      <trkpt lat="46.08155" lon="6.68305">
        <ele>689</ele>
        <time>2019-06-11T18:29:40Z</time>
      </trkpt>
      <trkpt lat="46.0814" lon="6.68395">
        <ele>692</ele>
        <time>2019-06-11T18:29:51Z</time>
      </trkpt>
      <trkpt lat="46.08134" lon="6.68476">
        <ele>694</ele>
        <time>2019-06-11T18:30:01Z</time>
      </trkpt>
      <trkpt lat="46.08136" lon="6.68498">
        <ele>694</ele>
        <time>2019-06-11T18:30:04Z</time>
      </trkpt>
      <trkpt lat="46.08163" lon="6.68693">
        <ele>694</ele>
        <time>2019-06-11T18:30:29Z</time>
      </trkpt>
      <trkpt lat="46.08177" lon="6.68803">
        <ele>693</ele>
        <time>2019-06-11T18:30:43Z</time>
      </trkpt>
      <trkpt lat="46.08179" lon="6.68846">
        <ele>694</ele>
        <time>2019-06-11T18:30:48Z</time>
      </trkpt>
      <trkpt lat="46.08172" lon="6.68979">
        <ele>703</ele>
        <time>2019-06-11T18:31:04Z</time>
      </trkpt>
      <trkpt lat="46.08165" lon="6.69035">
        <ele>704</ele>
        <time>2019-06-11T18:31:11Z</time>
      </trkpt>
      <trkpt lat="46.08148" lon="6.69132">
        <ele>702</ele>
        <time>2019-06-11T18:31:24Z</time>
      </trkpt>
      <trkpt lat="46.0814" lon="6.69168">
        <ele>701</ele>
        <time>2019-06-11T18:31:28Z</time>
      </trkpt>
      <trkpt lat="46.08109" lon="6.69288">
        <ele>695</ele>
        <time>2019-06-11T18:31:44Z</time>
      </trkpt>
      <trkpt lat="46.0805" lon="6.6954">
        <ele>685</ele>
        <time>2019-06-11T18:32:17Z</time>
      </trkpt>
      <trkpt lat="46.07982" lon="6.69814">
        <ele>687</ele>
        <time>2019-06-11T18:32:53Z</time>
      </trkpt>
      <trkpt lat="46.07741" lon="6.70858">
        <ele>708</ele>
        <time>2019-06-11T18:35:09Z</time>
      </trkpt>
      <trkpt lat="46.0772" lon="6.70983">
        <ele>719</ele>
        <time>2019-06-11T18:35:25Z</time>
      </trkpt>
      <trkpt lat="46.07649" lon="6.71453">
        <ele>718</ele>
        <time>2019-06-11T18:36:24Z</time>
      </trkpt>
      <trkpt lat="46.07596" lon="6.71789">
        <ele>734</ele>
        <time>2019-06-11T18:37:06Z</time>
      </trkpt>
      <trkpt lat="46.07594" lon="6.7182">
        <ele>730</ele>
        <time>2019-06-11T18:37:10Z</time>
      </trkpt>
      <trkpt lat="46.07598" lon="6.71835">
        <ele>727</ele>
        <time>2019-06-11T18:37:12Z</time>
      </trkpt>
      <trkpt lat="46.07601" lon="6.71841">
        <ele>725</ele>
        <time>2019-06-11T18:37:13Z</time>
      </trkpt>
      <trkpt lat="46.07644" lon="6.71882">
        <ele>707</ele>
        <time>2019-06-11T18:37:22Z</time>
      </trkpt>
      <trkpt lat="46.07678" lon="6.71923">
        <ele>698</ele>
        <time>2019-06-11T18:37:30Z</time>
      </trkpt>
      <trkpt lat="46.07676" lon="6.71938">
        <ele>698</ele>
        <time>2019-06-11T18:37:32Z</time>
      </trkpt>
      <trkpt lat="46.07668" lon="6.71962">
        <ele>699</ele>
        <time>2019-06-11T18:37:35Z</time>
      </trkpt>
      <trkpt lat="46.07663" lon="6.71985">
        <ele>700</ele>
        <time>2019-06-11T18:37:38Z</time>
      </trkpt>
      <trkpt lat="46.07663" lon="6.71998">
        <ele>700</ele>
        <time>2019-06-11T18:37:40Z</time>
      </trkpt>
      <trkpt lat="46.07665" lon="6.72013">
        <ele>700</ele>
        <time>2019-06-11T18:37:42Z</time>
      </trkpt>
      <trkpt lat="46.07785" lon="6.72442">
        <ele>700</ele>
        <time>2019-06-11T18:38:39Z</time>
      </trkpt>
      <trkpt lat="46.07797" lon="6.72476">
        <ele>701</ele>
        <time>2019-06-11T18:38:44Z</time>
      </trkpt>
      <trkpt lat="46.07809" lon="6.72494">
        <ele>702</ele>
        <time>2019-06-11T18:38:47Z</time>
      </trkpt>
      <trkpt lat="46.07863" lon="6.72539">
        <ele>703</ele>
        <time>2019-06-11T18:38:58Z</time>
      </trkpt>
      <trkpt lat="46.07837" lon="6.72605">
        <ele>704</ele>
        <time>2019-06-11T18:39:07Z</time>
      </trkpt>
    </trkseg>
  </trk>
</gpx>